
Distance (Route):
Temperature : 15.0°C
Humidity : 96.2%
Pressure : 967.2hPa| Receiver | Frames | First received | Last received |
|---|---|---|---|
| AA1-15 | 838 | 2026-09-03 22:47:48 | 2026-09-04 01:05:33 |
| KRY50SP | 317 | 2026-09-03 23:14:33 | 2026-09-04 01:18:14 |
| DL1XH-west | 310 | 2026-09-03 23:06:27 | 2026-09-04 00:45:07 |
| DL1XH-15 | 281 | 2026-09-03 23:03:03 | 2026-09-04 00:33:14 |
| DF8AY | 170 | 2026-09-03 23:37:02 | 2026-09-04 00:43:23 |
| DL1XH1-15 | 162 | 2026-09-03 23:15:31 | 2026-09-04 00:39:47 |
| DB0DAN | 158 | 2026-09-03 22:50:10 | 2026-09-04 01:07:25 |
| SP3BTT-10 | 101 | 2026-09-03 23:09:37 | 2026-09-04 01:27:08 |
| AM1SDL-15 | 83 | 2026-09-03 22:54:28 | 2026-09-04 01:03:18 |
| SP3WXH-11 | 81 | 2026-09-03 23:15:45 | 2026-09-04 01:21:57 |
| EDDB2-11 | 68 | 2026-09-03 23:12:42 | 2026-09-04 01:16:53 |
| SONDE2-11 | 65 | 2026-09-03 23:05:27 | 2026-09-04 01:13:18 |
| DJ2DS-15 | 61 | 2026-09-03 23:37:39 | 2026-09-04 00:37:45 |
| DO2SHX-10 | 36 | 2026-09-03 23:15:37 | 2026-09-04 00:30:49 |
| EDDB2-12 | 34 | 2026-09-04 00:14:35 | 2026-09-04 01:13:03 |
| DM0DOS-11 | 30 | 2026-09-04 00:11:08 | 2026-09-04 00:42:32 |
| MECKS9 | 22 | 2026-09-03 22:54:12 | 2026-09-04 00:38:38 |
| S3001 | 14 | 2026-09-03 23:11:45 | 2026-09-04 00:21:06 |
| SONCRA | 14 | 2026-09-03 23:55:58 | 2026-09-04 00:23:55 |
| DL2RXE-15 | 12 | 2026-09-03 23:54:35 | 2026-09-04 00:27:35 |
| DG6HD-11 | 10 | 2026-09-03 23:06:42 | 2026-09-03 23:17:40 |
| DL4BBY-15 | 5 | 2026-09-04 00:10:09 | 2026-09-04 00:26:24 |
| JOZKA6-1 | 1 | 2026-09-04 00:40:16 | 2026-09-04 00:40:16 |
| Receiver | Date | Latitude | Longitude | Direction | Speed | Altitude | Climb | Temperature | Humidity | Pressure | Voltage | Killtimer | Uptime | BKT | XDATA |
|---|---|---|---|---|---|---|---|---|---|---|---|---|---|---|---|
| SP3BTT-10 | 2026-09-04 01:27:08 | 53.16969 | 16.27316 | 82° | 44km/h | 411m | -4.2m/s | 15.0°C | 96.2% | 967.2hPa | 2.7V | 00:00:00 | 00:00:00 | 00:00:00 | |
| SP3BTT-10 | 2026-09-04 01:27:02 | 53.16956 | 16.27206 | 79° | 46km/h | 433m | -3.6m/s | 15.0°C | 96.1% | 964.6hPa | 2.7V | 00:00:00 | 00:00:00 | 00:00:00 | |
| SP3BTT-10 | 2026-09-04 01:26:56 | 53.16946 | 16.27090 | 84° | 49km/h | 454m | -3.7m/s | 14.8°C | 97.1% | 962.0hPa | 2.7V | 00:00:00 | 00:00:00 | 00:00:00 | |
| SP3BTT-10 | 2026-09-04 01:26:50 | 53.16942 | 16.26966 | 88° | 51km/h | 477m | -3.5m/s | 14.6°C | 98.0% | 959.6hPa | 2.7V | 00:00:00 | 00:00:00 | 00:00:00 | |
| SP3BTT-10 | 2026-09-04 01:26:44 | 53.16938 | 16.26839 | 86° | 51km/h | 499m | -3.8m/s | 14.4°C | 98.4% | 957.1hPa | 2.7V | 00:00:00 | 00:00:00 | 00:00:00 | |
| SP3BTT-10 | 2026-09-04 01:26:38 | 53.16934 | 16.26711 | 89° | 51km/h | 523m | -4.2m/s | 14.6°C | 95.3% | 954.3hPa | 2.7V | 07:27:00 | 00:00:00 | 00:00:00 | |
| SP3BTT-10 | 2026-09-04 01:26:32 | 53.16935 | 16.26581 | 92° | 53km/h | 546m | -3.5m/s | 14.4°C | 96.4% | 951.8hPa | 2.7V | 00:00:00 | 00:00:00 | 00:00:00 | |
| SP3BTT-10 | 2026-09-04 01:26:26 | 53.16938 | 16.26449 | 94° | 53km/h | 568m | -3.7m/s | 14.2°C | 97.3% | 949.4hPa | 2.7V | 00:00:00 | 00:00:00 | 00:00:00 | |
| SP3BTT-10 | 2026-09-04 01:26:20 | 53.16946 | 16.26314 | 97° | 53km/h | 589m | -3.4m/s | 13.9°C | 99.0% | 947.0hPa | 2.7V | 00:00:00 | 00:00:00 | 00:00:00 | |
| SP3BTT-10 | 2026-09-04 01:26:14 | 53.16954 | 16.26182 | 96° | 53km/h | 608m | -3.5m/s | 13.9°C | 98.5% | 944.8hPa | 2.7V | 00:00:00 | 00:00:00 | 00:00:00 | |
| SP3BTT-10 | 2026-09-04 01:26:08 | 53.16965 | 16.26050 | 99° | 53km/h | 631m | -3.6m/s | 13.9°C | 96.4% | 942.3hPa | 2.7V | 00:00:00 | 00:00:00 | 00:00:00 | |
| SP3BTT-10 | 2026-09-04 01:26:02 | 53.16978 | 16.25916 | 100° | 55km/h | 653m | -3.9m/s | 13.8°C | 96.5% | 939.8hPa | 2.7V | 00:00:00 | 00:00:00 | 00:00:00 | |
| SP3BTT-10 | 2026-09-04 01:25:56 | 53.16992 | 16.25781 | 101° | 55km/h | 675m | -3.7m/s | 13.7°C | 96.5% | 937.3hPa | 2.7V | 00:00:00 | 00:00:00 | 00:00:00 | |
| SP3BTT-10 | 2026-09-04 01:25:50 | 53.17009 | 16.25644 | 103° | 55km/h | 696m | -3.7m/s | 13.5°C | 95.7% | 935.0hPa | 2.7V | 07:28:00 | 00:00:00 | 00:00:00 | |
| SP3BTT-10 | 2026-09-04 01:25:44 | 53.17028 | 16.25507 | 104° | 57km/h | 718m | -3.7m/s | 13.3°C | 95.6% | 932.7hPa | 2.7V | 00:00:00 | 00:00:00 | 00:00:00 | |
| SP3BTT-10 | 2026-09-04 01:25:38 | 53.17047 | 16.25367 | 103° | 57km/h | 740m | -3.7m/s | 13.2°C | 95.2% | 930.1hPa | 2.7V | 00:00:00 | 00:00:00 | 00:00:00 | |
| SP3BTT-10 | 2026-09-04 01:25:32 | 53.17064 | 16.25229 | 102° | 55km/h | 762m | -3.4m/s | 13.1°C | 94.6% | 927.9hPa | 2.7V | 00:00:00 | 00:00:00 | 00:00:00 | |
| SP3BTT-10 | 2026-09-04 01:25:26 | 53.17082 | 16.25095 | 102° | 55km/h | 784m | -3.8m/s | 12.9°C | 94.9% | 925.6hPa | 2.7V | 00:00:00 | 00:00:00 | 00:00:00 | |
| SP3BTT-10 | 2026-09-04 01:25:20 | 53.17099 | 16.24960 | 103° | 53km/h | 806m | -3.7m/s | 12.7°C | 93.8% | 923.1hPa | 2.7V | 00:00:00 | 00:00:00 | 00:00:00 | |
| SP3BTT-10 | 2026-09-04 01:25:14 | 53.17116 | 16.24828 | 103° | 53km/h | 827m | -3.7m/s | 12.6°C | 93.5% | 920.7hPa | 2.7V | 00:00:00 | 00:00:00 | 00:00:00 | |
| SP3BTT-10 | 2026-09-04 01:25:08 | 53.17132 | 16.24697 | 101° | 53km/h | 848m | -3.4m/s | 12.5°C | 93.0% | 918.5hPa | 2.7V | 00:00:00 | 00:00:00 | 00:00:00 | |
| SP3BTT-10 | 2026-09-04 01:25:02 | 53.17147 | 16.24568 | 101° | 53km/h | 870m | -3.5m/s | 12.3°C | 93.1% | 916.2hPa | 2.7V | 07:29:00 | 00:00:00 | 00:00:00 | |
| SP3BTT-10 | 2026-09-04 01:24:56 | 53.17162 | 16.24439 | 102° | 51km/h | 891m | -3.4m/s | 12.2°C | 92.6% | 913.8hPa | 2.7V | 00:00:00 | 00:00:00 | 00:00:00 | |
| SP3BTT-10 | 2026-09-04 01:24:50 | 53.17177 | 16.24312 | 103° | 51km/h | 913m | -3.5m/s | 12.0°C | 92.6% | 911.5hPa | 2.7V | 00:00:00 | 00:00:00 | 00:00:00 | |
| SP3BTT-10 | 2026-09-04 01:24:44 | 53.17193 | 16.24184 | 100° | 51km/h | 934m | -3.4m/s | 11.9°C | 93.1% | 909.2hPa | 2.7V | 00:00:00 | 00:00:00 | 00:00:00 | |
| SP3BTT-10 | 2026-09-04 01:24:38 | 53.17208 | 16.24059 | 102° | 49km/h | 955m | -3.5m/s | 11.7°C | 93.2% | 906.9hPa | 2.7V | 00:00:00 | 00:00:00 | 00:00:00 | |
| SP3BTT-10 | 2026-09-04 01:24:32 | 53.17222 | 16.23936 | 101° | 49km/h | 976m | -3.5m/s | 11.5°C | 93.5% | 904.6hPa | 2.7V | 00:00:00 | 00:00:00 | 00:00:00 | |
| SP3BTT-10 | 2026-09-04 01:24:26 | 53.17236 | 16.23812 | 103° | 49km/h | 997m | -3.8m/s | 11.4°C | 93.3% | 902.3hPa | 2.7V | 00:00:00 | 00:00:00 | 00:00:00 | |
| SP3BTT-10 | 2026-09-04 01:24:20 | 53.17252 | 16.23690 | 103° | 47km/h | 1019m | -3.5m/s | 11.2°C | 93.6% | 899.8hPa | 2.7V | 00:00:00 | 00:00:00 | 00:00:00 | |
| SP3BTT-10 | 2026-09-04 01:24:14 | 53.17268 | 16.23572 | 104° | 49km/h | 1042m | -3.8m/s | 11.0°C | 93.6% | 897.4hPa | 2.7V | 07:30:00 | 00:00:00 | 00:00:00 | |
| SP3BTT-10 | 2026-09-04 01:24:08 | 53.17285 | 16.23452 | 105° | 49km/h | 1066m | -3.9m/s | 10.9°C | 93.0% | 894.9hPa | 2.7V | 00:00:00 | 00:00:00 | 00:00:00 | |
| SP3BTT-10 | 2026-09-04 01:24:02 | 53.17303 | 16.23330 | 104° | 51km/h | 1089m | -3.8m/s | 10.8°C | 91.3% | 892.4hPa | 2.7V | 00:00:00 | 00:00:00 | 00:00:00 | |
| SP3BTT-10 | 2026-09-04 01:23:56 | 53.17323 | 16.23207 | 106° | 51km/h | 1113m | -3.7m/s | 10.6°C | 93.4% | 889.8hPa | 2.7V | 00:00:00 | 00:00:00 | 00:00:00 | |
| SP3BTT-10 | 2026-09-04 01:23:50 | 53.17345 | 16.23084 | 107° | 51km/h | 1138m | -4.3m/s | 10.4°C | 93.4% | 887.2hPa | 2.7V | 00:00:00 | 00:00:00 | 00:00:00 | |
| SP3BTT-10 | 2026-09-04 01:23:44 | 53.17366 | 16.22957 | 106° | 51km/h | 1162m | -4.0m/s | 10.2°C | 93.4% | 884.6hPa | 2.7V | 00:00:00 | 00:00:00 | 00:00:00 | |
| SP3BTT-10 | 2026-09-04 01:23:28 | 53.17423 | 16.22625 | 105° | 53km/h | 1225m | -3.7m/s | 9.6°C | 95.5% | 877.8hPa | 2.7V | 00:00:00 | 00:00:00 | 00:00:00 | |
| SP3BTT-10 | 2026-09-04 01:23:08 | 53.17497 | 16.22202 | 107° | 55km/h | 1300m | -3.8m/s | 9.1°C | 97.2% | 870.1hPa | 2.7V | 00:00:00 | 00:00:00 | 00:00:00 | |
| SP3BTT-10 | 2026-09-04 01:22:48 | 53.17575 | 16.21763 | 106° | 55km/h | 1376m | -3.9m/s | 8.5°C | 97.8% | 862.1hPa | 2.7V | 07:31:00 | 00:00:00 | 00:00:00 | |
| SP3BTT-10 | 2026-09-04 01:22:28 | 53.17643 | 16.21308 | 103° | 57km/h | 1452m | -3.5m/s | 8.5°C | 85.7% | 854.3hPa | 2.7V | 00:00:00 | 00:00:00 | 00:00:00 | |
| SP3BTT-10 | 2026-09-04 01:22:08 | 53.17701 | 16.20846 | 103° | 58km/h | 1525m | -3.6m/s | 8.1°C | 81.8% | 846.8hPa | 2.7V | 00:00:00 | 00:00:00 | 00:00:00 | |
| SP3WXH-11 | 2026-09-04 01:21:57 | 53.17736 | 16.20584 | 102° | 57km/h | 1564m | -3.6m/s | 8.0°C | 0% | 842.8hPa | 2.7V | 00:00:00 | 00:00:00 | 00:00:00 | |
| SP3BTT-10 | 2026-09-04 01:21:48 | 53.17764 | 16.20367 | 103° | 58km/h | 1596m | -3.5m/s | 7.7°C | 78.2% | 839.4hPa | 2.7V | 00:00:00 | 00:00:00 | 00:00:00 | |
| SP3BTT-10 | 2026-09-04 01:21:28 | 53.17825 | 16.19882 | 101° | 60km/h | 1668m | -3.8m/s | 7.0°C | 82.9% | 832.1hPa | 2.7V | 00:00:00 | 00:00:00 | 00:00:00 | |
| SP3WXH-11 | 2026-09-04 01:21:26 | 53.17831 | 16.19834 | 101° | 58km/h | 1676m | -3.6m/s | 7.0°C | 82.4% | 831.5hPa | 2.7V | 00:00:00 | 00:00:00 | 00:00:00 | |
| SP3BTT-10 | 2026-09-04 01:21:08 | 53.17880 | 16.19386 | 100° | 62km/h | 1740m | -3.6m/s | 6.4°C | 86.7% | 824.9hPa | 2.7V | 00:00:00 | 00:00:00 | 00:00:00 | |
| SP3WXH-11 | 2026-09-04 01:20:55 | 53.17911 | 16.19053 | 99° | 62km/h | 1789m | -3.8m/s | 6.2°C | 85.0% | 820.0hPa | 2.6V | 00:00:00 | 00:00:00 | 00:00:00 | |
| SP3BTT-10 | 2026-09-04 01:20:48 | 53.17930 | 16.18869 | 100° | 66km/h | 1814m | -3.7m/s | 5.9°C | 85.3% | 817.5hPa | 2.6V | 00:00:00 | 00:00:00 | 00:00:00 | |
| SP3BTT-10 | 2026-09-04 01:20:28 | 53.17975 | 16.18322 | 97° | 68km/h | 1889m | -4.0m/s | 5.4°C | 94.9% | 810.0hPa | 2.6V | 00:00:00 | 00:00:00 | 00:00:00 | |
| SP3WXH-11 | 2026-09-04 01:20:24 | 53.17984 | 16.18212 | 98° | 66km/h | 1904m | -3.8m/s | 5.3°C | 93.1% | 808.6hPa | 2.6V | 00:00:00 | 00:00:00 | 00:00:00 | |
| SP3BTT-10 | 2026-09-04 01:20:08 | 53.18026 | 16.17763 | 99° | 69km/h | 1964m | -3.7m/s | 4.9°C | 94.2% | 802.8hPa | 2.6V | 07:34:00 | 00:00:00 | 00:00:00 | |
| SP3WXH-11 | 2026-09-04 01:19:53 | 53.18067 | 16.17334 | 99° | 68km/h | 2020m | -3.6m/s | 4.5°C | 94.4% | 797.3hPa | 2.6V | 00:00:00 | 00:00:00 | 00:00:00 | |
| SP3BTT-10 | 2026-09-04 01:19:48 | 53.18080 | 16.17190 | 99° | 69km/h | 2039m | -3.7m/s | 4.4°C | 96.3% | 795.5hPa | 2.6V | 00:00:00 | 00:00:00 | 00:00:00 | |
| SP3BTT-10 | 2026-09-04 01:19:28 | 53.18131 | 16.16605 | 98° | 71km/h | 2111m | -3.7m/s | 3.7°C | 99.8% | 788.2hPa | 2.6V | 00:00:00 | 00:00:00 | 00:00:00 | |
| SP3WXH-11 | 2026-09-04 01:19:22 | 53.18145 | 16.16429 | 97° | 69km/h | 2133m | -3.8m/s | 3.7°C | 98.3% | 786.2hPa | 2.6V | 00:00:00 | 00:00:00 | 00:00:00 | |
| SP3BTT-10 | 2026-09-04 01:19:08 | 53.18179 | 16.16016 | 98° | 71km/h | 2184m | -3.6m/s | 3.3°C | 96.5% | 781.4hPa | 2.6V | 00:00:00 | 00:00:00 | 00:00:00 | |
| SP3WXH-11 | 2026-09-04 01:18:51 | 53.18218 | 16.15481 | 95° | 71km/h | 2249m | -3.7m/s | 2.8°C | 96.0% | 775.3hPa | 2.7V | 00:00:00 | 00:00:00 | 00:00:00 | |
| SP3BTT-10 | 2026-09-04 01:18:48 | 53.18221 | 16.15420 | 96° | 73km/h | 2257m | -3.5m/s | 2.7°C | 97.5% | 774.5hPa | 2.7V | 00:00:00 | 00:00:00 | 00:00:00 | |
| SP3BTT-10 | 2026-09-04 01:18:28 | 53.18249 | 16.14813 | 94° | 73km/h | 2329m | -3.7m/s | 2.3°C | 98.5% | 767.6hPa | 2.7V | 00:00:00 | 00:00:00 | 00:00:00 | |
| SP3WXH-11 | 2026-09-04 01:18:20 | 53.18258 | 16.14571 | 92° | 71km/h | 2357m | -3.6m/s | 2.1°C | 98.0% | 764.8hPa | 2.7V | 00:00:00 | 00:00:00 | 00:00:00 | |
| KRY50SP | 2026-09-04 01:18:14 | 53.18260 | 16.14417 | 93° | 73km/h | 2375m | -3.8m/s | 2.0°C | 96.3% | 763.2hPa | 2.7V | 07:36:00 | 00:00:00 | 00:00:00 | |
| KRY50SP | 2026-09-04 01:18:09 | 53.18262 | 16.14260 | 92° | 75km/h | 2394m | -3.6m/s | 2.0°C | 96.4% | 761.4hPa | 2.7V | 07:36:00 | 00:00:00 | 00:00:00 | |
| SP3BTT-10 | 2026-09-04 01:18:08 | 53.18262 | 16.14197 | 91° | 75km/h | 2401m | -3.6m/s | 1.9°C | 96.9% | 760.5hPa | 2.7V | 00:00:00 | 00:00:00 | 00:00:00 | |
| KRY50SP | 2026-09-04 01:18:04 | 53.18262 | 16.14102 | 91° | 75km/h | 2412m | -3.9m/s | 2.0°C | 94.5% | 759.7hPa | 2.6V | 07:36:00 | 00:00:00 | 00:00:00 | |
| SP3WXH-11 | 2026-09-04 01:17:49 | 53.18265 | 16.13569 | 91° | 75km/h | 2474m | -3.4m/s | 2.1°C | 75.7% | 753.8hPa | 2.6V | 00:00:00 | 00:00:00 | 00:00:00 | |
| SP3BTT-10 | 2026-09-04 01:17:48 | 53.18265 | 16.13569 | 92° | 75km/h | 2474m | -3.3m/s | 2.1°C | 76.7% | 753.8hPa | 2.6V | 00:00:00 | 00:00:00 | 00:00:00 | |
| KRY50SP | 2026-09-04 01:17:44 | 53.18266 | 16.13474 | 92° | 75km/h | 2486m | -3.9m/s | 2.0°C | 77.3% | 752.9hPa | 2.6V | 07:37:00 | 00:00:00 | 00:00:00 | |
| KRY50SP | 2026-09-04 01:17:38 | 53.18269 | 16.13287 | 93° | 73km/h | 2509m | -4.0m/s | 1.9°C | 73.6% | 750.7hPa | 2.6V | 07:37:00 | 00:00:00 | 00:00:00 | |
| KRY50SP | 2026-09-04 01:17:33 | 53.18270 | 16.13100 | 90° | 73km/h | 2532m | -3.9m/s | 2.0°C | 66.9% | 748.6hPa | 2.6V | 07:37:00 | 00:00:00 | 00:00:00 | |
| SP3BTT-10 | 2026-09-04 01:17:28 | 53.18269 | 16.12946 | 90° | 75km/h | 2551m | -3.5m/s | 1.9°C | 64.2% | 746.7hPa | 2.6V | 07:37:00 | 00:00:00 | 00:00:00 | |
| KRY50SP | 2026-09-04 01:17:26 | 53.18269 | 16.12885 | 92° | 73km/h | 2558m | -4.1m/s | 2.0°C | 62.1% | 746.1hPa | 2.6V | 07:37:00 | 00:00:00 | 00:00:00 | |
| KRY50SP | 2026-09-04 01:17:20 | 53.18271 | 16.12733 | 92° | 75km/h | 2577m | -3.8m/s | 2.0°C | 54.8% | 744.3hPa | 2.6V | 07:37:00 | 00:00:00 | 00:00:00 | |
| SP3WXH-11 | 2026-09-04 01:17:18 | 53.18271 | 16.12607 | 89° | 75km/h | 2592m | -3.5m/s | 1.9°C | 55.0% | 743.0hPa | 2.6V | 00:00:00 | 00:00:00 | 00:00:00 | |
| KRY50SP | 2026-09-04 01:17:14 | 53.18270 | 16.12543 | 89° | 77km/h | 2600m | -3.8m/s | 1.8°C | 55.0% | 742.3hPa | 2.6V | 07:37:00 | 00:00:00 | 00:00:00 | |
| KRY50SP | 2026-09-04 01:17:10 | 53.18268 | 16.12380 | 89° | 78km/h | 2619m | -3.7m/s | 1.8°C | 54.1% | 740.5hPa | 2.6V | 07:38:00 | 00:00:00 | 00:00:00 | |
| SP3BTT-10 | 2026-09-04 01:17:08 | 53.18268 | 16.12314 | 90° | 78km/h | 2626m | -3.5m/s | 1.8°C | 50.9% | 739.8hPa | 2.6V | 00:00:00 | 00:00:00 | 00:00:00 | |
| KRY50SP | 2026-09-04 01:17:03 | 53.18267 | 16.12181 | 91° | 77km/h | 2641m | -3.4m/s | 2.1°C | 49.6% | 738.5hPa | 2.7V | 07:38:00 | 00:00:00 | 00:00:00 | |
| EDDB2-11 | 2026-09-04 01:16:53 | 53.18269 | 16.11789 | 90° | 77km/h | 2688m | -4.2m/s | 3.0°C | 35.3% | 734.2hPa | 2.7V | 00:00:00 | 00:00:00 | 00:00:00 | |
| SP3WXH-11 | 2026-09-04 01:16:47 | 53.18272 | 16.11592 | 91° | 77km/h | 2712m | -3.7m/s | 3.1°C | 27.5% | 732.2hPa | 2.7V | 00:00:00 | 00:00:00 | 00:00:00 | |
| KRY50SP | 2026-09-04 01:16:45 | 53.18272 | 16.11592 | 93° | 78km/h | 2712m | -3.7m/s | 3.1°C | 27.5% | 732.2hPa | 2.7V | 07:38:00 | 00:00:00 | 00:00:00 | |
| KRY50SP | 2026-09-04 01:16:39 | 53.18276 | 16.11392 | 94° | 78km/h | 2735m | -4.0m/s | 3.1°C | 24.6% | 730.1hPa | 2.7V | 07:38:00 | 00:00:00 | 00:00:00 | |
| KRY50SP | 2026-09-04 01:16:34 | 53.18282 | 16.11230 | 95° | 77km/h | 2754m | -4.0m/s | 3.4°C | 21.0% | 728.3hPa | 2.7V | 07:38:00 | 00:00:00 | 00:00:00 | |
| SP3BTT-10 | 2026-09-04 01:16:28 | 53.18292 | 16.11003 | 95° | 77km/h | 2782m | -4.0m/s | 3.5°C | 21.0% | 725.8hPa | 2.7V | 00:00:00 | 00:00:00 | 00:00:00 | |
| KRY50SP | 2026-09-04 01:16:23 | 53.18300 | 16.10842 | 97° | 77km/h | 2801m | -4.0m/s | 3.7°C | 22.0% | 724.0hPa | 2.7V | 07:38:00 | 00:00:00 | 00:00:00 | |
| EDDB2-11 | 2026-09-04 01:16:21 | 53.18304 | 16.10777 | 95° | 77km/h | 2809m | -4.1m/s | 3.7°C | 21.2% | 723.3hPa | 2.7V | 00:00:00 | 00:00:00 | 00:00:00 | |
| KRY50SP | 2026-09-04 01:16:17 | 53.18310 | 16.10680 | 97° | 78km/h | 2821m | -4.2m/s | 3.7°C | 20.8% | 722.4hPa | 2.7V | 07:39:00 | 00:00:00 | 00:00:00 | |
| SP3WXH-11 | 2026-09-04 01:16:16 | 53.18316 | 16.10582 | 96° | 77km/h | 2832m | -4.1m/s | 3.6°C | 21.7% | 721.4hPa | 2.7V | 00:00:00 | 00:00:00 | 00:00:00 | |
| KRY50SP | 2026-09-04 01:16:12 | 53.18322 | 16.10485 | 96° | 77km/h | 2844m | -3.7m/s | 3.5°C | 21.7% | 720.3hPa | 2.7V | 07:39:00 | 00:00:00 | 00:00:00 | |
| SP3BTT-10 | 2026-09-04 01:16:08 | 53.18329 | 16.10358 | 95° | 75km/h | 2859m | -3.5m/s | 3.4°C | 22.3% | 719.0hPa | 2.7V | 00:00:00 | 00:00:00 | 00:00:00 | |
| KRY50SP | 2026-09-04 01:16:06 | 53.18332 | 16.10294 | 96° | 75km/h | 2866m | -3.7m/s | 3.4°C | 22.1% | 718.3hPa | 2.7V | 07:39:00 | 00:00:00 | 00:00:00 | |
| KRY50SP | 2026-09-04 01:16:00 | 53.18339 | 16.10136 | 96° | 75km/h | 2885m | -3.6m/s | 3.2°C | 22.7% | 716.6hPa | 2.7V | 07:39:00 | 00:00:00 | 00:00:00 | |
| KRY50SP | 2026-09-04 01:15:54 | 53.18347 | 16.09948 | 94° | 75km/h | 2907m | -3.5m/s | 3.2°C | 22.1% | 714.7hPa | 2.7V | 07:39:00 | 00:00:00 | 00:00:00 | |
| KRY50SP | 2026-09-04 01:15:49 | 53.18355 | 16.09762 | 95° | 73km/h | 2929m | -3.9m/s | 3.0°C | 22.1% | 712.8hPa | 2.7V | 07:39:00 | 00:00:00 | 00:00:00 | |
| SP3BTT-10 | 2026-09-04 01:15:48 | 53.18356 | 16.09731 | 95° | 71km/h | 2933m | -3.6m/s | 3.0°C | 22.5% | 712.4hPa | 2.7V | 00:00:00 | 00:00:00 | 00:00:00 | |
| SP3WXH-11 | 2026-09-04 01:15:45 | 53.18361 | 16.09609 | 94° | 69km/h | 2947m | -3.5m/s | 2.9°C | 22.2% | 711.3hPa | 2.7V | 00:00:00 | 00:00:00 | 00:00:00 | |
| KRY50SP | 2026-09-04 01:15:43 | 53.18361 | 16.09609 | 95° | 71km/h | 2948m | -3.5m/s | 2.9°C | 22.2% | 711.3hPa | 2.7V | 07:39:00 | 00:00:00 | 00:00:00 | |
| KRY50SP | 2026-09-04 01:15:38 | 53.18367 | 16.09459 | 95° | 71km/h | 2966m | -3.6m/s | 2.8°C | 22.4% | 709.5hPa | 2.7V | 07:39:00 | 00:00:00 | 00:00:00 | |
| KRY50SP | 2026-09-04 01:15:32 | 53.18374 | 16.09280 | 96° | 71km/h | 2987m | -3.4m/s | 2.6°C | 22.9% | 707.7hPa | 2.7V | 07:39:00 | 00:00:00 | 00:00:00 | |
| SP3BTT-10 | 2026-09-04 01:15:28 | 53.18381 | 16.09133 | 95° | 69km/h | 3004m | -3.5m/s | 2.5°C | 23.5% | 706.0hPa | 2.7V | 00:00:00 | 00:00:00 | 00:00:00 | |
| KRY50SP | 2026-09-04 01:15:26 | 53.18382 | 16.09104 | 95° | 69km/h | 3008m | -3.7m/s | 2.5°C | 23.1% | 705.8hPa | 2.7V | 07:39:00 | 00:00:00 | 00:00:00 | |
| EDDB2-11 | 2026-09-04 01:15:20 | 53.18392 | 16.08871 | 92° | 69km/h | 3036m | -3.6m/s | 2.3°C | 22.5% | 703.3hPa | 2.7V | 00:00:00 | 00:00:00 | 00:00:00 | |
| KRY50SP | 2026-09-04 01:15:16 | 53.18395 | 16.08784 | 96° | 69km/h | 3046m | -3.5m/s | 2.3°C | 22.0% | 702.3hPa | 2.7V | 07:39:00 | 00:00:00 | 00:00:00 | |
| SP3WXH-11 | 2026-09-04 01:15:14 | 53.18398 | 16.08697 | 93° | 68km/h | 3057m | -3.5m/s | 2.2°C | 21.8% | 701.4hPa | 2.7V | 00:00:00 | 00:00:00 | 00:00:00 | |
| KRY50SP | 2026-09-04 01:15:10 | 53.18401 | 16.08611 | 93° | 68km/h | 3068m | -3.7m/s | 2.2°C | 21.3% | 700.6hPa | 2.7V | 07:39:00 | 00:00:00 | 00:00:00 | |
| SP3BTT-10 | 2026-09-04 01:15:08 | 53.18403 | 16.08555 | 94° | 68km/h | 3075m | -3.7m/s | 2.1°C | 21.5% | 699.9hPa | 2.7V | 00:00:00 | 00:00:00 | 00:00:00 | |
| KRY50SP | 2026-09-04 01:15:04 | 53.18407 | 16.08442 | 94° | 68km/h | 3089m | -3.7m/s | 2.1°C | 20.7% | 698.8hPa | 2.7V | 07:39:00 | 00:00:00 | 00:00:00 | |
| KRY50SP | 2026-09-04 01:14:57 | 53.18414 | 16.08267 | 96° | 69km/h | 3110m | -3.2m/s | 2.0°C | 18.6% | 696.9hPa | 2.7V | 07:39:00 | 00:00:00 | 00:00:00 | |
| KRY50SP | 2026-09-04 01:14:52 | 53.18419 | 16.08122 | 95° | 69km/h | 3127m | -3.5m/s | 1.9°C | 18.2% | 695.3hPa | 2.7V | 07:39:00 | 00:00:00 | 00:00:00 | |
| SP3BTT-10 | 2026-09-04 01:14:48 | 53.18425 | 16.07979 | 94° | 68km/h | 3145m | -3.6m/s | 1.7°C | 17.2% | 693.9hPa | 2.7V | 07:39:00 | 00:00:00 | 00:00:00 | |
| KRY50SP | 2026-09-04 01:14:46 | 53.18426 | 16.07950 | 94° | 69km/h | 3148m | -3.5m/s | 1.8°C | 16.0% | 693.6hPa | 2.7V | 07:39:00 | 00:00:00 | 00:00:00 | |
| SP3WXH-11 | 2026-09-04 01:14:43 | 53.18431 | 16.07807 | 93° | 68km/h | 3166m | -3.5m/s | 1.8°C | 15.0% | 692.1hPa | 2.7V | 00:00:00 | 00:00:00 | 00:00:00 | |
| KRY50SP | 2026-09-04 01:14:41 | 53.18431 | 16.07807 | 94° | 68km/h | 3166m | -3.5m/s | 1.8°C | 15.0% | 692.1hPa | 2.7V | 07:39:00 | 00:00:00 | 00:00:00 | |
| KRY50SP | 2026-09-04 01:14:36 | 53.18438 | 16.07636 | 94° | 66km/h | 3187m | -3.6m/s | 1.7°C | 14.8% | 690.3hPa | 2.7V | 07:40:00 | 00:00:00 | 00:00:00 | |
| KRY50SP | 2026-09-04 01:14:30 | 53.18445 | 16.07468 | 96° | 66km/h | 3209m | -3.6m/s | 1.4°C | 15.0% | 688.4hPa | 2.7V | 07:40:00 | 00:00:00 | 00:00:00 | |
| KRY50SP | 2026-09-04 01:14:24 | 53.18453 | 16.07328 | 97° | 68km/h | 3227m | -3.7m/s | 1.3°C | 15.2% | 686.9hPa | 2.7V | 07:40:00 | 00:00:00 | 00:00:00 | |
| SP3BTT-10 | 2026-09-04 01:14:19 | 53.18462 | 16.07158 | 95° | 66km/h | 3250m | -3.8m/s | 1.1°C | 15.3% | 684.9hPa | 2.7V | 00:00:00 | 00:00:00 | 00:00:00 | |
| KRY50SP | 2026-09-04 01:14:18 | 53.18463 | 16.07158 | 96° | 68km/h | 3250m | -3.8m/s | 1.1°C | 15.1% | 684.9hPa | 2.7V | 07:40:00 | 00:00:00 | 00:00:00 | |
| KRY50SP | 2026-09-04 01:14:14 | 53.18471 | 16.07019 | 96° | 66km/h | 3269m | -3.6m/s | 1.1°C | 14.5% | 683.4hPa | 2.7V | 07:40:00 | 00:00:00 | 00:00:00 | |
| SP3WXH-11 | 2026-09-04 01:14:12 | 53.18476 | 16.06936 | 96° | 66km/h | 3280m | -4.1m/s | 1.1°C | 14.1% | 682.3hPa | 2.7V | 00:00:00 | 00:00:00 | 00:00:00 | |
| KRY50SP | 2026-09-04 01:14:08 | 53.18481 | 16.06853 | 97° | 66km/h | 3292m | -4.1m/s | 1.0°C | 13.9% | 681.3hPa | 2.7V | 07:40:00 | 00:00:00 | 00:00:00 | |
| EDDB2-11 | 2026-09-04 01:13:47 | 53.18520 | 16.06262 | 98° | 62km/h | 3388m | -4.9m/s | 0.2°C | 14.0% | 673.3hPa | 2.7V | 00:00:00 | 00:00:00 | 00:00:00 | |
| KRY50SP | 2026-09-04 01:13:45 | 53.18520 | 16.06262 | 99° | 64km/h | 3388m | -4.9m/s | 0.2°C | 14.0% | 673.3hPa | 2.7V | 07:41:00 | 00:00:00 | 00:00:00 | |
| SP3WXH-11 | 2026-09-04 01:13:40 | 53.18538 | 16.06104 | 101° | 62km/h | 3417m | -4.7m/s | -0.1°C | 14.2% | 670.8hPa | 2.7V | 00:00:00 | 00:00:00 | 00:00:00 | |
| KRY50SP | 2026-09-04 01:13:39 | 53.18538 | 16.06103 | 103° | 62km/h | 3417m | -4.7m/s | -0.1°C | 14.2% | 670.8hPa | 2.7V | 07:41:00 | 00:00:00 | 00:00:00 | |
| KRY50SP | 2026-09-04 01:13:35 | 53.18554 | 16.05973 | 104° | 64km/h | 3439m | -4.3m/s | -0.3°C | 14.4% | 668.9hPa | 2.7V | 07:41:00 | 00:00:00 | 00:00:00 | |
| KRY50SP | 2026-09-04 01:13:29 | 53.18576 | 16.05814 | 105° | 66km/h | 3464m | -3.8m/s | -0.2°C | 13.8% | 666.9hPa | 2.7V | 07:41:00 | 00:00:00 | 00:00:00 | |
| KRY50SP | 2026-09-04 01:13:22 | 53.18599 | 16.05655 | 104° | 64km/h | 3486m | -3.8m/s | -0.2°C | 13.7% | 665.0hPa | 2.7V | 07:41:00 | 00:00:00 | 00:00:00 | |
| SP3BTT-10 | 2026-09-04 01:13:19 | 53.18615 | 16.05551 | 105° | 66km/h | 3501m | -3.6m/s | -0.3°C | 14.0% | 663.7hPa | 2.7V | 00:00:00 | 00:00:00 | 00:00:00 | |
| SONDE2-11 | 2026-09-04 01:13:18 | 53.18623 | 16.05499 | 104° | 64km/h | 3508m | -3.5m/s | -0.4°C | 13.9% | 663.2hPa | 2.7V | 00:00:00 | 00:00:00 | 00:00:00 | |
| KRY50SP | 2026-09-04 01:13:16 | 53.18623 | 16.05499 | 106° | 64km/h | 3508m | -3.5m/s | -0.4°C | 13.9% | 663.2hPa | 2.7V | 07:41:00 | 00:00:00 | 00:00:00 | |
| EDDB2-11 | 2026-09-04 01:13:15 | 53.18632 | 16.05446 | 106° | 66km/h | 3515m | -3.5m/s | -0.5°C | 14.0% | 662.6hPa | 2.7V | 00:00:00 | 00:00:00 | 00:00:00 | |
| KRY50SP | 2026-09-04 01:13:10 | 53.18650 | 16.05336 | 107° | 68km/h | 3529m | -3.5m/s | -0.6°C | 14.1% | 661.4hPa | 2.7V | 07:41:00 | 00:00:00 | 00:00:00 | |
| SP3WXH-11 | 2026-09-04 01:13:09 | 53.18659 | 16.05282 | 104° | 68km/h | 3535m | -3.1m/s | -0.7°C | 14.2% | 660.9hPa | 2.7V | 00:00:00 | 00:00:00 | 00:00:00 | |
| KRY50SP | 2026-09-04 01:13:04 | 53.18675 | 16.05172 | 106° | 68km/h | 3550m | -4.1m/s | -0.8°C | 14.3% | 659.8hPa | 2.7V | 07:41:00 | 00:00:00 | 00:00:00 | |
| EDDB2-12 | 2026-09-04 01:13:03 | 53.18706 | 16.04978 | 103° | 66km/h | 3575m | -3.5m/s | -0.9°C | 14.5% | 657.6hPa | 2.7V | 00:00:00 | 00:00:00 | 00:00:00 | |
| SONDE2-11 | 2026-09-04 01:12:47 | 53.18747 | 16.04685 | 103° | 66km/h | 3615m | -4.1m/s | -1.0°C | 29.8% | 654.5hPa | 2.7V | 00:00:00 | 00:00:00 | 00:00:00 | |
| EDDB2-11 | 2026-09-04 01:12:44 | 53.18760 | 16.04599 | 101° | 69km/h | 3627m | -3.8m/s | -1.2°C | 29.9% | 653.5hPa | 2.7V | 00:00:00 | 00:00:00 | 00:00:00 | |
| KRY50SP | 2026-09-04 01:12:42 | 53.18763 | 16.04571 | 103° | 69km/h | 3631m | -3.7m/s | -1.2°C | 31.5% | 653.2hPa | 2.7V | 07:42:00 | 00:00:00 | 00:00:00 | |
| SP3WXH-11 | 2026-09-04 01:12:39 | 53.18781 | 16.04430 | 100° | 66km/h | 3650m | -4.1m/s | -1.4°C | 32.5% | 651.6hPa | 2.7V | 00:00:00 | 00:00:00 | 00:00:00 | |
| KRY50SP | 2026-09-04 01:12:37 | 53.18781 | 16.04430 | 102° | 66km/h | 3650m | -4.1m/s | -1.4°C | 32.5% | 651.6hPa | 2.7V | 07:42:00 | 00:00:00 | 00:00:00 | |
| KRY50SP | 2026-09-04 01:12:32 | 53.18800 | 16.04264 | 102° | 69km/h | 3674m | -3.9m/s | -1.6°C | 30.5% | 649.5hPa | 2.7V | 07:42:00 | 00:00:00 | 00:00:00 | |
| KRY50SP | 2026-09-04 01:12:26 | 53.18817 | 16.04118 | 104° | 71km/h | 3693m | -3.8m/s | -1.8°C | 32.0% | 648.0hPa | 2.7V | 07:42:00 | 00:00:00 | 00:00:00 | |
| KRY50SP | 2026-09-04 01:12:20 | 53.18840 | 16.03947 | 103° | 68km/h | 3717m | -4.1m/s | -2.0°C | 26.6% | 646.0hPa | 2.7V | 07:42:00 | 00:00:00 | 00:00:00 | |
| SP3BTT-10 | 2026-09-04 01:12:19 | 53.18846 | 16.03892 | 101° | 73km/h | 3726m | -4.0m/s | -2.0°C | 26.7% | 645.2hPa | 2.7V | 00:00:00 | 00:00:00 | 00:00:00 | |
| SONDE2-11 | 2026-09-04 01:12:16 | 53.18855 | 16.03806 | 99° | 71km/h | 3738m | -4.3m/s | -2.2°C | 27.3% | 644.2hPa | 2.7V | 00:00:00 | 00:00:00 | 00:00:00 | |
| KRY50SP | 2026-09-04 01:12:14 | 53.18858 | 16.03776 | 99° | 73km/h | 3743m | -4.3m/s | -2.2°C | 27.4% | 643.8hPa | 2.7V | 07:42:00 | 00:00:00 | 00:00:00 | |
| EDDB2-11 | 2026-09-04 01:12:13 | 53.18863 | 16.03715 | 97° | 73km/h | 3751m | -4.9m/s | -2.2°C | 29.9% | 643.1hPa | 2.7V | 00:00:00 | 00:00:00 | 00:00:00 | |
| SP3WXH-11 | 2026-09-04 01:12:08 | 53.18880 | 16.03529 | 98° | 73km/h | 3777m | -3.9m/s | -2.8°C | 41.7% | 641.1hPa | 2.7V | 00:00:00 | 00:00:00 | 00:00:00 | |
| KRY50SP | 2026-09-04 01:12:03 | 53.18889 | 16.03408 | 98° | 73km/h | 3791m | -4.1m/s | -2.8°C | 40.0% | 639.9hPa | 2.7V | 07:43:00 | 00:00:00 | 00:00:00 | |
| EDDB2-12 | 2026-09-04 01:12:01 | 53.18908 | 16.03190 | 99° | 75km/h | 3820m | -4.4m/s | -2.9°C | 33.5% | 637.7hPa | 2.7V | 00:00:00 | 00:00:00 | 00:00:00 | |
| KRY50SP | 2026-09-04 01:11:57 | 53.18902 | 16.03253 | 100° | 77km/h | 3811m | -4.0m/s | -2.9°C | 37.5% | 638.4hPa | 2.7V | 07:43:00 | 00:00:00 | 00:00:00 | |
| KRY50SP | 2026-09-04 01:11:51 | 53.18922 | 16.03067 | 102° | 73km/h | 3839m | -5.8m/s | -3.1°C | 35.1% | 636.2hPa | 2.7V | 07:43:00 | 00:00:00 | 00:00:00 | |
| SP3BTT-10 | 2026-09-04 01:11:49 | 53.18933 | 16.02977 | 102° | 73km/h | 3854m | -4.8m/s | -3.2°C | 36.9% | 634.9hPa | 2.7V | 00:00:00 | 00:00:00 | 00:00:00 | |
| KRY50SP | 2026-09-04 01:11:45 | 53.18944 | 16.02886 | 102° | 75km/h | 3871m | -5.0m/s | -3.5°C | 38.8% | 633.9hPa | 2.7V | 07:43:00 | 00:00:00 | 00:00:00 | |
| EDDB2-11 | 2026-09-04 01:11:42 | 53.18958 | 16.02762 | 100° | 75km/h | 3892m | -5.5m/s | -3.7°C | 41.8% | 632.1hPa | 2.7V | 00:00:00 | 00:00:00 | 00:00:00 | |
| KRY50SP | 2026-09-04 01:11:40 | 53.18962 | 16.02732 | 102° | 75km/h | 3897m | -5.2m/s | -3.7°C | 39.0% | 631.6hPa | 2.7V | 07:43:00 | 00:00:00 | 00:00:00 | |
| SP3WXH-11 | 2026-09-04 01:11:37 | 53.18979 | 16.02581 | 100° | 71km/h | 3924m | -5.0m/s | -4.3°C | 48.4% | 629.5hPa | 2.7V | 00:00:00 | 00:00:00 | 00:00:00 | |
| KRY50SP | 2026-09-04 01:11:34 | 53.18983 | 16.02551 | 102° | 73km/h | 3929m | -5.2m/s | -4.3°C | 48.7% | 629.0hPa | 2.7V | 07:43:00 | 00:00:00 | 00:00:00 | |
| KRY50SP | 2026-09-04 01:11:29 | 53.19003 | 16.02365 | 102° | 73km/h | 3965m | -6.7m/s | -4.6°C | 47.4% | 626.3hPa | 2.7V | 07:43:00 | 00:00:00 | 00:00:00 | |
| KRY50SP | 2026-09-04 01:11:23 | 53.19024 | 16.02187 | 101° | 71km/h | 4005m | -6.5m/s | -5.1°C | 52.0% | 623.0hPa | 2.7V | 07:43:00 | 00:00:00 | 00:00:00 | |
| SP3BTT-10 | 2026-09-04 01:11:19 | 53.19036 | 16.02065 | 99° | 75km/h | 4031m | -6.7m/s | -5.3°C | 51.3% | 620.9hPa | 2.7V | 00:00:00 | 00:00:00 | 00:00:00 | |
| KRY50SP | 2026-09-04 01:11:17 | 53.19039 | 16.02034 | 100° | 75km/h | 4038m | -6.4m/s | -5.4°C | 51.1% | 620.4hPa | 2.7V | 07:43:00 | 00:00:00 | 00:00:00 | |
| EDDB2-11 | 2026-09-04 01:11:11 | 53.19063 | 16.01811 | 100° | 75km/h | 4080m | -6.1m/s | -5.8°C | 52.4% | 617.0hPa | 2.7V | 00:00:00 | 00:00:00 | 00:00:00 | |
| KRY50SP | 2026-09-04 01:11:05 | 53.19081 | 16.01659 | 102° | 73km/h | 4110m | -5.9m/s | -6.0°C | 53.6% | 614.6hPa | 2.7V | 07:44:00 | 00:00:00 | 00:00:00 | |
| KRY50SP | 2026-09-04 01:11:00 | 53.19097 | 16.01509 | 101° | 73km/h | 4139m | -5.5m/s | -6.3°C | 53.6% | 612.4hPa | 2.7V | 07:44:00 | 00:00:00 | 00:00:00 | |
| KRY50SP | 2026-09-04 01:10:54 | 53.19117 | 16.01323 | 102° | 75km/h | 4172m | -5.6m/s | -6.6°C | 55.8% | 609.7hPa | 2.7V | 07:44:00 | 00:00:00 | 00:00:00 | |
| SP3BTT-10 | 2026-09-04 01:10:49 | 53.19139 | 16.01139 | 99° | 77km/h | 4206m | -5.4m/s | -6.8°C | 58.0% | 607.0hPa | 2.7V | 07:43:00 | 00:00:00 | 00:00:00 | |
| KRY50SP | 2026-09-04 01:10:48 | 53.19139 | 16.01139 | 100° | 71km/h | 4206m | -5.4m/s | -6.9°C | 56.6% | 607.1hPa | 2.6V | 07:44:00 | 00:00:00 | 00:00:00 | |
| SONDE2-11 | 2026-09-04 01:10:43 | 53.19154 | 16.00966 | 100° | 71km/h | 4238m | -5.2m/s | -7.2°C | 57.5% | 604.5hPa | 2.6V | 00:00:00 | 00:00:00 | 00:00:00 | |
| KRY50SP | 2026-09-04 01:10:42 | 53.19154 | 16.00966 | 101° | 71km/h | 4238m | -5.2m/s | -7.2°C | 57.5% | 604.5hPa | 2.6V | 07:44:00 | 00:00:00 | 00:00:00 | |
| EDDB2-11 | 2026-09-04 01:10:40 | 53.19164 | 16.00874 | 99° | 75km/h | 4254m | -5.6m/s | -7.3°C | 57.8% | 603.4hPa | 2.6V | 00:00:00 | 00:00:00 | 00:00:00 | |
| KRY50SP | 2026-09-04 01:10:36 | 53.19173 | 16.00780 | 100° | 75km/h | 4271m | -6.3m/s | -7.5°C | 60.0% | 602.1hPa | 2.6V | 07:44:00 | 00:00:00 | 00:00:00 | |
| SP3WXH-11 | 2026-09-04 01:10:34 | 53.19181 | 16.00689 | 97° | 71km/h | 4290m | -6.2m/s | -7.7°C | 61.1% | 600.8hPa | 2.6V | 00:00:00 | 00:00:00 | 00:00:00 | |
| KRY50SP | 2026-09-04 01:10:30 | 53.19188 | 16.00599 | 98° | 71km/h | 4309m | -6.0m/s | -7.8°C | 61.6% | 599.2hPa | 2.6V | 07:44:00 | 00:00:00 | 00:00:00 | |
| EDDB2-12 | 2026-09-04 01:10:28 | 53.19196 | 16.00510 | 100° | 71km/h | 4326m | -5.8m/s | -7.9°C | 61.9% | 597.8hPa | 2.6V | 00:00:00 | 00:00:00 | 00:00:00 | |
| KRY50SP | 2026-09-04 01:10:25 | 53.19202 | 16.00451 | 101° | 71km/h | 4338m | -5.8m/s | -8.0°C | 63.8% | 596.9hPa | 2.6V | 07:44:00 | 00:00:00 | 00:00:00 | |
| KRY50SP | 2026-09-04 01:10:19 | 53.19227 | 16.00274 | 104° | 71km/h | 4377m | -6.3m/s | -8.5°C | 58.2% | 593.9hPa | 2.6V | 07:45:00 | 00:00:00 | 00:00:00 | |
| KRY50SP | 2026-09-04 01:10:13 | 53.19253 | 16.00098 | 106° | 73km/h | 4418m | -6.5m/s | -8.9°C | 58.9% | 590.9hPa | 2.6V | 07:45:00 | 00:00:00 | 00:00:00 | |
| EDDB2-11 | 2026-09-04 01:10:09 | 53.19278 | 15.99950 | 106° | 73km/h | 4449m | -6.3m/s | -9.2°C | 59.1% | 588.4hPa | 2.6V | 00:00:00 | 00:00:00 | 00:00:00 | |
| KRY50SP | 2026-09-04 01:10:07 | 53.19283 | 15.99919 | 107° | 75km/h | 4455m | -6.4m/s | -9.3°C | 59.0% | 587.9hPa | 2.6V | 07:45:00 | 00:00:00 | 00:00:00 | |
| SP3WXH-11 | 2026-09-04 01:10:03 | 53.19307 | 15.99771 | 103° | 71km/h | 4486m | -6.1m/s | -9.6°C | 60.5% | 585.6hPa | 2.6V | 00:00:00 | 00:00:00 | 00:00:00 | |
| KRY50SP | 2026-09-04 01:10:02 | 53.19306 | 15.99771 | 104° | 73km/h | 4486m | -6.1m/s | -9.6°C | 60.6% | 585.6hPa | 2.6V | 07:45:00 | 00:00:00 | 00:00:00 | |
| EDDB2-12 | 2026-09-04 01:09:57 | 53.19331 | 15.99590 | 102° | 71km/h | 4517m | -5.0m/s | -10.0°C | 62.4% | 583.1hPa | 2.6V | 00:00:00 | 00:00:00 | 00:00:00 | |
| KRY50SP | 2026-09-04 01:09:56 | 53.19331 | 15.99590 | 103° | 73km/h | 4517m | -5.0m/s | -10.0°C | 62.4% | 583.1hPa | 2.6V | 07:45:00 | 00:00:00 | 00:00:00 | |
| KRY50SP | 2026-09-04 01:09:50 | 53.19354 | 15.99408 | 103° | 75km/h | 4547m | -5.0m/s | -10.3°C | 66.6% | 581.0hPa | 2.6V | 07:45:00 | 00:00:00 | 00:00:00 | |
| KRY50SP | 2026-09-04 01:09:45 | 53.19376 | 15.99251 | 104° | 80km/h | 4571m | -4.5m/s | -9.1°C | 78.4% | 579.3hPa | 2.6V | 07:45:00 | 00:00:00 | 00:00:00 | |
| SONDE2-11 | 2026-09-04 01:09:41 | 53.19402 | 15.99086 | 104° | 82km/h | 4596m | -4.6m/s | -8.9°C | 82.4% | 577.5hPa | 2.6V | 00:00:00 | 00:00:00 | 00:00:00 | |
| KRY50SP | 2026-09-04 01:09:39 | 53.19408 | 15.99051 | 106° | 84km/h | 4601m | -4.4m/s | -8.7°C | 85.0% | 577.0hPa | 2.6V | 07:45:00 | 00:00:00 | 00:00:00 | |
| EDDB2-11 | 2026-09-04 01:09:38 | 53.19419 | 15.98982 | 104° | 84km/h | 4610m | -5.1m/s | -8.7°C | 86.0% | 576.5hPa | 2.6V | 00:00:00 | 00:00:00 | 00:00:00 | |
| KRY50SP | 2026-09-04 01:09:35 | 53.19436 | 15.98877 | 107° | 86km/h | 4624m | -4.3m/s | -9.0°C | 85.6% | 575.5hPa | 2.6V | 07:45:00 | 00:00:00 | 00:00:00 | |
| SP3BTT-10 | 2026-09-04 01:09:34 | 53.19442 | 15.98842 | 106° | 95km/h | 4628m | -4.5m/s | -8.9°C | 86.8% | 575.1hPa | 2.6V | 00:00:00 | 00:00:00 | 00:00:00 | |
| SP3WXH-11 | 2026-09-04 01:09:32 | 53.19454 | 15.98772 | 105° | 86km/h | 4637m | -4.2m/s | -8.1°C | 90.7% | 574.4hPa | 2.6V | 00:00:00 | 00:00:00 | 00:00:00 | |
| KRY50SP | 2026-09-04 01:09:28 | 53.19473 | 15.98665 | 108° | 89km/h | 4652m | -4.6m/s | -7.4°C | 92.1% | 573.4hPa | 2.6V | 07:45:00 | 00:00:00 | 00:00:00 | |
| EDDB2-12 | 2026-09-04 01:09:26 | 53.19493 | 15.98557 | 108° | 91km/h | 4665m | -4.6m/s | -6.8°C | 93.1% | 572.5hPa | 2.6V | 00:00:00 | 00:00:00 | 00:00:00 | |
| KRY50SP | 2026-09-04 01:09:23 | 53.19515 | 15.98447 | 109° | 91km/h | 4679m | -4.2m/s | -6.4°C | 94.0% | 571.5hPa | 2.6V | 07:45:00 | 00:00:00 | 00:00:00 | |
| KRY50SP | 2026-09-04 01:09:17 | 53.19557 | 15.98226 | 109° | 93km/h | 4705m | -4.7m/s | -6.4°C | 94.7% | 569.5hPa | 2.6V | 07:45:00 | 00:00:00 | 00:00:00 | |
| KRY50SP | 2026-09-04 01:09:11 | 53.19593 | 15.98038 | 109° | 95km/h | 4728m | -4.6m/s | -6.4°C | 94.7% | 567.9hPa | 2.6V | 07:45:00 | 00:00:00 | 00:00:00 | |
| SONDE2-11 | 2026-09-04 01:09:10 | 53.19616 | 15.97925 | 109° | 95km/h | 4741m | -4.7m/s | -6.5°C | 94.5% | 567.0hPa | 2.6V | 00:00:00 | 00:00:00 | 00:00:00 | |
| EDDB2-11 | 2026-09-04 01:09:07 | 53.19632 | 15.97849 | 108° | 95km/h | 4750m | -4.2m/s | -6.5°C | 94.5% | 566.2hPa | 2.6V | 00:00:00 | 00:00:00 | 00:00:00 | |
| KRY50SP | 2026-09-04 01:09:05 | 53.19640 | 15.97810 | 110° | 97km/h | 4755m | -4.4m/s | -6.5°C | 94.7% | 565.9hPa | 2.6V | 07:45:00 | 00:00:00 | 00:00:00 | |
| SP3WXH-11 | 2026-09-04 01:09:01 | 53.19680 | 15.97618 | 109° | 95km/h | 4777m | -4.1m/s | -6.6°C | 94.8% | 564.5hPa | 2.6V | 00:00:00 | 00:00:00 | 00:00:00 | |
| KRY50SP | 2026-09-04 01:09:00 | 53.19680 | 15.97618 | 110° | 95km/h | 4777m | -4.1m/s | -6.6°C | 94.8% | 564.5hPa | 2.6V | 07:45:00 | 00:00:00 | 00:00:00 | |
| KRY50SP | 2026-09-04 01:08:55 | 53.19720 | 15.97427 | 111° | 97km/h | 4799m | -4.1m/s | -6.7°C | 94.7% | 562.8hPa | 2.6V | 07:45:00 | 00:00:00 | 00:00:00 | |
| KRY50SP | 2026-09-04 01:08:50 | 53.19772 | 15.97195 | 112° | 99km/h | 4824m | -4.2m/s | -6.8°C | 95.0% | 561.0hPa | 2.6V | 07:45:00 | 00:00:00 | 00:00:00 | |
| SP3BTT-10 | 2026-09-04 01:08:49 | 53.19781 | 15.97156 | 111° | 97km/h | 4828m | -4.2m/s | -6.8°C | 97.1% | 560.6hPa | 2.6V | 00:00:00 | 00:00:00 | 00:00:00 | |
| KRY50SP | 2026-09-04 01:08:43 | 53.19826 | 15.96964 | 113° | 97km/h | 4850m | -4.6m/s | -6.9°C | 94.5% | 559.2hPa | 2.6V | 07:45:00 | 00:00:00 | 00:00:00 | |
| KRY50SP | 2026-09-04 01:08:39 | 53.19871 | 15.96772 | 113° | 99km/h | 4872m | -4.5m/s | -7.0°C | 94.4% | 557.6hPa | 2.6V | 07:46:00 | 00:00:00 | 00:00:00 | |
| EDDB2-11 | 2026-09-04 01:08:36 | 53.19898 | 15.96656 | 111° | 97km/h | 4885m | -4.3m/s | -7.0°C | 94.3% | 556.6hPa | 2.6V | 00:00:00 | 00:00:00 | 00:00:00 | |
| KRY50SP | 2026-09-04 01:08:32 | 53.19925 | 15.96539 | 112° | 99km/h | 4899m | -4.5m/s | -7.1°C | 94.0% | 555.6hPa | 2.6V | 07:46:00 | 00:00:00 | 00:00:00 | |
| SP3WXH-11 | 2026-09-04 01:08:30 | 53.19952 | 15.96423 | 111° | 97km/h | 4912m | -4.6m/s | -7.1°C | 93.9% | 554.8hPa | 2.6V | 00:00:00 | 00:00:00 | 00:00:00 | |
| KRY50SP | 2026-09-04 01:08:28 | 53.19971 | 15.96345 | 113° | 99km/h | 4921m | -4.4m/s | -7.2°C | 93.7% | 554.1hPa | 2.6V | 07:46:00 | 00:00:00 | 00:00:00 | |
| EDDB2-12 | 2026-09-04 01:08:24 | 53.20008 | 15.96192 | 111° | 97km/h | 4939m | -4.5m/s | -7.3°C | 93.8% | 552.9hPa | 2.6V | 00:00:00 | 00:00:00 | 00:00:00 | |
| KRY50SP | 2026-09-04 01:08:21 | 53.20026 | 15.96116 | 113° | 97km/h | 4948m | -4.8m/s | -7.3°C | 93.6% | 552.2hPa | 2.6V | 07:46:00 | 00:00:00 | 00:00:00 | |
| KRY50SP | 2026-09-04 01:08:15 | 53.20080 | 15.95885 | 112° | 99km/h | 4974m | -4.4m/s | -7.5°C | 93.9% | 550.4hPa | 2.6V | 07:46:00 | 00:00:00 | 00:00:00 | |
| KRY50SP | 2026-09-04 01:08:09 | 53.20134 | 15.95656 | 114° | 97km/h | 5002m | -4.7m/s | -7.7°C | 93.9% | 548.5hPa | 2.6V | 07:46:00 | 00:00:00 | 00:00:00 | |
| SONDE2-11 | 2026-09-04 01:08:08 | 53.20162 | 15.95542 | 111° | 97km/h | 5015m | -4.4m/s | -7.7°C | 93.9% | 547.4hPa | 2.6V | 00:00:00 | 00:00:00 | 00:00:00 | |
| EDDB2-11 | 2026-09-04 01:08:05 | 53.20180 | 15.95466 | 111° | 97km/h | 5024m | -4.7m/s | -7.8°C | 93.8% | 546.8hPa | 2.6V | 00:00:00 | 00:00:00 | 00:00:00 | |
| KRY50SP | 2026-09-04 01:08:03 | 53.20188 | 15.95427 | 112° | 99km/h | 5029m | -4.3m/s | -7.8°C | 93.9% | 546.5hPa | 2.6V | 07:46:00 | 00:00:00 | 00:00:00 | |
| SP3WXH-11 | 2026-09-04 01:07:59 | 53.20233 | 15.95236 | 110° | 97km/h | 5051m | -4.5m/s | -7.9°C | 93.9% | 545.0hPa | 2.6V | 00:00:00 | 00:00:00 | 00:00:00 | |
| EDDB2-12 | 2026-09-04 01:07:53 | 53.20286 | 15.95005 | 110° | 97km/h | 5077m | -4.5m/s | -8.1°C | 93.9% | 543.1hPa | 2.6V | 00:00:00 | 00:00:00 | 00:00:00 | |
| KRY50SP | 2026-09-04 01:07:52 | 53.20286 | 15.95005 | 112° | 97km/h | 5077m | -4.5m/s | -8.1°C | 93.9% | 543.1hPa | 2.6V | 07:46:00 | 00:00:00 | 00:00:00 | |
| KRY50SP | 2026-09-04 01:07:46 | 53.20336 | 15.94776 | 112° | 97km/h | 5105m | -4.2m/s | -8.2°C | 93.7% | 541.1hPa | 2.6V | 07:47:00 | 00:00:00 | 00:00:00 | |
| KRY50SP | 2026-09-04 01:07:40 | 53.20388 | 15.94546 | 111° | 97km/h | 5133m | -4.9m/s | -8.4°C | 93.5% | 539.3hPa | 2.6V | 07:47:00 | 00:00:00 | 00:00:00 | |
| SONDE2-11 | 2026-09-04 01:07:37 | 53.20432 | 15.94354 | 110° | 95km/h | 5155m | -4.6m/s | -8.5°C | 93.5% | 537.7hPa | 2.6V | 00:00:00 | 00:00:00 | 00:00:00 | |
| KRY50SP | 2026-09-04 01:07:35 | 53.20432 | 15.94354 | 111° | 95km/h | 5155m | -4.6m/s | -8.5°C | 93.5% | 537.7hPa | 2.6V | 07:47:00 | 00:00:00 | 00:00:00 | |
| EDDB2-11 | 2026-09-04 01:07:34 | 53.20449 | 15.94278 | 110° | 95km/h | 5164m | -4.5m/s | -8.6°C | 93.5% | 537.0hPa | 2.6V | 00:00:00 | 00:00:00 | 00:00:00 | |
| SP3BTT-10 | 2026-09-04 01:07:33 | 53.20457 | 15.94240 | 111° | 97km/h | 5169m | -4.3m/s | -8.6°C | 95.8% | 536.7hPa | 2.6V | 00:00:00 | 00:00:00 | 00:00:00 | |
| KRY50SP | 2026-09-04 01:07:29 | 53.20482 | 15.94128 | 111° | 95km/h | 5183m | -4.7m/s | -8.7°C | 93.3% | 535.8hPa | 2.6V | 07:47:00 | 00:00:00 | 00:00:00 | |
| SP3WXH-11 | 2026-09-04 01:07:28 | 53.20498 | 15.94052 | 109° | 93km/h | 5191m | -4.6m/s | -8.8°C | 93.4% | 535.1hPa | 2.6V | 00:00:00 | 00:00:00 | 00:00:00 | |
| DB0DAN | 2026-09-04 01:07:25 | 53.20523 | 15.93939 | 110° | 93km/h | 5205m | -4.8m/s | -8.9°C | 93.3% | 534.2hPa | 2.6V | 00:00:00 | 00:00:00 | 00:00:00 | |
| KRY50SP | 2026-09-04 01:07:23 | 53.20531 | 15.93900 | 111° | 97km/h | 5210m | -4.7m/s | -8.9°C | 93.3% | 533.9hPa | 2.5V | 07:47:00 | 00:00:00 | 00:00:00 | |
| EDDB2-12 | 2026-09-04 01:07:22 | 53.20549 | 15.93824 | 111° | 97km/h | 5219m | -4.4m/s | -9.0°C | 93.3% | 533.3hPa | 2.5V | 00:00:00 | 00:00:00 | 00:00:00 | |
| KRY50SP | 2026-09-04 01:07:18 | 53.20576 | 15.93710 | 112° | 97km/h | 5233m | -4.4m/s | -9.0°C | 93.3% | 532.2hPa | 2.5V | 07:47:00 | 00:00:00 | 00:00:00 | |
| KRY50SP | 2026-09-04 01:07:12 | 53.20630 | 15.93482 | 112° | 97km/h | 5260m | -4.5m/s | -9.2°C | 93.0% | 530.4hPa | 2.5V | 07:47:00 | 00:00:00 | 00:00:00 | |
| DB0DAN | 2026-09-04 01:07:10 | 53.20658 | 15.93369 | 112° | 93km/h | 5274m | -4.4m/s | -9.3°C | 92.8% | 529.53hPa | 2.5V | 00:00:00 | 00:00:00 | 00:00:00 | |
| SONDE2-11 | 2026-09-04 01:07:05 | 53.20704 | 15.93180 | 112° | 97km/h | 5296m | -4.7m/s | -9.4°C | 92.8% | 527.9hPa | 2.6V | 00:00:00 | 00:00:00 | 00:00:00 | |
| EDDB2-11 | 2026-09-04 01:07:03 | 53.20733 | 15.93068 | 113° | 95km/h | 5310m | -5.0m/s | -9.4°C | 92.7% | 527.0hPa | 2.6V | 00:00:00 | 00:00:00 | 00:00:00 | |
| SP3WXH-11 | 2026-09-04 01:06:57 | 53.20781 | 15.92882 | 113° | 97km/h | 5333m | -4.6m/s | -9.6°C | 92.5% | 525.5hPa | 2.6V | 00:00:00 | 00:00:00 | 00:00:00 | |
| EDDB2-12 | 2026-09-04 01:06:51 | 53.20839 | 15.92655 | 112° | 97km/h | 5361m | -4.7m/s | -9.7°C | 92.1% | 523.6hPa | 2.6V | 00:00:00 | 00:00:00 | 00:00:00 | |
| KRY50SP | 2026-09-04 01:06:50 | 53.20838 | 15.92655 | 114° | 97km/h | 5361m | -4.7m/s | -9.7°C | 92.1% | 523.6hPa | 2.6V | 07:48:00 | 00:00:00 | 00:00:00 | |
| SP3BTT-10 | 2026-09-04 01:06:49 | 53.20858 | 15.92580 | 114° | 97km/h | 5370m | -4.8m/s | -9.8°C | 94.5% | 522.9hPa | 2.6V | 00:00:00 | 00:00:00 | 00:00:00 | |
| KRY50SP | 2026-09-04 01:06:44 | 53.20899 | 15.92430 | 116° | 99km/h | 5388m | -4.4m/s | -9.9°C | 91.9% | 521.8hPa | 2.6V | 07:48:00 | 00:00:00 | 00:00:00 | |
| KRY50SP | 2026-09-04 01:06:39 | 53.20952 | 15.92243 | 116° | 99km/h | 5411m | -4.5m/s | -10.0°C | 91.7% | 520.2hPa | 2.6V | 07:48:00 | 00:00:00 | 00:00:00 | |
| SONDE2-11 | 2026-09-04 01:06:35 | 53.21012 | 15.92013 | 112° | 99km/h | 5438m | -4.6m/s | -10.2°C | 91.3% | 518.3hPa | 2.6V | 00:00:00 | 00:00:00 | 00:00:00 | |
| KRY50SP | 2026-09-04 01:06:33 | 53.21012 | 15.92013 | 113° | 99km/h | 5438m | -4.6m/s | -10.2°C | 91.3% | 518.3hPa | 2.6V | 07:48:00 | 00:00:00 | 00:00:00 | |
| EDDB2-11 | 2026-09-04 01:06:32 | 53.21040 | 15.91898 | 112° | 99km/h | 5451m | -4.4m/s | -10.3°C | 91.3% | 517.5hPa | 2.6V | 00:00:00 | 00:00:00 | 00:00:00 | |
| KRY50SP | 2026-09-04 01:06:27 | 53.21070 | 15.91785 | 115° | 97km/h | 5465m | -4.6m/s | -10.3°C | 91.4% | 516.5hPa | 2.6V | 07:48:00 | 00:00:00 | 00:00:00 | |
| SP3WXH-11 | 2026-09-04 01:06:26 | 53.21090 | 15.91710 | 113° | 97km/h | 5474m | -4.4m/s | -10.4°C | 91.5% | 515.9hPa | 2.6V | 00:00:00 | 00:00:00 | 00:00:00 | |
| KRY50SP | 2026-09-04 01:06:21 | 53.21129 | 15.91559 | 114° | 99km/h | 5492m | -4.0m/s | -10.5°C | 91.5% | 514.7hPa | 2.6V | 07:48:00 | 00:00:00 | 00:00:00 | |
| EDDB2-12 | 2026-09-04 01:06:20 | 53.21149 | 15.91482 | 113° | 99km/h | 5501m | -4.5m/s | -10.5°C | 91.5% | 514.2hPa | 2.6V | 00:00:00 | 00:00:00 | 00:00:00 | |
| KRY50SP | 2026-09-04 01:06:16 | 53.21179 | 15.91366 | 114° | 99km/h | 5515m | -4.6m/s | -10.6°C | 91.4% | 513.2hPa | 2.6V | 07:48:00 | 00:00:00 | 00:00:00 | |
| KRY50SP | 2026-09-04 01:06:10 | 53.21238 | 15.91140 | 114° | 95km/h | 5543m | -4.7m/s | -10.8°C | 91.2% | 511.4hPa | 2.6V | 07:48:00 | 00:00:00 | 00:00:00 | |
| KRY50SP | 2026-09-04 01:06:05 | 53.21286 | 15.90956 | 115° | 95km/h | 5566m | -4.6m/s | -10.9°C | 90.8% | 509.8hPa | 2.6V | 07:49:00 | 00:00:00 | 00:00:00 | |
| SONDE2-11 | 2026-09-04 01:06:03 | 53.21315 | 15.90845 | 113° | 95km/h | 5580m | -4.9m/s | -11.0°C | 90.5% | 509.0hPa | 2.6V | 00:00:00 | 00:00:00 | 00:00:00 | |
| EDDB2-11 | 2026-09-04 01:06:01 | 53.21345 | 15.90734 | 113° | 95km/h | 5594m | -4.7m/s | -11.2°C | 90.6% | 508.1hPa | 2.6V | 00:00:00 | 00:00:00 | 00:00:00 | |
| SP3WXH-11 | 2026-09-04 01:05:55 | 53.21394 | 15.90549 | 113° | 93km/h | 5617m | -4.7m/s | -11.3°C | 90.4% | 506.4hPa | 2.6V | 00:00:00 | 00:00:00 | 00:00:00 | |
| EDDB2-12 | 2026-09-04 01:05:49 | 53.21461 | 15.90291 | 113° | 97km/h | 5649m | -4.6m/s | -11.5°C | 90.3% | 504.4hPa | 2.6V | 00:00:00 | 00:00:00 | 00:00:00 | |
| AA1-15 | 2026-09-04 01:05:33 | 53.21605 | 15.89727 | 112° | 97km/h | 5717m | -4.7m/s | -11.9°C | 90.9% | 499.9hPa | 2.6V | 07:51:02 | 02:46:01 | 00:00:00 | |
| AA1-15 | 2026-09-04 01:05:22 | 53.21714 | 15.89310 | 114° | 97km/h | 5768m | -4.9m/s | -12.2°C | 90.8% | 496.5hPa | 2.6V | 07:51:02 | 02:45:50 | 00:00:00 | |
| EDDB2-12 | 2026-09-04 01:05:18 | 53.21764 | 15.89122 | 112° | 97km/h | 5791m | -4.5m/s | -12.4°C | 90.1% | 495.0hPa | 2.6V | 00:00:00 | 00:00:00 | 00:00:00 | |
| KRY50SP | 2026-09-04 01:05:12 | 53.21804 | 15.88969 | 115° | 99km/h | 5810m | -4.6m/s | -12.5°C | 89.9% | 493.8hPa | 2.6V | 07:50:00 | 00:00:00 | 00:00:00 | |
| KRY50SP | 2026-09-04 01:05:07 | 53.21856 | 15.88775 | 115° | 102km/h | 5834m | -4.5m/s | -12.6°C | 89.8% | 492.3hPa | 2.6V | 07:50:00 | 00:00:00 | 00:00:00 | |
| SONDE2-11 | 2026-09-04 01:05:01 | 53.21929 | 15.88499 | 113° | 100km/h | 5865m | -4.7m/s | -12.8°C | 89.9% | 490.2hPa | 2.6V | 00:00:00 | 00:00:00 | 00:00:00 | |
| EDDB2-11 | 2026-09-04 01:04:59 | 53.21959 | 15.88383 | 113° | 100km/h | 5879m | -4.8m/s | -12.9°C | 90.0% | 489.3hPa | 2.6V | 00:00:00 | 00:00:00 | 00:00:00 | |
| SP3WXH-11 | 2026-09-04 01:04:53 | 53.22011 | 15.88182 | 113° | 104km/h | 5902m | -4.6m/s | -13.0°C | 90.0% | 487.9hPa | 2.6V | 00:00:00 | 00:00:00 | 00:00:00 | |
| EDDB2-12 | 2026-09-04 01:04:47 | 53.22088 | 15.87897 | 114° | 106km/h | 5935m | -4.8m/s | -13.2°C | 89.9% | 485.8hPa | 2.6V | 00:00:00 | 00:00:00 | 00:00:00 | |
| KRY50SP | 2026-09-04 01:04:45 | 53.22088 | 15.87897 | 116° | 106km/h | 5935m | -4.8m/s | -13.2°C | 89.9% | 485.8hPa | 2.6V | 07:50:00 | 00:00:00 | 00:00:00 | |
| KRY50SP | 2026-09-04 01:04:40 | 53.22143 | 15.87694 | 115° | 108km/h | 5958m | -4.9m/s | -13.3°C | 90.1% | 484.3hPa | 2.6V | 07:50:00 | 00:00:00 | 00:00:00 | |
| KRY50SP | 2026-09-04 01:04:34 | 53.22209 | 15.87443 | 114° | 108km/h | 5985m | -4.8m/s | -13.4°C | 90.1% | 482.7hPa | 2.6V | 07:50:00 | 00:00:00 | 00:00:00 | |
| SONDE2-11 | 2026-09-04 01:04:30 | 53.22264 | 15.87232 | 113° | 108km/h | 6008m | -4.7m/s | -13.6°C | 90.1% | 481.1hPa | 2.6V | 00:00:00 | 00:00:00 | 00:00:00 | |
| EDDB2-11 | 2026-09-04 01:04:28 | 53.22297 | 15.87106 | 112° | 108km/h | 6022m | -4.9m/s | -13.6°C | 90.0% | 480.2hPa | 2.6V | 00:00:00 | 00:00:00 | 00:00:00 | |
| SP3WXH-11 | 2026-09-04 01:04:22 | 53.22352 | 15.86897 | 113° | 106km/h | 6045m | -4.6m/s | -13.8°C | 89.7% | 478.8hPa | 2.6V | 00:00:00 | 00:00:00 | 00:00:00 | |
| KRY50SP | 2026-09-04 01:04:18 | 53.22397 | 15.86730 | 114° | 108km/h | 6065m | -5.0m/s | -13.9°C | 89.7% | 477.6hPa | 2.6V | 07:51:00 | 00:00:00 | 00:00:00 | |
| KRY50SP | 2026-09-04 01:04:11 | 53.22464 | 15.86482 | 116° | 108km/h | 6093m | -4.3m/s | -14.1°C | 89.8% | 475.9hPa | 2.6V | 07:51:00 | 00:00:00 | 00:00:00 | |
| KRY50SP | 2026-09-04 01:04:05 | 53.22533 | 15.86235 | 116° | 108km/h | 6121m | -4.6m/s | -14.3°C | 89.6% | 474.0hPa | 2.6V | 07:51:00 | 00:00:00 | 00:00:00 | |
| SONDE2-11 | 2026-09-04 01:03:59 | 53.22615 | 15.85950 | 115° | 106km/h | 6153m | -4.7m/s | -14.5°C | 90.3% | 472.0hPa | 2.6V | 00:00:00 | 00:00:00 | 00:00:00 | |
| EDDB2-11 | 2026-09-04 01:03:56 | 53.22650 | 15.85830 | 116° | 104km/h | 6167m | -5.3m/s | -14.6°C | 90.2% | 471.1hPa | 2.6V | 00:00:00 | 00:00:00 | 00:00:00 | |
| DB0DAN | 2026-09-04 01:03:55 | 53.22662 | 15.85790 | 117° | 102km/h | 6172m | -4.2m/s | -14.7°C | 90.4% | 470.89hPa | 2.6V | 00:00:00 | 00:00:00 | 00:00:00 | |
| AA1-15 | 2026-09-04 01:03:49 | 53.22736 | 15.85550 | 117° | 108km/h | 6200m | -4.7m/s | -14.8°C | 90.8% | 469.1hPa | 2.6V | 07:51:02 | 02:44:17 | 00:00:00 | |
| AA1-15 | 2026-09-04 01:03:38 | 53.22870 | 15.85107 | 117° | 108km/h | 6252m | -4.8m/s | -15.2°C | 91.3% | 465.9hPa | 2.6V | 07:51:02 | 02:44:06 | 00:00:00 | |
| AA1-15 | 2026-09-04 01:03:27 | 53.23004 | 15.84663 | 116° | 108km/h | 6305m | -4.8m/s | -15.5°C | 91% | 462.7hPa | 2.6V | 07:51:53 | 02:43:55 | 00:00:00 | |
| DB0DAN | 2026-09-04 01:03:25 | 53.23028 | 15.84581 | 116° | 104km/h | 6314m | -4.7m/s | -15.6°C | 90.4% | 462.13hPa | 2.5V | 00:00:00 | 00:00:00 | 00:00:00 | |
| SP3WXH-11 | 2026-09-04 01:03:20 | 53.23087 | 15.84377 | 115° | 106km/h | 6338m | -5.0m/s | -15.8°C | 90.2% | 460.6hPa | 2.5V | 00:00:00 | 00:00:00 | 00:00:00 | |
| AM1SDL-15 | 2026-09-04 01:03:18 | 53.23111 | 15.84295 | 117° | 108km/h | 6348m | -4.4m/s | -15.8°C | 93.3% | 460.0hPa | 2.5V | 00:00:00 | 02:43:46 | 00:00:00 | |
| EDDB2-12 | 2026-09-04 01:03:14 | 53.23168 | 15.84090 | 114° | 108km/h | 6372m | -4.5m/s | -16.0°C | 90.0% | 458.6hPa | 2.6V | 00:00:00 | 00:00:00 | 00:00:00 | |
| DB0DAN | 2026-09-04 01:03:10 | 53.23202 | 15.83966 | 115° | 102km/h | 6386m | -5m/s | -16.1°C | 89.9% | 457.81hPa | 2.6V | 00:00:00 | 00:00:00 | 00:00:00 | |
| AA1-15 | 2026-09-04 01:03:08 | 53.23225 | 15.83883 | 114° | 108km/h | 6396m | -4.6m/s | -16.1°C | 90.1% | 457.3hPa | 2.6V | 07:51:53 | 02:43:36 | 00:00:00 | |
| AA1-15 | 2026-09-04 01:02:58 | 53.23336 | 15.83466 | 113° | 110km/h | 6444m | -4.7m/s | -16.5°C | 89.8% | 454.2hPa | 2.6V | 07:51:53 | 02:43:26 | 00:00:00 | |
| AA1-15 | 2026-09-04 01:02:48 | 53.23443 | 15.83036 | 112° | 111km/h | 6493m | -5.2m/s | -16.8°C | 90.1% | 451.3hPa | 2.6V | 07:51:53 | 02:43:16 | 00:00:00 | |
| AA1-15 | 2026-09-04 01:02:38 | 53.23562 | 15.82556 | 113° | 111km/h | 6546m | -5.2m/s | -17.2°C | 89.8% | 448.1hPa | 2.6V | 07:52:44 | 02:43:05 | 00:00:00 | |
| AA1-15 | 2026-09-04 01:02:26 | 53.23689 | 15.82074 | 114° | 113km/h | 6599m | -4.6m/s | -17.5°C | 90% | 444.9hPa | 2.6V | 07:52:44 | 02:42:54 | 00:00:00 | |
| AA1-15 | 2026-09-04 01:02:16 | 53.23805 | 15.81639 | 114° | 115km/h | 6649m | -4.7m/s | -17.8°C | 90.2% | 442hPa | 2.6V | 07:52:44 | 02:42:44 | 00:00:00 | |
| AA1-15 | 2026-09-04 01:02:06 | 53.23925 | 15.81204 | 114° | 113km/h | 6699m | -5.1m/s | -18.2°C | 90.8% | 439hPa | 2.5V | 07:52:44 | 02:42:34 | 00:00:00 | |
| AA1-15 | 2026-09-04 01:01:55 | 53.24055 | 15.80728 | 115° | 113km/h | 6753m | -4.9m/s | -18.6°C | 90.2% | 436hPa | 2.5V | 07:52:44 | 02:42:23 | 00:00:00 | |
| SONDE2-11 | 2026-09-04 01:01:55 | 53.24055 | 15.80728 | 115° | 111km/h | 6753m | -4.9m/s | -18.6°C | 90.7% | 436.0hPa | 2.6V | 00:00:00 | 00:00:00 | 00:00:00 | |
| EDDB2-11 | 2026-09-04 01:01:52 | 53.24091 | 15.80600 | 115° | 110km/h | 6768m | -5.3m/s | -18.7°C | 90.6% | 435.1hPa | 2.6V | 00:00:00 | 00:00:00 | 00:00:00 | |
| SP3WXH-11 | 2026-09-04 01:01:47 | 53.24150 | 15.80387 | 115° | 111km/h | 6792m | -4.7m/s | -18.9°C | 90.5% | 433.6hPa | 2.6V | 00:00:00 | 00:00:00 | 00:00:00 | |
| AA1-15 | 2026-09-04 01:01:44 | 53.24185 | 15.80260 | 115° | 110km/h | 6807m | -5.1m/s | -19°C | 89.4% | 432.7hPa | 2.6V | 07:53:35 | 02:42:12 | 00:00:00 | |
| AA1-15 | 2026-09-04 01:01:34 | 53.24307 | 15.79836 | 116° | 113km/h | 6856m | -5.2m/s | -19.3°C | 89.5% | 429.9hPa | 2.5V | 07:53:35 | 02:42:02 | 00:00:00 | |
| AA1-15 | 2026-09-04 01:01:23 | 53.24436 | 15.79361 | 114° | 113km/h | 6910m | -5.2m/s | -19.7°C | 89.7% | 426.8hPa | 2.5V | 07:53:35 | 02:41:51 | 00:00:00 | |
| AA1-15 | 2026-09-04 01:01:12 | 53.24567 | 15.78873 | 114° | 115km/h | 6966m | -5.3m/s | -20.1°C | 88.8% | 423.6hPa | 2.6V | 07:53:35 | 02:41:40 | 00:00:00 | |
| AA1-15 | 2026-09-04 01:01:02 | 53.24694 | 15.78375 | 112° | 119km/h | 7020m | -4.8m/s | -20.5°C | 89.1% | 420.5hPa | 2.6V | 07:56:08 | 02:41:29 | 00:00:00 | |
| SONDE2-11 | 2026-09-04 01:00:53 | 53.24802 | 15.77963 | 113° | 117km/h | 7066m | -4.7m/s | -20.8°C | 89.9% | 417.9hPa | 2.5V | 00:00:00 | 00:00:00 | 00:00:00 | |
| EDDB2-11 | 2026-09-04 01:00:50 | 53.24826 | 15.77871 | 113° | 119km/h | 7075m | -4.9m/s | -20.8°C | 89.8% | 417.4hPa | 2.5V | 00:00:00 | 00:00:00 | 00:00:00 | |
| SP3WXH-11 | 2026-09-04 01:00:45 | 53.24885 | 15.77640 | 113° | 119km/h | 7100m | -5.0m/s | -21.0°C | 89.9% | 416.0hPa | 2.5V | 00:00:00 | 00:00:00 | 00:00:00 | |
| KRY50SP | 2026-09-04 01:00:41 | 53.24921 | 15.77503 | 116° | 119km/h | 7115m | -4.6m/s | -21.1°C | 90.0% | 415.1hPa | 2.5V | 07:54:00 | 00:00:00 | 00:00:00 | |
| EDDB2-12 | 2026-09-04 01:00:38 | 53.24972 | 15.77319 | 114° | 120km/h | 7135m | -4.5m/s | -21.2°C | 89.8% | 414.0hPa | 2.5V | 00:00:00 | 00:00:00 | 00:00:00 | |
| KRY50SP | 2026-09-04 01:00:36 | 53.24984 | 15.77272 | 115° | 120km/h | 7140m | -5.2m/s | -21.3°C | 89.7% | 413.7hPa | 2.5V | 07:54:00 | 00:00:00 | 00:00:00 | |
| KRY50SP | 2026-09-04 01:00:31 | 53.25060 | 15.76999 | 115° | 117km/h | 7169m | -4.7m/s | -21.5°C | 89.5% | 412.1hPa | 2.5V | 07:54:00 | 00:00:00 | 00:00:00 | |
| KRY50SP | 2026-09-04 01:00:24 | 53.25134 | 15.76728 | 116° | 119km/h | 7197m | -5.0m/s | -21.7°C | 89.0% | 410.4hPa | 2.5V | 07:54:00 | 00:00:00 | 00:00:00 | |
| SONDE2-11 | 2026-09-04 01:00:22 | 53.25172 | 15.76595 | 115° | 117km/h | 7212m | -5.2m/s | -21.8°C | 88.7% | 409.5hPa | 2.5V | 00:00:00 | 00:00:00 | 00:00:00 | |
| EDDB2-11 | 2026-09-04 01:00:20 | 53.25211 | 15.76461 | 116° | 117km/h | 7227m | -5.2m/s | -21.9°C | 88.8% | 408.7hPa | 2.5V | 00:00:00 | 00:00:00 | 00:00:00 | |
| KRY50SP | 2026-09-04 01:00:19 | 53.25211 | 15.76461 | 117° | 117km/h | 7227m | -5.2m/s | -21.9°C | 88.8% | 408.7hPa | 2.5V | 07:54:00 | 00:00:00 | 00:00:00 | |
| DB0DAN | 2026-09-04 01:00:10 | 53.25330 | 15.76058 | 115° | 111km/h | 7271m | -5.1m/s | -22.3°C | 88.6% | 406.23hPa | 2.5V | 00:00:00 | 00:00:00 | 00:00:00 | |
| EDDB2-12 | 2026-09-04 01:00:07 | 53.25368 | 15.75921 | 114° | 119km/h | 7286m | -5.1m/s | -22.4°C | 88.4% | 405.4hPa | 2.6V | 00:00:00 | 00:00:00 | 00:00:00 | |
| DB0DAN | 2026-09-04 00:59:55 | 53.25523 | 15.75366 | 115° | 115km/h | 7346m | -5.4m/s | -22.8°C | 87.9% | 402.08hPa | 2.6V | 00:00:00 | 00:00:00 | 00:00:00 | |
| AA1-15 | 2026-09-04 00:59:55 | 53.25523 | 15.75366 | 115° | 120km/h | 7345m | -5.4m/s | -22.8°C | 88.1% | 402.1hPa | 2.6V | 07:56:08 | 02:40:23 | 00:00:00 | |
| AA1-15 | 2026-09-04 00:59:45 | 53.25655 | 15.74905 | 116° | 120km/h | 7400m | -5.8m/s | -23.1°C | 87.2% | 399.3hPa | 2.5V | 07:56:08 | 02:40:13 | 00:00:00 | |
| DB0DAN | 2026-09-04 00:59:40 | 53.25720 | 15.74675 | 115° | 115km/h | 7427m | -5.1m/s | -23.3°C | 86.6% | 397.83hPa | 2.5V | 00:00:00 | 00:00:00 | 00:00:00 | |
| AA1-15 | 2026-09-04 00:59:34 | 53.25799 | 15.74396 | 115° | 122km/h | 7458m | -5.4m/s | -23.5°C | 86.3% | 396.2hPa | 2.5V | 07:56:08 | 02:40:02 | 00:00:00 | |
| KRY50SP | 2026-09-04 00:59:28 | 53.25866 | 15.74163 | 117° | 122km/h | 7483m | -4.6m/s | -23.7°C | 85.4% | 394.8hPa | 2.6V | 07:55:00 | 00:00:00 | 00:00:00 | |
| DB0DAN | 2026-09-04 00:59:25 | 53.25921 | 15.73978 | 116° | 117km/h | 7502m | -5m/s | -23.9°C | 85.3% | 393.78hPa | 2.6V | 00:00:00 | 00:00:00 | 00:00:00 | |
| AA1-15 | 2026-09-04 00:59:23 | 53.25948 | 15.73885 | 116° | 122km/h | 7513m | -5.3m/s | -23.9°C | 85.7% | 393.2hPa | 2.5V | 07:56:08 | 02:39:51 | 00:00:00 | |
| KRY50SP | 2026-09-04 00:59:22 | 53.25948 | 15.73885 | 117° | 122km/h | 7513m | -5.3m/s | -23.9°C | 85.2% | 393.2hPa | 2.6V | 07:55:00 | 00:00:00 | 00:00:00 | |
| SONDE2-11 | 2026-09-04 00:59:20 | 53.26003 | 15.73700 | 116° | 122km/h | 7533m | -4.4m/s | -24.0°C | 85.1% | 392.2hPa | 2.6V | 00:00:00 | 00:00:00 | 00:00:00 | |
| EDDB2-11 | 2026-09-04 00:59:18 | 53.26031 | 15.73607 | 116° | 122km/h | 7542m | -4.4m/s | -24.1°C | 85.0% | 391.6hPa | 2.6V | 00:00:00 | 00:00:00 | 00:00:00 | |
| DB0DAN | 2026-09-04 00:59:10 | 53.26128 | 15.73276 | 116° | 120km/h | 7576m | -5.9m/s | -24.3°C | 83.7% | 389.66hPa | 2.6V | 00:00:00 | 00:00:00 | 00:00:00 | |
| AA1-15 | 2026-09-04 00:59:05 | 53.26199 | 15.73038 | 116° | 128km/h | 7602m | -5.8m/s | -24.5°C | 83.7% | 388.3hPa | 2.6V | 07:56:08 | 02:39:33 | 00:00:00 | |
| AA1-15 | 2026-09-04 00:58:55 | 53.26350 | 15.72553 | 119° | 131km/h | 7652m | -5.1m/s | -24.7°C | 84.7% | 385.7hPa | 2.6V | 07:56:08 | 02:39:23 | 00:00:00 | |
| SONDE2-11 | 2026-09-04 00:58:49 | 53.26462 | 15.72211 | 118° | 130km/h | 7686m | -5.2m/s | -24.8°C | 83.9% | 383.8hPa | 2.5V | 00:00:00 | 00:00:00 | 00:00:00 | |
| EDDB2-11 | 2026-09-04 00:58:46 | 53.26495 | 15.72115 | 119° | 131km/h | 7697m | -5.8m/s | -24.9°C | 83.6% | 383.3hPa | 2.5V | 00:00:00 | 00:00:00 | 00:00:00 | |
| AA1-15 | 2026-09-04 00:58:42 | 53.26561 | 15.71922 | 120° | 131km/h | 7717m | -5.6m/s | -25°C | 85.3% | 382.2hPa | 2.5V | 07:56:08 | 02:39:10 | 00:00:00 | |
| AA1-15 | 2026-09-04 00:58:31 | 53.26746 | 15.71393 | 120° | 130km/h | 7775m | -4.9m/s | -25.3°C | 84.6% | 379.2hPa | 2.5V | 07:56:08 | 02:38:59 | 00:00:00 | |
| AM1SDL-15 | 2026-09-04 00:58:30 | 53.26762 | 15.71346 | 121° | 131km/h | 7780m | -5.4m/s | -25.3°C | 86.1% | 378.9hPa | 2.6V | 00:00:00 | 02:38:58 | 00:00:00 | |
| DB0DAN | 2026-09-04 00:58:25 | 53.26847 | 15.71109 | 121° | 128km/h | 7806m | -5.4m/s | -25.6°C | 81.4% | 377.63hPa | 2.6V | 00:00:00 | 00:00:00 | 00:00:00 | |
| AA1-15 | 2026-09-04 00:58:21 | 53.26917 | 15.70915 | 121° | 135km/h | 7827m | -5.6m/s | -25.7°C | 84% | 376.5hPa | 2.5V | 07:56:59 | 02:38:49 | 00:00:00 | |
| AA1-15 | 2026-09-04 00:58:10 | 53.27108 | 15.70387 | 122° | 131km/h | 7883m | -5.1m/s | -26.1°C | 83.6% | 373.6hPa | 2.5V | 07:56:59 | 02:38:38 | 00:00:00 | |
| AA1-15 | 2026-09-04 00:57:59 | 53.27301 | 15.69866 | 121° | 131km/h | 7942m | -5.3m/s | -26.5°C | 82.1% | 370.6hPa | 2.5V | 07:56:59 | 02:38:27 | 00:00:00 | |
| AA1-15 | 2026-09-04 00:57:48 | 53.27499 | 15.69345 | 122° | 133km/h | 7998m | -5.8m/s | -27°C | 81.8% | 367.7hPa | 2.5V | 07:56:59 | 02:38:16 | 00:00:00 | |
| SONDE2-11 | 2026-09-04 00:57:46 | 53.27535 | 15.69250 | 121° | 131km/h | 8009m | -5.8m/s | -27.1°C | 78.8% | 367.2hPa | 2.5V | 00:00:00 | 00:00:00 | 00:00:00 | |
| AA1-15 | 2026-09-04 00:57:37 | 53.27697 | 15.68823 | 123° | 133km/h | 8057m | -5.1m/s | -27.4°C | 81.7% | 364.8hPa | 2.5V | 07:57:50 | 02:38:05 | 00:00:00 | |
| AA1-15 | 2026-09-04 00:57:27 | 53.27879 | 15.68349 | 123° | 135km/h | 8110m | -5.2m/s | -27.8°C | 80.6% | 362.2hPa | 2.5V | 07:57:50 | 02:37:55 | 00:00:00 | |
| AA1-15 | 2026-09-04 00:57:16 | 53.28095 | 15.67781 | 122° | 133km/h | 8172m | -4.9m/s | -28.3°C | 80.1% | 359hPa | 2.5V | 07:57:50 | 02:37:43 | 00:00:00 | |
| SONDE2-11 | 2026-09-04 00:57:15 | 53.28095 | 15.67781 | 122° | 133km/h | 8172m | -4.9m/s | -28.3°C | 76.7% | 359.0hPa | 2.5V | 00:00:00 | 00:00:00 | 00:00:00 | |
| KRY50SP | 2026-09-04 00:57:12 | 53.28131 | 15.67685 | 123° | 133km/h | 8182m | -5.0m/s | -28.4°C | 76.6% | 358.5hPa | 2.5V | 07:57:00 | 00:00:00 | 00:00:00 | |
| DB0DAN | 2026-09-04 00:57:10 | 53.28186 | 15.67542 | 122° | 130km/h | 8197m | -5.6m/s | -28.5°C | 76.4% | 357.76hPa | 2.5V | 00:00:00 | 00:00:00 | 00:00:00 | |
| AA1-15 | 2026-09-04 00:57:06 | 53.28260 | 15.67350 | 122° | 135km/h | 8219m | -5.5m/s | -28.6°C | 79.4% | 356.7hPa | 2.5V | 07:57:50 | 02:37:34 | 00:00:00 | |
| AA1-15 | 2026-09-04 00:56:56 | 53.28442 | 15.66870 | 122° | 137km/h | 8272m | -5m/s | -29°C | 80% | 354.1hPa | 2.5V | 07:57:50 | 02:37:24 | 00:00:00 | |
| AA1-15 | 2026-09-04 00:56:46 | 53.28633 | 15.66381 | 123° | 137km/h | 8323m | -5.4m/s | -29.3°C | 79.1% | 351.6hPa | 2.5V | 07:59:32 | 02:37:14 | 00:00:00 | |
| AA1-15 | 2026-09-04 00:56:36 | 53.28822 | 15.65883 | 123° | 141km/h | 8377m | -4.9m/s | -29.7°C | 78.9% | 349hPa | 2.5V | 07:59:32 | 02:37:04 | 00:00:00 | |
| AA1-15 | 2026-09-04 00:56:25 | 53.29038 | 15.65330 | 122° | 144km/h | 8430m | -4.4m/s | -30.1°C | 78.4% | 346.3hPa | 2.5V | 07:59:32 | 02:36:53 | 00:00:00 | |
| AA1-15 | 2026-09-04 00:56:15 | 53.29238 | 15.64825 | 123° | 144km/h | 8477m | -5m/s | -30.4°C | 78.7% | 344.1hPa | 2.5V | 07:59:32 | 02:36:43 | 00:00:00 | |
| AA1-15 | 2026-09-04 00:56:05 | 53.29436 | 15.64315 | 123° | 144km/h | 8527m | -5.3m/s | -30.8°C | 79% | 341.7hPa | 2.4V | 07:59:32 | 02:36:33 | 00:00:00 | |
| AA1-15 | 2026-09-04 00:55:55 | 53.29636 | 15.63800 | 124° | 144km/h | 8577m | -5m/s | -31.2°C | 79.1% | 339.2hPa | 2.5V | 07:59:32 | 02:36:23 | 00:00:00 | |
| AA1-15 | 2026-09-04 00:55:43 | 53.29873 | 15.63176 | 122° | 146km/h | 8638m | -5.2m/s | -31.7°C | 79% | 336.2hPa | 2.5V | 07:59:32 | 02:36:11 | 00:00:00 | |
| AA1-15 | 2026-09-04 00:55:32 | 53.30094 | 15.62594 | 122° | 151km/h | 8694m | -4.8m/s | -32.1°C | 78.3% | 333.6hPa | 2.5V | 07:59:32 | 02:36:00 | 00:00:00 | |
| AA1-15 | 2026-09-04 00:55:21 | 53.30319 | 15.62000 | 123° | 151km/h | 8750m | -4.6m/s | -32.5°C | 77.7% | 330.9hPa | 2.5V | 07:59:32 | 02:35:49 | 00:00:00 | |
| AA1-15 | 2026-09-04 00:55:10 | 53.30553 | 15.61404 | 124° | 155km/h | 8805m | -5.7m/s | -32.8°C | 78.4% | 328.4hPa | 2.5V | 07:59:32 | 02:35:38 | 00:00:00 | |
| AA1-15 | 2026-09-04 00:55:00 | 53.30769 | 15.60859 | 123° | 155km/h | 8859m | -5.6m/s | -33.2°C | 78.7% | 325.9hPa | 2.5V | 08:00:23 | 02:35:28 | 00:00:00 | |
| AA1-15 | 2026-09-04 00:54:50 | 53.30991 | 15.60314 | 125° | 157km/h | 8916m | -5.5m/s | -33.7°C | 79% | 323.3hPa | 2.5V | 08:00:23 | 02:35:18 | 00:00:00 | |
| AA1-15 | 2026-09-04 00:54:40 | 53.31220 | 15.59766 | 125° | 161km/h | 8970m | -5.8m/s | -34.1°C | 79.5% | 320.8hPa | 2.5V | 08:00:23 | 02:35:08 | 00:00:00 | |
| AA1-15 | 2026-09-04 00:54:29 | 53.31479 | 15.59159 | 126° | 161km/h | 9030m | -5.2m/s | -34.6°C | 79.1% | 318hPa | 2.4V | 08:00:23 | 02:34:57 | 00:00:00 | |
| DB0DAN | 2026-09-04 00:54:25 | 53.31573 | 15.58938 | 125° | 155km/h | 9052m | -5.4m/s | -34.8°C | 74.1% | 317hPa | 2.5V | 00:00:00 | 00:00:00 | 00:00:00 | |
| AA1-15 | 2026-09-04 00:54:18 | 53.31743 | 15.58545 | 126° | 164km/h | 9090m | -5m/s | -35°C | 78.1% | 315.2hPa | 2.5V | 08:00:23 | 02:34:46 | 00:00:00 | |
| DB0DAN | 2026-09-04 00:54:10 | 53.31937 | 15.58100 | 127° | 155km/h | 9135m | -5.2m/s | -35.4°C | 72.2% | 313.3hPa | 2.4V | 00:00:00 | 00:00:00 | 00:00:00 | |
| AA1-15 | 2026-09-04 00:54:08 | 53.31987 | 15.57989 | 127° | 164km/h | 9146m | -5.3m/s | -35.4°C | 77.2% | 312.8hPa | 2.5V | 08:01:14 | 02:34:36 | 00:00:00 | |
| AA1-15 | 2026-09-04 00:53:51 | 53.32413 | 15.57033 | 128° | 168km/h | 9242m | -5.6m/s | -36.3°C | 77.5% | 308.6hPa | 2.5V | 08:01:14 | 02:34:19 | 00:00:00 | |
| KRY50SP | 2026-09-04 00:53:50 | 53.32413 | 15.57033 | 128° | 168km/h | 9243m | -5.6m/s | -36.3°C | 72.6% | 308.6hPa | 2.5V | 08:01:00 | 00:00:00 | 00:00:00 | |
| AM1SDL-15 | 2026-09-04 00:53:47 | 53.32541 | 15.56752 | 127° | 168km/h | 9272m | -5.6m/s | -36.5°C | 77.5% | 307.3hPa | 2.5V | 00:00:00 | 02:34:14 | 00:00:00 | |
| KRY50SP | 2026-09-04 00:53:45 | 53.32566 | 15.56695 | 128° | 168km/h | 9279m | -5.7m/s | -36.6°C | 72.1% | 307.0hPa | 2.4V | 08:01:00 | 00:00:00 | 00:00:00 | |
| SP3BTT-10 | 2026-09-04 00:53:43 | 53.32617 | 15.56582 | 127° | 164km/h | 9290m | -5.1m/s | -36.6°C | 77.0% | 306.5hPa | 2.4V | 00:00:00 | 00:00:00 | 00:00:00 | |
| DB0DAN | 2026-09-04 00:53:40 | 53.32694 | 15.56413 | 128° | 161km/h | 9306m | -4.8m/s | -36.8°C | 71.3% | 305.91hPa | 2.4V | 00:00:00 | 00:00:00 | 00:00:00 | |
| AA1-15 | 2026-09-04 00:53:40 | 53.32694 | 15.56413 | 128° | 170km/h | 9306m | -4.8m/s | -36.8°C | 76.1% | 305.9hPa | 2.4V | 08:01:14 | 02:34:08 | 00:00:00 | |
| AA1-15 | 2026-09-04 00:53:29 | 53.32982 | 15.55798 | 129° | 168km/h | 9365m | -5.5m/s | -37.3°C | 75.5% | 303.2hPa | 2.4V | 08:01:14 | 02:33:57 | 00:00:00 | |
| KRY50SP | 2026-09-04 00:53:27 | 53.33009 | 15.55742 | 130° | 172km/h | 9370m | -4.8m/s | -37.3°C | 70.8% | 302.9hPa | 2.5V | 08:01:00 | 00:00:00 | 00:00:00 | |
| DB0DAN | 2026-09-04 00:53:25 | 53.33089 | 15.55573 | 129° | 161km/h | 9386m | -4.6m/s | -37.4°C | 70.5% | 302.27hPa | 2.5V | 00:00:00 | 00:00:00 | 00:00:00 | |
| AA1-15 | 2026-09-04 00:53:18 | 53.33272 | 15.55183 | 128° | 168km/h | 9421m | -5.2m/s | -37.8°C | 75% | 300.6hPa | 2.4V | 08:02:05 | 02:33:46 | 00:00:00 | |
| KRY50SP | 2026-09-04 00:53:15 | 53.33324 | 15.55071 | 129° | 168km/h | 9433m | -4.9m/s | -37.9°C | 70.3% | 300.2hPa | 2.5V | 08:02:00 | 00:00:00 | 00:00:00 | |
| DB0DAN | 2026-09-04 00:53:10 | 53.33483 | 15.54737 | 128° | 161km/h | 9465m | -5.5m/s | -38.1°C | 70.3% | 298.79hPa | 2.5V | 00:00:00 | 00:00:00 | 00:00:00 | |
| AA1-15 | 2026-09-04 00:53:08 | 53.33535 | 15.54626 | 128° | 166km/h | 9476m | -5.5m/s | -38.2°C | 74.9% | 298.3hPa | 2.4V | 08:02:05 | 02:33:36 | 00:00:00 | |
| AA1-15 | 2026-09-04 00:52:57 | 53.33822 | 15.54025 | 129° | 166km/h | 9537m | -5.4m/s | -38.8°C | 73.9% | 295.8hPa | 2.4V | 08:02:05 | 02:33:25 | 00:00:00 | |
| DB0DAN | 2026-09-04 00:52:55 | 53.33875 | 15.53915 | 128° | 157km/h | 9548m | -5.1m/s | -38.9°C | 69.5% | 295.27hPa | 2.4V | 00:00:00 | 00:00:00 | 00:00:00 | |
| AA1-15 | 2026-09-04 00:52:46 | 53.34109 | 15.53432 | 129° | 164km/h | 9598m | -5.6m/s | -39.3°C | 73.5% | 293.2hPa | 2.4V | 08:02:05 | 02:33:14 | 00:00:00 | |
| SP3BTT-10 | 2026-09-04 00:52:43 | 53.34188 | 15.53270 | 130° | 166km/h | 9614m | -4.9m/s | -39.4°C | 74.2% | 292.4hPa | 2.5V | 00:00:00 | 00:00:00 | 00:00:00 | |
| DB0DAN | 2026-09-04 00:52:40 | 53.34268 | 15.53109 | 130° | 159km/h | 9630m | -5.8m/s | -39.6°C | 68.7% | 291.73hPa | 2.4V | 00:00:00 | 00:00:00 | 00:00:00 | |
| AA1-15 | 2026-09-04 00:52:36 | 53.34374 | 15.52895 | 130° | 164km/h | 9652m | -5.8m/s | -39.8°C | 74.2% | 290.8hPa | 2.5V | 08:02:05 | 02:33:04 | 00:00:00 | |
| AA1-15 | 2026-09-04 00:52:25 | 53.34696 | 15.52253 | 130° | 164km/h | 9720m | -4.9m/s | -40.4°C | 75.1% | 288hPa | 2.4V | 08:02:56 | 02:32:52 | 00:00:00 | |
| DB0DAN | 2026-09-04 00:52:25 | 53.34669 | 15.52307 | 130° | 159km/h | 9714m | -5.6m/s | -40.4°C | 69.8% | 288.24hPa | 2.5V | 00:00:00 | 00:00:00 | 00:00:00 | |
| AA1-15 | 2026-09-04 00:52:15 | 53.34968 | 15.51720 | 131° | 168km/h | 9774m | -5.6m/s | -40.9°C | 75.4% | 285.6hPa | 2.5V | 08:02:56 | 02:32:42 | 00:00:00 | |
| AM1SDL-15 | 2026-09-04 00:52:13 | 53.34995 | 15.51666 | 130° | 168km/h | 9780m | -5.6m/s | -40.9°C | 75.9% | 285.4hPa | 2.5V | 00:00:00 | 02:32:41 | 00:00:00 | |
| DB0DAN | 2026-09-04 00:52:10 | 53.35078 | 15.51505 | 130° | 161km/h | 9796m | -5.6m/s | -41.1°C | 69.5% | 284.67hPa | 2.5V | 00:00:00 | 00:00:00 | 00:00:00 | |
| AA1-15 | 2026-09-04 00:52:04 | 53.35270 | 15.51129 | 131° | 166km/h | 9837m | -5.5m/s | -41.5°C | 74.8% | 283.1hPa | 2.5V | 08:02:56 | 02:32:31 | 00:00:00 | |
| KRY50SP | 2026-09-04 00:52:03 | 53.35243 | 15.51182 | 132° | 166km/h | 9830m | -5.7m/s | -41.4°C | 69.1% | 283.3hPa | 2.4V | 08:02:00 | 00:00:00 | 00:00:00 | |
| EDDB2-11 | 2026-09-04 00:52:02 | 53.35298 | 15.51076 | 130° | 168km/h | 9842m | -5.3m/s | -41.5°C | 69.1% | 282.8hPa | 2.4V | 00:00:00 | 00:00:00 | 00:00:00 | |
| SP3WXH-11 | 2026-09-04 00:51:57 | 53.35436 | 15.50808 | 130° | 166km/h | 9870m | -5.1m/s | -41.8°C | 68.9% | 281.6hPa | 2.4V | 00:00:00 | 00:00:00 | 00:00:00 | |
| DB0DAN | 2026-09-04 00:51:55 | 53.35491 | 15.50701 | 131° | 159km/h | 9882m | -5m/s | -41.9°C | 68.5% | 281.15hPa | 2.4V | 00:00:00 | 00:00:00 | 00:00:00 | |
| AA1-15 | 2026-09-04 00:51:54 | 53.35518 | 15.50648 | 131° | 168km/h | 9887m | -5.8m/s | -42°C | 74.2% | 280.9hPa | 2.4V | 08:02:56 | 02:32:22 | 00:00:00 | |
| EDDB2-12 | 2026-09-04 00:51:51 | 53.35629 | 15.50434 | 131° | 166km/h | 9909m | -5.6m/s | -42.2°C | 68.7% | 280.0hPa | 2.4V | 00:00:00 | 00:00:00 | 00:00:00 | |
| AA1-15 | 2026-09-04 00:51:43 | 53.35825 | 15.50061 | 131° | 168km/h | 9948m | -5.8m/s | -42.6°C | 75% | 278.4hPa | 2.4V | 08:02:56 | 02:32:11 | 00:00:00 | |
| SP3BTT-10 | 2026-09-04 00:51:43 | 53.35825 | 15.50061 | 132° | 172km/h | 9948m | -5.8m/s | -42.5°C | 74.8% | 278.3hPa | 2.4V | 00:00:00 | 00:00:00 | 00:00:00 | |
| DB0DAN | 2026-09-04 00:51:40 | 53.35909 | 15.49903 | 131° | 161km/h | 9965m | -5.8m/s | -42.7°C | 68% | 277.64hPa | 2.4V | 00:00:00 | 00:00:00 | 00:00:00 | |
| AA1-15 | 2026-09-04 00:51:33 | 53.36159 | 15.49422 | 131° | 168km/h | 10019m | -5.8m/s | -43.2°C | 72.4% | 275.5hPa | 2.4V | 08:03:47 | 02:31:59 | 00:00:00 | |
| EDDB2-11 | 2026-09-04 00:51:31 | 53.36159 | 15.49422 | 131° | 168km/h | 10019m | -5.8m/s | -43.2°C | 65.6% | 275.5hPa | 2.5V | 00:00:00 | 00:00:00 | 00:00:00 | |
| DB0DAN | 2026-09-04 00:51:25 | 53.36329 | 15.49103 | 132° | 161km/h | 10054m | -5.9m/s | -43.5°C | 65.5% | 274.06hPa | 2.5V | 00:00:00 | 00:00:00 | 00:00:00 | |
| AA1-15 | 2026-09-04 00:51:19 | 53.36499 | 15.48782 | 131° | 168km/h | 10089m | -5.8m/s | -43.9°C | 71.2% | 272.7hPa | 2.5V | 08:03:47 | 02:31:47 | 00:00:00 | |
| KRY50SP | 2026-09-04 00:51:17 | 53.36555 | 15.48675 | 133° | 168km/h | 10101m | -5.7m/s | -44.0°C | 64.7% | 272.1hPa | 2.5V | 08:03:00 | 00:00:00 | 00:00:00 | |
| AM1SDL-15 | 2026-09-04 00:51:13 | 53.36668 | 15.48459 | 131° | 170km/h | 10124m | -5.9m/s | -44.2°C | 70.4% | 271.2hPa | 2.5V | 08:03:00 | 02:31:41 | 00:00:00 | |
| DB0DAN | 2026-09-04 00:51:10 | 53.36752 | 15.48297 | 131° | 161km/h | 10141m | -6m/s | -44.4°C | 63.8% | 270.53hPa | 2.4V | 00:00:00 | 00:00:00 | 00:00:00 | |
| AA1-15 | 2026-09-04 00:51:08 | 53.36808 | 15.48190 | 132° | 170km/h | 10153m | -5.3m/s | -44.5°C | 70.9% | 270hPa | 2.4V | 08:03:47 | 02:31:36 | 00:00:00 | |
| AA1-15 | 2026-09-04 00:50:57 | 53.37121 | 15.47589 | 131° | 173km/h | 10221m | -5.8m/s | -45.1°C | 70.3% | 267.5hPa | 2.4V | 08:03:47 | 02:31:25 | 00:00:00 | |
| AA1-15 | 2026-09-04 00:50:46 | 53.37435 | 15.46974 | 130° | 175km/h | 10289m | -6.4m/s | -45.7°C | 69.6% | 264.8hPa | 2.4V | 08:04:38 | 02:31:14 | 00:00:00 | |
| AA1-15 | 2026-09-04 00:50:35 | 53.37751 | 15.46352 | 131° | 177km/h | 10354m | -5.7m/s | -46.3°C | 69.1% | 262.1hPa | 2.4V | 08:04:38 | 02:31:03 | 00:00:00 | |
| AA1-15 | 2026-09-04 00:50:24 | 53.38071 | 15.45724 | 130° | 177km/h | 10421m | -5.9m/s | -46.8°C | 68.2% | 259.5hPa | 2.4V | 08:04:38 | 02:30:52 | 00:00:00 | |
| AA1-15 | 2026-09-04 00:50:13 | 53.38390 | 15.45094 | 130° | 179km/h | 10489m | -5.6m/s | -47.5°C | 67.4% | 256.9hPa | 2.4V | 08:04:38 | 02:30:41 | 00:00:00 | |
| AA1-15 | 2026-09-04 00:50:03 | 53.38679 | 15.44513 | 130° | 179km/h | 10550m | -6.4m/s | -48°C | 66.1% | 254.6hPa | 2.5V | 08:04:38 | 02:30:31 | 00:00:00 | |
| EDDB2-11 | 2026-09-04 00:49:58 | 53.38821 | 15.44221 | 129° | 179km/h | 10581m | -6.2m/s | -48.3°C | 57.6% | 253.3hPa | 2.4V | 00:00:00 | 00:00:00 | 00:00:00 | |
| DB0DAN | 2026-09-04 00:49:55 | 53.38907 | 15.44044 | 129° | 172km/h | 10599m | -6.6m/s | -48.5°C | 58% | 252.53hPa | 2.4V | 00:00:00 | 00:00:00 | 00:00:00 | |
| AA1-15 | 2026-09-04 00:49:53 | 53.38965 | 15.43926 | 130° | 181km/h | 10612m | -6.3m/s | -48.6°C | 66% | 252.1hPa | 2.4V | 08:05:29 | 02:30:21 | 00:00:00 | |
| EDDB2-12 | 2026-09-04 00:49:46 | 53.39166 | 15.43515 | 129° | 177km/h | 10656m | -6.6m/s | -49.0°C | 57.8% | 250.4hPa | 2.4V | 00:00:00 | 00:00:00 | 00:00:00 | |
| AA1-15 | 2026-09-04 00:49:43 | 53.39252 | 15.43339 | 129° | 179km/h | 10676m | -6.4m/s | -49.2°C | 66.4% | 249.7hPa | 2.4V | 08:05:29 | 02:30:11 | 00:00:00 | |
| DB0DAN | 2026-09-04 00:49:40 | 53.39340 | 15.43165 | 130° | 172km/h | 10695m | -6.4m/s | -49.4°C | 58.9% | 248.98hPa | 2.5V | 00:00:00 | 00:00:00 | 00:00:00 | |
| AA1-15 | 2026-09-04 00:49:32 | 53.39574 | 15.42701 | 130° | 177km/h | 10745m | -6.9m/s | -49.8°C | 67.5% | 247.1hPa | 2.4V | 08:05:29 | 02:30:00 | 00:00:00 | |
| SONDE2-11 | 2026-09-04 00:49:30 | 53.39661 | 15.42529 | 130° | 177km/h | 10765m | -6.6m/s | -50.0°C | 58.8% | 246.3hPa | 2.4V | 00:00:00 | 00:00:00 | 00:00:00 | |
| KRY50SP | 2026-09-04 00:49:27 | 53.39690 | 15.42471 | 131° | 177km/h | 10771m | -6.1m/s | -50.1°C | 58.4% | 246.0hPa | 2.4V | 08:05:00 | 00:00:00 | 00:00:00 | |
| DB0DAN | 2026-09-04 00:49:25 | 53.39776 | 15.42299 | 130° | 170km/h | 10791m | -6.3m/s | -50.3°C | 58.1% | 245.32hPa | 2.4V | 00:00:00 | 00:00:00 | 00:00:00 | |
| AA1-15 | 2026-09-04 00:49:21 | 53.39891 | 15.42070 | 130° | 175km/h | 10816m | -6.6m/s | -50.5°C | 65.3% | 244.3hPa | 2.4V | 08:05:29 | 02:29:49 | 00:00:00 | |
| AA1-15 | 2026-09-04 00:49:10 | 53.40206 | 15.41438 | 130° | 177km/h | 10886m | -6.5m/s | -51°C | 64.3% | 241.8hPa | 2.5V | 08:05:29 | 02:29:38 | 00:00:00 | |
| AA1-15 | 2026-09-04 00:48:59 | 53.40521 | 15.40808 | 130° | 177km/h | 10956m | -6.5m/s | -51.7°C | 64.5% | 239.2hPa | 2.5V | 08:06:20 | 02:29:27 | 00:00:00 | |
| SONDE2-11 | 2026-09-04 00:48:58 | 53.40549 | 15.40750 | 129° | 175km/h | 10963m | -6.6m/s | -51.7°C | 55.8% | 239.0hPa | 2.4V | 00:00:00 | 00:00:00 | 00:00:00 | |
| EDDB2-11 | 2026-09-04 00:48:56 | 53.40605 | 15.40636 | 129° | 173km/h | 10976m | -6.1m/s | -51.8°C | 55.9% | 238.5hPa | 2.4V | 00:00:00 | 00:00:00 | 00:00:00 | |
| DB0DAN | 2026-09-04 00:48:55 | 53.40634 | 15.40578 | 129° | 168km/h | 10982m | -6.3m/s | -51.9°C | 55.9% | 238.25hPa | 2.4V | 00:00:00 | 00:00:00 | 00:00:00 | |
| AA1-15 | 2026-09-04 00:48:49 | 53.40805 | 15.40232 | 130° | 177km/h | 11020m | -6.7m/s | -52.2°C | 65% | 236.8hPa | 2.4V | 08:06:20 | 02:29:17 | 00:00:00 | |
| KRY50SP | 2026-09-04 00:48:47 | 53.40834 | 15.40175 | 131° | 179km/h | 11027m | -6.9m/s | -52.3°C | 56.0% | 236.5hPa | 2.5V | 08:06:00 | 00:00:00 | 00:00:00 | |
| EDDB2-12 | 2026-09-04 00:48:44 | 53.40951 | 15.39944 | 130° | 177km/h | 11054m | -6.4m/s | -52.5°C | 56.7% | 235.6hPa | 2.5V | 00:00:00 | 00:00:00 | 00:00:00 | |
| KRY50SP | 2026-09-04 00:48:42 | 53.40979 | 15.39886 | 131° | 177km/h | 11060m | -6.3m/s | -52.6°C | 57.0% | 235.4hPa | 2.5V | 08:06:00 | 00:00:00 | 00:00:00 | |
| DB0DAN | 2026-09-04 00:48:40 | 53.41066 | 15.39714 | 130° | 170km/h | 11079m | -6.1m/s | -52.8°C | 57.3% | 234.68hPa | 2.5V | 00:00:00 | 00:00:00 | 00:00:00 | |
| AA1-15 | 2026-09-04 00:48:39 | 53.41095 | 15.39656 | 130° | 179km/h | 11085m | -6.5m/s | -52.8°C | 66.3% | 234.4hPa | 2.4V | 08:06:20 | 02:29:07 | 00:00:00 | |
| AA1-15 | 2026-09-04 00:48:28 | 53.41420 | 15.39018 | 130° | 179km/h | 11153m | -6.7m/s | -53.5°C | 68.1% | 231.9hPa | 2.5V | 08:06:20 | 02:28:56 | 00:00:00 | |
| AA1-15 | 2026-09-04 00:48:13 | 53.41868 | 15.38158 | 132° | 179km/h | 11249m | -6.2m/s | -54.4°C | 69.3% | 228.6hPa | 2.4V | 08:07:11 | 02:28:41 | 00:00:00 | |
| DB0DAN | 2026-09-04 00:48:10 | 53.41961 | 15.37988 | 132° | 173km/h | 11267m | -6.3m/s | -54.6°C | 61.4% | 227.91hPa | 2.5V | 00:00:00 | 00:00:00 | 00:00:00 | |
| AA1-15 | 2026-09-04 00:48:03 | 53.42183 | 15.37591 | 134° | 186km/h | 11311m | -6.2m/s | -54.9°C | 68.9% | 226.3hPa | 2.4V | 08:07:11 | 02:28:31 | 00:00:00 | |
| SONDE2-11 | 2026-09-04 00:47:56 | 53.42411 | 15.37199 | 134° | 184km/h | 11357m | -6.8m/s | -55.3°C | 60.8% | 224.8hPa | 2.4V | 00:00:00 | 00:00:00 | 00:00:00 | |
| DB0DAN | 2026-09-04 00:47:55 | 53.42444 | 15.37144 | 135° | 175km/h | 11364m | -6.1m/s | -55.3°C | 60.6% | 224.52hPa | 2.4V | 00:00:00 | 00:00:00 | 00:00:00 | |
| AA1-15 | 2026-09-04 00:47:52 | 53.42543 | 15.36977 | 135° | 184km/h | 11382m | -6.3m/s | -55.2°C | 67.9% | 223.8hPa | 2.5V | 08:07:11 | 02:28:20 | 00:00:00 | |
| SP3WXH-11 | 2026-09-04 00:47:49 | 53.42641 | 15.36808 | 134° | 183km/h | 11402m | -6.6m/s | -55.3°C | 59.6% | 223.2hPa | 2.5V | 00:00:00 | 00:00:00 | 00:00:00 | |
| AA1-15 | 2026-09-04 00:47:41 | 53.42901 | 15.36361 | 134° | 184km/h | 11454m | -6.8m/s | -55.6°C | 68.6% | 221.3hPa | 2.5V | 08:07:11 | 02:28:09 | 00:00:00 | |
| AA1-15 | 2026-09-04 00:47:31 | 53.43227 | 15.35793 | 133° | 186km/h | 11520m | -6.4m/s | -56.1°C | 69.7% | 219.1hPa | 2.4V | 08:07:11 | 02:27:59 | 00:00:00 | |
| KRY50SP | 2026-09-04 00:47:30 | 53.43259 | 15.35736 | 134° | 184km/h | 11526m | -6.4m/s | -56.1°C | 60.7% | 218.8hPa | 2.4V | 08:07:00 | 00:00:00 | 00:00:00 | |
| DB0DAN | 2026-09-04 00:47:25 | 53.43420 | 15.35453 | 134° | 175km/h | 11557m | -6m/s | -56.4°C | 60.7% | 217.84hPa | 2.4V | 00:00:00 | 00:00:00 | 00:00:00 | |
| AA1-15 | 2026-09-04 00:47:21 | 53.43550 | 15.35228 | 134° | 186km/h | 11583m | -6.5m/s | -56.6°C | 70.4% | 216.9hPa | 2.4V | 08:08:02 | 02:27:49 | 00:00:00 | |
| SP3WXH-11 | 2026-09-04 00:47:18 | 53.43649 | 15.35056 | 133° | 186km/h | 11603m | -6.6m/s | -56.8°C | 61.3% | 216.2hPa | 2.5V | 00:00:00 | 00:00:00 | 00:00:00 | |
| KRY50SP | 2026-09-04 00:47:13 | 53.43779 | 15.34827 | 135° | 186km/h | 11629m | -6.5m/s | -57.1°C | 61.3% | 215.4hPa | 2.5V | 00:00:00 | 00:00:00 | 00:00:00 | |
| DB0DAN | 2026-09-04 00:47:10 | 53.43908 | 15.34599 | 133° | 175km/h | 11656m | -6.7m/s | -57.3°C | 61.5% | 214.53hPa | 2.5V | 00:00:00 | 00:00:00 | 00:00:00 | |
| AA1-15 | 2026-09-04 00:47:10 | 53.43908 | 15.34599 | 133° | 184km/h | 11656m | -6.7m/s | -57.3°C | 70.7% | 214.5hPa | 2.5V | 08:08:02 | 02:27:38 | 00:00:00 | |
| AA1-15 | 2026-09-04 00:46:59 | 53.44261 | 15.33971 | 133° | 186km/h | 11728m | -6.9m/s | -57.8°C | 69.8% | 212hPa | 2.5V | 08:08:02 | 02:27:27 | 00:00:00 | |
| AA1-15 | 2026-09-04 00:46:49 | 53.44585 | 15.33390 | 133° | 188km/h | 11794m | -6.6m/s | -58.4°C | 68.3% | 209.8hPa | 2.4V | 08:08:02 | 02:27:17 | 00:00:00 | |
| AM1SDL-15 | 2026-09-04 00:46:48 | 53.44617 | 15.33332 | 134° | 188km/h | 11801m | -6.8m/s | -58.4°C | 68.3% | 209.5hPa | 2.5V | 00:00:00 | 02:27:16 | 00:00:00 | |
| KRY50SP | 2026-09-04 00:46:47 | 53.44650 | 15.33275 | 134° | 188km/h | 11808m | -6.5m/s | -58.5°C | 58.9% | 209.3hPa | 2.5V | 00:00:00 | 00:00:00 | 00:00:00 | |
| DB0DAN | 2026-09-04 00:46:40 | 53.44875 | 15.32864 | 133° | 179km/h | 11853m | -6.6m/s | -58.9°C | 58.3% | 207.8hPa | 2.5V | 00:00:00 | 00:00:00 | 00:00:00 | |
| AA1-15 | 2026-09-04 00:46:39 | 53.44908 | 15.32806 | 133° | 188km/h | 11859m | -6.8m/s | -59°C | 67.4% | 207.6hPa | 2.4V | 08:08:02 | 02:27:07 | 00:00:00 | |
| AA1-15 | 2026-09-04 00:46:28 | 53.45260 | 15.32170 | 133° | 186km/h | 11931m | -6.6m/s | -59.6°C | 65.9% | 205.3hPa | 2.5V | 08:08:53 | 02:26:56 | 00:00:00 | |
| DB0DAN | 2026-09-04 00:46:25 | 53.45356 | 15.31997 | 133° | 177km/h | 11950m | -6.1m/s | -59.8°C | 56.6% | 204.62hPa | 2.4V | 00:00:00 | 00:00:00 | 00:00:00 | |
| AA1-15 | 2026-09-04 00:46:17 | 53.45609 | 15.31544 | 133° | 183km/h | 12000m | -6m/s | -60.2°C | 62.3% | 203hPa | 2.5V | 08:08:53 | 02:26:45 | 00:00:00 | |
| SP3WXH-11 | 2026-09-04 00:46:16 | 53.45641 | 15.31486 | 132° | 183km/h | 12006m | -6.7m/s | -60.3°C | 54.0% | 202.8hPa | 2.4V | 00:00:00 | 00:00:00 | 00:00:00 | |
| DB0DAN | 2026-09-04 00:46:10 | 53.45831 | 15.31142 | 133° | 177km/h | 12042m | -5.9m/s | -60.6°C | 52.9% | 201.6hPa | 2.4V | 00:00:00 | 00:00:00 | 00:00:00 | |
| AA1-15 | 2026-09-04 00:46:07 | 53.45927 | 15.30971 | 134° | 183km/h | 12061m | -6.3m/s | -60.8°C | 58.8% | 201hPa | 2.4V | 08:08:53 | 02:26:35 | 00:00:00 | |
| AA1-15 | 2026-09-04 00:45:57 | 53.46275 | 15.30342 | 133° | 188km/h | 12130m | -6.8m/s | -61.3°C | 54% | 198.8hPa | 2.4V | 08:08:53 | 02:26:24 | 00:00:00 | |
| AA1-15 | 2026-09-04 00:45:45 | 53.46636 | 15.29705 | 133° | 190km/h | 12197m | -6.5m/s | -61.3°C | 50.9% | 196.6hPa | 2.4V | 08:08:53 | 02:26:13 | 00:00:00 | |
| KRY50SP | 2026-09-04 00:45:42 | 53.46702 | 15.29586 | 134° | 193km/h | 12210m | -6.1m/s | -61.3°C | 45.0% | 196.2hPa | 2.4V | 00:00:00 | 00:00:00 | 00:00:00 | |
| DB0DAN | 2026-09-04 00:45:40 | 53.46803 | 15.29406 | 134° | 184km/h | 12229m | -6.6m/s | -61.4°C | 45.3% | 195.6hPa | 2.4V | 00:00:00 | 00:00:00 | 00:00:00 | |
| AA1-15 | 2026-09-04 00:45:34 | 53.47006 | 15.29065 | 136° | 184km/h | 12269m | -6.6m/s | -61.6°C | 48.3% | 194.4hPa | 2.4V | 08:09:44 | 02:26:02 | 00:00:00 | |
| AA1-15 | 2026-09-04 00:45:23 | 53.47371 | 15.28482 | 137° | 173km/h | 12335m | -5.8m/s | -60.6°C | 42.4% | 192.3hPa | 2.4V | 08:09:44 | 02:25:51 | 00:00:00 | |
| AA1-15 | 2026-09-04 00:45:12 | 53.47718 | 15.27944 | 137° | 162km/h | 12403m | -6.3m/s | -60.4°C | 37.6% | 190.2hPa | 2.4V | 08:09:44 | 02:25:40 | 00:00:00 | |
| DB0DAN | 2026-09-04 00:45:10 | 53.47777 | 15.27850 | 137° | 151km/h | 12415m | -6.5m/s | -60.2°C | 30.1% | 189.86hPa | 2.4V | 00:00:00 | 00:00:00 | 00:00:00 | |
| DL1XH-west | 2026-09-04 00:45:07 | 53.47866 | 15.27710 | 136° | 161km/h | 12433m | -5.9m/s | 0°C | 0% | 0hPa | 2.5V | 08:09:44 | 02:25:35 | 00:00:00 | |
| AA1-15 | 2026-09-04 00:45:01 | 53.48037 | 15.27435 | 136° | 153km/h | 12470m | -6.1m/s | -60.1°C | 33.5% | 188.2hPa | 2.5V | 08:09:44 | 02:25:29 | 00:00:00 | |
| KRY50SP | 2026-09-04 00:44:59 | 53.48066 | 15.27390 | 137° | 153km/h | 12476m | -6.3m/s | -60.2°C | 26.3% | 188.1hPa | 2.5V | 00:00:00 | 00:00:00 | 00:00:00 | |
| DB0DAN | 2026-09-04 00:44:55 | 53.48203 | 15.27166 | 136° | 142km/h | 12507m | -6.2m/s | -60.3°C | 24.7% | 187.11hPa | 2.5V | 00:00:00 | 00:00:00 | 00:00:00 | |
| DL1XH-west | 2026-09-04 00:44:53 | 53.48256 | 15.27077 | 135° | 148km/h | 12519m | -6.4m/s | 0°C | 0% | 0hPa | 2.5V | 08:09:44 | 02:25:21 | 00:00:00 | |
| AA1-15 | 2026-09-04 00:44:51 | 53.48309 | 15.26990 | 135° | 146km/h | 12531m | -6.3m/s | -60.4°C | 29.9% | 186.3hPa | 2.5V | 08:10:35 | 02:25:19 | 00:00:00 | |
| SONDE2-11 | 2026-09-04 00:44:50 | 53.48335 | 15.26946 | 134° | 146km/h | 12537m | -5.9m/s | -60.4°C | 23.0% | 186.2hPa | 2.5V | 00:00:00 | 00:00:00 | 00:00:00 | |
| EDDB2-11 | 2026-09-04 00:44:48 | 53.48412 | 15.26815 | 135° | 144km/h | 12556m | -6.2m/s | -60.4°C | 22.2% | 185.6hPa | 2.5V | 00:00:00 | 00:00:00 | 00:00:00 | |
| AA1-15 | 2026-09-04 00:44:40 | 53.48591 | 15.26510 | 134° | 144km/h | 12600m | -6.2m/s | -60.6°C | 25.7% | 184.4hPa | 2.5V | 08:10:35 | 02:25:08 | 00:00:00 | |
| DL1XH-west | 2026-09-04 00:44:38 | 53.48641 | 15.26422 | 134° | 146km/h | 12612m | -6.3m/s | 0°C | 0% | 0hPa | 2.5V | 18:12:15 | 02:25:06 | 00:00:00 | |
| AA1-15 | 2026-09-04 00:44:30 | 53.48840 | 15.26068 | 134° | 139km/h | 12660m | -6.3m/s | -60.9°C | 21.2% | 182.6hPa | 2.5V | 08:10:35 | 02:24:58 | 00:00:00 | |
| DL1XH-west | 2026-09-04 00:44:27 | 53.48912 | 15.25940 | 133° | 137km/h | 12680m | -6.6m/s | 0°C | 0% | 0hPa | 2.5V | 18:12:15 | 02:24:55 | 00:00:00 | |
| DB0DAN | 2026-09-04 00:44:25 | 53.48960 | 15.25854 | 132° | 131km/h | 12692m | -6.2m/s | -61.1°C | 14.6% | 181.61hPa | 2.5V | 00:00:00 | 00:00:00 | 00:00:00 | |
| AA1-15 | 2026-09-04 00:44:19 | 53.49098 | 15.25585 | 130° | 141km/h | 12730m | -6.3m/s | -61.3°C | 15.8% | 180.5hPa | 2.5V | 08:10:35 | 02:24:47 | 00:00:00 | |
| DL1XH-west | 2026-09-04 00:44:17 | 53.49143 | 15.25495 | 130° | 139km/h | 12743m | -6.4m/s | 0°C | 0% | 0hPa | 2.5V | 18:12:15 | 02:24:45 | 00:00:00 | |
| EDDB2-11 | 2026-09-04 00:44:17 | 53.49165 | 15.25450 | 129° | 137km/h | 12750m | -6.8m/s | -61.4°C | 11.2% | 179.9hPa | 2.5V | 00:00:00 | 00:00:00 | 00:00:00 | |
| KRY50SP | 2026-09-04 00:44:15 | 53.49165 | 15.25450 | 131° | 139km/h | 12750m | -6.8m/s | -61.4°C | 11.2% | 179.9hPa | 2.5V | 08:10:00 | 00:00:00 | 00:00:00 | |
| DB0DAN | 2026-09-04 00:44:10 | 53.49295 | 15.25178 | 128° | 131km/h | 12788m | -6.6m/s | -61.2°C | 9.3% | 178.82hPa | 2.5V | 00:00:00 | 00:00:00 | 00:00:00 | |
| AA1-15 | 2026-09-04 00:44:08 | 53.49339 | 15.25084 | 128° | 142km/h | 12801m | -6.5m/s | -61.1°C | 10.6% | 178.5hPa | 2.4V | 08:10:35 | 02:24:36 | 00:00:00 | |
| AA1-15 | 2026-09-04 00:43:58 | 53.49574 | 15.24575 | 128° | 133km/h | 12872m | -7m/s | -60.4°C | 7.9% | 176.5hPa | 2.4V | 08:11:26 | 02:24:25 | 00:00:00 | |
| DB0DAN | 2026-09-04 00:43:55 | 53.49615 | 15.24488 | 129° | 124km/h | 12885m | -7.1m/s | -60.1°C | 6.1% | 176.08hPa | 2.5V | 00:00:00 | 00:00:00 | 00:00:00 | |
| AA1-15 | 2026-09-04 00:43:48 | 53.49753 | 15.24187 | 126° | 130km/h | 12932m | -7.4m/s | -59.5°C | 7.1% | 174.7hPa | 2.5V | 08:11:26 | 02:24:16 | 00:00:00 | |
| EDDB2-11 | 2026-09-04 00:43:46 | 53.49813 | 15.24054 | 127° | 131km/h | 12952m | -7.2m/s | -59.6°C | 5.9% | 174.2hPa | 2.4V | 00:00:00 | 00:00:00 | 00:00:00 | |
| KRY50SP | 2026-09-04 00:43:42 | 53.49854 | 15.23966 | 129° | 131km/h | 12966m | -7.1m/s | -59.6°C | 5.9% | 173.8hPa | 2.4V | 08:11:00 | 00:00:00 | 00:00:00 | |
| DB0DAN | 2026-09-04 00:43:40 | 53.49917 | 15.23837 | 130° | 124km/h | 12986m | -6.7m/s | -59.4°C | 5.8% | 173.24hPa | 2.4V | 00:00:00 | 00:00:00 | 00:00:00 | |
| AA1-15 | 2026-09-04 00:43:38 | 53.49959 | 15.23754 | 131° | 128km/h | 12999m | -6.6m/s | -59.3°C | 7% | 172.9hPa | 2.5V | 08:11:26 | 02:24:06 | 00:00:00 | |
| AA1-15 | 2026-09-04 00:43:27 | 53.50188 | 15.23317 | 132° | 120km/h | 13073m | -7.2m/s | -57.9°C | 6.5% | 170.9hPa | 2.5V | 08:11:26 | 02:23:55 | 00:00:00 | |
| DB0DAN | 2026-09-04 00:43:25 | 53.50228 | 15.23241 | 131° | 113km/h | 13087m | -7.8m/s | -57.9°C | 5% | 170.48hPa | 2.5V | 00:00:00 | 00:00:00 | 00:00:00 | |
| DF8AY | 2026-09-04 00:43:23 | 53.50267 | 15.23167 | 132° | 117km/h | 13101m | -7m/s | -58°C | 6.3% | 170.1hPa | 2.5V | 08:11:26 | 02:23:51 | 00:00:00 | |
| AA1-15 | 2026-09-04 00:43:17 | 53.50381 | 15.22949 | 131° | 111km/h | 13140m | -6.8m/s | -57.9°C | 5.8% | 169.1hPa | 2.4V | 08:11:26 | 02:23:45 | 00:00:00 | |
| DF8AY | 2026-09-04 00:43:13 | 53.50454 | 15.22806 | 130° | 110km/h | 13168m | -6.3m/s | -58°C | 5.4% | 168.3hPa | 2.4V | 08:11:26 | 02:23:41 | 00:00:00 | |
| DB0DAN | 2026-09-04 00:43:10 | 53.50507 | 15.22702 | 131° | 102km/h | 13188m | -6.9m/s | -58.1°C | 4.2% | 167.77hPa | 2.5V | 00:00:00 | 00:00:00 | 00:00:00 | |
| AA1-15 | 2026-09-04 00:43:07 | 53.50558 | 15.22601 | 131° | 104km/h | 13207m | -6.8m/s | -58.3°C | 4.9% | 167.2hPa | 2.5V | 08:12:17 | 02:23:35 | 00:00:00 | |
| DF8AY | 2026-09-04 00:43:03 | 53.50685 | 15.22333 | 126° | 99km/h | 13262m | -7.5m/s | -58.6°C | 3.9% | 165.8hPa | 2.5V | 08:12:17 | 02:23:27 | 00:00:00 | |
| AA1-15 | 2026-09-04 00:42:56 | 53.50730 | 15.22231 | 126° | 99km/h | 13283m | -6.8m/s | -58.7°C | 3.6% | 165.3hPa | 2.4V | 08:12:17 | 02:23:24 | 00:00:00 | |
| DB0DAN | 2026-09-04 00:42:55 | 53.50744 | 15.22197 | 126° | 95km/h | 13290m | -7m/s | -58.7°C | 3.3% | 165.07hPa | 2.5V | 00:00:00 | 00:00:00 | 00:00:00 | |
| DF8AY | 2026-09-04 00:42:52 | 53.50789 | 15.22093 | 125° | 102km/h | 13310m | -6.6m/s | -58.8°C | 3.3% | 164.6hPa | 2.5V | 08:12:17 | 02:23:20 | 00:00:00 | |
| AA1-15 | 2026-09-04 00:42:45 | 53.50890 | 15.21846 | 124° | 104km/h | 13360m | -7m/s | -58.7°C | 2.7% | 163.2hPa | 2.4V | 08:12:17 | 02:23:13 | 00:00:00 | |
| DF8AY | 2026-09-04 00:42:41 | 53.50950 | 15.21696 | 123° | 108km/h | 13387m | -7.1m/s | -58.5°C | 2.4% | 162.5hPa | 2.5V | 08:12:17 | 02:23:09 | 00:00:00 | |
| DB0DAN | 2026-09-04 00:42:40 | 53.50964 | 15.21658 | 122° | 102km/h | 13394m | -7.6m/s | -58.5°C | 2.6% | 162.33hPa | 2.5V | 00:00:00 | 00:00:00 | 00:00:00 | |
| AA1-15 | 2026-09-04 00:42:35 | 53.51035 | 15.21466 | 121° | 106km/h | 13430m | -7.3m/s | -58.2°C | 2.1% | 161.4hPa | 2.5V | 08:12:17 | 02:23:03 | 00:00:00 | |
| AM1SDL-15 | 2026-09-04 00:42:34 | 53.51049 | 15.21428 | 121° | 106km/h | 13437m | -7.2m/s | -58.0°C | 5.9% | 161.2hPa | 2.5V | 00:00:00 | 02:23:02 | 00:00:00 | |
| DM0DOS-11 | 2026-09-04 00:42:32 | 53.51101 | 15.21272 | 118° | 104km/h | 13466m | -6.7m/s | -57.1°C | 5.4% | 160.5hPa | 2.5V | 08:12:07 | 02:22:58 | 00:00:00 | |
| DF8AY | 2026-09-04 00:42:28 | 53.51126 | 15.21193 | 117° | 106km/h | 13481m | -6.7m/s | -56.9°C | 1.8% | 160.1hPa | 2.4V | 08:12:17 | 02:22:56 | 00:00:00 | |
| DB0DAN | 2026-09-04 00:42:25 | 53.51162 | 15.21072 | 116° | 104km/h | 13503m | -7.4m/s | -56.1°C | 2% | 159.6hPa | 2.5V | 00:00:00 | 00:00:00 | 00:00:00 | |
| AA1-15 | 2026-09-04 00:42:25 | 53.51162 | 15.21072 | 116° | 110km/h | 13503m | -7.4m/s | -56.1°C | 1.6% | 159.6hPa | 2.5V | 08:12:17 | 02:22:53 | 00:00:00 | |
| DL1XH-west | 2026-09-04 00:42:21 | 53.51209 | 15.20901 | 114° | 113km/h | 13532m | -7.3m/s | 0°C | 0% | 0hPa | 2.5V | 18:12:15 | 02:22:49 | 00:00:00 | |
| DF8AY | 2026-09-04 00:42:17 | 53.51256 | 15.20727 | 116° | 113km/h | 13559m | -6.4m/s | -56°C | 1.7% | 158.1hPa | 2.4V | 08:15:41 | 02:22:45 | 00:00:00 | |
| AA1-15 | 2026-09-04 00:42:14 | 53.51294 | 15.20597 | 117° | 113km/h | 13580m | -6.6m/s | -56.1°C | 1.7% | 157.7hPa | 2.5V | 08:13:08 | 02:22:42 | 00:00:00 | |
| DF8AY | 2026-09-04 00:42:04 | 53.51428 | 15.20204 | 121° | 104km/h | 13654m | -7.6m/s | -55°C | 1.4% | 155.9hPa | 2.5V | 08:15:41 | 02:22:32 | 00:00:00 | |
| AA1-15 | 2026-09-04 00:42:03 | 53.51442 | 15.20166 | 120° | 104km/h | 13661m | -7.4m/s | -54.9°C | 1.5% | 155.7hPa | 2.5V | 08:13:08 | 02:22:31 | 00:00:00 | |
| KRY50SP | 2026-09-04 00:42:02 | 53.51442 | 15.20166 | 121° | 104km/h | 13661m | -7.4m/s | -54.9°C | 1.9% | 155.7hPa | 2.5V | 08:13:00 | 00:00:00 | 00:00:00 | |
| EDDB2-12 | 2026-09-04 00:42:00 | 53.51481 | 15.20050 | 120° | 104km/h | 13683m | -7.1m/s | -54.8°C | 1.9% | 155.2hPa | 2.5V | 00:00:00 | 00:00:00 | 00:00:00 | |
| DM0DOS-11 | 2026-09-04 00:41:58 | 53.51552 | 15.19860 | 122° | 106km/h | 13720m | -7.4m/s | -54.5°C | 4.5% | 154.3hPa | 2.5V | 08:12:42 | 02:22:23 | 00:00:00 | |
| DB0DAN | 2026-09-04 00:41:55 | 53.51552 | 15.19860 | 122° | 100km/h | 13720m | -7.4m/s | -54.5°C | 1.8% | 154.27hPa | 2.5V | 00:00:00 | 00:00:00 | 00:00:00 | |
| DF8AY | 2026-09-04 00:41:53 | 53.51580 | 15.19784 | 122° | 104km/h | 13734m | -7.4m/s | -54.4°C | 1.3% | 154hPa | 2.5V | 08:15:41 | 02:22:21 | 00:00:00 | |
| AA1-15 | 2026-09-04 00:41:52 | 53.51594 | 15.19747 | 123° | 102km/h | 13742m | -7.1m/s | -54.5°C | 1.4% | 153.8hPa | 2.5V | 08:13:08 | 02:22:20 | 00:00:00 | |
| AA1-15 | 2026-09-04 00:41:41 | 53.51742 | 15.19361 | 124° | 97km/h | 13822m | -6.6m/s | -54.5°C | 1.4% | 151.8hPa | 2.5V | 08:13:08 | 02:22:09 | 00:00:00 | |
| DB0DAN | 2026-09-04 00:41:40 | 53.51756 | 15.19327 | 124° | 93km/h | 13829m | -6.7m/s | -54.6°C | 1.9% | 151.63hPa | 2.6V | 00:00:00 | 00:00:00 | 00:00:00 | |
| AA1-15 | 2026-09-04 00:41:31 | 53.51874 | 15.19041 | 126° | 88km/h | 13893m | -7.9m/s | -55°C | 1.4% | 150.2hPa | 2.5V | 08:13:08 | 02:21:59 | 00:00:00 | |
| DF8AY | 2026-09-04 00:41:30 | 53.51888 | 15.19010 | 126° | 89km/h | 13901m | -7.7m/s | -55.1°C | 1.4% | 149.9hPa | 2.5V | 08:15:41 | 02:21:58 | 00:00:00 | |
| AA1-15 | 2026-09-04 00:41:20 | 53.52002 | 15.18698 | 121° | 88km/h | 13974m | -6.9m/s | -55.5°C | 1.4% | 148.2hPa | 2.5V | 08:13:59 | 02:21:48 | 00:00:00 | |
| AM1SDL-15 | 2026-09-04 00:41:19 | 53.52014 | 15.18666 | 122° | 86km/h | 13981m | -7.3m/s | -55.5°C | 4.8% | 148.0hPa | 2.5V | 00:00:00 | 02:21:47 | 00:00:00 | |
| DM0DOS-11 | 2026-09-04 00:41:18 | 53.52048 | 15.18575 | 122° | 84km/h | 14004m | -7.1m/s | -55.7°C | 4.9% | 147.5hPa | 2.5V | 08:13:21 | 02:21:44 | 00:00:00 | |
| DF8AY | 2026-09-04 00:41:17 | 53.52037 | 15.18606 | 123° | 86km/h | 13996m | -7.7m/s | -55.6°C | 1.4% | 147.8hPa | 2.5V | 08:15:41 | 02:21:45 | 00:00:00 | |
| KRY50SP | 2026-09-04 00:41:15 | 53.52060 | 15.18545 | 123° | 84km/h | 14011m | -7.7m/s | -55.7°C | 1.9% | 147.4hPa | 2.5V | 08:13:00 | 00:00:00 | 00:00:00 | |
| DB0DAN | 2026-09-04 00:41:10 | 53.52116 | 15.18393 | 123° | 82km/h | 14049m | -7.2m/s | -55.5°C | 1.9% | 146.54hPa | 2.5V | 00:00:00 | 00:00:00 | 00:00:00 | |
| AA1-15 | 2026-09-04 00:41:10 | 53.52128 | 15.18362 | 123° | 86km/h | 14056m | -7.5m/s | -55.5°C | 1.4% | 146.4hPa | 2.5V | 08:13:59 | 02:21:37 | 00:00:00 | |
| DF8AY | 2026-09-04 00:41:06 | 53.52163 | 15.18270 | 123° | 84km/h | 14081m | -8.6m/s | -55.4°C | 1.4% | 145.8hPa | 2.5V | 08:15:41 | 02:21:34 | 00:00:00 | |
| DM0DOS-11 | 2026-09-04 00:41:06 | 53.52163 | 15.18270 | 122° | 84km/h | 14080m | -8.6m/s | -55.4°C | 4.7% | 145.8hPa | 2.5V | 08:13:31 | 02:21:34 | 00:00:00 | |
| AA1-15 | 2026-09-04 00:40:59 | 53.52242 | 15.18061 | 123° | 84km/h | 14134m | -7.4m/s | -55.4°C | 1.4% | 144.5hPa | 2.5V | 08:13:59 | 02:21:27 | 00:00:00 | |
| DF8AY | 2026-09-04 00:40:56 | 53.52276 | 15.17967 | 121° | 88km/h | 14157m | -8m/s | -55.5°C | 1.4% | 144.1hPa | 2.5V | 08:15:41 | 02:21:24 | 00:00:00 | |
| DB0DAN | 2026-09-04 00:40:55 | 53.52287 | 15.17935 | 121° | 84km/h | 14164m | -7.3m/s | -55.5°C | 1.9% | 143.88hPa | 2.5V | 00:00:00 | 00:00:00 | 00:00:00 | |
| AA1-15 | 2026-09-04 00:40:49 | 53.52348 | 15.17738 | 117° | 86km/h | 14208m | -7.7m/s | -55.4°C | 1.4% | 142.9hPa | 2.5V | 08:13:59 | 02:21:17 | 00:00:00 | |
| DF8AY | 2026-09-04 00:40:46 | 53.52386 | 15.17607 | 116° | 86km/h | 14237m | -7.3m/s | -55.2°C | 1.4% | 142.2hPa | 2.6V | 08:15:41 | 02:21:13 | 00:00:00 | |
| AA1-15 | 2026-09-04 00:40:39 | 53.52442 | 15.17400 | 115° | 91km/h | 14283m | -7.6m/s | -54.7°C | 1.3% | 141.3hPa | 2.6V | 08:13:59 | 02:21:07 | 00:00:00 | |
| DF8AY | 2026-09-04 00:40:35 | 53.52482 | 15.17265 | 118° | 86km/h | 14314m | -7.8m/s | -54.3°C | 1.2% | 140.6hPa | 2.5V | 08:15:41 | 02:21:03 | 00:00:00 | |
| AA1-15 | 2026-09-04 00:40:29 | 53.52545 | 15.17079 | 121° | 82km/h | 14362m | -8.6m/s | -54.5°C | 1.1% | 139.5hPa | 2.5V | 08:14:50 | 02:20:57 | 00:00:00 | |
| DL1XH-west | 2026-09-04 00:40:27 | 53.52567 | 15.17021 | 121° | 80km/h | 14379m | -8.7m/s | -54.4°C | 1.1% | 0hPa | 2.5V | 08:14:50 | 02:20:55 | 00:00:00 | |
| DM0DOS-11 | 2026-09-04 00:40:25 | 53.52617 | 15.16878 | 120° | 78km/h | 14420m | -8.7m/s | -54.4°C | 4.3% | 138.3hPa | 2.5V | 08:14:15 | 02:20:50 | 00:00:00 | |
| DF8AY | 2026-09-04 00:40:21 | 53.52627 | 15.16850 | 120° | 77km/h | 14429m | -9.2m/s | -54.4°C | 1.1% | 138.1hPa | 2.4V | 08:15:41 | 02:20:49 | 00:00:00 | |
| AA1-15 | 2026-09-04 00:40:18 | 53.52657 | 15.16765 | 120° | 77km/h | 14453m | -8.6m/s | -54.6°C | 1.1% | 137.5hPa | 2.5V | 08:14:50 | 02:20:46 | 00:00:00 | |
| JOZKA6-1 | 2026-09-04 00:40:16 | 53.52667 | 15.16737 | 121° | 75km/h | 14462m | -8.8m/s | 0°C | 0% | 137.4hPa | 2.5V | 08:14:00 | 00:00:00 | 00:00:00 | |
| KRY50SP | 2026-09-04 00:40:14 | 53.52685 | 15.16682 | 121° | 75km/h | 14479m | -8.9m/s | -54.8°C | 1.6% | 137.0hPa | 2.5V | 08:14:00 | 00:00:00 | 00:00:00 | |
| DM0DOS-11 | 2026-09-04 00:40:12 | 53.52720 | 15.16575 | 117° | 73km/h | 14512m | -8.7m/s | -55°C | 4.4% | 136.2hPa | 2.5V | 08:14:26 | 02:20:39 | 00:00:00 | |
| DF8AY | 2026-09-04 00:40:10 | 53.52728 | 15.16547 | 116° | 73km/h | 14521m | -8.8m/s | -55°C | 1.1% | 136.1hPa | 2.5V | 08:15:41 | 02:20:38 | 00:00:00 | |
| AA1-15 | 2026-09-04 00:40:08 | 53.52744 | 15.16491 | 116° | 75km/h | 14538m | -8.6m/s | -55°C | 1% | 135.7hPa | 2.5V | 08:14:50 | 02:20:36 | 00:00:00 | |
| AM1SDL-15 | 2026-09-04 00:40:07 | 53.52753 | 15.16462 | 116° | 78km/h | 14547m | -8.4m/s | -55.0°C | 4.4% | 135.5hPa | 2.6V | 00:00:00 | 02:20:35 | 00:00:00 | |
| KRY50SP | 2026-09-04 00:40:03 | 53.52777 | 15.16373 | 117° | 78km/h | 14572m | -8.4m/s | -55.2°C | 1.6% | 135.0hPa | 2.6V | 08:14:00 | 00:00:00 | 00:00:00 | |
| DM0DOS-11 | 2026-09-04 00:40:01 | 53.52803 | 15.16282 | 116° | 78km/h | 14597m | -8.2m/s | -55.2°C | 4.5% | 134.5hPa | 2.6V | 08:14:36 | 02:20:29 | 00:00:00 | |
| AA1-15 | 2026-09-04 00:39:57 | 53.52838 | 15.16161 | 116° | 78km/h | 14630m | -8.4m/s | -55.2°C | 1% | 133.8hPa | 2.5V | 08:14:50 | 02:20:25 | 00:00:00 | |
| DL1XH-west | 2026-09-04 00:39:53 | 53.52873 | 15.16037 | 114° | 80km/h | 14664m | -9.2m/s | -55.3°C | 1% | 0hPa | 2.5V | 08:14:50 | 02:20:21 | 00:00:00 | |
| DF8AY | 2026-09-04 00:39:52 | 53.52881 | 15.16006 | 116° | 82km/h | 14673m | -8.6m/s | -55.4°C | 1% | 132.9hPa | 2.5V | 08:15:41 | 02:20:20 | 00:00:00 | |
| DM0DOS-11 | 2026-09-04 00:39:51 | 53.52890 | 15.15974 | 114° | 84km/h | 14681m | -8.5m/s | -55.4°C | 4.5% | 132.7hPa | 2.5V | 08:14:46 | 02:20:19 | 00:00:00 | |
| DL1XH1-15 | 2026-09-04 00:39:47 | 53.52976 | 15.15690 | 115° | 78km/h | 14758m | -8.5m/s | -55.5°C | 4.5% | 131.2hPa | 2.5V | 08:14:55 | 02:20:10 | 00:00:00 | |
| AA1-15 | 2026-09-04 00:39:47 | 53.52928 | 15.15845 | 117° | 86km/h | 14715m | -8.8m/s | -55.6°C | 1.1% | 132hPa | 2.5V | 08:14:50 | 02:20:15 | 00:00:00 | |
| DF8AY | 2026-09-04 00:39:42 | 53.53010 | 15.15567 | 114° | 80km/h | 14791m | -8.3m/s | -55.4°C | 1% | 130.4hPa | 2.5V | 08:15:41 | 02:20:06 | 00:00:00 | |
| DB0DAN | 2026-09-04 00:39:40 | 53.52993 | 15.15629 | 114° | 77km/h | 14774m | -8.5m/s | -55.4°C | 1.5% | 130.78hPa | 2.5V | 00:00:00 | 00:00:00 | 00:00:00 | |
| DL1XH-west | 2026-09-04 00:39:40 | 53.52993 | 15.15629 | 114° | 80km/h | 14774m | -8.5m/s | -55.4°C | 0.9% | 0hPa | 2.5V | 08:15:41 | 02:20:08 | 00:00:00 | |
| AA1-15 | 2026-09-04 00:39:37 | 53.53018 | 15.15536 | 114° | 80km/h | 14799m | -8.2m/s | -55.3°C | 1% | 130.3hPa | 2.5V | 08:15:41 | 02:20:05 | 00:00:00 | |
| DL1XH-west | 2026-09-04 00:39:30 | 53.53078 | 15.15325 | 116° | 77km/h | 14860m | -8.5m/s | -54.8°C | 0.9% | 0hPa | 2.5V | 08:15:41 | 02:19:58 | 00:00:00 | |
| AA1-15 | 2026-09-04 00:39:26 | 53.53111 | 15.15206 | 115° | 80km/h | 14895m | -9.1m/s | -54.6°C | 1% | 128.4hPa | 2.5V | 08:15:41 | 02:19:54 | 00:00:00 | |
| EDDB2-12 | 2026-09-04 00:39:26 | 53.53120 | 15.15175 | 114° | 80km/h | 14904m | -8.8m/s | -54.6°C | 1.5% | 128.2hPa | 2.5V | 00:00:00 | 00:00:00 | 00:00:00 | |
| KRY50SP | 2026-09-04 00:39:23 | 53.53128 | 15.15143 | 116° | 82km/h | 14913m | -8.9m/s | -54.5°C | 1.5% | 128.0hPa | 2.5V | 08:15:00 | 00:00:00 | 00:00:00 | |
| DM0DOS-11 | 2026-09-04 00:39:22 | 53.53157 | 15.15050 | 118° | 82km/h | 14938m | -9.2m/s | -54.5°C | 4.3% | 127.5hPa | 2.5V | 08:15:16 | 02:19:49 | 00:00:00 | |
| DL1XH1-15 | 2026-09-04 00:39:19 | 53.53208 | 15.14904 | 120° | 78km/h | 14984m | -8.2m/s | -54.5°C | 4.3% | 126.6hPa | 2.5V | 08:15:21 | 02:19:44 | 00:00:00 | |
| DL1XH-west | 2026-09-04 00:39:19 | 53.53177 | 15.14991 | 121° | 78km/h | 14957m | -9.5m/s | -54.5°C | 0.8% | 0hPa | 2.5V | 08:15:41 | 02:19:47 | 00:00:00 | |
| DF8AY | 2026-09-04 00:39:18 | 53.53228 | 15.14847 | 119° | 78km/h | 15002m | -8.3m/s | -54.5°C | 0.8% | 126.3hPa | 2.5V | 08:15:41 | 02:19:42 | 00:00:00 | |
| DM0DOS-11 | 2026-09-04 00:39:16 | 53.53255 | 15.14759 | 117° | 78km/h | 15028m | -8.2m/s | -54.6°C | 4.3% | 125.8hPa | 2.6V | 08:15:26 | 02:19:39 | 00:00:00 | |
| AA1-15 | 2026-09-04 00:39:16 | 53.53208 | 15.14904 | 121° | 78km/h | 14984m | -8.2m/s | -54.5°C | 0.8% | 126.7hPa | 2.5V | 08:15:41 | 02:19:44 | 00:00:00 | |
| KRY50SP | 2026-09-04 00:39:12 | 53.53237 | 15.14817 | 119° | 78km/h | 15011m | -9.1m/s | -54.6°C | 1.5% | 126.1hPa | 2.5V | 08:15:00 | 00:00:00 | 00:00:00 | |
| DB0DAN | 2026-09-04 00:39:10 | 53.53263 | 15.14729 | 115° | 75km/h | 15036m | -8.4m/s | -54.6°C | 1.5% | 125.6hPa | 2.5V | 00:00:00 | 00:00:00 | 00:00:00 | |
| DL1XH-west | 2026-09-04 00:39:08 | 53.53280 | 15.14669 | 115° | 77km/h | 15054m | -8.6m/s | -54.4°C | 0.9% | 0hPa | 2.5V | 08:15:41 | 02:19:36 | 00:00:00 | |
| DL1XH1-15 | 2026-09-04 00:39:07 | 53.53296 | 15.14609 | 112° | 78km/h | 15071m | -9.1m/s | -54.1°C | 4.2% | 125hPa | 2.6V | 08:15:31 | 02:19:34 | 00:00:00 | |
| AA1-15 | 2026-09-04 00:39:05 | 53.53304 | 15.14578 | 114° | 78km/h | 15080m | -8m/s | -54.2°C | 0.8% | 124.8hPa | 2.5V | 08:15:41 | 02:19:33 | 00:00:00 | |
| DF8AY | 2026-09-04 00:39:04 | 53.53368 | 15.14373 | 120° | 75km/h | 15141m | -8.9m/s | -54°C | 0.7% | 123.6hPa | 2.5V | 08:15:41 | 02:19:26 | 00:00:00 | |
| SP3WXH-11 | 2026-09-04 00:39:02 | 53.53339 | 15.14457 | 117° | 77km/h | 15115m | -8.4m/s | -54.3°C | 1.4% | 124.1hPa | 2.5V | 00:00:00 | 00:00:00 | 00:00:00 | |
| KRY50SP | 2026-09-04 00:39:01 | 53.53339 | 15.14458 | 119° | 78km/h | 15115m | -8.4m/s | -54.3°C | 1.4% | 124.1hPa | 2.5V | 08:15:00 | 00:00:00 | 00:00:00 | |
| DL1XH1-15 | 2026-09-04 00:38:59 | 53.53405 | 15.14265 | 118° | 73km/h | 15176m | -8.7m/s | -53.8°C | 4.1% | 123hPa | 2.5V | 08:15:43 | 02:19:22 | 00:00:00 | |
| DL1XH-west | 2026-09-04 00:38:57 | 53.53377 | 15.14346 | 120° | 73km/h | 15150m | -9m/s | 0°C | 0% | 0hPa | 2.5V | 08:15:41 | 02:19:25 | 00:00:00 | |
| DM0DOS-11 | 2026-09-04 00:38:56 | 53.53430 | 15.14183 | 116° | 75km/h | 15203m | -8.4m/s | -53.7°C | 4.1% | 122.5hPa | 2.5V | 08:15:46 | 02:19:19 | 00:00:00 | |
| AA1-15 | 2026-09-04 00:38:55 | 53.53405 | 15.14265 | 118° | 73km/h | 15176m | -8.7m/s | -53.8°C | 0.7% | 123hPa | 2.5V | 08:16:32 | 02:19:22 | 00:00:00 | |
| DF8AY | 2026-09-04 00:38:52 | 53.53422 | 15.14211 | 117° | 73km/h | 15194m | -8.8m/s | -53.7°C | 0.7% | 122.6hPa | 2.5V | 08:16:32 | 02:19:20 | 00:00:00 | |
| DL1XH-west | 2026-09-04 00:38:46 | 53.53474 | 15.14041 | 120° | 73km/h | 15245m | -9.1m/s | 0°C | 0% | 0hPa | 2.5V | 18:12:15 | 02:19:14 | 00:00:00 | |
| AA1-15 | 2026-09-04 00:38:43 | 53.53502 | 15.13963 | 122° | 69km/h | 15271m | -8.5m/s | -53.1°C | 0.5% | 121.1hPa | 2.5V | 08:16:32 | 02:19:11 | 00:00:00 | |
| DF8AY | 2026-09-04 00:38:42 | 53.53511 | 15.13938 | 122° | 68km/h | 15279m | -8.6m/s | -53.1°C | 0.6% | 0hPa | 2.5V | 08:16:32 | 02:19:10 | 00:00:00 | |
| DB0DAN | 2026-09-04 00:38:40 | 53.53530 | 15.13888 | 121° | 68km/h | 15296m | -8.6m/s | -53°C | 1.3% | 120.61hPa | 2.5V | 00:00:00 | 00:00:00 | 00:00:00 | |
| DM0DOS-11 | 2026-09-04 00:38:40 | 53.53530 | 15.13888 | 121° | 69km/h | 15296m | -8.6m/s | -53°C | 3.9% | 120.6hPa | 2.5V | 08:15:57 | 02:19:08 | 00:00:00 | |
| MECKS9 | 2026-09-04 00:38:38 | 53.53548 | 15.13837 | 121° | 71km/h | 15314m | -8.9m/s | -52.9°C | 1.3% | 120.3hPa | 2.5V | 00:00:00 | 00:00:00 | 00:00:00 | |
| SONDE2-11 | 2026-09-04 00:38:37 | 53.53557 | 15.13810 | 119° | 73km/h | 15323m | -9.3m/s | -52.9°C | 1.3% | 120.2hPa | 2.5V | 00:00:00 | 00:00:00 | 00:00:00 | |
| DM0DOS-11 | 2026-09-04 00:38:35 | 53.53617 | 15.13620 | 120° | 66km/h | 15388m | -8.8m/s | -53°C | 3.8% | 118.9hPa | 2.5V | 08:16:07 | 02:18:58 | 00:00:00 | |
| AA1-15 | 2026-09-04 00:38:32 | 53.53600 | 15.13672 | 118° | 73km/h | 15369m | -9m/s | -53°C | 0.5% | 119.3hPa | 2.5V | 08:16:32 | 02:19:00 | 00:00:00 | |
| DF8AY | 2026-09-04 00:38:30 | 53.53617 | 15.13621 | 120° | 66km/h | 15388m | -8.9m/s | -53°C | 0.5% | 0hPa | 2.5V | 08:16:32 | 02:18:58 | 00:00:00 | |
| DB0DAN | 2026-09-04 00:38:25 | 53.53659 | 15.13499 | 119° | 66km/h | 15433m | -9.5m/s | -53.3°C | 1.3% | 118.17hPa | 2.5V | 00:00:00 | 00:00:00 | 00:00:00 | |
| EDDB2-12 | 2026-09-04 00:38:24 | 53.53675 | 15.13446 | 115° | 71km/h | 15451m | -9.5m/s | -53.3°C | 1.3% | 117.8hPa | 2.5V | 00:00:00 | 00:00:00 | 00:00:00 | |
| DM0DOS-11 | 2026-09-04 00:38:23 | 53.53698 | 15.13364 | 116° | 69km/h | 15479m | -9.5m/s | -53.1°C | 3.9% | 117.3hPa | 2.5V | 08:16:17 | 02:18:48 | 00:00:00 | |
| AA1-15 | 2026-09-04 00:38:21 | 53.53690 | 15.13391 | 116° | 71km/h | 15470m | -9.5m/s | -53.2°C | 0.6% | 117.5hPa | 2.5V | 08:16:32 | 02:18:49 | 00:00:00 | |
| DF8AY | 2026-09-04 00:38:19 | 53.53706 | 15.13338 | 119° | 68km/h | 15488m | -8.6m/s | -53.1°C | 0.6% | 0hPa | 2.5V | 08:16:32 | 02:18:47 | 00:00:00 | |
| AA1-15 | 2026-09-04 00:38:11 | 53.53774 | 15.13146 | 119° | 64km/h | 15560m | -9.2m/s | -53°C | 0.6% | 115.8hPa | 2.6V | 08:16:32 | 02:18:39 | 00:00:00 | |
| DB0DAN | 2026-09-04 00:38:10 | 53.53782 | 15.13123 | 119° | 60km/h | 15569m | -9.6m/s | -52.9°C | 1.2% | 115.68hPa | 2.6V | 00:00:00 | 00:00:00 | 00:00:00 | |
| DF8AY | 2026-09-04 00:38:09 | 53.53789 | 15.13099 | 118° | 62km/h | 15578m | -8.8m/s | 0°C | 0% | 0hPa | 2.5V | 08:16:32 | 02:18:37 | 00:00:00 | |
| AM1SDL-15 | 2026-09-04 00:38:07 | 53.53804 | 15.13053 | 119° | 60km/h | 15596m | -9.0m/s | -52.6°C | 3.8% | 115.1hPa | 2.5V | 00:00:00 | 02:18:35 | 00:00:00 | |
| SONDE2-11 | 2026-09-04 00:38:06 | 53.53811 | 15.13030 | 116° | 60km/h | 15605m | -9.4m/s | -52.7°C | 1.2% | 115.0hPa | 2.5V | 00:00:00 | 00:00:00 | 00:00:00 | |
| DM0DOS-11 | 2026-09-04 00:38:05 | 53.53832 | 15.12960 | 117° | 60km/h | 15631m | -9.2m/s | -52.8°C | 3.8% | 114.5hPa | 2.5V | 08:16:34 | 02:18:31 | 00:00:00 | |
| AA1-15 | 2026-09-04 00:38:01 | 53.53845 | 15.12914 | 115° | 60km/h | 15650m | -9.1m/s | -52.9°C | 0.5% | 114.2hPa | 2.5V | 08:17:23 | 02:18:29 | 00:00:00 | |
| DF8AY | 2026-09-04 00:37:58 | 53.53862 | 15.12844 | 110° | 58km/h | 15676m | -9.2m/s | 0°C | 0% | 0hPa | 2.5V | 18:12:15 | 02:18:26 | 00:00:00 | |
| DB0DAN | 2026-09-04 00:37:55 | 53.53876 | 15.12772 | 107° | 58km/h | 15704m | -9.3m/s | -53°C | 1.2% | 113.25hPa | 2.5V | 00:00:00 | 00:00:00 | 00:00:00 | |
| DM0DOS-11 | 2026-09-04 00:37:55 | 53.53885 | 15.12722 | 105° | 62km/h | 15722m | -9.3m/s | -53°C | 3.8% | 112.9hPa | 2.5V | 08:16:44 | 02:18:21 | 00:00:00 | |
| AA1-15 | 2026-09-04 00:37:50 | 53.53898 | 15.12644 | 107° | 64km/h | 15749m | -9.3m/s | -53.1°C | 0.5% | 112.5hPa | 2.5V | 08:17:23 | 02:18:18 | 00:00:00 | |
| DF8AY | 2026-09-04 00:37:48 | 53.53913 | 15.12566 | 108° | 66km/h | 15778m | -9.8m/s | 0°C | 0% | 0hPa | 2.5V | 18:12:15 | 02:18:15 | 00:00:00 | |
| DM0DOS-11 | 2026-09-04 00:37:48 | 53.53932 | 15.12454 | 104° | 73km/h | 15817m | -9.1m/s | -53.2°C | 3.9% | 111.3hPa | 2.6V | 08:16:54 | 02:18:11 | 00:00:00 | |
| DJ2DS-15 | 2026-09-04 00:37:45 | 53.53923 | 15.12512 | 105° | 68km/h | 15797m | -9.6m/s | -53.2°C | 1.3% | 111.6hPa | 2.5V | 00:00:00 | 00:00:00 | 00:00:00 | |
| AA1-15 | 2026-09-04 00:37:40 | 53.53945 | 15.12363 | 102° | 77km/h | 15846m | -9.8m/s | -53.3°C | 0.6% | 110.8hPa | 2.5V | 08:17:23 | 02:18:08 | 00:00:00 | |
| DF8AY | 2026-09-04 00:37:36 | 53.53962 | 15.12232 | 104° | 82km/h | 15886m | -10m/s | 0°C | 0% | 0hPa | 2.5V | 18:12:15 | 02:18:04 | 00:00:00 | |
| AA1-15 | 2026-09-04 00:37:29 | 53.54006 | 15.12001 | 109° | 78km/h | 15952m | -9.6m/s | -53.4°C | 0.6% | 109hPa | 2.5V | 08:17:23 | 02:17:57 | 00:00:00 | |
| SP3WXH-11 | 2026-09-04 00:37:28 | 53.54012 | 15.11970 | 109° | 77km/h | 15962m | -9.5m/s | -53.4°C | 1.3% | 108.8hPa | 2.5V | 00:00:00 | 00:00:00 | 00:00:00 | |
| DM0DOS-11 | 2026-09-04 00:37:25 | 53.54042 | 15.11817 | 107° | 73km/h | 16011m | -10.3m/s | -52.8°C | 0% | 108.1hPa | 2.5V | 08:17:14 | 02:17:51 | 00:00:00 | |
| EDDB2-12 | 2026-09-04 00:37:21 | 53.54054 | 15.11758 | 108° | 71km/h | 16030m | -9.8m/s | -52.5°C | 1.2% | 107.7hPa | 2.5V | 00:00:00 | 00:00:00 | 00:00:00 | |
| KRY50SP | 2026-09-04 00:37:20 | 53.54060 | 15.11729 | 110° | 69km/h | 16040m | -9.6m/s | -52.6°C | 1.2% | 107.5hPa | 2.5V | 08:17:00 | 00:00:00 | 00:00:00 | |
| DM0DOS-11 | 2026-09-04 00:37:18 | 53.54104 | 15.11549 | 114° | 64km/h | 16107m | -9.5m/s | -52.8°C | 0% | 106.4hPa | 2.5V | 08:17:24 | 02:17:41 | 00:00:00 | |
| AA1-15 | 2026-09-04 00:37:18 | 53.54071 | 15.11675 | 111° | 66km/h | 16058m | -9.4m/s | -52.6°C | 0.5% | 107.2hPa | 2.5V | 08:17:23 | 02:17:46 | 00:00:00 | |
| AM1SDL-15 | 2026-09-04 00:37:17 | 53.54077 | 15.11649 | 113° | 64km/h | 16068m | -9.8m/s | -52.5°C | 3.7% | 107.0hPa | 2.5V | 00:00:00 | 02:17:45 | 00:00:00 | |
| KRY50SP | 2026-09-04 00:37:14 | 53.54097 | 15.11574 | 116° | 64km/h | 16097m | -9.9m/s | -52.7°C | 1.2% | 106.6hPa | 2.6V | 08:17:00 | 00:00:00 | 00:00:00 | |
| DB0DAN | 2026-09-04 00:37:10 | 53.54124 | 15.11475 | 112° | 60km/h | 16134m | -8.8m/s | -52.8°C | 1.2% | 106hPa | 2.6V | 00:00:00 | 00:00:00 | 00:00:00 | |
| AA1-15 | 2026-09-04 00:37:07 | 53.54142 | 15.11402 | 114° | 62km/h | 16162m | -9.5m/s | -52.8°C | 0.6% | 105.5hPa | 2.5V | 08:18:14 | 02:17:35 | 00:00:00 | |
| DM0DOS-11 | 2026-09-04 00:37:06 | 53.54167 | 15.11313 | 115° | 53km/h | 16200m | -9.8m/s | -52.6°C | 0% | 104.9hPa | 2.5V | 08:17:34 | 02:17:31 | 00:00:00 | |
| AM1SDL-15 | 2026-09-04 00:37:05 | 53.54154 | 15.11356 | 116° | 55km/h | 16181m | -9.6m/s | -52.7°C | 3.8% | 105.2hPa | 2.6V | 00:00:00 | 02:17:33 | 00:00:00 | |
| SONDE2-11 | 2026-09-04 00:37:04 | 53.54161 | 15.11334 | 116° | 55km/h | 16191m | -9.5m/s | -52.6°C | 1.2% | 105.1hPa | 2.6V | 00:00:00 | 00:00:00 | 00:00:00 | |
| EDDB2-11 | 2026-09-04 00:37:02 | 53.54172 | 15.11293 | 114° | 51km/h | 16210m | -9.4m/s | -52.6°C | 1.2% | 104.7hPa | 2.6V | 00:00:00 | 00:00:00 | 00:00:00 | |
| KRY50SP | 2026-09-04 00:37:01 | 53.54172 | 15.11293 | 115° | 53km/h | 16210m | -9.4m/s | -52.6°C | 1.2% | 104.7hPa | 2.6V | 08:18:00 | 00:00:00 | 00:00:00 | |
| DM0DOS-11 | 2026-09-04 00:36:58 | 53.54218 | 15.11097 | 109° | 57km/h | 16295m | -9.7m/s | -52.7°C | 0% | 0hPa | 2.6V | 08:17:44 | 02:17:21 | 00:00:00 | |
| AA1-15 | 2026-09-04 00:36:57 | 53.54198 | 15.11187 | 111° | 57km/h | 16258m | -8.9m/s | -52.6°C | 0.5% | 104hPa | 2.5V | 08:18:14 | 02:17:25 | 00:00:00 | |
| DB0DAN | 2026-09-04 00:36:55 | 53.54208 | 15.11142 | 109° | 55km/h | 16277m | -9.6m/s | -52.6°C | 1.2% | 103.69hPa | 2.5V | 00:00:00 | 00:00:00 | 00:00:00 | |
| AA1-15 | 2026-09-04 00:36:47 | 53.54249 | 15.10971 | 116° | 55km/h | 16353m | -9.9m/s | -53°C | 0.5% | 102.5hPa | 2.5V | 08:18:14 | 02:17:15 | 00:00:00 | |
| DM0DOS-11 | 2026-09-04 00:36:46 | 53.54275 | 15.10883 | 116° | 62km/h | 16393m | -9.7m/s | -52.7°C | 0% | 0hPa | 2.6V | 08:17:54 | 02:17:11 | 00:00:00 | |
| KRY50SP | 2026-09-04 00:36:45 | 53.54261 | 15.10929 | 118° | 57km/h | 16373m | -9.7m/s | -52.9°C | 1.2% | 102.2hPa | 2.5V | 08:18:00 | 00:00:00 | 00:00:00 | |
| DB0DAN | 2026-09-04 00:36:40 | 53.54295 | 15.10810 | 113° | 62km/h | 16421m | -9.8m/s | -52.7°C | 1.2% | 101.39hPa | 2.5V | 00:00:00 | 00:00:00 | 00:00:00 | |
| AA1-15 | 2026-09-04 00:36:37 | 53.54314 | 15.10735 | 115° | 64km/h | 16450m | -9.2m/s | -52.8°C | 0.5% | 100.9hPa | 2.6V | 08:18:14 | 02:17:05 | 00:00:00 | |
| DM0DOS-11 | 2026-09-04 00:36:34 | 53.54342 | 15.10640 | 118° | 62km/h | 16488m | -9.6m/s | -52.8°C | 0% | 0hPa | 2.5V | 08:18:04 | 02:17:01 | 00:00:00 | |
| AA1-15 | 2026-09-04 00:36:26 | 53.54400 | 15.10469 | 122° | 69km/h | 16555m | -9.6m/s | -53.1°C | 0.6% | 99.4hPa | 2.6V | 08:18:14 | 02:16:54 | 00:00:00 | |
| AA1-15 | 2026-09-04 00:36:16 | 53.54494 | 15.10255 | 126° | 53km/h | 16653m | -9.9m/s | -53°C | 0.4% | 97.9hPa | 2.5V | 08:19:05 | 02:16:44 | 00:00:00 | |
| DB0DAN | 2026-09-04 00:36:10 | 53.54540 | 15.10148 | 126° | 51km/h | 16711m | -10.4m/s | -53.2°C | 1.2% | 96.97hPa | 2.6V | 00:00:00 | 00:00:00 | 00:00:00 | |
| AA1-15 | 2026-09-04 00:36:06 | 53.54570 | 15.10075 | 125° | 51km/h | 16749m | -8.6m/s | -53.4°C | 0.5% | 96.4hPa | 2.5V | 08:19:05 | 02:16:34 | 00:00:00 | |
| AA1-15 | 2026-09-04 00:35:56 | 53.54628 | 15.09898 | 110° | 49km/h | 16841m | -9.4m/s | -54°C | 0.5% | 95hPa | 2.5V | 08:19:05 | 02:16:24 | 00:00:00 | |
| AA1-15 | 2026-09-04 00:35:46 | 53.54677 | 15.09711 | 113° | 55km/h | 16940m | -9.9m/s | -53.9°C | 0.6% | 93.6hPa | 2.5V | 08:19:05 | 02:16:14 | 00:00:00 | |
| SP3BTT-10 | 2026-09-04 00:35:43 | 53.54692 | 15.09642 | 108° | 60km/h | 16969m | -9.8m/s | -53.5°C | 3.8% | 93.1hPa | 2.5V | 00:00:00 | 00:00:00 | 00:00:00 | |
| DB0DAN | 2026-09-04 00:35:40 | 53.54704 | 15.09570 | 104° | 55km/h | 16998m | -10.2m/s | -53.7°C | 1.2% | 92.72hPa | 2.5V | 00:00:00 | 00:00:00 | 00:00:00 | |
| DL1XH-west | 2026-09-04 00:35:39 | 53.54708 | 15.09546 | 105° | 57km/h | 17008m | -9.4m/s | -53.7°C | 0.5% | 92.6hPa | 2.5V | 08:19:05 | 02:16:07 | 00:00:00 | |
| AA1-15 | 2026-09-04 00:35:35 | 53.54722 | 15.09459 | 107° | 53km/h | 17047m | -10.5m/s | -53.8°C | 0.6% | 92hPa | 2.5V | 08:19:05 | 02:16:03 | 00:00:00 | |
| SONDE2-11 | 2026-09-04 00:35:31 | 53.54740 | 15.09374 | 111° | 53km/h | 17088m | -10.5m/s | -53.7°C | 1.2% | 91.4hPa | 2.6V | 00:00:00 | 00:00:00 | 00:00:00 | |
| EDDB2-11 | 2026-09-04 00:35:29 | 53.54750 | 15.09331 | 110° | 55km/h | 17109m | -10.2m/s | -53.7°C | 1.2% | 91.2hPa | 2.6V | 00:00:00 | 00:00:00 | 00:00:00 | |
| DL1XH-west | 2026-09-04 00:35:29 | 53.54750 | 15.09331 | 111° | 55km/h | 17109m | -10.2m/s | -53.7°C | 0.6% | 91.2hPa | 2.5V | 08:19:56 | 02:15:57 | 00:00:00 | |
| DB0DAN | 2026-09-04 00:35:25 | 53.54769 | 15.09241 | 110° | 55km/h | 17146m | -9.3m/s | -53.8°C | 1.2% | 90.58hPa | 2.6V | 00:00:00 | 00:00:00 | 00:00:00 | |
| AA1-15 | 2026-09-04 00:35:25 | 53.54769 | 15.09241 | 111° | 58km/h | 17146m | -9.3m/s | -53.8°C | 0.6% | 90.6hPa | 2.6V | 08:19:56 | 02:15:53 | 00:00:00 | |
| DL1XH-west | 2026-09-04 00:35:18 | 53.54807 | 15.09075 | 112° | 58km/h | 17214m | -10.2m/s | -53.5°C | 0.5% | 89.7hPa | 2.6V | 08:19:56 | 02:15:46 | 00:00:00 | |
| AA1-15 | 2026-09-04 00:35:14 | 53.54827 | 15.08981 | 109° | 58km/h | 17253m | -10.1m/s | -53.1°C | 0.4% | 89.2hPa | 2.5V | 08:19:56 | 02:15:42 | 00:00:00 | |
| DL1XH-west | 2026-09-04 00:35:07 | 53.54866 | 15.08823 | 116° | 58km/h | 17326m | -10.2m/s | -52.6°C | 0.4% | 88.1hPa | 2.6V | 08:19:56 | 02:15:35 | 00:00:00 | |
| AA1-15 | 2026-09-04 00:35:03 | 53.54892 | 15.08732 | 114° | 57km/h | 17368m | -11m/s | -52.4°C | 0.3% | 87.6hPa | 2.5V | 08:19:56 | 02:15:31 | 00:00:00 | |
| DL1XH-west | 2026-09-04 00:34:57 | 53.54923 | 15.08604 | 115° | 55km/h | 17432m | -10.6m/s | -52.7°C | 0.3% | 86.7hPa | 2.5V | 08:19:56 | 02:15:25 | 00:00:00 | |
| KRY50SP | 2026-09-04 00:34:54 | 53.54936 | 15.08561 | 119° | 57km/h | 17452m | -10.7m/s | -52.8°C | 1.1% | 86.4hPa | 2.5V | 08:19:00 | 00:00:00 | 00:00:00 | |
| DL1XH1-15 | 2026-09-04 00:34:53 | 53.54956 | 15.08498 | 119° | 55km/h | 17483m | -10.6m/s | -52.9°C | 3.8% | 86hPa | 2.5V | 08:19:45 | 02:15:20 | 00:00:00 | |
| AA1-15 | 2026-09-04 00:34:53 | 53.54950 | 15.08519 | 118° | 57km/h | 17473m | -10.1m/s | -52.9°C | 0.4% | 86.2hPa | 2.5V | 08:19:56 | 02:15:21 | 00:00:00 | |
| MECKS9 | 2026-09-04 00:34:50 | 53.54964 | 15.08478 | 122° | 55km/h | 17493m | -9.4m/s | -53.0°C | 1.1% | 85.9hPa | 2.5V | 08:19:00 | 00:00:00 | 00:00:00 | |
| KRY50SP | 2026-09-04 00:34:48 | 53.54978 | 15.08437 | 118° | 57km/h | 17513m | -9.8m/s | -53.1°C | 1.1% | 85.6hPa | 2.5V | 08:19:00 | 00:00:00 | 00:00:00 | |
| DL1XH1-15 | 2026-09-04 00:34:47 | 53.55022 | 15.08290 | 122° | 58km/h | 17584m | -9.9m/s | -52.9°C | 3.9% | 84.7hPa | 2.5V | 08:19:55 | 02:15:10 | 00:00:00 | |
| DL1XH-west | 2026-09-04 00:34:47 | 53.54990 | 15.08395 | 114° | 55km/h | 17531m | -9.4m/s | -53.1°C | 0.4% | 85.4hPa | 2.5V | 08:19:56 | 02:15:15 | 00:00:00 | |
| EDDB2-12 | 2026-09-04 00:34:46 | 53.55001 | 15.08353 | 115° | 53km/h | 17552m | -11.2m/s | -53.1°C | 1.1% | 85.1hPa | 2.5V | 00:00:00 | 00:00:00 | 00:00:00 | |
| DJ2DS-15 | 2026-09-04 00:34:45 | 53.55001 | 15.08353 | 115° | 53km/h | 17552m | -11.2m/s | -53.1°C | 1.1% | 85.1hPa | 2.5V | 00:00:00 | 00:00:00 | 00:00:00 | |
| AA1-15 | 2026-09-04 00:34:42 | 53.55022 | 15.08290 | 122° | 58km/h | 17584m | -9.9m/s | -52.9°C | 0.5% | 84.7hPa | 2.5V | 08:19:56 | 02:15:10 | 00:00:00 | |
| DB0DAN | 2026-09-04 00:34:40 | 53.55039 | 15.08247 | 126° | 60km/h | 17603m | -10.1m/s | -52.7°C | 1.1% | 84.4hPa | 2.6V | 00:00:00 | 00:00:00 | 00:00:00 | |
| DL1XH-west | 2026-09-04 00:34:36 | 53.55082 | 15.08159 | 129° | 68km/h | 17643m | -8.7m/s | -52.7°C | 0.5% | 83.9hPa | 2.5V | 08:20:47 | 02:15:04 | 00:00:00 | |
| SP3BTT-10 | 2026-09-04 00:34:35 | 53.55092 | 15.08137 | 129° | 44km/h | 17652m | -10.3m/s | -52.7°C | 3.9% | 83.7hPa | 2.5V | 00:00:00 | 00:00:00 | 00:00:00 | |
| DL1XH1-15 | 2026-09-04 00:34:33 | 53.55123 | 15.08072 | 127° | 60km/h | 17683m | -10.1m/s | -52.6°C | 3.9% | 83.3hPa | 2.5V | 08:20:05 | 02:15:00 | 00:00:00 | |
| AA1-15 | 2026-09-04 00:34:31 | 53.55132 | 15.08053 | 130° | 58km/h | 17693m | -10m/s | -52.5°C | 0.4% | 83.2hPa | 2.5V | 08:20:47 | 02:14:59 | 00:00:00 | |
| SONDE2-11 | 2026-09-04 00:34:29 | 53.55162 | 15.07997 | 134° | 57km/h | 17726m | -10.3m/s | -52.1°C | 1.0% | 82.8hPa | 2.5V | 00:00:00 | 00:00:00 | 00:00:00 | |
| DL1XH1-15 | 2026-09-04 00:34:27 | 53.55222 | 15.07905 | 141° | 49km/h | 17788m | -9.7m/s | -51.7°C | 3.5% | 82.1hPa | 2.5V | 08:20:15 | 02:14:50 | 00:00:00 | |
| DB0DAN | 2026-09-04 00:34:25 | 53.55193 | 15.07947 | 137° | 51km/h | 17756m | -9.9m/s | -52°C | 1% | 82.42hPa | 2.5V | 00:00:00 | 00:00:00 | 00:00:00 | |
| DL1XH-west | 2026-09-04 00:34:25 | 53.55193 | 15.07947 | 137° | 55km/h | 17757m | -9.9m/s | -52°C | 0.3% | 82.4hPa | 2.5V | 08:20:47 | 02:14:53 | 00:00:00 | |
| AA1-15 | 2026-09-04 00:34:21 | 53.55232 | 15.07892 | 141° | 47km/h | 17799m | -10.7m/s | -51.7°C | 0.2% | 81.9hPa | 2.5V | 08:20:47 | 02:14:49 | 00:00:00 | |
| DL1XH-west | 2026-09-04 00:34:14 | 53.55288 | 15.07815 | 144° | 38km/h | 17870m | -10m/s | -51.9°C | 0.3% | 81hPa | 2.5V | 08:20:47 | 02:14:42 | 00:00:00 | |
| DL1XH1-15 | 2026-09-04 00:34:13 | 53.55304 | 15.07797 | 146° | 37km/h | 17890m | -11.3m/s | -51.8°C | 3.4% | 80.8hPa | 2.6V | 08:20:25 | 02:14:40 | 00:00:00 | |
| DB0DAN | 2026-09-04 00:34:10 | 53.55319 | 15.07780 | 147° | 37km/h | 17910m | -9.7m/s | -51.9°C | 1% | 80.48hPa | 2.5V | 00:00:00 | 00:00:00 | 00:00:00 | |
| AA1-15 | 2026-09-04 00:34:10 | 53.55319 | 15.07780 | 147° | 38km/h | 17910m | -9.7m/s | -51.9°C | 0.2% | 80.5hPa | 2.5V | 08:20:47 | 02:14:38 | 00:00:00 | |
| KRY50SP | 2026-09-04 00:34:08 | 53.55334 | 15.07763 | 146° | 33km/h | 17931m | -11.2m/s | -52.0°C | 1.0% | 80.2hPa | 2.6V | 08:20:00 | 00:00:00 | 00:00:00 | |
| DL1XH1-15 | 2026-09-04 00:34:07 | 53.55368 | 15.07719 | 138° | 24km/h | 17996m | -11.8m/s | -52.5°C | 3.6% | 79.5hPa | 2.6V | 08:20:35 | 02:14:30 | 00:00:00 | |
| DL1XH-west | 2026-09-04 00:34:04 | 53.55358 | 15.07734 | 141° | 27km/h | 17974m | -11.7m/s | -52.3°C | 0.3% | 79.7hPa | 2.5V | 08:20:47 | 02:14:32 | 00:00:00 | |
| AA1-15 | 2026-09-04 00:34:00 | 53.55378 | 15.07705 | 137° | 26km/h | 18018m | -11.3m/s | -52.6°C | 0.4% | 79.2hPa | 2.5V | 08:20:47 | 02:14:28 | 00:00:00 | |
| SONDE2-11 | 2026-09-04 00:33:58 | 53.55393 | 15.07682 | 137° | 27km/h | 18050m | -10.5m/s | -52.8°C | 1.1% | 78.8hPa | 2.5V | 00:00:00 | 00:00:00 | 00:00:00 | |
| EDDB2-11 | 2026-09-04 00:33:56 | 53.55404 | 15.07666 | 136° | 26km/h | 18071m | -10.8m/s | -52.9°C | 1.1% | 78.5hPa | 2.5V | 00:00:00 | 00:00:00 | 00:00:00 | |
| DL1XH1-15 | 2026-09-04 00:33:53 | 53.55419 | 15.07639 | 128° | 33km/h | 18105m | -11.5m/s | -53°C | 3.8% | 78.1hPa | 2.5V | 08:20:45 | 02:14:20 | 00:00:00 | |
| DL1XH-west | 2026-09-04 00:33:53 | 53.55414 | 15.07649 | 131° | 31km/h | 18093m | -12.2m/s | -53°C | 0.4% | 78.3hPa | 2.5V | 08:20:47 | 02:14:21 | 00:00:00 | |
| AA1-15 | 2026-09-04 00:33:50 | 53.55429 | 15.07616 | 122° | 35km/h | 18128m | -11.3m/s | -53.1°C | 0.5% | 77.9hPa | 2.6V | 08:20:47 | 02:14:18 | 00:00:00 | |
| DL1XH-west | 2026-09-04 00:33:43 | 53.55452 | 15.07529 | 115° | 31km/h | 18211m | -11.8m/s | -53.3°C | 0.5% | 76.9hPa | 2.5V | 08:21:38 | 02:14:11 | 00:00:00 | |
| DL1XH1-15 | 2026-09-04 00:33:42 | 53.55465 | 15.07491 | 123° | 37km/h | 18247m | -12m/s | -53.2°C | 3.8% | 76.5hPa | 2.6V | 08:20:57 | 02:14:08 | 00:00:00 | |
| DB0DAN | 2026-09-04 00:33:40 | 53.55465 | 15.07491 | 123° | 35km/h | 18247m | -12m/s | -53.2°C | 1.1% | 76.46hPa | 2.6V | 00:00:00 | 00:00:00 | 00:00:00 | |
| AA1-15 | 2026-09-04 00:33:39 | 53.55470 | 15.07477 | 126° | 38km/h | 18259m | -12.5m/s | -53.1°C | 0.4% | 76.3hPa | 2.5V | 08:21:38 | 02:14:07 | 00:00:00 | |
| DL1XH-west | 2026-09-04 00:33:33 | 53.55503 | 15.07408 | 119° | 29km/h | 18331m | -11.5m/s | -52.9°C | 0.4% | 75.5hPa | 2.5V | 08:21:38 | 02:14:01 | 00:00:00 | |
| DL1XH1-15 | 2026-09-04 00:33:32 | 53.55511 | 15.07374 | 97° | 29km/h | 18367m | -12.3m/s | -52.8°C | 3.7% | 75.1hPa | 2.5V | 08:21:07 | 02:13:58 | 00:00:00 | |
| AA1-15 | 2026-09-04 00:33:28 | 53.55513 | 15.07344 | 95° | 37km/h | 18392m | -11.8m/s | -52.8°C | 0.4% | 74.8hPa | 2.6V | 08:21:38 | 02:13:56 | 00:00:00 | |
| DL1XH-west | 2026-09-04 00:33:23 | 53.55523 | 15.07263 | 111° | 35km/h | 18457m | -11.2m/s | -53°C | 0.6% | 74.1hPa | 2.5V | 08:21:38 | 02:13:51 | 00:00:00 | |
| DL1XH1-15 | 2026-09-04 00:33:22 | 53.55533 | 15.07218 | 113° | 40km/h | 18492m | -9.9m/s | -53.2°C | 3.9% | 73.7hPa | 2.6V | 08:21:17 | 02:13:48 | 00:00:00 | |
| AA1-15 | 2026-09-04 00:33:18 | 53.55542 | 15.07188 | 121° | 38km/h | 18526m | -20.3m/s | -53.2°C | 0.5% | 73.4hPa | 2.5V | 08:21:38 | 02:13:46 | 00:00:00 | |
| AM1SDL-15 | 2026-09-04 00:33:17 | 53.55547 | 15.07173 | 122° | 35km/h | 18547m | -19.9m/s | -53.2°C | 3.9% | 73.1hPa | 2.6V | 00:00:00 | 02:13:45 | 00:00:00 | |
| KRY50SP | 2026-09-04 00:33:16 | 53.55547 | 15.07173 | 123° | 38km/h | 18547m | -19.9m/s | -53.2°C | 1.1% | 73.1hPa | 2.6V | 08:21:00 | 00:00:00 | 00:00:00 | |
| DL1XH-15 | 2026-09-04 00:33:14 | 53.55568 | 15.07123 | 124° | 35km/h | 18624m | -21m/s | -53.4°C | 3.9% | 72.3hPa | 2.6V | 08:30:00 | 02:13:41 | 00:00:00 | |
| DL1XH-west | 2026-09-04 00:33:13 | 53.55568 | 15.07123 | 125° | 35km/h | 18624m | -21m/s | -53.4°C | 0.5% | 72.3hPa | 2.6V | 08:21:38 | 02:13:41 | 00:00:00 | |
| DL1XH1-15 | 2026-09-04 00:33:11 | 53.55582 | 15.07089 | 123° | 33km/h | 18683m | -18.3m/s | -53.1°C | 3.9% | 71.6hPa | 2.5V | 08:21:27 | 02:13:38 | 00:00:00 | |
| AA1-15 | 2026-09-04 00:33:08 | 53.55591 | 15.07067 | 123° | 31km/h | 18721m | -19m/s | -52.9°C | 0.4% | 71.2hPa | 2.5V | 08:21:38 | 02:13:36 | 00:00:00 | |
| DL1XH1-15 | 2026-09-04 00:33:05 | 53.55619 | 15.06975 | 114° | 29km/h | 18855m | -17.6m/s | -52.6°C | 3.8% | 69.7hPa | 2.5V | 08:21:37 | 02:13:28 | 00:00:00 | |
| DL1XH-15 | 2026-09-04 00:33:04 | 53.55609 | 15.07009 | 118° | 29km/h | 18808m | -17.3m/s | -52.5°C | 3.7% | 70.2hPa | 2.6V | 08:30:00 | 02:13:31 | 00:00:00 | |
| DL1XH-west | 2026-09-04 00:33:03 | 53.55609 | 15.07009 | 118° | 29km/h | 18808m | -17.3m/s | -52.5°C | 0.4% | 70.2hPa | 2.6V | 08:21:38 | 02:13:31 | 00:00:00 | |
| AA1-15 | 2026-09-04 00:32:57 | 53.55627 | 15.06943 | 104° | 27km/h | 18902m | -14.8m/s | -52.6°C | 0.4% | 69.1hPa | 2.6V | 08:22:29 | 02:13:25 | 00:00:00 | |
| DJ2DS-15 | 2026-09-04 00:32:57 | 53.55629 | 15.06932 | 101° | 26km/h | 18918m | -17.9m/s | -52.6°C | 1.0% | 69.0hPa | 2.6V | 00:00:00 | 00:00:00 | 00:00:00 | |
| SONDE2-11 | 2026-09-04 00:32:56 | 53.55630 | 15.06921 | 96° | 26km/h | 18937m | -19.5m/s | -52.6°C | 1.0% | 68.9hPa | 2.6V | 00:00:00 | 00:00:00 | 00:00:00 | |
| DL1XH-15 | 2026-09-04 00:32:54 | 53.55631 | 15.06897 | 89° | 33km/h | 18974m | -18.9m/s | -52.5°C | 3.7% | 68.4hPa | 2.6V | 08:30:00 | 02:13:21 | 00:00:00 | |
| DL1XH-west | 2026-09-04 00:32:53 | 53.55631 | 15.06897 | 90° | 33km/h | 18974m | -18.9m/s | -52.5°C | 0.4% | 68.4hPa | 2.6V | 08:22:29 | 02:13:21 | 00:00:00 | |
| DL1XH1-15 | 2026-09-04 00:32:50 | 53.55632 | 15.06853 | 91° | 37km/h | 19034m | -20.6m/s | -52.6°C | 3.6% | 67.8hPa | 2.5V | 08:21:47 | 02:13:18 | 00:00:00 | |
| AA1-15 | 2026-09-04 00:32:46 | 53.55633 | 15.06793 | 92° | 35km/h | 19122m | -21.6m/s | -53°C | 0.5% | 66.9hPa | 2.6V | 08:22:29 | 02:13:14 | 00:00:00 | |
| DL1XH1-15 | 2026-09-04 00:32:45 | 53.55635 | 15.06705 | 94° | 33km/h | 19239m | -20.6m/s | -52.6°C | 3.7% | 65.7hPa | 2.5V | 08:21:57 | 02:13:08 | 00:00:00 | |
| DL1XH-15 | 2026-09-04 00:32:44 | 53.55634 | 15.06751 | 89° | 35km/h | 19180m | -17.5m/s | -53°C | 3.8% | 66.3hPa | 2.5V | 08:30:00 | 02:13:11 | 00:00:00 | |
| DL1XH-west | 2026-09-04 00:32:42 | 53.55635 | 15.06735 | 91° | 35km/h | 19198m | -20.9m/s | -52.7°C | 0.5% | 66.1hPa | 2.6V | 08:22:29 | 02:13:10 | 00:00:00 | |
| AA1-15 | 2026-09-04 00:32:36 | 53.55640 | 15.06649 | 102° | 29km/h | 19309m | -18.1m/s | -52.8°C | 0.4% | 65hPa | 2.6V | 08:22:29 | 02:13:04 | 00:00:00 | |
| DL1XH-15 | 2026-09-04 00:32:33 | 53.55651 | 15.06605 | 120° | 26km/h | 19384m | -23.5m/s | -52.9°C | 3.6% | 64.3hPa | 2.5V | 08:30:00 | 02:13:00 | 00:00:00 | |
| DL1XH-west | 2026-09-04 00:32:32 | 53.55651 | 15.06605 | 121° | 26km/h | 19384m | -23.5m/s | -52.9°C | 0.4% | 64.3hPa | 2.5V | 08:22:29 | 02:13:00 | 00:00:00 | |
| AA1-15 | 2026-09-04 00:32:26 | 53.55670 | 15.06552 | 122° | 24km/h | 19490m | -16.7m/s | -53.4°C | 0.5% | 63.1hPa | 2.5V | 08:22:29 | 02:12:54 | 00:00:00 | |
| SONDE2-11 | 2026-09-04 00:32:25 | 53.55675 | 15.06533 | 112° | 27km/h | 19526m | -18.2m/s | -53.5°C | 1.1% | 62.8hPa | 2.5V | 00:00:00 | 00:00:00 | 00:00:00 | |
| DL1XH-15 | 2026-09-04 00:32:23 | 53.55688 | 15.06488 | 115° | 31km/h | 19584m | -12.6m/s | -53.5°C | 3.9% | 62.2hPa | 2.5V | 08:30:00 | 02:12:48 | 00:00:00 | |
| DL1XH-west | 2026-09-04 00:32:21 | 53.55685 | 15.06500 | 115° | 31km/h | 19571m | -13.8m/s | -53.4°C | 0.6% | 62.3hPa | 2.5V | 08:22:29 | 02:12:49 | 00:00:00 | |
| AA1-15 | 2026-09-04 00:32:15 | 53.55705 | 15.06435 | 124° | 26km/h | 19649m | -13.1m/s | -53.7°C | 0.6% | 61.6hPa | 2.6V | 08:22:29 | 02:12:43 | 00:00:00 | |
| DM0DOS-11 | 2026-09-04 00:32:14 | 53.55724 | 15.06400 | 135° | 15km/h | 19732m | -13.5m/s | 0°C | 0% | 0hPa | 2.6V | 08:22:28 | 02:12:37 | 00:00:00 | |
| DJ2DS-15 | 2026-09-04 00:32:14 | 53.55708 | 15.06427 | 127° | 16km/h | 19662m | -12.4m/s | -53.7°C | 4.0% | 61.4hPa | 2.5V | 00:00:00 | 02:12:42 | 00:00:00 | |
| EDDB2-12 | 2026-09-04 00:32:11 | 53.55721 | 15.06404 | 136° | 15km/h | 19718m | -13.4m/s | -53.8°C | 1.1% | 60.9hPa | 2.5V | 00:00:00 | 00:00:00 | 00:00:00 | |
| KRY50SP | 2026-09-04 00:32:09 | 53.55724 | 15.06400 | 137° | 15km/h | 19732m | -13.5m/s | -53.7°C | 1.1% | 60.8hPa | 2.5V | 08:22:00 | 00:00:00 | 00:00:00 | |
| DL1XH1-15 | 2026-09-04 00:32:06 | 53.55733 | 15.06373 | 104° | 18km/h | 19797m | -13m/s | -53.5°C | 3.9% | 60.2hPa | 2.5V | 08:22:33 | 02:12:32 | 00:00:00 | |
| AA1-15 | 2026-09-04 00:32:04 | 53.55733 | 15.06373 | 105° | 18km/h | 19797m | -13m/s | -53.6°C | 0.6% | 60.2hPa | 2.5V | 08:23:20 | 02:12:32 | 00:00:00 | |
| DL1XH-west | 2026-09-04 00:32:02 | 53.55735 | 15.06357 | 96° | 18km/h | 19823m | -13.1m/s | -53.6°C | 0.5% | 60hPa | 2.6V | 08:23:20 | 02:12:30 | 00:00:00 | |
| DM0DOS-11 | 2026-09-04 00:31:59 | 53.55734 | 15.06334 | 78° | 16km/h | 19861m | -13.4m/s | 0°C | 0% | 0hPa | 2.5V | 08:30:00 | 02:12:27 | 00:00:00 | |
| SONDE2-11 | 2026-09-04 00:31:54 | 53.55726 | 15.06291 | 71° | 20km/h | 19941m | -13.1m/s | -53.6°C | 1.1% | 58.9hPa | 2.6V | 00:00:00 | 00:00:00 | 00:00:00 | |
| DL1XH1-15 | 2026-09-04 00:31:53 | 53.55721 | 15.06261 | 81° | 27km/h | 19979m | -12.8m/s | -53.9°C | 4% | 58.5hPa | 2.6V | 08:22:47 | 02:12:18 | 00:00:00 | |
| AA1-15 | 2026-09-04 00:31:53 | 53.55726 | 15.06291 | 72° | 22km/h | 19941m | -13.1m/s | -53.6°C | 0.5% | 58.9hPa | 2.5V | 08:23:20 | 02:12:21 | 00:00:00 | |
| DL1XH-west | 2026-09-04 00:31:52 | 53.55724 | 15.06282 | 76° | 24km/h | 19954m | -13.1m/s | -53.7°C | 0.6% | 58.8hPa | 2.5V | 08:23:20 | 02:12:20 | 00:00:00 | |
| EDDB2-11 | 2026-09-04 00:31:52 | 53.55723 | 15.06272 | 78° | 24km/h | 19967m | -12.0m/s | -53.8°C | 1.1% | 58.6hPa | 2.5V | 00:00:00 | 00:00:00 | 00:00:00 | |
| KRY50SP | 2026-09-04 00:31:51 | 53.55724 | 15.06282 | 77° | 24km/h | 19954m | -13.1m/s | -53.7°C | 1.1% | 58.8hPa | 2.5V | 08:23:00 | 00:00:00 | 00:00:00 | |
| DM0DOS-11 | 2026-09-04 00:31:49 | 53.55721 | 15.06249 | 82° | 29km/h | 19992m | -12.4m/s | 0°C | 0% | 0hPa | 2.5V | 08:30:00 | 02:12:17 | 00:00:00 | |
| SP3WXH-11 | 2026-09-04 00:31:47 | 53.55719 | 15.06223 | 87° | 29km/h | 20017m | -12.8m/s | -54.1°C | 1.1% | 58.2hPa | 2.5V | 00:00:00 | 00:00:00 | 00:00:00 | |
| DJ2DS-15 | 2026-09-04 00:31:45 | 53.55718 | 15.06185 | 90° | 29km/h | 20056m | -13.2m/s | -54.1°C | 1.2% | 57.8hPa | 2.5V | 00:00:00 | 00:00:00 | 00:00:00 | |
| DM0DOS-11 | 2026-09-04 00:31:44 | 53.55720 | 15.06123 | 93° | 27km/h | 20119m | -12.4m/s | 0°C | 0% | 0hPa | 2.5V | 08:30:00 | 02:12:07 | 00:00:00 | |
| AA1-15 | 2026-09-04 00:31:43 | 53.55718 | 15.06172 | 91° | 31km/h | 20069m | -12.5m/s | -53.9°C | 0.7% | 57.7hPa | 2.5V | 08:23:20 | 02:12:11 | 00:00:00 | |
| DB0DAN | 2026-09-04 00:31:40 | 53.55720 | 15.06136 | 97° | 27km/h | 20108m | -12.3m/s | -53.8°C | 1.1% | 57.36hPa | 2.6V | 00:00:00 | 00:00:00 | 00:00:00 | |
| DL1XH-west | 2026-09-04 00:31:40 | 53.55720 | 15.06136 | 97° | 29km/h | 20108m | -12.3m/s | -53.8°C | 0.6% | 57.4hPa | 2.6V | 08:23:20 | 02:12:08 | 00:00:00 | |
| AA1-15 | 2026-09-04 00:31:32 | 53.55725 | 15.06048 | 110° | 26km/h | 20211m | -12.8m/s | -53.3°C | 0.5% | 56.5hPa | 2.5V | 08:23:20 | 02:12:00 | 00:00:00 | |
| DL1XH-west | 2026-09-04 00:31:29 | 53.55734 | 15.06017 | 121° | 27km/h | 20250m | -12.6m/s | -53.3°C | 0.5% | 56.1hPa | 2.6V | 08:23:20 | 02:11:57 | 00:00:00 | |
| AM1SDL-15 | 2026-09-04 00:31:28 | 53.55737 | 15.06007 | 121° | 26km/h | 20263m | -12.7m/s | -53.3°C | 3.9% | 56.0hPa | 2.6V | 00:00:00 | 02:11:56 | 00:00:00 | |
| DL1XH1-15 | 2026-09-04 00:31:27 | 53.55747 | 15.05978 | 116° | 26km/h | 20302m | -12.7m/s | -53.6°C | 4% | 55.7hPa | 2.6V | 08:23:12 | 02:11:53 | 00:00:00 | |
| DB0DAN | 2026-09-04 00:31:25 | 53.55747 | 15.05979 | 117° | 24km/h | 20302m | -12.7m/s | -53.6°C | 1.1% | 55.67hPa | 2.6V | 00:00:00 | 00:00:00 | 00:00:00 | |
| AA1-15 | 2026-09-04 00:31:22 | 53.55755 | 15.05950 | 113° | 26km/h | 20341m | -13.1m/s | -53.7°C | 0.6% | 55.4hPa | 2.5V | 08:23:20 | 02:11:50 | 00:00:00 | |
| DL1XH-west | 2026-09-04 00:31:17 | 53.55768 | 15.05898 | 112° | 27km/h | 20404m | -12.7m/s | -53.1°C | 0.5% | 54.8hPa | 2.5V | 08:23:20 | 02:11:45 | 00:00:00 | |
| KRY50SP | 2026-09-04 00:31:17 | 53.55768 | 15.05898 | 113° | 29km/h | 20404m | -12.7m/s | -53.1°C | 1.1% | 54.8hPa | 2.6V | 08:23:00 | 00:00:00 | 00:00:00 | |
| SP3WXH-11 | 2026-09-04 00:31:16 | 53.55771 | 15.05887 | 113° | 26km/h | 20417m | -12.6m/s | -53.1°C | 1.0% | 54.7hPa | 2.6V | 00:00:00 | 00:00:00 | 00:00:00 | |
| DL1XH1-15 | 2026-09-04 00:31:13 | 53.55779 | 15.05855 | 113° | 26km/h | 20454m | -12.6m/s | -53.3°C | 3.8% | 54.4hPa | 2.6V | 08:23:24 | 02:11:41 | 00:00:00 | |
| AA1-15 | 2026-09-04 00:31:11 | 53.55784 | 15.05834 | 110° | 27km/h | 20479m | -13.1m/s | -53.5°C | 0.6% | 54.2hPa | 2.5V | 08:24:11 | 02:11:39 | 00:00:00 | |
| DB0DAN | 2026-09-04 00:31:10 | 53.55786 | 15.05823 | 106° | 26km/h | 20492m | -12.5m/s | -53.5°C | 1% | 54.05hPa | 2.5V | 00:00:00 | 00:00:00 | 00:00:00 | |
| DL1XH-15 | 2026-09-04 00:31:10 | 53.55791 | 15.05777 | 99° | 31km/h | 20543m | -12.5m/s | -53.5°C | 4% | 53.6hPa | 2.5V | 08:30:00 | 02:11:34 | 00:00:00 | |
| DL1XH-west | 2026-09-04 00:31:07 | 53.55790 | 15.05789 | 102° | 29km/h | 20530m | -12.8m/s | -53.5°C | 0.6% | 53.7hPa | 2.5V | 08:24:11 | 02:11:35 | 00:00:00 | |
| AA1-15 | 2026-09-04 00:31:01 | 53.55798 | 15.05710 | 100° | 33km/h | 20605m | -12.1m/s | -53.5°C | 0.6% | 53.1hPa | 2.5V | 08:24:11 | 02:11:29 | 00:00:00 | |
| DL1XH-west | 2026-09-04 00:30:56 | 53.55807 | 15.05641 | 109° | 35km/h | 20666m | -11.9m/s | -53.2°C | 0.5% | 52.6hPa | 2.5V | 08:24:11 | 02:11:24 | 00:00:00 | |
| AA1-15 | 2026-09-04 00:30:50 | 53.55834 | 15.05560 | 127° | 35km/h | 20735m | -10.4m/s | -53.1°C | 0.5% | 52hPa | 2.5V | 08:24:11 | 02:11:18 | 00:00:00 | |
| DO2SHX-10 | 2026-09-04 00:30:49 | 53.55839 | 15.05548 | 127° | 38km/h | 20747m | -12.2m/s | -53.0°C | 3.9% | 51.9hPa | 2.5V | 00:00:00 | 02:11:17 | 00:00:00 | |
| KRY50SP | 2026-09-04 00:30:48 | 53.55839 | 15.05548 | 128° | 37km/h | 20747m | -12.3m/s | -53.1°C | 1.0% | 51.9hPa | 2.6V | 08:24:00 | 00:00:00 | 00:00:00 | |
| DL1XH-15 | 2026-09-04 00:30:45 | 53.55876 | 15.05440 | 115° | 38km/h | 20844m | -11m/s | -52.8°C | 3.7% | 51.2hPa | 2.6V | 08:30:00 | 02:11:09 | 00:00:00 | |
| DL1XH-west | 2026-09-04 00:30:45 | 53.55859 | 15.05496 | 120° | 37km/h | 20795m | -11.6m/s | -53.2°C | 0.5% | 51.5hPa | 2.5V | 08:24:11 | 02:11:13 | 00:00:00 | |
| SP3WXH-11 | 2026-09-04 00:30:45 | 53.55859 | 15.05496 | 119° | 37km/h | 20795m | -11.6m/s | -53.2°C | 1.1% | 51.5hPa | 2.6V | 00:00:00 | 00:00:00 | 00:00:00 | |
| AA1-15 | 2026-09-04 00:30:40 | 53.55880 | 15.05425 | 116° | 40km/h | 20855m | -12.2m/s | -52.9°C | 0.4% | 51.1hPa | 2.6V | 08:24:11 | 02:11:08 | 00:00:00 | |
| DL1XH1-15 | 2026-09-04 00:30:39 | 53.55914 | 15.05318 | 120° | 42km/h | 20939m | -10.8m/s | -53.1°C | 3.9% | 50.4hPa | 2.6V | 08:24:04 | 02:11:01 | 00:00:00 | |
| DL1XH-west | 2026-09-04 00:30:35 | 53.55909 | 15.05333 | 120° | 40km/h | 20927m | -11.8m/s | -53.2°C | 0.5% | 50.5hPa | 2.6V | 08:24:11 | 02:11:02 | 00:00:00 | |
| AA1-15 | 2026-09-04 00:30:29 | 53.55936 | 15.05261 | 128° | 38km/h | 20983m | -10.8m/s | -52.9°C | 0.5% | 50.1hPa | 2.5V | 08:24:11 | 02:10:57 | 00:00:00 | |
| DL1XH1-15 | 2026-09-04 00:30:28 | 53.55968 | 15.05205 | 139° | 35km/h | 21038m | -11.6m/s | -52.8°C | 3.8% | 49.6hPa | 2.5V | 08:24:13 | 02:10:52 | 00:00:00 | |
| DL1XH-west | 2026-09-04 00:30:25 | 53.55961 | 15.05214 | 137° | 35km/h | 21027m | -11.5m/s | -52.8°C | 0.5% | 49.7hPa | 2.5V | 08:25:53 | 02:10:53 | 00:00:00 | |
| AA1-15 | 2026-09-04 00:30:19 | 53.56008 | 15.05160 | 151° | 26km/h | 21108m | -11.9m/s | -52.6°C | 0.4% | 49.1hPa | 2.6V | 08:25:02 | 02:10:46 | 00:00:00 | |
| DL1XH1-15 | 2026-09-04 00:30:18 | 53.56033 | 15.05130 | 133° | 18km/h | 21177m | -11.5m/s | -52.8°C | 3.8% | 48.6hPa | 2.6V | 08:24:25 | 02:10:40 | 00:00:00 | |
| DL1XH-west | 2026-09-04 00:30:15 | 53.56022 | 15.05145 | 147° | 20km/h | 21143m | -11.2m/s | -52.7°C | 0.5% | 48.9hPa | 2.5V | 08:25:53 | 02:10:43 | 00:00:00 | |
| DL1XH-15 | 2026-09-04 00:30:14 | 53.56042 | 15.05110 | 125° | 22km/h | 21214m | -11.9m/s | -52.9°C | 3.8% | 48.3hPa | 2.5V | 08:30:00 | 02:10:37 | 00:00:00 | |
| AA1-15 | 2026-09-04 00:30:08 | 53.56049 | 15.05093 | 122° | 26km/h | 21237m | -11.7m/s | -53°C | 0.5% | 48.1hPa | 2.5V | 08:25:02 | 02:10:35 | 00:00:00 | |
| DL1XH1-15 | 2026-09-04 00:30:07 | 53.56068 | 15.05043 | 120° | 31km/h | 21295m | -12.2m/s | -52.9°C | 3.9% | 47.7hPa | 2.5V | 08:24:35 | 02:10:30 | 00:00:00 | |
| DL1XH-west | 2026-09-04 00:30:04 | 53.56060 | 15.05064 | 120° | 27km/h | 21272m | -11m/s | -53°C | 0.6% | 47.9hPa | 2.6V | 08:25:53 | 02:10:32 | 00:00:00 | |
| DL1XH-15 | 2026-09-04 00:30:02 | 53.56081 | 15.05012 | 128° | 29km/h | 21331m | -12.9m/s | -52.6°C | 3.8% | 47.5hPa | 2.6V | 08:30:00 | 02:10:27 | 00:00:00 | |
| AA1-15 | 2026-09-04 00:29:58 | 53.56085 | 15.05003 | 134° | 27km/h | 21343m | -12.5m/s | -52.6°C | 0.4% | 47.4hPa | 2.6V | 08:25:02 | 02:10:26 | 00:00:00 | |
| DL1XH1-15 | 2026-09-04 00:29:56 | 53.56120 | 15.04967 | 156° | 20km/h | 21425m | -11.7m/s | -52.2°C | 3.7% | 46.8hPa | 2.6V | 08:24:46 | 02:10:19 | 00:00:00 | |
| DL1XH-west | 2026-09-04 00:29:53 | 53.56110 | 15.04975 | 156° | 22km/h | 21403m | -11.8m/s | -52.4°C | 0.4% | 47hPa | 2.5V | 08:25:53 | 02:10:21 | 00:00:00 | |
| AA1-15 | 2026-09-04 00:29:47 | 53.56137 | 15.04944 | 119° | 18km/h | 21484m | -13m/s | -52.1°C | 0.4% | 46.4hPa | 2.6V | 08:25:02 | 02:10:14 | 00:00:00 | |
| DL1XH-15 | 2026-09-04 00:29:46 | 53.56141 | 15.04929 | 110° | 20km/h | 21509m | -13.5m/s | -52.2°C | 3.8% | 46.2hPa | 2.6V | 08:30:00 | 02:10:12 | 00:00:00 | |
| DL1XH-west | 2026-09-04 00:29:43 | 53.56143 | 15.04920 | 112° | 24km/h | 21522m | -13m/s | -52.2°C | 0.5% | 46.1hPa | 2.5V | 08:25:53 | 02:10:11 | 00:00:00 | |
| AA1-15 | 2026-09-04 00:29:37 | 53.56165 | 15.04860 | 130° | 29km/h | 21599m | -13m/s | -52.2°C | 0.5% | 45.5hPa | 2.6V | 08:25:02 | 02:10:05 | 00:00:00 | |
| DL1XH-west | 2026-09-04 00:29:32 | 53.56190 | 15.04820 | 142° | 24km/h | 21662m | -12.5m/s | -51.9°C | 0.4% | 45.1hPa | 2.5V | 08:25:53 | 02:10:00 | 00:00:00 | |
| DL1XH1-15 | 2026-09-04 00:29:30 | 53.56200 | 15.04809 | 152° | 24km/h | 21687m | -13.6m/s | -51.7°C | 3.7% | 44.9hPa | 2.6V | 08:25:07 | 02:09:58 | 00:00:00 | |
| AA1-15 | 2026-09-04 00:29:27 | 53.56217 | 15.04798 | 162° | 26km/h | 21728m | -13.3m/s | -51.1°C | 0.2% | 44.6hPa | 2.5V | 08:25:53 | 02:09:55 | 00:00:00 | |
| DL1XH-west | 2026-09-04 00:29:21 | 53.56249 | 15.04782 | 170° | 16km/h | 21807m | -12.1m/s | -50.8°C | 0.1% | 44.1hPa | 2.5V | 08:25:53 | 02:09:49 | 00:00:00 | |
| DL1XH-15 | 2026-09-04 00:29:20 | 53.56255 | 15.04781 | 183° | 11km/h | 21831m | -12.1m/s | -50.8°C | 3.3% | 43.9hPa | 2.5V | 08:30:00 | 02:09:47 | 00:00:00 | |
| AA1-15 | 2026-09-04 00:29:16 | 53.56262 | 15.04785 | 206° | 9km/h | 21870m | -11.7m/s | -51°C | 0.2% | 43.7hPa | 2.5V | 08:25:53 | 02:09:44 | 00:00:00 | |
| DL1XH-west | 2026-09-04 00:29:11 | 53.56279 | 15.04793 | 181° | 15km/h | 21941m | -12m/s | -51.5°C | 0.3% | 43.2hPa | 2.6V | 08:25:53 | 02:09:38 | 00:00:00 | |
| DL1XH-15 | 2026-09-04 00:29:10 | 53.56286 | 15.04792 | 173° | 11km/h | 21965m | -12.1m/s | -51.7°C | 3.5% | 43.1hPa | 2.5V | 08:30:00 | 02:09:36 | 00:00:00 | |
| DL1XH1-15 | 2026-09-04 00:29:10 | 53.56283 | 15.04792 | 181° | 15km/h | 21953m | -12.3m/s | -51.6°C | 3.5% | 43.1hPa | 2.5V | 08:25:28 | 02:09:37 | 00:00:00 | |
| AA1-15 | 2026-09-04 00:29:05 | 53.56291 | 15.04791 | 262° | 2km/h | 22004m | -13.5m/s | -52°C | 0.4% | 42.8hPa | 2.6V | 08:25:53 | 02:09:33 | 00:00:00 | |
| DL1XH-west | 2026-09-04 00:28:59 | 53.56283 | 15.04801 | 338° | 7km/h | 22081m | -16.2m/s | -52.6°C | 0.5% | 42.4hPa | 2.6V | 08:25:53 | 02:09:27 | 00:00:00 | |
| KRY50SP | 2026-09-04 00:28:56 | 53.56280 | 15.04802 | 6° | 5km/h | 22108m | -12.3m/s | -52.7°C | 1.0% | 42.2hPa | 2.6V | 08:25:00 | 00:00:00 | 00:00:00 | |
| DL1XH-15 | 2026-09-04 00:28:55 | 53.56277 | 15.04795 | 60° | 7km/h | 22144m | -12.2m/s | -52.6°C | 3.9% | 41.9hPa | 2.6V | 08:30:00 | 02:09:22 | 00:00:00 | |
| AA1-15 | 2026-09-04 00:28:55 | 53.56278 | 15.04799 | 71° | 7km/h | 22132m | -13.8m/s | -52.6°C | 0.6% | 42hPa | 2.6V | 08:25:53 | 02:09:23 | 00:00:00 | |
| DL1XH-west | 2026-09-04 00:28:48 | 53.56268 | 15.04770 | 60° | 11km/h | 22260m | -17.8m/s | -52.7°C | 0.5% | 41.2hPa | 2.6V | 08:25:53 | 02:09:16 | 00:00:00 | |
| SONDE2-11 | 2026-09-04 00:28:47 | 53.56267 | 15.04765 | 68° | 13km/h | 22278m | -19.8m/s | -52.6°C | 1.0% | 41.1hPa | 2.6V | 00:00:00 | 00:00:00 | 00:00:00 | |
| EDDB2-11 | 2026-09-04 00:28:45 | 53.56265 | 15.04753 | 66° | 13km/h | 22316m | -21.8m/s | -52.3°C | 1.0% | 40.9hPa | 2.6V | 00:00:00 | 00:00:00 | 00:00:00 | |
| AA1-15 | 2026-09-04 00:28:44 | 53.56264 | 15.04747 | 65° | 15km/h | 22337m | -22.7m/s | -52.2°C | 0.4% | 40.8hPa | 2.6V | 08:25:53 | 02:09:12 | 00:00:00 | |
| DL1XH-west | 2026-09-04 00:28:38 | 53.56252 | 15.04707 | 62° | 15km/h | 22489m | -26m/s | -51.7°C | 0.3% | 39.8hPa | 2.6V | 08:26:44 | 02:09:06 | 00:00:00 | |
| DF8AY | 2026-09-04 00:28:35 | 53.56248 | 15.04689 | 70° | 16km/h | 22566m | -25.4m/s | -51.6°C | 0.2% | 39.4hPa | 2.5V | 08:27:35 | 02:09:03 | 00:00:00 | |
| KRY50SP | 2026-09-04 00:28:35 | 53.56248 | 15.04689 | 71° | 16km/h | 22566m | -25.4m/s | -51.6°C | 0.8% | 39.4hPa | 2.5V | 08:26:00 | 00:00:00 | 00:00:00 | |
| DL1XH-15 | 2026-09-04 00:28:34 | 53.56239 | 15.04648 | 73° | 18km/h | 22698m | -21.6m/s | -52.3°C | 3.6% | 38.5hPa | 2.5V | 08:30:00 | 02:08:57 | 00:00:00 | |
| AA1-15 | 2026-09-04 00:28:33 | 53.56246 | 15.04676 | 75° | 13km/h | 22615m | -24.9m/s | -51.9°C | 0.2% | 39.1hPa | 2.6V | 08:26:44 | 02:09:01 | 00:00:00 | |
| DJ2DS-15 | 2026-09-04 00:28:33 | 53.56245 | 15.04675 | 75° | 20km/h | 22616m | -24.9m/s | -51.8°C | 3.5% | 39.0hPa | 2.5V | 00:00:00 | 02:09:01 | 00:00:00 | |
| AM1SDL-15 | 2026-09-04 00:28:31 | 53.56243 | 15.04663 | 67° | 20km/h | 22660m | -19.6m/s | -52.0°C | 3.6% | 38.7hPa | 2.5V | 00:00:00 | 02:08:59 | 00:00:00 | |
| DL1XH1-15 | 2026-09-04 00:28:30 | 53.56238 | 15.04640 | 74° | 18km/h | 22719m | -21.2m/s | -52.3°C | 3.6% | 38.4hPa | 2.6V | 08:26:09 | 02:08:56 | 00:00:00 | |
| DL1XH-west | 2026-09-04 00:28:27 | 53.56237 | 15.04631 | 83° | 20km/h | 22741m | -22.2m/s | -52.4°C | 0.3% | 38.3hPa | 2.6V | 08:26:44 | 02:08:55 | 00:00:00 | |
| DF8AY | 2026-09-04 00:28:23 | 53.56239 | 15.04595 | 100° | 22km/h | 22827m | -22.3m/s | -52.9°C | 0.4% | 37.8hPa | 2.6V | 08:27:35 | 02:08:51 | 00:00:00 | |
| AA1-15 | 2026-09-04 00:28:22 | 53.56240 | 15.04585 | 106° | 26km/h | 22849m | -20.5m/s | -53°C | 0.5% | 37.6hPa | 2.6V | 08:26:44 | 02:08:50 | 00:00:00 | |
| DL1XH-15 | 2026-09-04 00:28:21 | 53.56245 | 15.04556 | 111° | 24km/h | 22907m | -18.7m/s | -53.2°C | 3.8% | 37.3hPa | 2.5V | 08:30:00 | 02:08:47 | 00:00:00 | |
| DL1XH-west | 2026-09-04 00:28:17 | 53.56252 | 15.04532 | 125° | 18km/h | 22957m | -20.5m/s | -53°C | 0.5% | 37hPa | 2.6V | 08:26:44 | 02:08:44 | 00:00:00 | |
| DF8AY | 2026-09-04 00:28:12 | 53.56269 | 15.04478 | 79° | 16km/h | 23099m | -14.8m/s | -53.2°C | 0.5% | 36.2hPa | 2.5V | 08:27:35 | 02:08:35 | 00:00:00 | |
| AA1-15 | 2026-09-04 00:28:12 | 53.56267 | 15.04496 | 114° | 15km/h | 23061m | -11.8m/s | -53°C | 0.5% | 36.4hPa | 2.6V | 08:26:44 | 02:08:38 | 00:00:00 | |
| DL1XH-west | 2026-09-04 00:28:05 | 53.56266 | 15.04466 | 64° | 16km/h | 23128m | -14.9m/s | -53.3°C | 0.6% | 36hPa | 2.5V | 08:26:44 | 02:08:33 | 00:00:00 | |
| DF8AY | 2026-09-04 00:28:02 | 53.56261 | 15.04448 | 72° | 15km/h | 23169m | -14.2m/s | -53.2°C | 0.6% | 35.8hPa | 2.6V | 08:27:35 | 02:08:30 | 00:00:00 | |
| AA1-15 | 2026-09-04 00:28:01 | 53.56260 | 15.04442 | 82° | 16km/h | 23183m | -12.6m/s | -53.2°C | 0.6% | 35.7hPa | 2.5V | 08:26:44 | 02:08:29 | 00:00:00 | |
| DL1XH-west | 2026-09-04 00:27:54 | 53.56260 | 15.04388 | 72° | 22km/h | 23272m | -11.8m/s | -52.8°C | 0.7% | 35.2hPa | 2.5V | 08:26:44 | 02:08:22 | 00:00:00 | |
| DF8AY | 2026-09-04 00:27:51 | 53.56255 | 15.04312 | 134° | 26km/h | 23397m | -21.5m/s | -52.3°C | 0.5% | 34.6hPa | 2.6V | 08:27:35 | 02:08:14 | 00:00:00 | |
| AA1-15 | 2026-09-04 00:27:51 | 53.56253 | 15.04358 | 67° | 24km/h | 23308m | -12.2m/s | -52.5°C | 0.6% | 35hPa | 2.6V | 08:27:35 | 02:08:19 | 00:00:00 | |
| SONDE2-11 | 2026-09-04 00:27:45 | 53.56260 | 15.04304 | 131° | 26km/h | 23417m | -19.8m/s | -52.2°C | 1.0% | 34.5hPa | 2.5V | 00:00:00 | 00:00:00 | 00:00:00 | |
| DL1XH-west | 2026-09-04 00:27:44 | 53.56265 | 15.04297 | 143° | 26km/h | 23439m | -20.8m/s | -52°C | 0.4% | 34.4hPa | 2.5V | 08:27:35 | 02:08:12 | 00:00:00 | |
| AA1-15 | 2026-09-04 00:27:41 | 53.56280 | 15.04281 | 144° | 20km/h | 23505m | -24.4m/s | -52.1°C | 0.5% | 34hPa | 2.6V | 08:27:35 | 02:08:09 | 00:00:00 | |
| DF8AY | 2026-09-04 00:27:36 | 53.56291 | 15.04256 | 104° | 16km/h | 23611m | -22.9m/s | -52.2°C | 0.6% | 33.5hPa | 2.6V | 08:27:35 | 02:08:04 | 00:00:00 | |
| DL1XH-15 | 2026-09-04 00:27:35 | 53.56293 | 15.04242 | 100° | 18km/h | 23656m | -25.2m/s | -51.9°C | 3.9% | 33.2hPa | 2.5V | 08:30:00 | 02:08:02 | 00:00:00 | |
| DL2RXE-15 | 2026-09-04 00:27:35 | 53.56292 | 15.04249 | 104° | 16km/h | 23631m | -23.4m/s | -52.1°C | 1.0% | 33.3hPa | 2.5V | 00:00:00 | 00:00:00 | 00:00:00 | |
| DL1XH1-15 | 2026-09-04 00:27:34 | 53.56309 | 15.04202 | 147° | 22km/h | 23771m | -26.9m/s | -51.3°C | 3.7% | 32.7hPa | 2.5V | 08:30:00 | 02:07:57 | 00:00:00 | |
| DL1XH-west | 2026-09-04 00:27:34 | 53.56293 | 15.04242 | 101° | 18km/h | 23656m | -25.2m/s | -51.9°C | 0.6% | 0hPa | 2.5V | 08:27:35 | 02:08:02 | 00:00:00 | |
| AA1-15 | 2026-09-04 00:27:30 | 53.56305 | 15.04208 | 136° | 24km/h | 23748m | -19.2m/s | -51.5°C | 0.5% | 32.7hPa | 2.6V | 08:27:35 | 02:07:58 | 00:00:00 | |
| DF8AY | 2026-09-04 00:27:24 | 53.56343 | 15.04193 | 178° | 26km/h | 23900m | -25.1m/s | -50.6°C | 0.2% | 32hPa | 2.6V | 08:27:35 | 02:07:52 | 00:00:00 | |
| DL1XH-west | 2026-09-04 00:27:23 | 53.56349 | 15.04192 | 184° | 22km/h | 23926m | -28.5m/s | -50.6°C | 0.3% | 0hPa | 2.6V | 08:27:35 | 02:07:51 | 00:00:00 | |
| DL1XH1-15 | 2026-09-04 00:27:20 | 53.56367 | 15.04197 | 182° | 11km/h | 24043m | -30.4m/s | -50.7°C | 3.5% | 31.4hPa | 2.5V | 08:30:00 | 02:07:47 | 00:00:00 | |
| AA1-15 | 2026-09-04 00:27:20 | 53.56364 | 15.04196 | 185° | 15km/h | 24011m | -29.7m/s | -50.7°C | 0.3% | 31.5hPa | 2.5V | 08:27:35 | 02:07:48 | 00:00:00 | |
| KRY50SP | 2026-09-04 00:27:19 | 53.56364 | 15.04196 | 186° | 15km/h | 24011m | -29.7m/s | -50.7°C | 0.9% | 31.5hPa | 2.6V | 08:27:00 | 00:00:00 | 00:00:00 | |
| AM1SDL-15 | 2026-09-04 00:27:18 | 53.56370 | 15.04197 | 174° | 18km/h | 24073m | -29.8m/s | -50.6°C | 3.4% | 31.2hPa | 2.6V | 08:27:00 | 02:07:46 | 00:00:00 | |
| DL1XH1-15 | 2026-09-04 00:27:14 | 53.56405 | 15.04173 | 174° | 24km/h | 24313m | -22m/s | -50.4°C | 3.4% | 30hPa | 2.5V | 08:30:00 | 02:07:37 | 00:00:00 | |
| DL1XH-west | 2026-09-04 00:27:13 | 53.56384 | 15.04182 | 160° | 18km/h | 24211m | -27.5m/s | -50.7°C | 0.2% | 0hPa | 2.5V | 08:27:35 | 02:07:41 | 00:00:00 | |
| DF8AY | 2026-09-04 00:27:12 | 53.56388 | 15.04179 | 164° | 20km/h | 24237m | -28.6m/s | -50.6°C | 0.3% | 30.5hPa | 2.6V | 08:27:35 | 02:07:40 | 00:00:00 | |
| AA1-15 | 2026-09-04 00:27:09 | 53.56412 | 15.04172 | 176° | 26km/h | 24332m | -19.5m/s | -50.4°C | 0.2% | 29.9hPa | 2.5V | 08:27:35 | 02:07:36 | 00:00:00 | |
| DL1XH-west | 2026-09-04 00:27:03 | 53.56435 | 15.04170 | 183° | 15km/h | 24451m | -24.7m/s | -50.2°C | 0.2% | 0hPa | 2.5V | 08:27:35 | 02:07:31 | 00:00:00 | |
| DF8AY | 2026-09-04 00:27:02 | 53.56438 | 15.04171 | 191° | 15km/h | 24476m | -23.6m/s | -50.2°C | 0.2% | 29.3hPa | 2.5V | 08:27:35 | 02:07:30 | 00:00:00 | |
| AA1-15 | 2026-09-04 00:26:59 | 53.56446 | 15.04175 | 202° | 7km/h | 24549m | -24.5m/s | -50.4°C | 0.2% | 29hPa | 2.6V | 08:28:26 | 02:07:27 | 00:00:00 | |
| KRY50SP | 2026-09-04 00:26:57 | 53.56446 | 15.04177 | 223° | 5km/h | 24573m | -23.4m/s | -50.6°C | 0.8% | 28.9hPa | 2.5V | 08:28:00 | 00:00:00 | 00:00:00 | |
| DL1XH-15 | 2026-09-04 00:26:55 | 53.56455 | 15.04199 | 193° | 7km/h | 24735m | -14.2m/s | -50.7°C | 3.6% | 28.2hPa | 2.5V | 08:30:00 | 02:07:18 | 00:00:00 | |
| DL1XH-west | 2026-09-04 00:26:52 | 53.56452 | 15.04195 | 232° | 7km/h | 24703m | -17.2m/s | -50.8°C | 0.4% | 0hPa | 2.6V | 08:28:26 | 02:07:20 | 00:00:00 | |
| DF8AY | 2026-09-04 00:26:49 | 53.56492 | 15.04156 | 194° | 16km/h | 25004m | -26m/s | -49.7°C | 0.1% | 27.1hPa | 2.5V | 08:29:17 | 02:07:05 | 00:00:00 | |
| AA1-15 | 2026-09-04 00:26:49 | 53.56458 | 15.04199 | 168° | 7km/h | 24747m | -12.3m/s | -50.7°C | 0.4% | 28.1hPa | 2.5V | 08:28:26 | 02:07:17 | 00:00:00 | |
| KRY50SP | 2026-09-04 00:26:45 | 53.56464 | 15.04190 | 125° | 15km/h | 24795m | -18.4m/s | -50.6°C | 0.9% | 27.9hPa | 2.6V | 08:28:00 | 00:00:00 | 00:00:00 | |
| SONDE2-11 | 2026-09-04 00:26:43 | 53.56471 | 15.04175 | 132° | 16km/h | 24853m | -22.5m/s | -50.1°C | 0.8% | 27.7hPa | 2.6V | 00:00:00 | 00:00:00 | 00:00:00 | |
| AM1SDL-15 | 2026-09-04 00:26:42 | 53.56475 | 15.04169 | 139° | 16km/h | 24876m | -22.8m/s | -49.8°C | 3.3% | 27.5hPa | 2.6V | 00:00:00 | 02:07:10 | 00:00:00 | |
| DL1XH1-15 | 2026-09-04 00:26:41 | 53.56496 | 15.04157 | 196° | 16km/h | 25029m | -26.2m/s | -49.8°C | 3.2% | 27hPa | 2.6V | 08:30:00 | 02:07:04 | 00:00:00 | |
| DL1XH-west | 2026-09-04 00:26:39 | 53.56486 | 15.04158 | 153° | 15km/h | 24952m | -26.2m/s | -49.7°C | 0.1% | 0hPa | 2.5V | 08:28:26 | 02:07:07 | 00:00:00 | |
| AA1-15 | 2026-09-04 00:26:38 | 53.56489 | 15.04155 | 182° | 16km/h | 24978m | -25.8m/s | -49.7°C | 0.2% | 27.2hPa | 2.5V | 08:28:26 | 02:07:06 | 00:00:00 | |
| DL1XH-west | 2026-09-04 00:26:29 | 53.56513 | 15.04191 | 271° | 9km/h | 25208m | -24.2m/s | -50.1°C | 0.2% | 0hPa | 2.6V | 08:28:26 | 02:06:57 | 00:00:00 | |
| DL1XH1-15 | 2026-09-04 00:26:28 | 53.56506 | 15.04198 | 354° | 13km/h | 25304m | -26.1m/s | -49.8°C | 3.3% | 25.9hPa | 2.5V | 08:30:00 | 02:06:53 | 00:00:00 | |
| AA1-15 | 2026-09-04 00:26:28 | 53.56513 | 15.04194 | 316° | 7km/h | 25232m | -23.9m/s | -50.1°C | 0.2% | 26.2hPa | 2.6V | 08:28:26 | 02:06:56 | 00:00:00 | |
| DL1XH-15 | 2026-09-04 00:26:27 | 53.56495 | 15.04200 | 357° | 15km/h | 25381m | -25.8m/s | -49.9°C | 3.3% | 25.6hPa | 2.6V | 08:30:00 | 02:06:50 | 00:00:00 | |
| DF8AY | 2026-09-04 00:26:25 | 53.56503 | 15.04198 | 356° | 13km/h | 25329m | -25.2m/s | -49.8°C | 0.1% | 25.8hPa | 2.5V | 08:29:17 | 02:06:52 | 00:00:00 | |
| DL4BBY-15 | 2026-09-04 00:26:24 | 53.56503 | 15.04198 | 356° | 18km/h | 25329m | -25.1m/s | -49.0°C | 0% | 0hPa | 2.5V | 00:00:00 | 00:00:00 | 00:00:00 | |
| KRY50SP | 2026-09-04 00:26:23 | 53.56503 | 15.04198 | 357° | 13km/h | 25329m | -25.2m/s | -49.8°C | 0.8% | 25.8hPa | 2.5V | 08:28:00 | 00:00:00 | 00:00:00 | |
| MECKS9 | 2026-09-04 00:26:22 | 53.56499 | 15.04199 | 1° | 16km/h | 25355m | -26.4m/s | -49.9°C | 0.8% | 25.7hPa | 2.5V | 00:00:00 | 00:00:00 | 00:00:00 | |
| DL1XH1-15 | 2026-09-04 00:26:18 | 53.56467 | 15.04193 | 62° | 20km/h | 25573m | -23.8m/s | -50°C | 3.4% | 24.8hPa | 2.5V | 08:30:00 | 02:06:42 | 00:00:00 | |
| DL1XH-west | 2026-09-04 00:26:18 | 53.56480 | 15.04206 | 356° | 13km/h | 25479m | -20.9m/s | -50.1°C | 0.2% | 0hPa | 2.5V | 08:28:26 | 02:06:46 | 00:00:00 | |
| AA1-15 | 2026-09-04 00:26:17 | 53.56476 | 15.04206 | 22° | 15km/h | 25501m | -22.6m/s | -49.9°C | 0.1% | 25.1hPa | 2.5V | 08:28:26 | 02:06:45 | 00:00:00 | |
| DF8AY | 2026-09-04 00:26:14 | 53.56466 | 15.04185 | 86° | 22km/h | 25597m | -24.7m/s | -50.1°C | 0.3% | 24.8hPa | 2.5V | 08:29:17 | 02:06:41 | 00:00:00 | |
| DL1XH-west | 2026-09-04 00:26:08 | 53.56459 | 15.04124 | 82° | 29km/h | 25694m | -16.8m/s | 0°C | 0% | 0hPa | 2.5V | 18:12:15 | 02:06:36 | 00:00:00 | |
| AA1-15 | 2026-09-04 00:26:06 | 53.56457 | 15.04101 | 93° | 27km/h | 25732m | -24m/s | -50.1°C | 0.3% | 24.2hPa | 2.5V | 08:29:17 | 02:06:34 | 00:00:00 | |
| DF8AY | 2026-09-04 00:26:03 | 53.56458 | 15.04071 | 103° | 18km/h | 25812m | -29.3m/s | -49.7°C | 0.3% | 24hPa | 2.6V | 08:29:17 | 02:06:31 | 00:00:00 | |
| DL1XH-15 | 2026-09-04 00:26:01 | 53.56469 | 15.04035 | 131° | 16km/h | 25991m | -31.9m/s | -49.1°C | 3.3% | 23.3hPa | 2.6V | 08:30:00 | 02:06:25 | 00:00:00 | |
| AA1-15 | 2026-09-04 00:25:56 | 53.56473 | 15.04030 | 138° | 18km/h | 26021m | -32m/s | -49.1°C | 0.2% | 23.2hPa | 2.6V | 08:29:17 | 02:06:24 | 00:00:00 | |
| DF8AY | 2026-09-04 00:25:50 | 53.56494 | 15.03998 | 146° | 24km/h | 26175m | -24.9m/s | -48.7°C | 0.1% | 22.6hPa | 2.6V | 08:29:17 | 02:06:18 | 00:00:00 | |
| DL1XH-west | 2026-09-04 00:25:48 | 53.56503 | 15.03988 | 153° | 24km/h | 26228m | -25.6m/s | 0°C | 0% | 0hPa | 2.5V | 18:12:15 | 02:06:16 | 00:00:00 | |
| DL1XH-15 | 2026-09-04 00:25:47 | 53.56509 | 15.03983 | 151° | 22km/h | 26253m | -26.5m/s | -48.7°C | 3.2% | 22.4hPa | 2.5V | 08:30:00 | 02:06:15 | 00:00:00 | |
| AA1-15 | 2026-09-04 00:25:45 | 53.56519 | 15.03976 | 164° | 22km/h | 26303m | -24.8m/s | -48.7°C | 0.2% | 22.2hPa | 2.6V | 08:29:17 | 02:06:13 | 00:00:00 | |
| DF8AY | 2026-09-04 00:25:40 | 53.56532 | 15.03966 | 60° | 5km/h | 26446m | -19.8m/s | -48.5°C | 0.2% | 21.7hPa | 2.6V | 08:29:17 | 02:06:07 | 00:00:00 | |
| DL1XH-west | 2026-09-04 00:25:38 | 53.56530 | 15.03964 | 44° | 7km/h | 26462m | -16.7m/s | 0°C | 0% | 0hPa | 2.5V | 18:12:15 | 02:06:06 | 00:00:00 | |
| DL1XH-15 | 2026-09-04 00:25:35 | 53.56527 | 15.03954 | 107° | 9km/h | 26559m | -30m/s | -48.1°C | 3.2% | 21.4hPa | 2.6V | 08:30:00 | 02:06:02 | 00:00:00 | |
| AA1-15 | 2026-09-04 00:25:35 | 53.56527 | 15.03957 | 76° | 7km/h | 26531m | -26.4m/s | -48.2°C | 0.1% | 21.5hPa | 2.6V | 08:29:17 | 02:06:03 | 00:00:00 | |
| DF8AY | 2026-09-04 00:25:29 | 53.56535 | 15.03934 | 136° | 11km/h | 26694m | -22m/s | -47.6°C | 0% | 20.9hPa | 2.6V | 08:29:17 | 02:05:57 | 00:00:00 | |
| DL1XH-15 | 2026-09-04 00:25:28 | 53.56540 | 15.03914 | 92° | 11km/h | 26813m | -27m/s | -47.3°C | 2.9% | 20.6hPa | 2.6V | 08:30:00 | 02:05:52 | 00:00:00 | |
| DL1XH-west | 2026-09-04 00:25:27 | 53.56538 | 15.03927 | 110° | 11km/h | 26739m | -26.7m/s | 0°C | 0% | 0hPa | 2.5V | 18:12:15 | 02:05:55 | 00:00:00 | |
| AA1-15 | 2026-09-04 00:25:24 | 53.56540 | 15.03914 | 93° | 11km/h | 26813m | -27m/s | -47.3°C | 0% | 20.6hPa | 2.6V | 08:29:17 | 02:05:52 | 00:00:00 | |
| DF8AY | 2026-09-04 00:25:19 | 53.56547 | 15.03883 | 134° | 13km/h | 26962m | -23m/s | -47.2°C | 0% | 20.1hPa | 2.6V | 18:12:15 | 02:05:46 | 00:00:00 | |
| DL1XH-west | 2026-09-04 00:25:17 | 53.56549 | 15.03880 | 149° | 13km/h | 26987m | -25.7m/s | 0°C | 0% | 0hPa | 2.5V | 18:12:15 | 02:05:45 | 00:00:00 | |
| DL1XH-15 | 2026-09-04 00:25:15 | 53.56556 | 15.03876 | 202° | 4km/h | 27074m | -31.8m/s | -47.5°C | 2.9% | 19.8hPa | 2.6V | 08:30:00 | 02:05:42 | 00:00:00 | |
| AA1-15 | 2026-09-04 00:25:13 | 53.56557 | 15.03876 | 200° | 2km/h | 27105m | -30m/s | -47.7°C | 0% | 19.7hPa | 2.6V | 18:12:15 | 02:05:41 | 00:00:00 | |
| DJ2DS-15 | 2026-09-04 00:25:12 | 53.56557 | 15.03876 | 360° | 13km/h | 27135m | -28.8m/s | -47.8°C | 3.0% | 19.5hPa | 2.5V | 00:00:00 | 02:05:40 | 08:30:00 | |
| SONDE2-11 | 2026-09-04 00:25:10 | 53.56554 | 15.03876 | 24° | 11km/h | 27223m | -29.5m/s | -48.2°C | 0.7% | 19.4hPa | 2.5V | 00:00:00 | 00:00:00 | 00:00:00 | |
| DL1XH-15 | 2026-09-04 00:25:09 | 53.56539 | 15.03858 | 56° | 15km/h | 27376m | -32.5m/s | -48.5°C | 3.1% | 18.9hPa | 2.5V | 08:30:00 | 02:05:32 | 00:00:00 | |
| DF8AY | 2026-09-04 00:25:07 | 53.56548 | 15.03871 | 32° | 15km/h | 27283m | -31.6m/s | -48.3°C | 0% | 19.2hPa | 2.6V | 18:12:15 | 02:05:35 | 00:00:00 | |
| AA1-15 | 2026-09-04 00:25:03 | 53.56537 | 15.03853 | 62° | 13km/h | 27408m | -30.4m/s | -48.5°C | 0.1% | 18.8hPa | 2.6V | 18:12:15 | 02:05:31 | 00:00:00 | |
| KRY50SP | 2026-09-04 00:24:58 | 53.56536 | 15.03832 | 99° | 13km/h | 27525m | -26.9m/s | -48.5°C | 0.7% | 18.5hPa | 2.5V | 00:00:00 | 00:00:00 | 00:00:00 | |
| DL1XH-15 | 2026-09-04 00:24:57 | 53.56537 | 15.03804 | 86° | 15km/h | 27674m | -30.3m/s | -48.2°C | 3.1% | 18.1hPa | 2.5V | 08:30:00 | 02:05:22 | 00:00:00 | |
| DF8AY | 2026-09-04 00:24:55 | 53.56537 | 15.03810 | 84° | 15km/h | 27643m | -31.2m/s | -48.2°C | 0% | 18.2hPa | 2.6V | 18:12:15 | 02:05:23 | 00:00:00 | |
| DL1XH-west | 2026-09-04 00:24:54 | 53.56537 | 15.03804 | 86° | 15km/h | 27674m | -30.3m/s | 0°C | 0% | 0hPa | 2.5V | 18:12:15 | 02:05:22 | 00:00:00 | |
| AA1-15 | 2026-09-04 00:24:53 | 53.56537 | 15.03797 | 80° | 15km/h | 27702m | -27.8m/s | -48.3°C | 0.1% | 18hPa | 2.5V | 18:12:15 | 02:05:21 | 00:00:00 | |
| DJ2DS-15 | 2026-09-04 00:24:52 | 53.56537 | 15.03791 | 88° | 13km/h | 27730m | -28.9m/s | -48.3°C | 3.2% | 17.9hPa | 2.6V | 00:00:00 | 02:05:20 | 00:00:00 | |
| KRY50SP | 2026-09-04 00:24:47 | 53.56540 | 15.03763 | 108° | 13km/h | 27856m | -27.8m/s | -48.3°C | 0.7% | 17.6hPa | 2.6V | 00:00:00 | 00:00:00 | 00:00:00 | |
| DL1XH-15 | 2026-09-04 00:24:46 | 53.56542 | 15.03745 | 100° | 15km/h | 27945m | -29.4m/s | -48°C | 3.1% | 17.3hPa | 2.6V | 08:30:00 | 02:05:12 | 00:00:00 | |
| DL1XH-west | 2026-09-04 00:24:44 | 53.56542 | 15.03746 | 101° | 15km/h | 27945m | -29.4m/s | 0°C | 0% | 0hPa | 2.6V | 18:12:15 | 02:05:12 | 00:00:00 | |
| AA1-15 | 2026-09-04 00:24:43 | 53.56543 | 15.03739 | 104° | 15km/h | 27972m | -27.5m/s | -48°C | 0% | 17.2hPa | 2.6V | 18:12:15 | 02:05:11 | 00:00:00 | |
| DF8AY | 2026-09-04 00:24:42 | 53.56546 | 15.03729 | 130° | 13km/h | 28025m | -26.3m/s | -48°C | 0.1% | 17.1hPa | 2.5V | 18:12:15 | 02:05:09 | 00:00:00 | |
| AM1SDL-15 | 2026-09-04 00:24:41 | 53.56546 | 15.03729 | 131° | 13km/h | 28025m | -26.2m/s | -48.0°C | 3.1% | 17.1hPa | 2.5V | 00:00:00 | 02:05:09 | 00:00:00 | |
| KRY50SP | 2026-09-04 00:24:40 | 53.56546 | 15.03729 | 131° | 13km/h | 28025m | -26.3m/s | -48.0°C | 0.7% | 17.1hPa | 2.5V | 00:00:00 | 00:00:00 | 00:00:00 | |
| SONDE2-11 | 2026-09-04 00:24:39 | 53.56553 | 15.03719 | 166° | 13km/h | 28101m | -24.1m/s | -48.0°C | 0.7% | 16.9hPa | 2.5V | 00:00:00 | 00:00:00 | 00:00:00 | |
| EDDB2-11 | 2026-09-04 00:24:37 | 53.56557 | 15.03719 | 178° | 11km/h | 28125m | -25.6m/s | -47.9°C | 0.7% | 16.8hPa | 2.5V | 00:00:00 | 00:00:00 | 00:00:00 | |
| DL1XH-15 | 2026-09-04 00:24:36 | 53.56568 | 15.03715 | 135° | 13km/h | 28242m | -29.2m/s | -47.6°C | 3% | 16.6hPa | 2.5V | 08:30:00 | 02:05:01 | 00:00:00 | |
| AA1-15 | 2026-09-04 00:24:32 | 53.56570 | 15.03711 | 130° | 15km/h | 28271m | -28.1m/s | -47.6°C | 0% | 16.5hPa | 2.5V | 18:12:15 | 02:05:00 | 00:00:00 | |
| DF8AY | 2026-09-04 00:24:30 | 53.56573 | 15.03700 | 110° | 15km/h | 28324m | -25m/s | -47.6°C | 0% | 16.4hPa | 2.6V | 18:12:15 | 02:04:58 | 00:00:00 | |
| AM1SDL-15 | 2026-09-04 00:24:29 | 53.56575 | 15.03694 | 105° | 13km/h | 28349m | -27.0m/s | -47.6°C | 3.0% | 16.3hPa | 2.5V | 00:00:00 | 02:04:57 | 00:00:00 | |
| DL1XH-15 | 2026-09-04 00:24:26 | 53.56581 | 15.03656 | 129° | 11km/h | 28531m | -27.8m/s | -47.8°C | 3% | 15.9hPa | 2.5V | 08:30:00 | 02:04:50 | 00:00:00 | |
| DF8AY | 2026-09-04 00:24:24 | 53.56590 | 15.03630 | 124° | 20km/h | 28666m | -29.1m/s | -47.8°C | 0% | 15.6hPa | 2.6V | 18:12:15 | 02:04:45 | 00:00:00 | |
| AA1-15 | 2026-09-04 00:24:22 | 53.56581 | 15.03656 | 130° | 11km/h | 28531m | -27.8m/s | -47.8°C | 0% | 15.9hPa | 2.5V | 18:12:15 | 02:04:50 | 00:00:00 | |
| AM1SDL-15 | 2026-09-04 00:24:17 | 53.56590 | 15.03630 | 125° | 16km/h | 28666m | -29.1m/s | -47.7°C | 3.0% | 15.5hPa | 2.6V | 00:00:00 | 02:04:45 | 00:00:00 | |
| DL1XH-15 | 2026-09-04 00:24:16 | 53.56607 | 15.03604 | 166° | 11km/h | 28796m | -21.7m/s | -47.8°C | 3% | 15.2hPa | 2.5V | 08:30:00 | 02:04:40 | 00:00:00 | |
| AA1-15 | 2026-09-04 00:24:11 | 53.56609 | 15.03605 | 216° | 9km/h | 28818m | -20.3m/s | -47.8°C | 0% | 15.2hPa | 2.6V | 18:12:15 | 02:04:39 | 00:00:00 | |
| DJ2DS-15 | 2026-09-04 00:24:11 | 53.56609 | 15.03605 | 216° | 15km/h | 28818m | -20.2m/s | -47.8°C | 2.9% | 15.1hPa | 2.6V | 00:00:00 | 02:04:39 | 00:00:00 | |
| MECKS9 | 2026-09-04 00:24:09 | 53.56610 | 15.03608 | 233° | 11km/h | 28837m | -17.5m/s | -47.9°C | 0.7% | 15.1hPa | 2.5V | 00:00:00 | 00:00:00 | 00:00:00 | |
| SONDE2-11 | 2026-09-04 00:24:08 | 53.56614 | 15.03626 | 261° | 22km/h | 28871m | -3.0m/s | -48.0°C | 0.7% | 15.0hPa | 2.5V | 00:00:00 | 00:00:00 | 00:00:00 | |
| DL1XH-15 | 2026-09-04 00:24:06 | 53.56614 | 15.03646 | 139° | 7km/h | 28852m | 6.2m/s | -48°C | 3.1% | 15hPa | 2.5V | 08:30:00 | 02:04:30 | 00:00:00 | |
| AA1-15 | 2026-09-04 00:24:01 | 53.56616 | 15.03643 | 135° | 16km/h | 28845m | 6.4m/s | -48°C | 0% | 15.1hPa | 2.5V | 18:12:15 | 02:04:29 | 00:00:00 | |
| DJ2DS-15 | 2026-09-04 00:23:56 | 53.56634 | 15.03611 | 212° | 4km/h | 28817m | 4.8m/s | -48.0°C | 0.7% | 15.1hPa | 2.6V | 00:00:00 | 00:00:00 | 00:00:00 | |
| SONCRA | 2026-09-04 00:23:55 | 53.56635 | 15.03614 | 245° | 11km/h | 28812m | 6.3m/s | -48.0°C | 0.7% | 15.2hPa | 2.6V | 00:00:00 | 00:00:00 | 00:00:00 | |
| EDDB2-12 | 2026-09-04 00:23:54 | 53.56636 | 15.03619 | 246° | 15km/h | 28805m | 6.1m/s | -48.0°C | 0.7% | 15.2hPa | 2.6V | 00:00:00 | 00:00:00 | 00:00:00 | |
| DL1XH-15 | 2026-09-04 00:23:51 | 53.56640 | 15.03632 | 243° | 16km/h | 28794m | 3.7m/s | -48°C | 3.1% | 15.2hPa | 2.6V | 08:30:00 | 02:04:19 | 00:00:00 | |
| AA1-15 | 2026-09-04 00:23:50 | 53.56642 | 15.03637 | 237° | 11km/h | 28790m | 4.8m/s | -48°C | 0% | 15.2hPa | 2.6V | 18:12:15 | 02:04:18 | 00:00:00 | |
| DF8AY | 2026-09-04 00:23:48 | 53.56644 | 15.03639 | 122° | 7km/h | 28779m | 4.8m/s | -48°C | 0% | 15.2hPa | 2.5V | 18:12:15 | 02:04:16 | 00:00:00 | |
| DL4BBY-15 | 2026-09-04 00:23:48 | 53.56644 | 15.03639 | 122° | 18km/h | 28780m | 4.8m/s | -47.2°C | 0% | 0hPa | 2.6V | 00:00:00 | 00:00:00 | 00:00:00 | |
| SP3BTT-10 | 2026-09-04 00:23:46 | 53.56647 | 15.03629 | 123° | 22km/h | 28770m | 5.2m/s | -48.0°C | 3.0% | 15.2hPa | 2.6V | 00:00:00 | 00:00:00 | 00:00:00 | |
| KRY50SP | 2026-09-04 00:23:43 | 53.56656 | 15.03614 | 139° | 26km/h | 28759m | 5.0m/s | -48.1°C | 0.7% | 15.3hPa | 2.6V | 00:00:00 | 00:00:00 | 00:00:00 | |
| DL1XH-15 | 2026-09-04 00:23:41 | 53.56678 | 15.03597 | 187° | 9km/h | 28731m | 4.7m/s | -48.2°C | 3.1% | 15.3hPa | 2.6V | 08:30:00 | 02:04:07 | 00:00:00 | |
| AA1-15 | 2026-09-04 00:23:39 | 53.56678 | 15.03597 | 187° | 9km/h | 28731m | 4.7m/s | -48.2°C | 0.1% | 15.3hPa | 2.6V | 18:12:15 | 02:04:07 | 00:00:00 | |
| KRY50SP | 2026-09-04 00:23:39 | 53.56678 | 15.03597 | 188° | 9km/h | 28732m | 4.7m/s | -48.2°C | 0.7% | 15.3hPa | 2.6V | 00:00:00 | 00:00:00 | 00:00:00 | |
| SONDE2-11 | 2026-09-04 00:23:37 | 53.56685 | 15.03603 | 198° | 15km/h | 28718m | 5.2m/s | -48.2°C | 0.7% | 15.3hPa | 2.6V | 00:00:00 | 00:00:00 | 00:00:00 | |
| EDDB2-11 | 2026-09-04 00:23:35 | 53.56694 | 15.03601 | 158° | 20km/h | 28709m | 3.5m/s | -48.2°C | 0.7% | 15.4hPa | 2.6V | 00:00:00 | 00:00:00 | 00:00:00 | |
| KRY50SP | 2026-09-04 00:23:33 | 53.56694 | 15.03601 | 159° | 20km/h | 28709m | 3.5m/s | -48.2°C | 0.7% | 15.4hPa | 2.6V | 00:00:00 | 00:00:00 | 00:00:00 | |
| DL1XH-15 | 2026-09-04 00:23:31 | 53.56708 | 15.03558 | 85° | 11km/h | 28681m | 4.6m/s | -48.4°C | 3.1% | 15.4hPa | 2.6V | 08:30:00 | 02:03:56 | 00:00:00 | |
| AA1-15 | 2026-09-04 00:23:28 | 53.56708 | 15.03558 | 85° | 11km/h | 28681m | 4.6m/s | -48.4°C | 0.1% | 15.4hPa | 2.6V | 18:12:15 | 02:03:56 | 00:00:00 | |
| KRY50SP | 2026-09-04 00:23:27 | 53.56708 | 15.03558 | 86° | 11km/h | 28681m | 4.6m/s | -48.4°C | 0.7% | 15.4hPa | 2.6V | 00:00:00 | 00:00:00 | 00:00:00 | |
| SONCRA | 2026-09-04 00:23:23 | 53.56721 | 15.03561 | 181° | 18km/h | 28657m | 5.0m/s | -48.3°C | 0.7% | 15.5hPa | 2.6V | 00:00:00 | 00:00:00 | 00:00:00 | |
| KRY50SP | 2026-09-04 00:23:22 | 53.56721 | 15.03561 | 183° | 18km/h | 28657m | 5.0m/s | -48.3°C | 0.8% | 15.5hPa | 2.6V | 00:00:00 | 00:00:00 | 00:00:00 | |
| DL1XH-15 | 2026-09-04 00:23:21 | 53.56733 | 15.03531 | 91° | 24km/h | 28630m | 4.9m/s | -48.3°C | 3.1% | 15.5hPa | 2.6V | 08:30:00 | 02:03:46 | 00:00:00 | |
| AA1-15 | 2026-09-04 00:23:17 | 53.56733 | 15.03521 | 92° | 22km/h | 28626m | 5.5m/s | -48.3°C | 0.1% | 15.6hPa | 2.6V | 18:12:15 | 02:03:45 | 00:00:00 | |
| AM1SDL-15 | 2026-09-04 00:23:15 | 53.56734 | 15.03505 | 109° | 13km/h | 28615m | 4.7m/s | -48.3°C | 3.2% | 15.5hPa | 2.6V | 00:00:00 | 02:03:43 | 00:00:00 | |
| DJ2DS-15 | 2026-09-04 00:23:11 | 53.56740 | 15.03486 | 122° | 18km/h | 28594m | 4.7m/s | -48.3°C | 3.1% | 15.6hPa | 2.6V | 00:00:00 | 02:03:39 | 00:00:00 | |
| DL1XH-15 | 2026-09-04 00:23:10 | 53.56747 | 15.03476 | 136° | 11km/h | 28577m | 4.7m/s | -48.4°C | 3.1% | 15.7hPa | 2.5V | 08:30:00 | 02:03:36 | 00:00:00 | |
| DF8AY | 2026-09-04 00:23:07 | 53.56749 | 15.03466 | 98° | 15km/h | 28567m | 6.3m/s | -48.3°C | 0% | 15.7hPa | 2.5V | 18:12:15 | 02:03:34 | 00:00:00 | |
| AA1-15 | 2026-09-04 00:23:07 | 53.56749 | 15.03472 | 115° | 13km/h | 28573m | 4.7m/s | -48.4°C | 0.1% | 15.7hPa | 2.5V | 18:12:15 | 02:03:35 | 00:00:00 | |
| SONDE2-11 | 2026-09-04 00:23:05 | 53.56749 | 15.03459 | 87° | 18km/h | 28562m | 5.3m/s | -48.3°C | 0.7% | 15.7hPa | 2.6V | 00:00:00 | 00:00:00 | 00:00:00 | |
| EDDB2-11 | 2026-09-04 00:23:04 | 53.56749 | 15.03439 | 92° | 24km/h | 28552m | 5.3m/s | -48.4°C | 0.7% | 15.8hPa | 2.6V | 00:00:00 | 00:00:00 | 00:00:00 | |
| AM1SDL-15 | 2026-09-04 00:23:03 | 53.56749 | 15.03439 | 93° | 20km/h | 28552m | 5.3m/s | -48.3°C | 3.1% | 15.7hPa | 2.6V | 00:00:00 | 02:03:31 | 00:00:00 | |
| DL1XH-15 | 2026-09-04 00:23:00 | 53.56758 | 15.03399 | 119° | 16km/h | 28524m | 6.2m/s | -48.4°C | 3.1% | 15.8hPa | 2.6V | 08:30:00 | 02:03:26 | 00:00:00 | |
| AA1-15 | 2026-09-04 00:22:57 | 53.56759 | 15.03392 | 113° | 16km/h | 28519m | 5.1m/s | -48.4°C | 0.1% | 15.8hPa | 2.6V | 18:12:15 | 02:03:25 | 00:00:00 | |
| DF8AY | 2026-09-04 00:22:56 | 53.56771 | 15.03360 | 122° | 22km/h | 28493m | 4.7m/s | -48.3°C | 0% | 15.9hPa | 2.6V | 18:12:15 | 02:03:20 | 00:00:00 | |
| SONCRA | 2026-09-04 00:22:53 | 53.56771 | 15.03360 | 121° | 22km/h | 28494m | 4.7m/s | -48.3°C | 0.7% | 15.9hPa | 2.6V | 00:00:00 | 00:00:00 | 00:00:00 | |
| EDDB2-12 | 2026-09-04 00:22:52 | 53.56773 | 15.03351 | 113° | 22km/h | 28488m | 5.6m/s | -48.3°C | 0.7% | 15.9hPa | 2.6V | 00:00:00 | 00:00:00 | 00:00:00 | |
| DJ2DS-15 | 2026-09-04 00:22:51 | 53.56773 | 15.03351 | 114° | 15km/h | 28488m | 5.6m/s | -48.2°C | 3.1% | 15.9hPa | 2.6V | 00:00:00 | 02:03:19 | 00:00:00 | |
| DL1XH-15 | 2026-09-04 00:22:49 | 53.56776 | 15.03322 | 91° | 22km/h | 28472m | 3.8m/s | -48.2°C | 3.1% | 15.9hPa | 2.6V | 08:30:00 | 02:03:16 | 00:00:00 | |
| AA1-15 | 2026-09-04 00:22:46 | 53.56779 | 15.03309 | 120° | 13km/h | 28460m | 5.9m/s | -48.2°C | 0.1% | 16hPa | 2.5V | 18:12:15 | 02:03:14 | 00:00:00 | |
| SP3BTT-10 | 2026-09-04 00:22:46 | 53.56779 | 15.03309 | 120° | 16km/h | 28460m | 5.8m/s | -48.2°C | 3.1% | 15.9hPa | 2.5V | 00:00:00 | 00:00:00 | 00:00:00 | |
| DJ2DS-15 | 2026-09-04 00:22:43 | 53.56785 | 15.03305 | 184° | 9km/h | 28443m | 6.2m/s | -48.2°C | 0.7% | 16.0hPa | 2.5V | 00:00:00 | 00:00:00 | 00:00:00 | |
| DL1XH-15 | 2026-09-04 00:22:39 | 53.56797 | 15.03302 | 156° | 15km/h | 28417m | 5.2m/s | -48.2°C | 3.1% | 16.1hPa | 2.5V | 08:30:00 | 02:03:06 | 00:00:00 | |
| AA1-15 | 2026-09-04 00:22:35 | 53.56803 | 15.03289 | 111° | 15km/h | 28401m | 5.9m/s | -48.2°C | 0.1% | 16.1hPa | 2.5V | 18:12:15 | 02:03:03 | 00:00:00 | |
| SONDE2-11 | 2026-09-04 00:22:34 | 53.56804 | 15.03283 | 96° | 13km/h | 28396m | 4.2m/s | -48.2°C | 0.7% | 16.1hPa | 2.5V | 00:00:00 | 00:00:00 | 00:00:00 | |
| EDDB2-11 | 2026-09-04 00:22:33 | 53.56807 | 15.03274 | 119° | 11km/h | 28385m | 6.0m/s | -48.2°C | 0.7% | 16.1hPa | 2.5V | 00:00:00 | 00:00:00 | 00:00:00 | |
| DJ2DS-15 | 2026-09-04 00:22:31 | 53.56809 | 15.03270 | 144° | 16km/h | 28380m | 5.4m/s | -48.1°C | 3.1% | 16.1hPa | 2.5V | 00:00:00 | 02:02:59 | 00:00:00 | |
| DL1XH-15 | 2026-09-04 00:22:29 | 53.56817 | 15.03264 | 172° | 11km/h | 28364m | 6.2m/s | -48.1°C | 3.1% | 16.2hPa | 2.5V | 08:30:00 | 02:02:56 | 00:00:00 | |
| AA1-15 | 2026-09-04 00:22:25 | 53.56823 | 15.03263 | 167° | 7km/h | 28347m | 5.5m/s | -48.2°C | 0.1% | 16.2hPa | 2.5V | 18:12:15 | 02:02:53 | 00:00:00 | |
| DF8AY | 2026-09-04 00:22:15 | 53.56856 | 15.03212 | 137° | 22km/h | 28291m | 4.7m/s | -48.3°C | 0.1% | 16.4hPa | 2.5V | 18:12:15 | 02:02:43 | 00:00:00 | |
| AA1-15 | 2026-09-04 00:22:14 | 53.56860 | 15.03206 | 138° | 20km/h | 28286m | 5m/s | -48.4°C | 0.1% | 16.4hPa | 2.5V | 18:12:15 | 02:02:42 | 00:00:00 | |
| DF8AY | 2026-09-04 00:22:04 | 53.56883 | 15.03147 | 107° | 31km/h | 28231m | 4.6m/s | -48.4°C | 0% | 16.5hPa | 2.6V | 18:12:15 | 02:02:32 | 00:00:00 | |
| AA1-15 | 2026-09-04 00:22:03 | 53.56886 | 15.03134 | 112° | 31km/h | 28225m | 6m/s | -48.4°C | 0.1% | 16.6hPa | 2.6V | 18:12:15 | 02:02:31 | 00:00:00 | |
| EDDB2-11 | 2026-09-04 00:22:02 | 53.56893 | 15.03113 | 129° | 27km/h | 28215m | 5.2m/s | -48.4°C | 0.8% | 16.6hPa | 2.6V | 00:00:00 | 00:00:00 | 00:00:00 | |
| DL1XH-15 | 2026-09-04 00:22:01 | 53.56905 | 15.03096 | 140° | 13km/h | 28200m | 6.1m/s | -48.5°C | 3.1% | 16.6hPa | 2.6V | 08:30:00 | 02:02:26 | 00:00:00 | |
| AA1-15 | 2026-09-04 00:21:53 | 53.56917 | 15.03078 | 150° | 22km/h | 28172m | 6.3m/s | -48.6°C | 0.1% | 16.7hPa | 2.6V | 18:12:15 | 02:02:21 | 00:00:00 | |
| KRY50SP | 2026-09-04 00:21:52 | 53.56918 | 15.03078 | 151° | 22km/h | 28173m | 6.3m/s | -48.6°C | 0.7% | 16.7hPa | 2.6V | 00:00:00 | 00:00:00 | 00:00:00 | |
| DL1XH-15 | 2026-09-04 00:21:51 | 53.56938 | 15.03051 | 104° | 15km/h | 28144m | 5.9m/s | -48.5°C | 3.2% | 16.8hPa | 2.6V | 08:30:00 | 02:02:16 | 00:00:00 | |
| SONCRA | 2026-09-04 00:21:50 | 53.56932 | 15.03063 | 143° | 22km/h | 28156m | 5.4m/s | -48.6°C | 0.8% | 16.7hPa | 2.5V | 00:00:00 | 00:00:00 | 00:00:00 | |
| AM1SDL-15 | 2026-09-04 00:21:49 | 53.56936 | 15.03057 | 129° | 16km/h | 28151m | 6.4m/s | -48.5°C | 3.2% | 16.7hPa | 2.5V | 00:00:00 | 02:02:17 | 08:30:00 | |
| DL1XH1-15 | 2026-09-04 00:21:48 | 53.56942 | 15.03034 | 109° | 15km/h | 28128m | 6.6m/s | -48.5°C | 3.2% | 16.8hPa | 2.5V | 08:30:00 | 02:02:13 | 00:00:00 | |
| DL1XH-west | 2026-09-04 00:21:47 | 53.56939 | 15.03045 | 124° | 16km/h | 28139m | 5.7m/s | 0°C | 0% | 0hPa | 2.6V | 18:12:15 | 02:02:15 | 00:00:00 | |
| AA1-15 | 2026-09-04 00:21:42 | 53.56948 | 15.03021 | 148° | 16km/h | 28110m | 5.1m/s | -48.6°C | 0% | 16.8hPa | 2.6V | 18:12:15 | 02:02:10 | 00:00:00 | |
| DL1XH-west | 2026-09-04 00:21:36 | 53.56968 | 15.03002 | 151° | 16km/h | 28074m | 6.4m/s | 0°C | 0% | 0hPa | 2.6V | 18:12:15 | 02:02:04 | 00:00:00 | |
| KRY50SP | 2026-09-04 00:21:34 | 53.56972 | 15.02997 | 146° | 18km/h | 28069m | 5.1m/s | -48.5°C | 0.7% | 16.9hPa | 2.6V | 00:00:00 | 00:00:00 | 00:00:00 | |
| SONDE2-11 | 2026-09-04 00:21:32 | 53.56981 | 15.02976 | 101° | 22km/h | 28051m | 5.9m/s | -48.5°C | 0.7% | 17.0hPa | 2.6V | 00:00:00 | 00:00:00 | 00:00:00 | |
| DL1XH-15 | 2026-09-04 00:21:31 | 53.56985 | 15.02935 | 114° | 22km/h | 28029m | 5.8m/s | -48.5°C | 3.1% | 17hPa | 2.6V | 08:30:00 | 02:01:56 | 00:00:00 | |
| AA1-15 | 2026-09-04 00:21:31 | 53.56982 | 15.02966 | 95° | 26km/h | 28046m | 4.5m/s | -48.5°C | 0.1% | 17hPa | 2.5V | 18:12:15 | 02:01:59 | 00:00:00 | |
| DF8AY | 2026-09-04 00:21:28 | 53.56985 | 15.02935 | 114° | 22km/h | 28029m | 5.8m/s | -48.5°C | 0.1% | 17hPa | 2.6V | 18:12:15 | 02:01:56 | 00:00:00 | |
| DL1XH-west | 2026-09-04 00:21:23 | 53.56998 | 15.02906 | 110° | 15km/h | 28000m | 5.5m/s | 0°C | 0% | 0hPa | 2.6V | 18:12:15 | 02:01:51 | 00:00:00 | |
| KRY50SP | 2026-09-04 00:21:22 | 53.56998 | 15.02906 | 111° | 15km/h | 28000m | 5.5m/s | -48.6°C | 0.7% | 17.1hPa | 2.5V | 00:00:00 | 00:00:00 | 00:00:00 | |
| DL1XH-15 | 2026-09-04 00:21:21 | 53.57003 | 15.02872 | 100° | 18km/h | 27970m | 5.5m/s | -48.6°C | 3.1% | 17.2hPa | 2.5V | 08:30:00 | 02:01:46 | 00:00:00 | |
| AA1-15 | 2026-09-04 00:21:20 | 53.57001 | 15.02887 | 107° | 16km/h | 27982m | 6.4m/s | -48.6°C | 0.1% | 17.2hPa | 2.5V | 18:12:15 | 02:01:48 | 00:00:00 | |
| DF8AY | 2026-09-04 00:21:17 | 53.57004 | 15.02864 | 86° | 20km/h | 27964m | 6.7m/s | -48.6°C | 0.1% | 17.2hPa | 2.5V | 18:12:15 | 02:01:45 | 00:00:00 | |
| DL1XH-west | 2026-09-04 00:21:12 | 53.57001 | 15.02828 | 102° | 15km/h | 27935m | 5.6m/s | 0°C | 0% | 0hPa | 2.5V | 18:12:15 | 02:01:40 | 00:00:00 | |
| DL1XH-15 | 2026-09-04 00:21:11 | 53.57002 | 15.02801 | 79° | 20km/h | 27913m | 5m/s | -48.8°C | 3.2% | 17.3hPa | 2.6V | 08:30:00 | 02:01:36 | 00:00:00 | |
| AA1-15 | 2026-09-04 00:21:10 | 53.57002 | 15.02816 | 95° | 16km/h | 27924m | 6.1m/s | -48.8°C | 0.1% | 17.3hPa | 2.6V | 18:12:15 | 02:01:38 | 00:00:00 | |
| DF8AY | 2026-09-04 00:21:06 | 53.57001 | 15.02783 | 87° | 22km/h | 27902m | 6.6m/s | -48.8°C | 0.2% | 17.4hPa | 2.5V | 18:12:15 | 02:01:34 | 00:00:00 | |
| S3001 | 2026-09-04 00:21:06 | 53.57001 | 15.02773 | 102° | 26km/h | 27895m | 5.7m/s | -48.8°C | 0.8% | 17.4hPa | 2.5V | 00:00:00 | 00:00:00 | 00:00:00 | |
| DL1XH1-15 | 2026-09-04 00:21:04 | 53.57001 | 15.02741 | 69° | 15km/h | 27872m | 5.7m/s | -48.9°C | 3.2% | 17.5hPa | 2.5V | 08:30:00 | 02:01:29 | 00:00:00 | |
| DL1XH-15 | 2026-09-04 00:21:01 | 53.56997 | 15.02731 | 67° | 5km/h | 27857m | 6.6m/s | -48.9°C | 3.2% | 17.5hPa | 2.5V | 08:30:00 | 02:01:26 | 00:00:00 | |
| DL1XH-west | 2026-09-04 00:21:00 | 53.57000 | 15.02736 | 53° | 13km/h | 27867m | 5.1m/s | 0°C | 0% | 0hPa | 2.5V | 18:12:15 | 02:01:28 | 00:00:00 | |
| AA1-15 | 2026-09-04 00:20:59 | 53.56998 | 15.02733 | 57° | 9km/h | 27863m | 5.6m/s | -48.9°C | 0.1% | 17.5hPa | 2.5V | 18:12:15 | 02:01:27 | 00:00:00 | |
| DF8AY | 2026-09-04 00:20:55 | 53.56997 | 15.02723 | 100° | 11km/h | 27839m | 6.1m/s | -48.8°C | 0.1% | 17.5hPa | 2.6V | 18:12:15 | 02:01:23 | 00:00:00 | |
| DL1XH-15 | 2026-09-04 00:20:51 | 53.57005 | 15.02650 | 100° | 26km/h | 27799m | 6m/s | -48.7°C | 3.2% | 17.6hPa | 2.5V | 08:30:00 | 02:01:16 | 00:00:00 | |
| AA1-15 | 2026-09-04 00:20:48 | 53.57005 | 15.02650 | 101° | 26km/h | 27799m | 6m/s | -48.7°C | 0.1% | 17.6hPa | 2.5V | 18:12:15 | 02:01:16 | 00:00:00 | |
| EDDB2-12 | 2026-09-04 00:20:48 | 53.57005 | 15.02640 | 90° | 20km/h | 27793m | 6.1m/s | -48.7°C | 0.8% | 17.7hPa | 2.5V | 00:00:00 | 00:00:00 | 00:00:00 | |
| DF8AY | 2026-09-04 00:20:43 | 53.57005 | 15.02623 | 124° | 9km/h | 27758m | 5m/s | -48.7°C | 0.1% | 17.8hPa | 2.5V | 18:12:15 | 02:01:09 | 00:00:00 | |
| DL1XH-15 | 2026-09-04 00:20:41 | 53.57008 | 15.02606 | 96° | 22km/h | 27741m | 5m/s | -48.6°C | 3.2% | 17.8hPa | 2.5V | 08:30:00 | 02:01:06 | 00:00:00 | |
| DL1XH-west | 2026-09-04 00:20:38 | 53.57008 | 15.02606 | 96° | 22km/h | 27741m | 5m/s | 0°C | 0% | 0hPa | 2.5V | 18:12:15 | 02:01:06 | 00:00:00 | |
| AA1-15 | 2026-09-04 00:20:37 | 53.57008 | 15.02596 | 89° | 22km/h | 27736m | 5.6m/s | -48.6°C | 0.1% | 17.8hPa | 2.5V | 18:12:15 | 02:01:05 | 00:00:00 | |
| DF8AY | 2026-09-04 00:20:31 | 53.57016 | 15.02556 | 105° | 7km/h | 27693m | 5.1m/s | -48.6°C | 0.1% | 17.9hPa | 2.5V | 18:12:15 | 02:00:58 | 00:00:00 | |
| AA1-15 | 2026-09-04 00:20:27 | 53.57020 | 15.02547 | 143° | 11km/h | 27678m | 6.2m/s | -48.6°C | 0.1% | 18hPa | 2.5V | 18:12:15 | 02:00:55 | 00:00:00 | |
| KRY50SP | 2026-09-04 00:20:26 | 53.57020 | 15.02547 | 143° | 11km/h | 27678m | 6.2m/s | -48.6°C | 0.7% | 18.0hPa | 2.5V | 00:00:00 | 00:00:00 | 00:00:00 | |
| AM1SDL-15 | 2026-09-04 00:20:25 | 53.57025 | 15.02538 | 118° | 13km/h | 27667m | 6.3m/s | -48.5°C | 3.1% | 18.0hPa | 2.5V | 00:00:00 | 02:00:53 | 00:00:00 | |
| SP3WXH-11 | 2026-09-04 00:20:24 | 53.57027 | 15.02532 | 107° | 15km/h | 27660m | 6.4m/s | -48.5°C | 0.7% | 18.0hPa | 2.5V | 00:00:00 | 00:00:00 | 00:00:00 | |
| DL1XH-15 | 2026-09-04 00:20:23 | 53.57029 | 15.02499 | 106° | 5km/h | 27624m | 5.2m/s | -48.6°C | 3.2% | 18.1hPa | 2.5V | 08:30:00 | 02:00:46 | 00:00:00 | |
| DF8AY | 2026-09-04 00:20:19 | 53.57029 | 15.02483 | 95° | 9km/h | 27596m | 6.8m/s | -48.7°C | 0.1% | 18.2hPa | 2.6V | 18:12:15 | 02:00:41 | 00:00:00 | |
| AA1-15 | 2026-09-04 00:20:17 | 53.57029 | 15.02491 | 65° | 9km/h | 27608m | 5.7m/s | -48.7°C | 0.1% | 18.2hPa | 2.6V | 18:12:15 | 02:00:43 | 00:00:00 | |
| AA1-15 | 2026-09-04 00:20:04 | 53.57027 | 15.02418 | 82° | 13km/h | 27540m | 6m/s | -48.7°C | 0.1% | 18.4hPa | 2.5V | 18:12:15 | 02:00:32 | 00:00:00 | |
| KRY50SP | 2026-09-04 00:20:04 | 53.57027 | 15.02418 | 83° | 13km/h | 27541m | 6.0m/s | -48.7°C | 0.8% | 18.3hPa | 2.6V | 00:00:00 | 00:00:00 | 00:00:00 | |
| DL1XH-15 | 2026-09-04 00:20:03 | 53.57015 | 15.02390 | 52° | 15km/h | 27506m | 6.5m/s | -48.6°C | 3.2% | 18.4hPa | 2.6V | 08:30:00 | 02:00:26 | 00:00:00 | |
| DF8AY | 2026-09-04 00:20:00 | 53.57020 | 15.02399 | 43° | 16km/h | 27515m | 4.8m/s | -48.6°C | 0.1% | 18.4hPa | 2.5V | 18:12:15 | 02:00:28 | 00:00:00 | |
| AA1-15 | 2026-09-04 00:19:53 | 53.57004 | 15.02355 | 57° | 26km/h | 27477m | 4.9m/s | -48.6°C | 0.2% | 18.5hPa | 2.5V | 18:12:15 | 02:00:21 | 00:00:00 | |
| DF8AY | 2026-09-04 00:19:51 | 53.56995 | 15.02331 | 61° | 16km/h | 27461m | 6.4m/s | -48.7°C | 0.1% | 18.6hPa | 2.5V | 18:12:15 | 02:00:18 | 00:00:00 | |
| DL1XH-15 | 2026-09-04 00:19:49 | 53.56992 | 15.02320 | 68° | 13km/h | 27448m | 6m/s | -48.7°C | 3.2% | 18.6hPa | 2.5V | 08:30:00 | 02:00:16 | 00:00:00 | |
| SONCRA | 2026-09-04 00:19:46 | 53.56990 | 15.02309 | 64° | 15km/h | 27436m | 5.6m/s | -48.7°C | 0.8% | 18.6hPa | 2.6V | 00:00:00 | 00:00:00 | 00:00:00 | |
| EDDB2-12 | 2026-09-04 00:19:45 | 53.56988 | 15.02304 | 58° | 15km/h | 27431m | 5.7m/s | -48.7°C | 0.8% | 18.7hPa | 2.6V | 00:00:00 | 00:00:00 | 00:00:00 | |
| SP3BTT-10 | 2026-09-04 00:19:44 | 53.56986 | 15.02298 | 59° | 13km/h | 27425m | 6.6m/s | -48.6°C | 3.2% | 18.6hPa | 2.6V | 00:00:00 | 00:00:00 | 00:00:00 | |
| DL1XH-15 | 2026-09-04 00:19:43 | 53.56965 | 15.02264 | 41° | 26km/h | 27389m | 4.7m/s | -48.7°C | 3.2% | 18.8hPa | 2.6V | 08:30:00 | 02:00:06 | 00:00:00 | |
| AA1-15 | 2026-09-04 00:19:42 | 53.56982 | 15.02290 | 41° | 15km/h | 27412m | 4.6m/s | -48.7°C | 0.1% | 18.7hPa | 2.5V | 18:12:15 | 02:00:10 | 00:00:00 | |
| DF8AY | 2026-09-04 00:19:39 | 53.56970 | 15.02271 | 41° | 27km/h | 27394m | 5.3m/s | -48.6°C | 0.1% | 18.8hPa | 2.6V | 18:12:15 | 02:00:07 | 00:00:00 | |
| AA1-15 | 2026-09-04 00:19:32 | 53.56952 | 15.02235 | 72° | 11km/h | 27355m | 6.3m/s | -48.6°C | 0.2% | 18.9hPa | 2.5V | 18:12:15 | 02:00:00 | 00:00:00 | |
| DF8AY | 2026-09-04 00:19:29 | 53.56949 | 15.02225 | 41° | 7km/h | 27336m | 6.6m/s | -48.5°C | 0.1% | 18.9hPa | 2.6V | 18:12:15 | 01:59:57 | 00:00:00 | |
| DL1XH-15 | 2026-09-04 00:19:29 | 53.56948 | 15.02223 | 29° | 7km/h | 27330m | 5m/s | -48.5°C | 3.3% | 18.9hPa | 2.6V | 08:30:00 | 01:59:56 | 00:00:00 | |
| SONDE2-11 | 2026-09-04 00:19:28 | 53.56948 | 15.02223 | 29° | 7km/h | 27331m | 5.0m/s | -48.5°C | 0.8% | 18.9hPa | 2.5V | 00:00:00 | 00:00:00 | 00:00:00 | |
| EDDB2-11 | 2026-09-04 00:19:26 | 53.56942 | 15.02218 | 28° | 16km/h | 27320m | 6.8m/s | -48.5°C | 0.8% | 19.0hPa | 2.5V | 00:00:00 | 00:00:00 | 00:00:00 | |
| AM1SDL-15 | 2026-09-04 00:19:25 | 53.56938 | 15.02214 | 30° | 9km/h | 27313m | 5.3m/s | -48.4°C | 3.2% | 18.9hPa | 2.5V | 00:00:00 | 01:59:53 | 00:00:00 | |
| DL1XH-15 | 2026-09-04 00:19:22 | 53.56925 | 15.02197 | 101° | 5km/h | 27273m | 6.4m/s | -48.3°C | 3.2% | 19.1hPa | 2.5V | 08:30:00 | 01:59:46 | 00:00:00 | |
| AA1-15 | 2026-09-04 00:19:21 | 53.56926 | 15.02201 | 32° | 5km/h | 27291m | 5.7m/s | -48.4°C | 0.1% | 19.1hPa | 2.5V | 18:12:15 | 01:59:49 | 00:00:00 | |
| DF8AY | 2026-09-04 00:19:19 | 53.56925 | 15.02199 | 73° | 4km/h | 27280m | 6.3m/s | -48.3°C | 0.1% | 19.1hPa | 2.5V | 18:12:15 | 01:59:47 | 00:00:00 | |
| KRY50SP | 2026-09-04 00:19:15 | 53.56925 | 15.02190 | 98° | 7km/h | 27263m | 5.1m/s | -48.3°C | 0.8% | 19.1hPa | 2.5V | 00:00:00 | 00:00:00 | 00:00:00 | |
| EDDB2-12 | 2026-09-04 00:19:14 | 53.56927 | 15.02186 | 124° | 2km/h | 27251m | 6.1m/s | -48.3°C | 0.7% | 19.2hPa | 2.5V | 00:00:00 | 00:00:00 | 00:00:00 | |
| AM1SDL-15 | 2026-09-04 00:19:13 | 53.56927 | 15.02186 | 104° | 7km/h | 27245m | 5.5m/s | -48.2°C | 3.1% | 19.1hPa | 2.5V | 00:00:00 | 01:59:41 | 00:00:00 | |
| DL1XH-15 | 2026-09-04 00:19:11 | 53.56917 | 15.02181 | 358° | 9km/h | 27217m | 6.4m/s | -48.3°C | 3.2% | 19.3hPa | 2.5V | 08:30:00 | 01:59:36 | 00:00:00 | |
| AA1-15 | 2026-09-04 00:19:11 | 53.56925 | 15.02184 | 23° | 7km/h | 27233m | 6.6m/s | -48.3°C | 0.1% | 19.2hPa | 2.5V | 18:12:15 | 01:59:39 | 00:00:00 | |
| DF8AY | 2026-09-04 00:19:08 | 53.56917 | 15.02181 | 359° | 9km/h | 27217m | 6.4m/s | -48.3°C | 0.1% | 19.3hPa | 2.5V | 18:12:15 | 01:59:36 | 00:00:00 | |
| AA1-15 | 2026-09-04 00:19:01 | 53.56923 | 15.02178 | 166° | 13km/h | 27177m | 5.7m/s | -48.2°C | 0.1% | 19.4hPa | 2.5V | 18:12:15 | 01:59:29 | 00:00:00 | |
| DL1XH-15 | 2026-09-04 00:18:59 | 53.56932 | 15.02180 | 209° | 11km/h | 27160m | 5.4m/s | -48°C | 3.2% | 19.4hPa | 2.5V | 08:30:00 | 01:59:26 | 00:00:00 | |
| DF8AY | 2026-09-04 00:18:57 | 53.56934 | 15.02181 | 211° | 9km/h | 27154m | 6.7m/s | -48°C | 0.1% | 19.5hPa | 2.5V | 18:12:15 | 01:59:25 | 00:00:00 | |
| EDDB2-11 | 2026-09-04 00:18:55 | 53.56935 | 15.02183 | 324° | 2km/h | 27141m | 5.4m/s | -47.9°C | 0.8% | 19.5hPa | 2.6V | 00:00:00 | 00:00:00 | 00:00:00 | |
| DL1XH-15 | 2026-09-04 00:18:53 | 53.56944 | 15.02185 | 151° | 16km/h | 27100m | 5m/s | -47.7°C | 3.1% | 19.6hPa | 2.6V | 08:30:00 | 01:59:16 | 00:00:00 | |
| AA1-15 | 2026-09-04 00:18:50 | 53.56938 | 15.02189 | 179° | 9km/h | 27112m | 6.3m/s | -47.8°C | 0.1% | 19.6hPa | 2.5V | 18:12:15 | 01:59:18 | 00:00:00 | |
| DF8AY | 2026-09-04 00:18:46 | 53.56951 | 15.02178 | 160° | 20km/h | 27088m | 6.2m/s | -47.7°C | 0.1% | 19.6hPa | 2.5V | 18:12:15 | 01:59:14 | 00:00:00 | |
| MECKS9 | 2026-09-04 00:18:45 | 53.56956 | 15.02176 | 168° | 20km/h | 27082m | 5.0m/s | -47.7°C | 0.8% | 19.7hPa | 2.6V | 00:00:00 | 00:00:00 | 00:00:00 | |
| SP3BTT-10 | 2026-09-04 00:18:44 | 53.56961 | 15.02174 | 168° | 13km/h | 27078m | 4.5m/s | -47.6°C | 3.1% | 19.6hPa | 2.6V | 00:00:00 | 00:00:00 | 08:30:00 | |
| EDDB2-12 | 2026-09-04 00:18:43 | 53.56965 | 15.02172 | 160° | 13km/h | 27072m | 5.6m/s | -47.6°C | 0.7% | 19.7hPa | 2.6V | 00:00:00 | 00:00:00 | 00:00:00 | |
| DL1XH-15 | 2026-09-04 00:18:40 | 53.56971 | 15.02165 | 199° | 2km/h | 27043m | 4.7m/s | -47.4°C | 3% | 19.8hPa | 2.6V | 08:30:00 | 01:59:06 | 00:00:00 | |
| AA1-15 | 2026-09-04 00:18:39 | 53.56970 | 15.02165 | 137° | 2km/h | 27049m | 6.5m/s | -47.5°C | 0.1% | 19.8hPa | 2.6V | 18:12:15 | 01:59:07 | 00:00:00 | |
| DF8AY | 2026-09-04 00:18:36 | 53.56971 | 15.02163 | 90° | 5km/h | 27033m | 6.5m/s | -47.4°C | 0% | 19.8hPa | 2.5V | 18:12:15 | 01:59:04 | 00:00:00 | |
| DL4BBY-15 | 2026-09-04 00:18:35 | 53.56971 | 15.02160 | 104° | 15km/h | 27027m | 5.7m/s | -46.6°C | 0% | 0hPa | 2.5V | 00:00:00 | 00:00:00 | 00:00:00 | |
| MECKS9 | 2026-09-04 00:18:34 | 53.56973 | 15.02156 | 111° | 15km/h | 27023m | 4.8m/s | -47.4°C | 0.7% | 19.8hPa | 2.5V | 00:00:00 | 00:00:00 | 00:00:00 | |
| DJ2DS-15 | 2026-09-04 00:18:31 | 53.56981 | 15.02140 | 154° | 18km/h | 27006m | 6.1m/s | -47.3°C | 0.7% | 19.9hPa | 2.5V | 00:00:00 | 00:00:00 | 00:00:00 | |
| DL1XH-15 | 2026-09-04 00:18:29 | 53.56992 | 15.02136 | 164° | 9km/h | 26992m | 5.9m/s | -47.3°C | 3% | 19.9hPa | 2.5V | 08:30:00 | 01:58:56 | 00:00:00 | |
| AA1-15 | 2026-09-04 00:18:29 | 53.56989 | 15.02136 | 170° | 15km/h | 26997m | 4.7m/s | -47.3°C | 0% | 19.9hPa | 2.5V | 18:12:15 | 01:58:57 | 00:00:00 | |
| DF8AY | 2026-09-04 00:18:25 | 53.56992 | 15.02133 | 42° | 4km/h | 26978m | 6m/s | -47.3°C | 0% | 20hPa | 2.6V | 18:12:15 | 01:58:53 | 00:00:00 | |
| KRY50SP | 2026-09-04 00:18:25 | 53.56992 | 15.02133 | 43° | 4km/h | 26978m | 6.0m/s | -47.3°C | 0.7% | 20.0hPa | 2.5V | 00:00:00 | 00:00:00 | 00:00:00 | |
| EDDB2-11 | 2026-09-04 00:18:24 | 53.56991 | 15.02131 | 59° | 5km/h | 26973m | 5.4m/s | -47.3°C | 0.7% | 20.0hPa | 2.5V | 00:00:00 | 00:00:00 | 00:00:00 | |
| DL1XH-15 | 2026-09-04 00:18:23 | 53.56996 | 15.02091 | 117° | 20km/h | 26941m | 5m/s | -47.2°C | 3% | 20.1hPa | 2.5V | 08:30:00 | 01:58:46 | 00:00:00 | |
| DL1XH-west | 2026-09-04 00:18:23 | 53.56992 | 15.02124 | 96° | 13km/h | 26962m | 5.2m/s | -47.3°C | 0% | 0hPa | 2.5V | 18:12:15 | 01:58:50 | 00:00:00 | |
| AA1-15 | 2026-09-04 00:18:18 | 53.56996 | 15.02091 | 118° | 20km/h | 26941m | 5m/s | -47.2°C | 0% | 20.1hPa | 2.5V | 18:12:15 | 01:58:46 | 00:00:00 | |
| DF8AY | 2026-09-04 00:18:14 | 53.57008 | 15.02078 | 177° | 11km/h | 26918m | 5.5m/s | -47.2°C | 0% | 20.2hPa | 2.6V | 18:12:15 | 01:58:42 | 00:00:00 | |
| DL1XH-west | 2026-09-04 00:18:12 | 53.57013 | 15.02075 | 128° | 7km/h | 26907m | 5.4m/s | -47.3°C | 0% | 0hPa | 2.6V | 18:12:15 | 01:58:40 | 00:00:00 | |
| AA1-15 | 2026-09-04 00:18:07 | 53.57020 | 15.02054 | 125° | 18km/h | 26881m | 5m/s | -47.3°C | 0% | 20.3hPa | 2.5V | 18:12:15 | 01:58:35 | 00:00:00 | |
| DF8AY | 2026-09-04 00:18:04 | 53.57043 | 15.02006 | 175° | 11km/h | 26842m | 4.5m/s | -47.4°C | 0% | 20.4hPa | 2.6V | 18:12:15 | 01:58:27 | 00:00:00 | |
| DL1XH-west | 2026-09-04 00:18:02 | 53.57033 | 15.02013 | 133° | 18km/h | 26856m | 6m/s | -47.3°C | 0% | 0hPa | 2.5V | 18:12:15 | 01:58:30 | 00:00:00 | |
| AA1-15 | 2026-09-04 00:17:57 | 53.57046 | 15.02004 | 112° | 5km/h | 26831m | 5.5m/s | -47.4°C | 0% | 20.4hPa | 2.5V | 18:12:15 | 01:58:25 | 00:00:00 | |
| DF8AY | 2026-09-04 00:17:53 | 53.57047 | 15.01987 | 105° | 13km/h | 26810m | 5.4m/s | -47.5°C | 0% | 20.5hPa | 2.6V | 18:12:15 | 01:58:21 | 00:00:00 | |
| DL1XH-west | 2026-09-04 00:17:52 | 53.57048 | 15.01982 | 123° | 15km/h | 26805m | 4.9m/s | -47.5°C | 0% | 0hPa | 2.5V | 18:12:15 | 01:58:20 | 00:00:00 | |
| DL1XH1-15 | 2026-09-04 00:17:50 | 53.57057 | 15.01961 | 123° | 24km/h | 26789m | 5.7m/s | -47.5°C | 3% | 20.6hPa | 2.6V | 08:30:00 | 01:58:17 | 00:00:00 | |
| AA1-15 | 2026-09-04 00:17:46 | 53.57067 | 15.01939 | 136° | 16km/h | 26775m | 5.9m/s | -47.6°C | 0% | 20.6hPa | 2.5V | 18:12:15 | 01:58:14 | 00:00:00 | |
| DF8AY | 2026-09-04 00:17:43 | 53.57073 | 15.01933 | 158° | 4km/h | 26758m | 5.1m/s | -47.6°C | 0% | 20.6hPa | 2.6V | 18:12:15 | 01:58:11 | 00:00:00 | |
| DL1XH-west | 2026-09-04 00:17:41 | 53.57073 | 15.01929 | 99° | 7km/h | 26746m | 4.8m/s | -47.6°C | 0% | 0hPa | 2.5V | 18:12:15 | 01:58:09 | 00:00:00 | |
| KRY50SP | 2026-09-04 00:17:41 | 53.57073 | 15.01929 | 100° | 7km/h | 26747m | 4.8m/s | -47.6°C | 0.7% | 20.7hPa | 2.6V | 00:00:00 | 00:00:00 | 00:00:00 | |
| DL1XH1-15 | 2026-09-04 00:17:38 | 53.57076 | 15.01915 | 125° | 15km/h | 26731m | 5.5m/s | -47.6°C | 3% | 20.7hPa | 2.6V | 08:30:00 | 01:58:06 | 00:00:00 | |
| AA1-15 | 2026-09-04 00:17:35 | 53.57085 | 15.01897 | 120° | 20km/h | 26718m | 6m/s | -47.8°C | 0% | 20.8hPa | 2.5V | 18:12:15 | 01:58:03 | 00:00:00 | |
| DF8AY | 2026-09-04 00:17:33 | 53.57088 | 15.01883 | 100° | 15km/h | 26709m | 4.1m/s | -47.9°C | 0% | 20.8hPa | 2.6V | 18:12:15 | 01:58:01 | 00:00:00 | |
| DL1XH-west | 2026-09-04 00:17:30 | 53.57089 | 15.01872 | 176° | 4km/h | 26693m | 5.3m/s | -47.9°C | 0% | 0hPa | 2.5V | 18:12:15 | 01:57:58 | 00:00:00 | |
| DL1XH-15 | 2026-09-04 00:17:29 | 53.57090 | 15.01872 | 153° | 4km/h | 26682m | 5.8m/s | -48°C | 3% | 20.9hPa | 2.5V | 08:30:00 | 01:57:56 | 00:00:00 | |
| AA1-15 | 2026-09-04 00:17:25 | 53.57095 | 15.01861 | 113° | 16km/h | 26666m | 4.7m/s | -48.1°C | 0% | 20.9hPa | 2.5V | 18:12:15 | 01:57:53 | 00:00:00 | |
| DL1XH-15 | 2026-09-04 00:17:24 | 53.57089 | 15.01814 | 66° | 18km/h | 26633m | 3.2m/s | -48.4°C | 3.1% | 21hPa | 2.5V | 08:30:00 | 01:57:46 | 00:00:00 | |
| DF8AY | 2026-09-04 00:17:22 | 53.57096 | 15.01835 | 73° | 16km/h | 26647m | 4.6m/s | -48.3°C | 0% | 21hPa | 2.6V | 18:12:15 | 01:57:49 | 00:00:00 | |
| DL1XH-west | 2026-09-04 00:17:19 | 53.57091 | 15.01821 | 57° | 22km/h | 26636m | 4.7m/s | -48.4°C | 0% | 0hPa | 2.6V | 18:12:15 | 01:57:47 | 00:00:00 | |
| AA1-15 | 2026-09-04 00:17:15 | 53.57089 | 15.01802 | 180° | 9km/h | 26618m | 5.8m/s | -48.6°C | 0.1% | 21.1hPa | 2.5V | 18:12:15 | 01:57:43 | 00:00:00 | |
| KRY50SP | 2026-09-04 00:17:15 | 53.57091 | 15.01803 | 204° | 15km/h | 26613m | 5.0m/s | -48.6°C | 0.7% | 21.1hPa | 2.5V | 00:00:00 | 00:00:00 | 00:00:00 | |
| AM1SDL-15 | 2026-09-04 00:17:14 | 53.57095 | 15.01806 | 210° | 13km/h | 26608m | 4.6m/s | -48.6°C | 3.2% | 21.1hPa | 2.5V | 00:00:00 | 01:57:41 | 00:00:00 | |
| MECKS9 | 2026-09-04 00:17:11 | 53.57098 | 15.01809 | 211° | 15km/h | 26604m | 4.9m/s | -48.7°C | 0.7% | 21.1hPa | 2.5V | 00:00:00 | 00:00:00 | 00:00:00 | |
| DL1XH1-15 | 2026-09-04 00:17:10 | 53.57104 | 15.01811 | 133° | 7km/h | 26589m | 5.1m/s | -48.8°C | 3.2% | 21.2hPa | 2.5V | 08:30:00 | 01:57:37 | 00:00:00 | |
| DL1XH-west | 2026-09-04 00:17:09 | 53.57105 | 15.01811 | 134° | 7km/h | 26589m | 5.1m/s | -48.8°C | 0.2% | 0hPa | 2.5V | 18:12:15 | 01:57:37 | 00:00:00 | |
| AA1-15 | 2026-09-04 00:17:04 | 53.57105 | 15.01790 | 40° | 13km/h | 26565m | 5.2m/s | -48.8°C | 0.1% | 21.3hPa | 2.5V | 18:12:15 | 01:57:32 | 00:00:00 | |
| DL1XH-15 | 2026-09-04 00:17:03 | 53.57104 | 15.01776 | 152° | 11km/h | 26535m | 5m/s | -48.9°C | 3.2% | 21.4hPa | 2.6V | 08:30:00 | 01:57:26 | 00:00:00 | |
| DL1XH-west | 2026-09-04 00:16:59 | 53.57102 | 15.01778 | 146° | 11km/h | 26540m | 5m/s | -48.9°C | 0.1% | 0hPa | 2.6V | 18:12:15 | 01:57:27 | 00:00:00 | |
| DF8AY | 2026-09-04 00:16:58 | 53.57104 | 15.01776 | 153° | 11km/h | 26535m | 5m/s | -48.9°C | 0.1% | 21.4hPa | 2.6V | 18:12:15 | 01:57:26 | 00:00:00 | |
| DL1XH1-15 | 2026-09-04 00:16:58 | 53.57113 | 15.01769 | 136° | 9km/h | 26514m | 6.1m/s | -48.9°C | 3.2% | 21.4hPa | 2.5V | 08:30:00 | 01:57:22 | 00:00:00 | |
| AA1-15 | 2026-09-04 00:16:53 | 53.57114 | 15.01766 | 132° | 11km/h | 26508m | 5.4m/s | -48.9°C | 0.1% | 21.4hPa | 2.6V | 18:12:15 | 01:57:21 | 00:00:00 | |
| EDDB2-11 | 2026-09-04 00:16:51 | 53.57117 | 15.01760 | 113° | 5km/h | 26498m | 5.8m/s | -48.9°C | 0.8% | 21.5hPa | 2.5V | 00:00:00 | 00:00:00 | 00:00:00 | |
| DL1XH-15 | 2026-09-04 00:16:49 | 53.57117 | 15.01759 | 233° | 2km/h | 26481m | 4m/s | -48.9°C | 3.2% | 21.5hPa | 2.5V | 08:30:00 | 01:57:16 | 00:00:00 | |
| DL1XH-west | 2026-09-04 00:16:48 | 53.57117 | 15.01759 | 234° | 4km/h | 26481m | 4m/s | -48.9°C | 0.1% | 0hPa | 2.5V | 18:12:15 | 01:57:16 | 00:00:00 | |
| DF8AY | 2026-09-04 00:16:47 | 53.57118 | 15.01760 | 191° | 7km/h | 26476m | 4.8m/s | -48.9°C | 0.1% | 21.6hPa | 2.6V | 18:12:15 | 01:57:15 | 00:00:00 | |
| SP3WXH-11 | 2026-09-04 00:16:47 | 53.57118 | 15.01760 | 190° | 5km/h | 26476m | 4.8m/s | -48.9°C | 0.8% | 21.6hPa | 2.6V | 00:00:00 | 00:00:00 | 00:00:00 | |
| KRY50SP | 2026-09-04 00:16:46 | 53.57118 | 15.01760 | 192° | 7km/h | 26476m | 4.8m/s | -48.9°C | 0.8% | 21.6hPa | 2.6V | 00:00:00 | 00:00:00 | 00:00:00 | |
| DL1XH-15 | 2026-09-04 00:16:44 | 53.57152 | 15.01742 | 162° | 15km/h | 26428m | 5.9m/s | -48.8°C | 3.2% | 21.7hPa | 2.6V | 08:30:00 | 01:57:06 | 00:00:00 | |
| AA1-15 | 2026-09-04 00:16:42 | 53.57138 | 15.01750 | 160° | 18km/h | 26449m | 5m/s | -48.9°C | 0.1% | 21.6hPa | 2.5V | 18:12:15 | 01:57:10 | 00:00:00 | |
| DF8AY | 2026-09-04 00:16:37 | 53.57175 | 15.01738 | 164° | 22km/h | 26391m | 5.2m/s | -49°C | 0.2% | 21.8hPa | 2.6V | 18:12:15 | 01:56:59 | 00:00:00 | |
| DL1XH-west | 2026-09-04 00:16:36 | 53.57159 | 15.01739 | 174° | 13km/h | 26418m | 5.6m/s | -48.9°C | 0.1% | 0hPa | 2.5V | 18:12:15 | 01:57:04 | 00:00:00 | |
| AA1-15 | 2026-09-04 00:16:32 | 53.57170 | 15.01739 | 171° | 16km/h | 26397m | 6.1m/s | -48.9°C | 0.1% | 21.8hPa | 2.6V | 18:12:15 | 01:57:00 | 00:00:00 | |
| KRY50SP | 2026-09-04 00:16:30 | 53.57175 | 15.01738 | 165° | 22km/h | 26391m | 5.2m/s | -49.0°C | 0.8% | 21.8hPa | 2.5V | 00:00:00 | 00:00:00 | 00:00:00 | |
| DL1XH-15 | 2026-09-04 00:16:28 | 53.57192 | 15.01728 | 157° | 24km/h | 26376m | 5.5m/s | -49°C | 3.2% | 21.9hPa | 2.5V | 08:30:00 | 01:56:56 | 00:00:00 | |
| S3001 | 2026-09-04 00:16:26 | 53.57207 | 15.01718 | 163° | 20km/h | 26361m | 6.4m/s | -49.1°C | 0.8% | 21.9hPa | 2.6V | 00:00:00 | 00:00:00 | 00:00:00 | |
| AM1SDL-15 | 2026-09-04 00:16:25 | 53.57207 | 15.01718 | 164° | 20km/h | 26361m | 6.3m/s | -49.1°C | 3.2% | 21.9hPa | 2.6V | 00:00:00 | 01:56:53 | 08:30:00 | |
| KRY50SP | 2026-09-04 00:16:24 | 53.57207 | 15.01718 | 164° | 20km/h | 26361m | 6.4m/s | -49.1°C | 0.8% | 21.9hPa | 2.6V | 00:00:00 | 00:00:00 | 00:00:00 | |
| DL1XH-15 | 2026-09-04 00:16:23 | 53.57231 | 15.01690 | 140° | 20km/h | 26319m | 5.8m/s | -49.1°C | 3.3% | 22.1hPa | 2.6V | 08:30:00 | 01:56:46 | 00:00:00 | |
| AA1-15 | 2026-09-04 00:16:21 | 53.57223 | 15.01705 | 135° | 13km/h | 26337m | 6.2m/s | -49.2°C | 0.2% | 22hPa | 2.5V | 18:12:15 | 01:56:49 | 00:00:00 | |
| DF8AY | 2026-09-04 00:16:20 | 53.57226 | 15.01700 | 128° | 13km/h | 26331m | 5.2m/s | -49.2°C | 0.2% | 22hPa | 2.5V | 18:12:15 | 01:56:48 | 00:00:00 | |
| DL1XH-west | 2026-09-04 00:16:18 | 53.57231 | 15.01690 | 141° | 20km/h | 26319m | 5.8m/s | -49.1°C | 0.2% | 0hPa | 2.6V | 18:12:15 | 01:56:46 | 00:00:00 | |
| SP3WXH-11 | 2026-09-04 00:16:16 | 53.57241 | 15.01679 | 148° | 26km/h | 26308m | 4.3m/s | -49.1°C | 0.8% | 22.1hPa | 2.5V | 00:00:00 | 00:00:00 | 00:00:00 | |
| KRY50SP | 2026-09-04 00:16:14 | 53.57251 | 15.01668 | 148° | 24km/h | 26298m | 5.5m/s | -49.1°C | 0.8% | 22.1hPa | 2.5V | 00:00:00 | 00:00:00 | 00:00:00 | |
| DL1XH-15 | 2026-09-04 00:16:13 | 53.57280 | 15.01636 | 144° | 15km/h | 26266m | 6.5m/s | -49.1°C | 3.3% | 22.2hPa | 2.5V | 08:30:00 | 01:56:36 | 00:00:00 | |
| AA1-15 | 2026-09-04 00:16:11 | 53.57266 | 15.01650 | 146° | 24km/h | 26282m | 6.2m/s | -49.1°C | 0.2% | 22.2hPa | 2.6V | 18:12:15 | 01:56:39 | 00:00:00 | |
| DF8AY | 2026-09-04 00:16:10 | 53.57271 | 15.01645 | 148° | 24km/h | 26276m | 4.8m/s | -49.1°C | 0.2% | 22.2hPa | 2.6V | 18:12:15 | 01:56:38 | 00:00:00 | |
| DJ2DS-15 | 2026-09-04 00:16:10 | 53.57271 | 15.01645 | 149° | 20km/h | 26277m | 4.7m/s | -49.0°C | 3.2% | 22.1hPa | 2.6V | 00:00:00 | 01:56:38 | 08:30:00 | |
| KRY50SP | 2026-09-04 00:16:09 | 53.57276 | 15.01640 | 148° | 20km/h | 26272m | 4.8m/s | -49.1°C | 0.8% | 22.2hPa | 2.5V | 00:00:00 | 00:00:00 | 00:00:00 | |
| EDDB2-12 | 2026-09-04 00:16:08 | 53.57280 | 15.01636 | 144° | 13km/h | 26266m | 6.5m/s | -49.1°C | 0.8% | 22.2hPa | 2.5V | 00:00:00 | 00:00:00 | 00:00:00 | |
| DL1XH-15 | 2026-09-04 00:16:03 | 53.57322 | 15.01591 | 152° | 29km/h | 26212m | 5.2m/s | -49.1°C | 3.2% | 22.4hPa | 2.5V | 08:30:00 | 01:56:26 | 00:00:00 | |
| DL1XH-west | 2026-09-04 00:16:02 | 53.57297 | 15.01613 | 151° | 27km/h | 26234m | 5.2m/s | -49.1°C | 0.1% | 0hPa | 2.5V | 18:12:15 | 01:56:30 | 00:00:00 | |
| AA1-15 | 2026-09-04 00:16:00 | 53.57309 | 15.01602 | 153° | 27km/h | 26222m | 5.7m/s | -49.1°C | 0.1% | 22.4hPa | 2.5V | 18:12:15 | 01:56:28 | 00:00:00 | |
| DF8AY | 2026-09-04 00:16:00 | 53.57316 | 15.01597 | 153° | 29km/h | 26217m | 4.7m/s | -49.1°C | 0.2% | 22.4hPa | 2.5V | 18:12:15 | 01:56:27 | 00:00:00 | |
| S3001 | 2026-09-04 00:15:55 | 53.57361 | 15.01526 | 142° | 24km/h | 26147m | 6.5m/s | -49.2°C | 0.8% | 22.6hPa | 2.5V | 00:00:00 | 00:00:00 | 00:00:00 | |
| DL1XH-15 | 2026-09-04 00:15:53 | 53.57354 | 15.01540 | 124° | 22km/h | 26159m | 4.9m/s | -49.1°C | 3.2% | 22.6hPa | 2.5V | 08:30:00 | 01:56:16 | 00:00:00 | |
| AA1-15 | 2026-09-04 00:15:49 | 53.57351 | 15.01547 | 114° | 16km/h | 26164m | 5.2m/s | -49.1°C | 0.1% | 22.6hPa | 2.6V | 18:12:15 | 01:56:17 | 00:00:00 | |
| DF8AY | 2026-09-04 00:15:46 | 53.57384 | 15.01504 | 147° | 27km/h | 26126m | 5.4m/s | -49.3°C | 0.1% | 22.7hPa | 2.6V | 18:12:15 | 01:56:10 | 00:00:00 | |
| SP3WXH-11 | 2026-09-04 00:15:45 | 53.57372 | 15.01515 | 153° | 26km/h | 26137m | 4.4m/s | -49.3°C | 0.8% | 22.7hPa | 2.5V | 00:00:00 | 00:00:00 | 00:00:00 | |
| DL1XH-15 | 2026-09-04 00:15:43 | 53.57398 | 15.01481 | 101° | 9km/h | 26106m | 6.1m/s | -49.4°C | 3.3% | 22.8hPa | 2.5V | 08:30:00 | 01:56:06 | 00:00:00 | |
| DL1XH-west | 2026-09-04 00:15:41 | 53.57394 | 15.01491 | 134° | 20km/h | 26116m | 4.6m/s | -49.3°C | 0.1% | 0hPa | 2.5V | 18:12:15 | 01:56:08 | 00:00:00 | |
| AA1-15 | 2026-09-04 00:15:39 | 53.57397 | 15.01485 | 126° | 15km/h | 26111m | 5.9m/s | -49.3°C | 0.1% | 22.8hPa | 2.5V | 18:12:15 | 01:56:07 | 00:00:00 | |
| DF8AY | 2026-09-04 00:15:35 | 53.57400 | 15.01424 | 121° | 26km/h | 26061m | 5.5m/s | -49.7°C | 0.2% | 23hPa | 2.5V | 18:12:15 | 01:55:58 | 00:00:00 | |
| KRY50SP | 2026-09-04 00:15:33 | 53.57395 | 15.01461 | 80° | 20km/h | 26084m | 5.8m/s | -49.6°C | 0.8% | 22.9hPa | 2.6V | 00:00:00 | 00:00:00 | 00:00:00 | |
| DL1XH-15 | 2026-09-04 00:15:29 | 53.57408 | 15.01405 | 123° | 27km/h | 26049m | 6.2m/s | -49.8°C | 3.3% | 23hPa | 2.6V | 08:30:00 | 01:55:56 | 00:00:00 | |
| AA1-15 | 2026-09-04 00:15:29 | 53.57404 | 15.01415 | 125° | 27km/h | 26055m | 6m/s | -49.7°C | 0.2% | 23hPa | 2.6V | 18:12:15 | 01:55:57 | 00:00:00 | |
| DF8AY | 2026-09-04 00:15:24 | 53.57418 | 15.01375 | 102° | 11km/h | 26028m | 6.2m/s | -49.8°C | 0.2% | 23.1hPa | 2.6V | 18:12:15 | 01:55:52 | 00:00:00 | |
| DL1XH-15 | 2026-09-04 00:15:23 | 53.57413 | 15.01339 | 86° | 18km/h | 25994m | 6.4m/s | -50°C | 3.3% | 23.2hPa | 2.6V | 08:30:00 | 01:55:46 | 00:00:00 | |
| DL1XH-west | 2026-09-04 00:15:20 | 53.57415 | 15.01355 | 75° | 18km/h | 26005m | 4.8m/s | -49.9°C | 0.2% | 0hPa | 2.5V | 18:12:15 | 01:55:48 | 00:00:00 | |
| AA1-15 | 2026-09-04 00:15:18 | 53.57414 | 15.01339 | 87° | 18km/h | 25994m | 6.4m/s | -50°C | 0.3% | 23.2hPa | 2.6V | 18:12:15 | 01:55:46 | 00:00:00 | |
| DF8AY | 2026-09-04 00:15:14 | 53.57428 | 15.01268 | 114° | 9km/h | 25939m | 4.8m/s | -50.3°C | 0.3% | 23.4hPa | 2.6V | 18:12:15 | 01:55:36 | 00:00:00 | |
| AM1SDL-15 | 2026-09-04 00:15:13 | 53.57420 | 15.01299 | 107° | 16km/h | 25967m | 4.9m/s | -50.1°C | 3.5% | 23.2hPa | 2.6V | 00:00:00 | 01:55:41 | 00:00:00 | |
| KRY50SP | 2026-09-04 00:15:11 | 53.57423 | 15.01282 | 116° | 18km/h | 25956m | 6.1m/s | -50.2°C | 0.8% | 23.3hPa | 2.6V | 00:00:00 | 00:00:00 | 00:00:00 | |
| DL1XH-15 | 2026-09-04 00:15:10 | 53.57428 | 15.01268 | 113° | 9km/h | 25939m | 4.8m/s | -50.3°C | 3.5% | 23.4hPa | 2.6V | 08:30:00 | 01:55:36 | 00:00:00 | |
| DL1XH-west | 2026-09-04 00:15:09 | 53.57427 | 15.01272 | 132° | 11km/h | 25944m | 5.3m/s | 0°C | 0% | 0hPa | 2.5V | 18:12:15 | 01:55:37 | 00:00:00 | |
| DL1XH1-15 | 2026-09-04 00:15:08 | 53.57428 | 15.01258 | 76° | 15km/h | 25927m | 6.1m/s | -50.3°C | 3.5% | 23.4hPa | 2.5V | 08:30:00 | 01:55:34 | 00:00:00 | |
| AA1-15 | 2026-09-04 00:15:07 | 53.57429 | 15.01264 | 89° | 11km/h | 25933m | 6.6m/s | -50.3°C | 0.3% | 23.4hPa | 2.6V | 18:12:15 | 01:55:35 | 00:00:00 | |
| MECKS9 | 2026-09-04 00:15:07 | 53.57428 | 15.01264 | 90° | 11km/h | 25934m | 6.6m/s | -50.3°C | 0.9% | 23.4hPa | 2.5V | 00:00:00 | 00:00:00 | 00:00:00 | |
| EDDB2-12 | 2026-09-04 00:15:06 | 53.57428 | 15.01258 | 76° | 15km/h | 25927m | 6.1m/s | -50.3°C | 0.9% | 23.4hPa | 2.5V | 00:00:00 | 00:00:00 | 00:00:00 | |
| KRY50SP | 2026-09-04 00:15:05 | 53.57428 | 15.01258 | 77° | 15km/h | 25927m | 6.1m/s | -50.3°C | 0.9% | 23.4hPa | 2.5V | 00:00:00 | 00:00:00 | 00:00:00 | |
| DL1XH-15 | 2026-09-04 00:15:03 | 53.57426 | 15.01189 | 99° | 24km/h | 25883m | 4.7m/s | -50.3°C | 3.4% | 23.6hPa | 2.5V | 08:30:00 | 01:55:26 | 00:00:00 | |
| DL1XH-west | 2026-09-04 00:14:59 | 53.57426 | 15.01199 | 95° | 24km/h | 25887m | 5.2m/s | 0°C | 0% | 0hPa | 2.5V | 18:12:15 | 01:55:27 | 00:00:00 | |
| DF8AY | 2026-09-04 00:14:58 | 53.57427 | 15.01189 | 100° | 24km/h | 25883m | 4.7m/s | -50.3°C | 0.2% | 23.6hPa | 2.5V | 18:12:15 | 01:55:26 | 00:00:00 | |
| AA1-15 | 2026-09-04 00:14:57 | 53.57428 | 15.01180 | 109° | 20km/h | 25878m | 6.4m/s | -50.3°C | 0.3% | 23.6hPa | 2.6V | 18:12:15 | 01:55:25 | 00:00:00 | |
| KRY50SP | 2026-09-04 00:14:55 | 53.57432 | 15.01166 | 120° | 16km/h | 25867m | 5.0m/s | -50.2°C | 0.8% | 23.6hPa | 2.5V | 00:00:00 | 00:00:00 | 00:00:00 | |
| DL4BBY-15 | 2026-09-04 00:14:52 | 53.57432 | 15.01146 | 69° | 26km/h | 25850m | 5.3m/s | -49.4°C | 0% | 0hPa | 2.5V | 00:00:00 | 00:00:00 | 00:00:00 | |
| DL1XH-15 | 2026-09-04 00:14:49 | 53.57421 | 15.01112 | 60° | 20km/h | 25826m | 5m/s | -50.4°C | 3.4% | 23.8hPa | 2.5V | 08:30:00 | 01:55:16 | 00:00:00 | |
| DL1XH-west | 2026-09-04 00:14:48 | 53.57421 | 15.01112 | 61° | 20km/h | 25826m | 5m/s | 0°C | 0% | 0hPa | 2.5V | 18:12:15 | 01:55:16 | 00:00:00 | |
| AA1-15 | 2026-09-04 00:14:47 | 53.57419 | 15.01104 | 62° | 20km/h | 25821m | 4.7m/s | -50.4°C | 0.3% | 23.8hPa | 2.5V | 18:12:15 | 01:55:15 | 00:00:00 | |
| DL1XH-15 | 2026-09-04 00:14:44 | 53.57413 | 15.01011 | 92° | 31km/h | 25769m | 5.6m/s | -50.5°C | 3.5% | 24hPa | 2.5V | 08:30:00 | 01:55:06 | 00:00:00 | |
| DF8AY | 2026-09-04 00:14:38 | 53.57413 | 15.01011 | 93° | 31km/h | 25769m | 5.6m/s | -50.5°C | 0.3% | 24hPa | 2.5V | 18:12:15 | 01:55:06 | 00:00:00 | |
| DL1XH-west | 2026-09-04 00:14:37 | 53.57413 | 15.00998 | 86° | 31km/h | 25764m | 4.5m/s | 0°C | 0% | 0hPa | 2.5V | 18:12:15 | 01:55:05 | 00:00:00 | |
| AA1-15 | 2026-09-04 00:14:36 | 53.57412 | 15.00986 | 79° | 29km/h | 25760m | 5m/s | -50.5°C | 0.3% | 24hPa | 2.6V | 18:12:15 | 01:55:04 | 00:00:00 | |
| EDDB2-12 | 2026-09-04 00:14:35 | 53.57410 | 15.00974 | 69° | 26km/h | 25755m | 6.3m/s | -50.5°C | -1.0% | -1.0hPa | 2.6V | 00:00:00 | 00:00:00 | 00:00:00 | |
| DL1XH-15 | 2026-09-04 00:14:33 | 53.57380 | 15.00902 | 61° | 26km/h | 25717m | 6.1m/s | -50.6°C | 3.5% | 24.2hPa | 2.6V | 08:30:00 | 01:54:56 | 00:00:00 | |
| DF8AY | 2026-09-04 00:14:33 | 53.57380 | 15.00902 | 62° | 26km/h | 25717m | 6.1m/s | -50.6°C | 0.4% | 24.2hPa | 2.6V | 18:12:15 | 01:54:56 | 00:00:00 | |
| AA1-15 | 2026-09-04 00:14:25 | 53.57377 | 15.00874 | 91° | 24km/h | 25700m | 6.4m/s | -50.6°C | 0.4% | 24.2hPa | 2.5V | 18:12:15 | 01:54:53 | 00:00:00 | |
| DL1XH-15 | 2026-09-04 00:14:23 | 53.57371 | 15.00814 | 51° | 26km/h | 25662m | 6m/s | -50.5°C | 3.5% | 24.4hPa | 2.5V | 08:30:00 | 01:54:46 | 00:00:00 | |
| DF8AY | 2026-09-04 00:14:16 | 53.57362 | 15.00797 | 45° | 27km/h | 25650m | 6m/s | -50.4°C | 0.3% | 24.4hPa | 2.5V | 18:12:15 | 01:54:44 | 00:00:00 | |
| AA1-15 | 2026-09-04 00:14:14 | 53.57352 | 15.00783 | 41° | 20km/h | 25637m | 4.8m/s | -50.4°C | 0.3% | 24.5hPa | 2.6V | 18:12:15 | 01:54:42 | 00:00:00 | |
| DL1XH-15 | 2026-09-04 00:14:13 | 53.57344 | 15.00750 | 99° | 7km/h | 25603m | 5.6m/s | -50.3°C | 3.3% | 24.6hPa | 2.5V | 08:30:00 | 01:54:36 | 00:00:00 | |
| DF8AY | 2026-09-04 00:14:07 | 53.57343 | 15.00744 | 51° | 7km/h | 25593m | 5.2m/s | -50.3°C | 0.2% | 24.6hPa | 2.5V | 18:12:15 | 01:54:34 | 00:00:00 | |
| AA1-15 | 2026-09-04 00:14:04 | 53.57338 | 15.00736 | 41° | 18km/h | 25582m | 5.3m/s | -50.3°C | 0.3% | 24.7hPa | 2.6V | 18:12:15 | 01:54:32 | 00:00:00 | |
| DF8AY | 2026-09-04 00:13:56 | 53.57308 | 15.00703 | 76° | 7km/h | 25540m | 6.2m/s | -50.5°C | 0.3% | 24.9hPa | 2.5V | 18:12:15 | 01:54:24 | 00:00:00 | |
| AA1-15 | 2026-09-04 00:13:54 | 53.57308 | 15.00701 | 202° | 2km/h | 25529m | 4.3m/s | -50.6°C | 0.4% | 24.9hPa | 2.6V | 18:12:15 | 01:54:22 | 00:00:00 | |
| DF8AY | 2026-09-04 00:13:45 | 53.57270 | 15.00688 | 357° | 22km/h | 25483m | 5m/s | -50.5°C | 0.3% | 25.1hPa | 2.5V | 18:12:15 | 01:54:13 | 00:00:00 | |
| AA1-15 | 2026-09-04 00:13:43 | 53.57261 | 15.00689 | 355° | 15km/h | 25472m | 4.5m/s | -50.4°C | 0.3% | 25.1hPa | 2.6V | 18:12:15 | 01:54:11 | 00:00:00 | |
| DJ2DS-15 | 2026-09-04 00:13:42 | 53.57258 | 15.00690 | 343° | 11km/h | 25468m | 4.8m/s | -50.4°C | 0.9% | 25.1hPa | 2.5V | 00:00:00 | 00:00:00 | 00:00:00 | |
| SP3WXH-11 | 2026-09-04 00:13:41 | 53.57252 | 15.00696 | 320° | 13km/h | 25457m | 5.6m/s | -50.4°C | 0.9% | 25.2hPa | 2.5V | 00:00:00 | 00:00:00 | 00:00:00 | |
| KRY50SP | 2026-09-04 00:13:38 | 53.57249 | 15.00699 | 320° | 13km/h | 25452m | 4.6m/s | -50.4°C | 0.9% | 25.2hPa | 2.5V | 00:00:00 | 00:00:00 | 00:00:00 | |
| SONCRA | 2026-09-04 00:13:35 | 53.57236 | 15.00705 | 330° | 7km/h | 25422m | 5.8m/s | -50.4°C | 0.8% | 25.3hPa | 2.5V | 00:00:00 | 00:00:00 | 00:00:00 | |
| DL1XH-15 | 2026-09-04 00:13:34 | 53.57226 | 15.00718 | 343° | 13km/h | 25395m | 4.7m/s | -50.3°C | 3.3% | 25.4hPa | 2.5V | 08:30:00 | 01:53:56 | 00:00:00 | |
| AA1-15 | 2026-09-04 00:13:33 | 53.57236 | 15.00705 | 330° | 7km/h | 25422m | 5.8m/s | -50.4°C | 0.3% | 25.3hPa | 2.6V | 18:12:15 | 01:54:01 | 00:00:00 | |
| AA1-15 | 2026-09-04 00:13:23 | 53.57212 | 15.00734 | 315° | 11km/h | 25368m | 6.2m/s | -50.5°C | 0.3% | 25.5hPa | 2.5V | 18:12:15 | 01:53:51 | 00:00:00 | |
| DL1XH-15 | 2026-09-04 00:13:21 | 53.57210 | 15.00752 | 261° | 13km/h | 25341m | 4.9m/s | -50.6°C | 3.5% | 25.6hPa | 2.5V | 08:30:00 | 01:53:46 | 00:00:00 | |
| AA1-15 | 2026-09-04 00:13:12 | 53.57208 | 15.00778 | 274° | 15km/h | 25310m | 5.3m/s | -50.7°C | 0.3% | 25.7hPa | 2.5V | 18:12:15 | 01:53:40 | 00:00:00 | |
| DL1XH-15 | 2026-09-04 00:13:11 | 53.57208 | 15.00805 | 273° | 15km/h | 25288m | 4.7m/s | -50.8°C | 3.6% | 25.8hPa | 2.5V | 08:30:00 | 01:53:36 | 00:00:00 | |
| AA1-15 | 2026-09-04 00:13:02 | 53.57206 | 15.00844 | 268° | 11km/h | 25256m | 5.5m/s | -50.7°C | 0.3% | 25.9hPa | 2.5V | 18:12:15 | 01:53:30 | 00:00:00 | |
| DL1XH-15 | 2026-09-04 00:13:01 | 53.57213 | 15.00863 | 225° | 18km/h | 25235m | 4.5m/s | -50.6°C | 3.5% | 26hPa | 2.6V | 08:30:00 | 01:53:26 | 00:00:00 | |
| AM1SDL-15 | 2026-09-04 00:13:00 | 53.57208 | 15.00852 | 242° | 16km/h | 25246m | 5.7m/s | -50.6°C | 3.5% | 25.9hPa | 2.5V | 00:00:00 | 01:53:28 | 00:00:00 | |
| DL2RXE-15 | 2026-09-04 00:12:59 | 53.57208 | 15.00852 | 242° | 13km/h | 25246m | 5.7m/s | -50.7°C | 0% | 0hPa | 2.5V | 00:00:00 | 00:00:00 | 00:00:00 | |
| DL1XH-15 | 2026-09-04 00:12:54 | 53.57246 | 15.00906 | 170° | 13km/h | 25182m | 4.4m/s | -50.6°C | 3.6% | 26.2hPa | 2.5V | 08:30:00 | 01:53:16 | 00:00:00 | |
| AA1-15 | 2026-09-04 00:12:51 | 53.57238 | 15.00902 | 214° | 16km/h | 25199m | 4.9m/s | -50.6°C | 0.3% | 26.2hPa | 2.6V | 18:12:15 | 01:53:19 | 00:00:00 | |
| DJ2DS-15 | 2026-09-04 00:12:50 | 53.57241 | 15.00905 | 208° | 18km/h | 25194m | 6.4m/s | -50.6°C | 3.6% | 26.1hPa | 2.5V | 00:00:00 | 01:53:18 | 00:00:00 | |
| KRY50SP | 2026-09-04 00:12:49 | 53.57244 | 15.00906 | 183° | 11km/h | 25188m | 5.6m/s | -50.6°C | 0.9% | 26.2hPa | 2.5V | 00:00:00 | 00:00:00 | 00:00:00 | |
| AM1SDL-15 | 2026-09-04 00:12:48 | 53.57246 | 15.00906 | 171° | 18km/h | 25183m | 4.3m/s | -50.6°C | 3.6% | 26.2hPa | 2.5V | 00:00:00 | 01:53:16 | 08:30:00 | |
| KRY50SP | 2026-09-04 00:12:44 | 53.57260 | 15.00914 | 229° | 22km/h | 25161m | 5.3m/s | -50.6°C | 0.9% | 26.3hPa | 2.5V | 00:00:00 | 00:00:00 | 00:00:00 | |
| EDDB2-11 | 2026-09-04 00:12:43 | 53.57267 | 15.00930 | 239° | 20km/h | 25150m | 6.2m/s | -50.5°C | 0.8% | 26.4hPa | 2.5V | 00:00:00 | 00:00:00 | 00:00:00 | |
| DL1XH-15 | 2026-09-04 00:12:40 | 53.57280 | 15.00949 | 193° | 20km/h | 25129m | 5.7m/s | -50.4°C | 3.5% | 26.4hPa | 2.5V | 08:30:00 | 01:53:06 | 00:00:00 | |
| AA1-15 | 2026-09-04 00:12:40 | 53.57272 | 15.00943 | 222° | 16km/h | 25140m | 4.3m/s | -50.4°C | 0.4% | 26.4hPa | 2.5V | 18:12:15 | 01:53:08 | 00:00:00 | |
| SP3WXH-11 | 2026-09-04 00:12:39 | 53.57280 | 15.00949 | 193° | 18km/h | 25129m | 5.7m/s | -50.4°C | 0.9% | 26.5hPa | 2.5V | 00:00:00 | 00:00:00 | 00:00:00 | |
| KRY50SP | 2026-09-04 00:12:37 | 53.57280 | 15.00949 | 194° | 20km/h | 25130m | 5.7m/s | -50.4°C | 0.9% | 26.5hPa | 2.5V | 00:00:00 | 00:00:00 | 00:00:00 | |
| AM1SDL-15 | 2026-09-04 00:12:36 | 53.57291 | 15.00950 | 175° | 20km/h | 25119m | 4.9m/s | -50.3°C | 3.5% | 26.4hPa | 2.5V | 00:00:00 | 01:53:04 | 00:00:00 | |
| DL1XH-15 | 2026-09-04 00:12:33 | 53.57332 | 15.00939 | 185° | 11km/h | 25073m | 5.3m/s | -50.1°C | 3.4% | 26.7hPa | 2.5V | 08:30:00 | 01:52:56 | 00:00:00 | |
| DF8AY | 2026-09-04 00:12:31 | 53.57325 | 15.00939 | 174° | 18km/h | 25085m | 4.4m/s | -50.1°C | 0.3% | 26.6hPa | 2.5V | 18:12:15 | 01:52:58 | 00:00:00 | |
| AA1-15 | 2026-09-04 00:12:29 | 53.57329 | 15.00939 | 179° | 15km/h | 25079m | 6.7m/s | -50.1°C | 0.3% | 26.7hPa | 2.5V | 18:12:15 | 01:52:57 | 00:00:00 | |
| DF8AY | 2026-09-04 00:12:19 | 53.57377 | 15.00940 | 169° | 27km/h | 25025m | 6.5m/s | -50.1°C | 0.3% | 26.9hPa | 2.5V | 18:12:15 | 01:52:47 | 00:00:00 | |
| AA1-15 | 2026-09-04 00:12:18 | 53.57384 | 15.00937 | 164° | 29km/h | 25020m | 5.2m/s | -50.1°C | 0.4% | 26.9hPa | 2.5V | 18:12:15 | 01:52:46 | 00:00:00 | |
| DF8AY | 2026-09-04 00:12:10 | 53.57447 | 15.00858 | 131° | 27km/h | 24937m | 4.7m/s | -49.8°C | 0.2% | 27.2hPa | 2.5V | 18:12:15 | 01:52:31 | 00:00:00 | |
| DL1XH-15 | 2026-09-04 00:12:10 | 53.57425 | 15.00887 | 154° | 20km/h | 24966m | 6.4m/s | -49.9°C | 3.4% | 27.1hPa | 2.5V | 08:30:00 | 01:52:36 | 00:00:00 | |
| AA1-15 | 2026-09-04 00:12:07 | 53.57429 | 15.00883 | 151° | 18km/h | 24959m | 5.4m/s | -49.9°C | 0.2% | 27.1hPa | 2.5V | 18:12:15 | 01:52:35 | 00:00:00 | |
| KRY50SP | 2026-09-04 00:12:04 | 53.57437 | 15.00873 | 144° | 22km/h | 24948m | 6.3m/s | -49.9°C | 0.8% | 27.2hPa | 2.5V | 00:00:00 | 00:00:00 | 00:00:00 | |
| DL1XH-15 | 2026-09-04 00:12:03 | 53.57460 | 15.00816 | 126° | 18km/h | 24910m | 5.7m/s | -50°C | 3.3% | 27.4hPa | 2.5V | 08:30:00 | 01:52:26 | 00:00:00 | |
| DL1XH-west | 2026-09-04 00:11:59 | 53.57457 | 15.00824 | 116° | 20km/h | 24916m | 4.8m/s | -49.9°C | 0.2% | 27.3hPa | 2.6V | 18:12:15 | 01:52:27 | 00:00:00 | |
| AA1-15 | 2026-09-04 00:11:56 | 53.57467 | 15.00808 | 159° | 16km/h | 24901m | 4.9m/s | -50°C | 0.2% | 27.4hPa | 2.5V | 18:12:15 | 01:52:24 | 00:00:00 | |
| DF8AY | 2026-09-04 00:11:54 | 53.57483 | 15.00810 | 182° | 15km/h | 24872m | 5.7m/s | -50.3°C | 0.2% | 27.5hPa | 2.5V | 18:12:15 | 01:52:19 | 00:00:00 | |
| DJ2DS-15 | 2026-09-04 00:11:54 | 53.57474 | 15.00806 | 192° | 11km/h | 24889m | 6.0m/s | -50.1°C | 0.8% | 27.4hPa | 2.6V | 00:00:00 | 00:00:00 | 00:00:00 | |
| KRY50SP | 2026-09-04 00:11:52 | 53.57477 | 15.00808 | 202° | 11km/h | 24884m | 4.9m/s | -50.2°C | 0.8% | 27.5hPa | 2.6V | 00:00:00 | 00:00:00 | 00:00:00 | |
| DL2RXE-15 | 2026-09-04 00:11:51 | 53.57479 | 15.00809 | 198° | 13km/h | 24878m | 5.2m/s | -50.2°C | 0% | 0hPa | 2.6V | 00:00:00 | 00:00:00 | 00:00:00 | |
| DJ2DS-15 | 2026-09-04 00:11:50 | 53.57487 | 15.00810 | 167° | 13km/h | 24867m | 4.6m/s | -50.3°C | 3.4% | 27.5hPa | 2.6V | 00:00:00 | 01:52:18 | 00:00:00 | |
| DL1XH1-15 | 2026-09-04 00:11:48 | 53.57505 | 15.00782 | 131° | 18km/h | 24835m | 5.9m/s | -50.6°C | 3.4% | 27.7hPa | 2.6V | 08:30:00 | 01:52:12 | 00:00:00 | |
| DL1XH-west | 2026-09-04 00:11:48 | 53.57494 | 15.00803 | 142° | 16km/h | 24857m | 6.2m/s | -50.4°C | 0.2% | 27.6hPa | 2.6V | 18:12:15 | 01:52:16 | 00:00:00 | |
| KRY50SP | 2026-09-04 00:11:47 | 53.57494 | 15.00803 | 143° | 16km/h | 24857m | 6.2m/s | -50.4°C | 0.8% | 27.6hPa | 2.5V | 00:00:00 | 00:00:00 | 00:00:00 | |
| DM0DOS-11 | 2026-09-04 00:11:46 | 53.57514 | 15.00767 | 132° | 13km/h | 24820m | 6m/s | 0°C | 0% | 0hPa | 2.5V | 00:00:00 | 01:52:09 | 00:00:00 | |
| AA1-15 | 2026-09-04 00:11:46 | 53.57500 | 15.00793 | 124° | 16km/h | 24845m | 4.9m/s | -50.5°C | 0.2% | 27.6hPa | 2.5V | 18:12:15 | 01:52:14 | 00:00:00 | |
| DF8AY | 2026-09-04 00:11:44 | 53.57516 | 15.00763 | 126° | 11km/h | 24815m | 5.2m/s | -50.8°C | 0.3% | 27.8hPa | 2.5V | 18:12:15 | 01:52:08 | 00:00:00 | |
| DL1XH-15 | 2026-09-04 00:11:43 | 53.57519 | 15.00757 | 140° | 11km/h | 24804m | 6.2m/s | -50.8°C | 3.5% | 27.8hPa | 2.6V | 08:30:00 | 01:52:06 | 00:00:00 | |
| DL1XH-west | 2026-09-04 00:11:38 | 53.57519 | 15.00757 | 141° | 11km/h | 24804m | 6.2m/s | -50.8°C | 0.3% | 27.8hPa | 2.6V | 18:12:15 | 01:52:06 | 00:00:00 | |
| AM1SDL-15 | 2026-09-04 00:11:36 | 53.57524 | 15.00753 | 163° | 7km/h | 24794m | 4.3m/s | -50.8°C | 3.5% | 27.8hPa | 2.5V | 00:00:00 | 01:52:04 | 00:00:00 | |
| DM0DOS-11 | 2026-09-04 00:11:35 | 53.57532 | 15.00744 | 142° | 9km/h | 24761m | 5.7m/s | 0°C | 0% | 0hPa | 2.5V | 00:00:00 | 01:51:58 | 00:00:00 | |
| AA1-15 | 2026-09-04 00:11:35 | 53.57527 | 15.00752 | 164° | 9km/h | 24789m | 5m/s | -50.9°C | 0.4% | 27.9hPa | 2.5V | 18:12:15 | 01:52:03 | 00:00:00 | |
| DF8AY | 2026-09-04 00:11:33 | 53.57529 | 15.00749 | 134° | 4km/h | 24777m | 5.3m/s | -50.9°C | 0.3% | 27.9hPa | 2.6V | 18:12:15 | 01:52:01 | 00:00:00 | |
| DL1XH-west | 2026-09-04 00:11:27 | 53.57537 | 15.00742 | 191° | 7km/h | 24745m | 5.2m/s | -51°C | 0.3% | 28.1hPa | 2.6V | 18:12:15 | 01:51:55 | 00:00:00 | |
| DL1XH1-15 | 2026-09-04 00:11:27 | 53.57552 | 15.00749 | 206° | 13km/h | 24718m | 6m/s | -51.1°C | 3.5% | 28.2hPa | 2.5V | 08:30:00 | 01:51:50 | 00:00:00 | |
| SP3BTT-10 | 2026-09-04 00:11:26 | 53.57539 | 15.00742 | 197° | 22km/h | 24740m | 4.9m/s | -50.9°C | 3.5% | 28.0hPa | 2.5V | 00:00:00 | 00:00:00 | 00:00:00 | |
| DL1XH-15 | 2026-09-04 00:11:25 | 53.57549 | 15.00747 | 197° | 15km/h | 24723m | 5m/s | -51.1°C | 3.5% | 28.2hPa | 2.5V | 08:30:00 | 01:51:51 | 00:00:00 | |
| AA1-15 | 2026-09-04 00:11:24 | 53.57545 | 15.00745 | 194° | 15km/h | 24729m | 5.6m/s | -51°C | 0.4% | 28.1hPa | 2.5V | 18:12:15 | 01:51:52 | 00:00:00 | |
| DF8AY | 2026-09-04 00:11:22 | 53.57552 | 15.00749 | 206° | 13km/h | 24718m | 6m/s | -51.1°C | 0.4% | 28.2hPa | 2.5V | 18:12:15 | 01:51:50 | 00:00:00 | |
| KRY50SP | 2026-09-04 00:11:19 | 53.57556 | 15.00754 | 244° | 7km/h | 24707m | 4.6m/s | -51.1°C | 0.9% | 28.2hPa | 2.6V | 00:00:00 | 00:00:00 | 00:00:00 | |
| DL1XH1-15 | 2026-09-04 00:11:17 | 53.57562 | 15.00760 | 208° | 9km/h | 24663m | 5.3m/s | -51.3°C | 3.6% | 28.4hPa | 2.6V | 08:30:00 | 01:51:40 | 00:00:00 | |
| DL1XH-west | 2026-09-04 00:11:16 | 53.57559 | 15.00758 | 163° | 4km/h | 24685m | 5.7m/s | -51.3°C | 0.4% | 28.3hPa | 2.5V | 18:12:15 | 01:51:44 | 00:00:00 | |
| DL1XH-15 | 2026-09-04 00:11:15 | 53.57561 | 15.00759 | 219° | 5km/h | 24668m | 3.9m/s | -51.3°C | 3.7% | 28.4hPa | 2.5V | 08:30:00 | 01:51:41 | 00:00:00 | |
| AA1-15 | 2026-09-04 00:11:13 | 53.57561 | 15.00759 | 220° | 5km/h | 24668m | 3.9m/s | -51.3°C | 0.5% | 28.4hPa | 2.5V | 18:12:15 | 01:51:41 | 00:00:00 | |
| DF8AY | 2026-09-04 00:11:12 | 53.57562 | 15.00760 | 208° | 9km/h | 24663m | 5.3m/s | -51.3°C | 0.4% | 28.4hPa | 2.6V | 18:12:15 | 01:51:40 | 00:00:00 | |
| SONDE2-11 | 2026-09-04 00:11:11 | 53.57565 | 15.00762 | 198° | 13km/h | 24657m | 6.6m/s | -51.2°C | 0.9% | 28.4hPa | 2.5V | 00:00:00 | 00:00:00 | 00:00:00 | |
| DM0DOS-11 | 2026-09-04 00:11:08 | 53.57577 | 15.00769 | 199° | 16km/h | 24639m | 5.9m/s | 0°C | 0% | 0hPa | 2.5V | 00:00:00 | 01:51:36 | 00:00:00 | |
| DL1XH1-15 | 2026-09-04 00:11:07 | 53.57604 | 15.00774 | 182° | 18km/h | 24608m | 6.3m/s | -50.9°C | 3.5% | 28.6hPa | 2.6V | 08:30:00 | 01:51:30 | 00:00:00 | |
| DL1XH-west | 2026-09-04 00:11:06 | 53.57585 | 15.00773 | 189° | 16km/h | 24630m | 4.5m/s | -51°C | 0.4% | 28.6hPa | 2.6V | 18:12:15 | 01:51:34 | 00:00:00 | |
| DL1XH-15 | 2026-09-04 00:11:05 | 53.57599 | 15.00774 | 179° | 20km/h | 24614m | 5.4m/s | -50.9°C | 3.5% | 28.6hPa | 2.5V | 08:30:00 | 01:51:31 | 00:00:00 | |
| AA1-15 | 2026-09-04 00:11:03 | 53.57599 | 15.00774 | 179° | 20km/h | 24614m | 5.4m/s | -50.9°C | 0.4% | 28.6hPa | 2.5V | 18:12:15 | 01:51:31 | 00:00:00 | |
| DF8AY | 2026-09-04 00:11:02 | 53.57604 | 15.00774 | 182° | 18km/h | 24608m | 6.3m/s | -50.9°C | 0.3% | 28.7hPa | 2.6V | 18:12:15 | 01:51:30 | 00:00:00 | |
| AM1SDL-15 | 2026-09-04 00:11:00 | 53.57612 | 15.00776 | 195° | 20km/h | 24597m | 4.3m/s | -50.8°C | 3.5% | 28.7hPa | 2.5V | 00:00:00 | 01:51:28 | 08:30:00 | |
| DL2RXE-15 | 2026-09-04 00:10:58 | 53.57620 | 15.00779 | 191° | 18km/h | 24586m | 6.2m/s | -50.8°C | 0.9% | 28.8hPa | 2.5V | 00:00:00 | 00:00:00 | 00:00:00 | |
| DL1XH-15 | 2026-09-04 00:10:55 | 53.57644 | 15.00784 | 181° | 18km/h | 24559m | 5.1m/s | -50.7°C | 3.5% | 28.8hPa | 2.5V | 08:30:00 | 01:51:21 | 00:00:00 | |
| DL1XH-west | 2026-09-04 00:10:55 | 53.57635 | 15.00783 | 190° | 20km/h | 24570m | 6.3m/s | -50.8°C | 0.3% | 28.8hPa | 2.6V | 18:12:15 | 01:51:23 | 00:00:00 | |
| AA1-15 | 2026-09-04 00:10:52 | 53.57649 | 15.00784 | 177° | 20km/h | 24553m | 6.5m/s | -50.7°C | 0.3% | 28.9hPa | 2.5V | 18:12:15 | 01:51:20 | 00:00:00 | |
| KRY50SP | 2026-09-04 00:10:51 | 53.57649 | 15.00784 | 178° | 20km/h | 24553m | 6.5m/s | -50.7°C | 0.9% | 28.9hPa | 2.6V | 00:00:00 | 00:00:00 | 00:00:00 | |
| DJ2DS-15 | 2026-09-04 00:10:50 | 53.57660 | 15.00782 | 176° | 24km/h | 24542m | 4.8m/s | -50.7°C | 3.5% | 28.9hPa | 2.6V | 00:00:00 | 01:51:18 | 00:00:00 | |
| AM1SDL-15 | 2026-09-04 00:10:48 | 53.57671 | 15.00782 | 184° | 22km/h | 24530m | 4.7m/s | -50.6°C | 3.5% | 29.0hPa | 2.6V | 00:00:00 | 01:51:16 | 00:00:00 | |
| KRY50SP | 2026-09-04 00:10:46 | 53.57676 | 15.00783 | 185° | 22km/h | 24525m | 5.1m/s | -50.7°C | 0.9% | 29.0hPa | 2.6V | 00:00:00 | 00:00:00 | 00:00:00 | |
| DL1XH1-15 | 2026-09-04 00:10:45 | 53.57719 | 15.00772 | 158° | 27km/h | 24483m | 6.2m/s | -50.6°C | 3.4% | 29.2hPa | 2.6V | 08:30:00 | 01:51:07 | 00:00:00 | |
| DL1XH-west | 2026-09-04 00:10:44 | 53.57693 | 15.00783 | 178° | 22km/h | 24508m | 4.6m/s | -50.6°C | 0.3% | 29.1hPa | 2.5V | 18:12:15 | 01:51:12 | 00:00:00 | |
| AA1-15 | 2026-09-04 00:10:41 | 53.57708 | 15.00779 | 161° | 20km/h | 24493m | 4.2m/s | -50.6°C | 0.3% | 29.1hPa | 2.5V | 18:12:15 | 01:51:09 | 00:00:00 | |
| DF8AY | 2026-09-04 00:10:40 | 53.57713 | 15.00776 | 159° | 22km/h | 24489m | 5.1m/s | -50.6°C | 0.3% | 29.1hPa | 2.6V | 18:12:15 | 01:51:08 | 00:00:00 | |
| EDDB2-11 | 2026-09-04 00:10:39 | 53.57725 | 15.00768 | 162° | 31km/h | 24477m | 5.0m/s | -50.7°C | 0.9% | 29.2hPa | 2.6V | 00:00:00 | 00:00:00 | 00:00:00 | |
| DL2RXE-15 | 2026-09-04 00:10:37 | 53.57725 | 15.00768 | 163° | 31km/h | 24478m | 5.0m/s | -50.7°C | 0% | 0hPa | 2.6V | 00:00:00 | 00:00:00 | 00:00:00 | |
| AM1SDL-15 | 2026-09-04 00:10:36 | 53.57740 | 15.00761 | 168° | 26km/h | 24468m | 5.5m/s | -50.7°C | 3.5% | 29.2hPa | 2.6V | 00:00:00 | 01:51:04 | 00:00:00 | |
| KRY50SP | 2026-09-04 00:10:35 | 53.57747 | 15.00759 | 171° | 27km/h | 24462m | 5.7m/s | -50.7°C | 0.9% | 29.3hPa | 2.6V | 00:00:00 | 00:00:00 | 00:00:00 | |
| DL1XH1-15 | 2026-09-04 00:10:34 | 53.57785 | 15.00748 | 164° | 27km/h | 24432m | 4.2m/s | -50.7°C | 3.5% | 29.4hPa | 2.6V | 08:30:00 | 01:50:57 | 00:00:00 | |
| DL1XH-west | 2026-09-04 00:10:34 | 53.57754 | 15.00757 | 171° | 24km/h | 24457m | 4.9m/s | -50.7°C | 0.3% | 29.3hPa | 2.6V | 18:12:15 | 01:51:02 | 00:00:00 | |
| AA1-15 | 2026-09-04 00:10:31 | 53.57772 | 15.00753 | 171° | 27km/h | 24442m | 5.2m/s | -50.7°C | 0.3% | 29.4hPa | 2.5V | 18:12:15 | 01:50:59 | 00:00:00 | |
| DF8AY | 2026-09-04 00:10:29 | 53.57785 | 15.00748 | 165° | 27km/h | 24432m | 4.3m/s | -50.7°C | 0.3% | 29.4hPa | 2.6V | 18:12:15 | 01:50:57 | 00:00:00 | |
| SONCRA | 2026-09-04 00:10:28 | 53.57797 | 15.00741 | 154° | 22km/h | 24422m | 5.8m/s | -50.8°C | 0.9% | 29.4hPa | 2.5V | 00:00:00 | 00:00:00 | 00:00:00 | |
| DL1XH-15 | 2026-09-04 00:10:25 | 53.57811 | 15.00727 | 150° | 24km/h | 24406m | 5.6m/s | -50.9°C | 3.5% | 29.5hPa | 2.5V | 08:30:00 | 01:50:52 | 00:00:00 | |
| DO2SHX-10 | 2026-09-04 00:10:24 | 53.57811 | 15.00727 | 151° | 24km/h | 24407m | 5.6m/s | -50.8°C | 3.5% | 29.5hPa | 2.5V | 00:00:00 | 01:50:52 | 00:00:00 | |
| SP3BTT-10 | 2026-09-04 00:10:23 | 53.57817 | 15.00722 | 152° | 22km/h | 24401m | 5.2m/s | -50.8°C | 3.5% | 29.5hPa | 2.5V | 00:00:00 | 00:00:00 | 00:00:00 | |
| DO2SHX-10 | 2026-09-04 00:10:21 | 53.57828 | 15.00713 | 157° | 20km/h | 24391m | 6.0m/s | -50.8°C | 3.5% | 29.5hPa | 2.5V | 00:00:00 | 01:50:49 | 00:00:00 | |
| KRY50SP | 2026-09-04 00:10:19 | 53.57837 | 15.00707 | 161° | 18km/h | 24381m | 3.8m/s | -50.9°C | 0.9% | 29.7hPa | 2.5V | 00:00:00 | 00:00:00 | 00:00:00 | |
| DL1XH1-15 | 2026-09-04 00:10:18 | 53.57856 | 15.00692 | 148° | 18km/h | 24361m | 5m/s | -50.9°C | 3.5% | 29.8hPa | 2.5V | 08:30:00 | 01:50:43 | 00:00:00 | |
| DO2SHX-10 | 2026-09-04 00:10:18 | 53.57842 | 15.00704 | 160° | 22km/h | 24376m | 6.1m/s | -50.8°C | 3.5% | 29.6hPa | 2.5V | 00:00:00 | 01:50:46 | 08:30:00 | |
| DO2SHX-10 | 2026-09-04 00:10:15 | 53.57856 | 15.00692 | 149° | 15km/h | 24362m | 4.9m/s | -50.8°C | 3.5% | 29.7hPa | 2.5V | 00:00:00 | 01:50:43 | 00:00:00 | |
| DO2SHX-10 | 2026-09-04 00:10:12 | 53.57865 | 15.00682 | 142° | 13km/h | 24346m | 4.6m/s | -50.9°C | 3.6% | 29.8hPa | 2.5V | 00:00:00 | 01:50:40 | 00:00:00 | |
| DJ2DS-15 | 2026-09-04 00:10:10 | 53.57870 | 15.00676 | 148° | 13km/h | 24335m | 5.7m/s | -50.9°C | 3.5% | 29.8hPa | 2.5V | 00:00:00 | 01:50:38 | 08:30:00 | |
| DL4BBY-15 | 2026-09-04 00:10:09 | 53.57873 | 15.00673 | 148° | 16km/h | 24329m | 4.7m/s | -50.2°C | 0% | 0hPa | 2.5V | 00:00:00 | 00:00:00 | 00:00:00 | |
| DL1XH-15 | 2026-09-04 00:10:06 | 53.57887 | 15.00655 | 136° | 16km/h | 24303m | 6m/s | -51.1°C | 3.5% | 30hPa | 2.5V | 08:30:00 | 01:50:32 | 00:00:00 | |
| DO2SHX-10 | 2026-09-04 00:10:05 | 53.57884 | 15.00659 | 139° | 16km/h | 24309m | 4.7m/s | -51.0°C | 3.5% | 29.9hPa | 2.5V | 00:00:00 | 01:50:33 | 00:00:00 | |
| DL1XH-west | 2026-09-04 00:10:01 | 53.57897 | 15.00639 | 135° | 18km/h | 24288m | 5.1m/s | -51.2°C | 0.4% | 30.1hPa | 2.5V | 18:12:15 | 01:50:29 | 00:00:00 | |
| AA1-15 | 2026-09-04 00:09:59 | 53.57902 | 15.00630 | 123° | 11km/h | 24278m | 4.5m/s | -51.2°C | 0.4% | 30.1hPa | 2.6V | 18:12:15 | 01:50:27 | 00:00:00 | |
| DF8AY | 2026-09-04 00:09:57 | 53.57906 | 15.00620 | 120° | 15km/h | 24268m | 5.7m/s | -51.2°C | 0.4% | 30.2hPa | 2.5V | 18:12:15 | 01:50:25 | 00:00:00 | |
| DL1XH-west | 2026-09-04 00:09:51 | 53.57913 | 15.00602 | 160° | 7km/h | 24237m | 5.2m/s | -51.1°C | 0.4% | 30.3hPa | 2.5V | 18:12:15 | 01:50:19 | 00:00:00 | |
| AA1-15 | 2026-09-04 00:09:48 | 53.57925 | 15.00597 | 170° | 18km/h | 24223m | 4.2m/s | -51°C | 0.4% | 30.4hPa | 2.5V | 18:12:15 | 01:50:16 | 00:00:00 | |
| DF8AY | 2026-09-04 00:09:46 | 53.57933 | 15.00596 | 184° | 11km/h | 24213m | 5m/s | -51°C | 0.3% | 30.4hPa | 2.6V | 18:12:15 | 01:50:14 | 00:00:00 | |
| DL1XH1-15 | 2026-09-04 00:09:46 | 53.57941 | 15.00590 | 140° | 11km/h | 24187m | 4.6m/s | -50.9°C | 3.5% | 30.5hPa | 2.5V | 08:30:00 | 01:50:09 | 00:00:00 | |
| DL1XH-west | 2026-09-04 00:09:41 | 53.57942 | 15.00590 | 141° | 11km/h | 24187m | 4.6m/s | -50.9°C | 0.4% | 30.5hPa | 2.5V | 18:12:15 | 01:50:09 | 00:00:00 | |
| AM1SDL-15 | 2026-09-04 00:09:36 | 53.57956 | 15.00590 | 192° | 16km/h | 24164m | 5.6m/s | -50.8°C | 3.5% | 30.6hPa | 2.6V | 00:00:00 | 01:50:04 | 00:00:00 | |
| KRY50SP | 2026-09-04 00:09:34 | 53.57967 | 15.00592 | 183° | 24km/h | 24153m | 4.7m/s | -50.8°C | 0.9% | 30.7hPa | 2.6V | 00:00:00 | 00:00:00 | 00:00:00 | |
| SP3BTT-10 | 2026-09-04 00:09:30 | 53.57988 | 15.00596 | 188° | 18km/h | 24133m | 4.3m/s | -50.9°C | 3.5% | 30.7hPa | 2.6V | 00:00:00 | 00:00:00 | 00:00:00 | |
| KRY50SP | 2026-09-04 00:09:27 | 53.57995 | 15.00595 | 168° | 15km/h | 24122m | 5.4m/s | -51.1°C | 0.9% | 30.8hPa | 2.6V | 00:00:00 | 00:00:00 | 00:00:00 | |
| DF8AY | 2026-09-04 00:09:25 | 53.58005 | 15.00592 | 181° | 13km/h | 24107m | 5.5m/s | -51.2°C | 0.4% | 30.9hPa | 2.6V | 18:12:15 | 01:49:53 | 00:00:00 | |
| DL1XH1-15 | 2026-09-04 00:09:25 | 53.58029 | 15.00595 | 177° | 29km/h | 24083m | 4.9m/s | -51.3°C | 3.6% | 31.1hPa | 2.5V | 08:30:00 | 01:49:48 | 00:00:00 | |
| DL1XH-west | 2026-09-04 00:09:19 | 53.58037 | 15.00594 | 180° | 31km/h | 24078m | 5.2m/s | -51.3°C | 0.4% | 31.1hPa | 2.5V | 18:12:15 | 01:49:47 | 00:00:00 | |
| AA1-15 | 2026-09-04 00:09:16 | 53.58059 | 15.00596 | 181° | 29km/h | 24065m | 4.5m/s | -51.2°C | 0.4% | 31.1hPa | 2.6V | 18:12:15 | 01:49:44 | 00:00:00 | |
| KRY50SP | 2026-09-04 00:09:15 | 53.58059 | 15.00595 | 182° | 29km/h | 24065m | 4.5m/s | -51.2°C | 0.9% | 31.1hPa | 2.6V | 00:00:00 | 00:00:00 | 00:00:00 | |
| DL1XH1-15 | 2026-09-04 00:09:10 | 53.58098 | 15.00586 | 176° | 24km/h | 24035m | 3.9m/s | -51.2°C | 3.6% | 31.3hPa | 2.6V | 08:30:00 | 01:49:38 | 00:00:00 | |
| DJ2DS-15 | 2026-09-04 00:09:09 | 53.58104 | 15.00585 | 173° | 26km/h | 24031m | 5.1m/s | -51.2°C | 3.6% | 31.2hPa | 2.5V | 00:00:00 | 01:49:37 | 00:00:00 | |
| SONDE2-11 | 2026-09-04 00:09:07 | 53.58132 | 15.00577 | 173° | 27km/h | 24011m | 5.2m/s | -51.2°C | 0.9% | 31.4hPa | 2.6V | 00:00:00 | 00:00:00 | 00:00:00 | |
| DL1XH1-15 | 2026-09-04 00:09:05 | 53.58164 | 15.00566 | 155° | 22km/h | 23986m | 4.2m/s | -51.2°C | 3.6% | 31.5hPa | 2.6V | 08:30:00 | 01:49:28 | 00:00:00 | |
| AA1-15 | 2026-09-04 00:09:05 | 53.58132 | 15.00577 | 174° | 29km/h | 24011m | 5.2m/s | -51.2°C | 0.4% | 31.4hPa | 2.6V | 18:12:15 | 01:49:33 | 00:00:00 | |
| DL1XH-west | 2026-09-04 00:08:58 | 53.58174 | 15.00558 | 162° | 20km/h | 23976m | 4.5m/s | -51.1°C | 0.3% | 31.6hPa | 2.5V | 18:12:15 | 01:49:26 | 00:00:00 | |
| DO2SHX-10 | 2026-09-04 00:08:57 | 53.58179 | 15.00555 | 159° | 22km/h | 23972m | 4.2m/s | -51.1°C | 3.5% | 31.5hPa | 2.5V | 00:00:00 | 01:49:25 | 00:00:00 | |
| DL1XH1-15 | 2026-09-04 00:08:55 | 53.58220 | 15.00525 | 158° | 27km/h | 23936m | 4.9m/s | -51.4°C | 3.5% | 31.7hPa | 2.5V | 08:30:00 | 01:49:18 | 00:00:00 | |
| AA1-15 | 2026-09-04 00:08:54 | 53.58196 | 15.00541 | 151° | 27km/h | 23956m | 4.5m/s | -51.2°C | 0.3% | 31.7hPa | 2.6V | 18:12:15 | 01:49:22 | 00:00:00 | |
| DL1XH-west | 2026-09-04 00:08:48 | 53.58231 | 15.00514 | 146° | 29km/h | 23925m | 4.5m/s | -51.4°C | 0.4% | 31.8hPa | 2.6V | 18:12:15 | 01:49:16 | 00:00:00 | |
| DJ2DS-15 | 2026-09-04 00:08:48 | 53.58231 | 15.00514 | 146° | 22km/h | 23926m | 4.4m/s | -51.4°C | 3.6% | 31.7hPa | 2.5V | 00:00:00 | 01:49:16 | 00:00:00 | |
| DL1XH-15 | 2026-09-04 00:08:45 | 53.58245 | 15.00494 | 137° | 20km/h | 23911m | 5.2m/s | -51.5°C | 3.6% | 31.9hPa | 2.5V | 08:30:00 | 01:49:13 | 00:00:00 | |
| AA1-15 | 2026-09-04 00:08:44 | 53.58249 | 15.00488 | 131° | 18km/h | 23906m | 4.6m/s | -51.5°C | 0.4% | 31.9hPa | 2.5V | 18:12:15 | 01:49:12 | 00:00:00 | |
| DF8AY | 2026-09-04 00:08:43 | 53.58252 | 15.00481 | 129° | 20km/h | 23901m | 5.6m/s | -51.5°C | 0.4% | 31.9hPa | 2.5V | 18:12:15 | 01:49:11 | 00:00:00 | |
| KRY50SP | 2026-09-04 00:08:43 | 53.58252 | 15.00481 | 130° | 20km/h | 23902m | 5.6m/s | -51.5°C | 0.9% | 31.9hPa | 2.6V | 00:00:00 | 00:00:00 | 00:00:00 | |
| DO2SHX-10 | 2026-09-04 00:08:41 | 53.58260 | 15.00465 | 128° | 26km/h | 23891m | 4.2m/s | -51.5°C | 3.6% | 31.9hPa | 2.6V | 00:00:00 | 01:49:09 | 00:00:00 | |
| DL1XH1-15 | 2026-09-04 00:08:38 | 53.58284 | 15.00418 | 126° | 26km/h | 23861m | 4.7m/s | -51.7°C | 3.6% | 32.1hPa | 2.5V | 08:30:00 | 01:49:03 | 00:00:00 | |
| DL1XH-west | 2026-09-04 00:08:37 | 53.58276 | 15.00434 | 135° | 24km/h | 23872m | 4.5m/s | -51.6°C | 0.4% | 32hPa | 2.5V | 18:12:15 | 01:49:05 | 00:00:00 | |
| DO2SHX-10 | 2026-09-04 00:08:37 | 53.58276 | 15.00434 | 135° | 24km/h | 23872m | 4.5m/s | -51.6°C | 3.6% | 32.0hPa | 2.6V | 00:00:00 | 01:49:05 | 00:00:00 | |
| SONDE2-11 | 2026-09-04 00:08:36 | 53.58280 | 15.00427 | 131° | 24km/h | 23867m | 5.5m/s | -51.7°C | 0.9% | 32.1hPa | 2.6V | 00:00:00 | 00:00:00 | 00:00:00 | |
| DL1XH-15 | 2026-09-04 00:08:35 | 53.58291 | 15.00401 | 120° | 22km/h | 23853m | 4.5m/s | -51.7°C | 3.6% | 32.1hPa | 2.6V | 08:30:00 | 01:49:01 | 00:00:00 | |
| AA1-15 | 2026-09-04 00:08:34 | 53.58288 | 15.00410 | 123° | 24km/h | 23857m | 3.9m/s | -51.7°C | 0.4% | 32.1hPa | 2.6V | 18:12:15 | 01:49:02 | 00:00:00 | |
| DF8AY | 2026-09-04 00:08:33 | 53.58293 | 15.00394 | 117° | 18km/h | 23848m | 5.8m/s | -51.7°C | 0.4% | 32.2hPa | 2.5V | 18:12:15 | 01:49:00 | 00:00:00 | |
| DO2SHX-10 | 2026-09-04 00:08:30 | 53.58296 | 15.00382 | 103° | 16km/h | 23838m | 4.6m/s | -51.8°C | 3.6% | 32.2hPa | 2.5V | 00:00:00 | 01:48:58 | 00:00:00 | |
| DL1XH1-15 | 2026-09-04 00:08:28 | 53.58300 | 15.00344 | 108° | 18km/h | 23813m | 4.6m/s | -51.9°C | 3.6% | 32.3hPa | 2.5V | 08:30:00 | 01:48:53 | 00:00:00 | |
| DL1XH-west | 2026-09-04 00:08:27 | 53.58297 | 15.00359 | 102° | 20km/h | 23822m | 4.4m/s | -52°C | 0.4% | 32.3hPa | 2.6V | 18:12:15 | 01:48:55 | 00:00:00 | |
| AA1-15 | 2026-09-04 00:08:23 | 53.58303 | 15.00330 | 110° | 18km/h | 23804m | 5.2m/s | -52°C | 0.4% | 32.4hPa | 2.5V | 18:12:15 | 01:48:51 | 00:00:00 | |
| DF8AY | 2026-09-04 00:08:22 | 53.58306 | 15.00314 | 111° | 20km/h | 23794m | 4.1m/s | -52°C | 0.5% | 32.4hPa | 2.6V | 18:12:15 | 01:48:49 | 00:00:00 | |
| KRY50SP | 2026-09-04 00:08:19 | 53.58308 | 15.00299 | 91° | 15km/h | 23785m | 5.4m/s | -52.1°C | 1.0% | 32.5hPa | 2.6V | 00:00:00 | 00:00:00 | 00:00:00 | |
| DL1XH1-15 | 2026-09-04 00:08:18 | 53.58299 | 15.00274 | 56° | 24km/h | 23765m | 5.2m/s | -52.3°C | 3.8% | 32.6hPa | 2.6V | 08:30:00 | 01:48:43 | 00:00:00 | |
| DL1XH-west | 2026-09-04 00:08:16 | 53.58302 | 15.00281 | 48° | 20km/h | 23770m | 5.4m/s | -52.2°C | 0.4% | 32.6hPa | 2.5V | 18:12:15 | 01:48:44 | 00:00:00 | |
| AA1-15 | 2026-09-04 00:08:13 | 53.58294 | 15.00257 | 75° | 20km/h | 23756m | 4m/s | -52.3°C | 0.5% | 32.6hPa | 2.6V | 18:12:15 | 01:48:41 | 00:00:00 | |
| DF8AY | 2026-09-04 00:08:12 | 53.58293 | 15.00249 | 83° | 18km/h | 23751m | 5.1m/s | -52.3°C | 0.5% | 32.6hPa | 2.5V | 18:12:15 | 01:48:40 | 00:00:00 | |
| DL1XH1-15 | 2026-09-04 00:08:09 | 53.58307 | 15.00209 | 117° | 16km/h | 23716m | 5.6m/s | -52.3°C | 3.6% | 32.8hPa | 2.6V | 08:30:00 | 01:48:33 | 00:00:00 | |
| DL1XH-west | 2026-09-04 00:08:05 | 53.58307 | 15.00209 | 117° | 16km/h | 23716m | 5.6m/s | -52.3°C | 0.4% | 32.8hPa | 2.6V | 18:12:15 | 01:48:33 | 00:00:00 | |
| AA1-15 | 2026-09-04 00:08:02 | 53.58310 | 15.00191 | 92° | 16km/h | 23702m | 5.4m/s | -52.5°C | 0.5% | 32.9hPa | 2.5V | 18:12:15 | 01:48:30 | 00:00:00 | |
| SP3WXH-11 | 2026-09-04 00:07:59 | 53.58311 | 15.00168 | 102° | 16km/h | 23685m | 5.4m/s | -52.6°C | 1.0% | 33.0hPa | 2.5V | 00:00:00 | 00:00:00 | 00:00:00 | |
| DL1XH1-15 | 2026-09-04 00:07:58 | 53.58323 | 15.00144 | 145° | 24km/h | 23666m | 5.5m/s | -52.8°C | 3.9% | 33.1hPa | 2.5V | 08:30:00 | 01:48:23 | 00:00:00 | |
| DL1XH-west | 2026-09-04 00:07:55 | 53.58323 | 15.00144 | 146° | 24km/h | 23666m | 5.5m/s | -52.8°C | 0.6% | 33.1hPa | 2.5V | 18:12:15 | 01:48:23 | 00:00:00 | |
| AA1-15 | 2026-09-04 00:07:52 | 53.58340 | 15.00127 | 150° | 24km/h | 23651m | 5.9m/s | -52.7°C | 0.5% | 33.2hPa | 2.6V | 18:12:15 | 01:48:20 | 00:00:00 | |
| KRY50SP | 2026-09-04 00:07:51 | 53.58340 | 15.00127 | 151° | 24km/h | 23651m | 5.9m/s | -52.7°C | 1.0% | 33.2hPa | 2.5V | 00:00:00 | 00:00:00 | 00:00:00 | |
| DL2RXE-15 | 2026-09-04 00:07:50 | 53.58348 | 15.00117 | 142° | 18km/h | 23641m | 4.4m/s | -52.6°C | 1.0% | 33.2hPa | 2.5V | 00:00:00 | 00:00:00 | 00:00:00 | |
| DL1XH1-15 | 2026-09-04 00:07:48 | 53.58361 | 15.00082 | 122° | 22km/h | 23613m | 4.1m/s | -52.5°C | 3.8% | 33.4hPa | 2.5V | 08:30:00 | 01:48:13 | 00:00:00 | |
| DL1XH-west | 2026-09-04 00:07:44 | 53.58364 | 15.00074 | 120° | 24km/h | 23608m | 4.7m/s | -52.5°C | 0.5% | 33.4hPa | 2.5V | 18:12:15 | 01:48:12 | 00:00:00 | |
| AA1-15 | 2026-09-04 00:07:42 | 53.58371 | 15.00055 | 127° | 27km/h | 23598m | 4.7m/s | -52.5°C | 0.6% | 33.4hPa | 2.5V | 18:12:15 | 01:48:10 | 00:00:00 | |
| DL1XH-west | 2026-09-04 00:07:34 | 53.58408 | 15.00001 | 135° | 24km/h | 23560m | 5.4m/s | -52.4°C | 0.5% | 33.7hPa | 2.5V | 18:12:15 | 01:48:02 | 00:00:00 | |
| AA1-15 | 2026-09-04 00:07:31 | 53.58420 | 14.99980 | 135° | 26km/h | 23545m | 4.7m/s | -52.4°C | 0.5% | 33.7hPa | 2.6V | 18:12:15 | 01:47:59 | 00:00:00 | |
| DL1XH-west | 2026-09-04 00:07:23 | 53.58455 | 14.99916 | 126° | 22km/h | 23504m | 5.2m/s | -52.3°C | 0.5% | 34hPa | 2.5V | 18:12:15 | 01:47:51 | 00:00:00 | |
| AA1-15 | 2026-09-04 00:07:21 | 53.58460 | 14.99901 | 118° | 20km/h | 23494m | 5.5m/s | -52.3°C | 0.5% | 34hPa | 2.5V | 18:12:15 | 01:47:49 | 00:00:00 | |
| DF8AY | 2026-09-04 00:07:20 | 53.58463 | 14.99894 | 116° | 16km/h | 23489m | 5.8m/s | -52.4°C | 0.5% | 34hPa | 2.6V | 18:12:15 | 01:47:48 | 00:00:00 | |
| DL1XH-west | 2026-09-04 00:07:13 | 53.58479 | 14.99839 | 113° | 22km/h | 23453m | 5m/s | -52.7°C | 0.5% | 34.2hPa | 2.6V | 18:12:15 | 01:47:41 | 00:00:00 | |
| AA1-15 | 2026-09-04 00:07:10 | 53.58485 | 14.99812 | 105° | 24km/h | 23437m | 4.4m/s | -52.7°C | 0.6% | 34.3hPa | 2.5V | 18:12:15 | 01:47:38 | 00:00:00 | |
| DF8AY | 2026-09-04 00:07:09 | 53.58486 | 14.99802 | 102° | 22km/h | 23432m | 4.9m/s | -52.7°C | 0.6% | 34.3hPa | 2.5V | 18:12:15 | 01:47:37 | 00:00:00 | |
| DL1XH1-15 | 2026-09-04 00:07:08 | 53.58491 | 14.99740 | 96° | 27km/h | 23397m | 4.9m/s | -52.7°C | 3.8% | 34.5hPa | 2.5V | 08:30:00 | 01:47:30 | 00:00:00 | |
| DL1XH-west | 2026-09-04 00:07:03 | 53.58490 | 14.99751 | 97° | 27km/h | 23403m | 4.6m/s | -52.7°C | 0.6% | 34.5hPa | 2.5V | 18:12:15 | 01:47:31 | 00:00:00 | |
| AA1-15 | 2026-09-04 00:07:00 | 53.58492 | 14.99719 | 95° | 24km/h | 23387m | 4.6m/s | -52.7°C | 0.6% | 34.6hPa | 2.6V | 18:12:15 | 01:47:28 | 00:00:00 | |
| DF8AY | 2026-09-04 00:06:59 | 53.58492 | 14.99709 | 93° | 24km/h | 23382m | 4.4m/s | -52.7°C | 0.5% | 34.6hPa | 2.6V | 18:12:15 | 01:47:27 | 00:00:00 | |
| SP3WXH-11 | 2026-09-04 00:06:57 | 53.58492 | 14.99687 | 83° | 27km/h | 23371m | 5.8m/s | -52.6°C | 1.0% | 34.6hPa | 2.5V | 00:00:00 | 00:00:00 | 00:00:00 | |
| DL1XH-15 | 2026-09-04 00:06:55 | 53.58486 | 14.99630 | 78° | 22km/h | 23346m | 4.1m/s | -52.6°C | 3.8% | 34.8hPa | 2.5V | 08:30:00 | 01:47:20 | 00:00:00 | |
| DL1XH1-15 | 2026-09-04 00:06:55 | 53.58484 | 14.99609 | 81° | 27km/h | 23335m | 5.2m/s | -52.6°C | 3.8% | 34.8hPa | 2.6V | 08:30:00 | 01:47:18 | 00:00:00 | |
| DL1XH-west | 2026-09-04 00:06:52 | 53.58486 | 14.99630 | 78° | 24km/h | 23346m | 4.1m/s | -52.6°C | 0.5% | 34.8hPa | 2.5V | 18:12:15 | 01:47:20 | 00:00:00 | |
| AA1-15 | 2026-09-04 00:06:49 | 53.58482 | 14.99598 | 77° | 29km/h | 23330m | 5m/s | -52.6°C | 0.5% | 34.9hPa | 2.6V | 18:12:15 | 01:47:17 | 00:00:00 | |
| DF8AY | 2026-09-04 00:06:48 | 53.58480 | 14.99586 | 71° | 29km/h | 23325m | 5.2m/s | -52.6°C | 0.5% | 34.9hPa | 2.5V | 18:12:15 | 01:47:16 | 00:00:00 | |
| DL1XH-west | 2026-09-04 00:06:42 | 53.58471 | 14.99528 | 82° | 24km/h | 23293m | 4.8m/s | -52.8°C | 0.6% | 35hPa | 2.5V | 18:12:15 | 01:47:10 | 00:00:00 | |
| DL1XH1-15 | 2026-09-04 00:06:40 | 53.58469 | 14.99509 | 69° | 22km/h | 23283m | 5.8m/s | -52.9°C | 3.9% | 35.1hPa | 2.5V | 08:30:00 | 01:47:08 | 00:00:00 | |
| AA1-15 | 2026-09-04 00:06:39 | 53.58466 | 14.99501 | 62° | 22km/h | 23278m | 5.6m/s | -52.9°C | 0.6% | 35.1hPa | 2.6V | 18:12:15 | 01:47:07 | 00:00:00 | |
| DF8AY | 2026-09-04 00:06:38 | 53.58464 | 14.99493 | 58° | 22km/h | 23272m | 4.9m/s | -52.9°C | 0.6% | 35.2hPa | 2.6V | 18:12:15 | 01:47:06 | 00:00:00 | |
| KRY50SP | 2026-09-04 00:06:37 | 53.58464 | 14.99493 | 59° | 20km/h | 23272m | 4.9m/s | -52.9°C | 1.1% | 35.2hPa | 2.5V | 00:00:00 | 00:00:00 | 00:00:00 | |
| AM1SDL-15 | 2026-09-04 00:06:36 | 53.58458 | 14.99476 | 65° | 18km/h | 23262m | 6.3m/s | -52.8°C | 3.9% | 35.2hPa | 2.5V | 00:00:00 | 01:47:04 | 00:00:00 | |
| DL1XH1-15 | 2026-09-04 00:06:35 | 53.58446 | 14.99433 | 49° | 15km/h | 23230m | 4.8m/s | -52.9°C | 3.8% | 35.4hPa | 2.5V | 08:30:00 | 01:46:58 | 00:00:00 | |
| DL1XH-west | 2026-09-04 00:06:32 | 53.58450 | 14.99443 | 59° | 16km/h | 23240m | 5.9m/s | -52.9°C | 0.6% | 35.4hPa | 2.5V | 18:12:15 | 01:47:00 | 00:00:00 | |
| DF8AY | 2026-09-04 00:06:29 | 53.58442 | 14.99423 | 62° | 16km/h | 23219m | 4.9m/s | -52.9°C | 0.6% | 35.5hPa | 2.6V | 18:12:15 | 01:46:56 | 00:00:00 | |
| AA1-15 | 2026-09-04 00:06:29 | 53.58444 | 14.99428 | 57° | 15km/h | 23224m | 5.7m/s | -52.9°C | 0.6% | 35.4hPa | 2.6V | 18:12:15 | 01:46:57 | 00:00:00 | |
| DL1XH-west | 2026-09-04 00:06:21 | 53.58422 | 14.99369 | 69° | 22km/h | 23182m | 4.7m/s | -53°C | 0.6% | 35.7hPa | 2.5V | 18:12:15 | 01:46:49 | 00:00:00 | |
| DL1XH1-15 | 2026-09-04 00:06:20 | 53.58421 | 14.99361 | 65° | 18km/h | 23177m | 6m/s | -52.9°C | 3.9% | 35.7hPa | 2.5V | 08:30:00 | 01:46:48 | 00:00:00 | |
| AA1-15 | 2026-09-04 00:06:18 | 53.58417 | 14.99352 | 63° | 7km/h | 23165m | 4.9m/s | -52.9°C | 0.6% | 35.8hPa | 2.6V | 18:12:15 | 01:46:46 | 00:00:00 | |
| DF8AY | 2026-09-04 00:06:18 | 53.58417 | 14.99349 | 74° | 7km/h | 23160m | 6m/s | -52.9°C | 0.6% | 35.8hPa | 2.6V | 18:12:15 | 01:46:45 | 00:00:00 | |
| DL1XH1-15 | 2026-09-04 00:06:15 | 53.58406 | 14.99320 | 75° | 22km/h | 23124m | 5.5m/s | -53°C | 3.9% | 36hPa | 2.5V | 08:30:00 | 01:46:38 | 00:00:00 | |
| DL1XH-west | 2026-09-04 00:06:11 | 53.58408 | 14.99328 | 61° | 18km/h | 23130m | 6m/s | -52.9°C | 0.6% | 35.9hPa | 2.5V | 18:12:15 | 01:46:39 | 00:00:00 | |
| AA1-15 | 2026-09-04 00:06:08 | 53.58404 | 14.99300 | 86° | 24km/h | 23114m | 4.8m/s | -53°C | 0.7% | 36hPa | 2.6V | 18:12:15 | 01:46:36 | 00:00:00 | |
| DF8AY | 2026-09-04 00:06:07 | 53.58403 | 14.99291 | 83° | 20km/h | 23109m | 5.5m/s | -52.9°C | 0.6% | 36.1hPa | 2.6V | 18:12:15 | 01:46:35 | 00:00:00 | |
| KRY50SP | 2026-09-04 00:06:03 | 53.58401 | 14.99273 | 75° | 9km/h | 23093m | 5.4m/s | -52.9°C | 1.0% | 36.2hPa | 2.5V | 00:00:00 | 00:00:00 | 00:00:00 | |
| DL1XH1-15 | 2026-09-04 00:06:00 | 53.58401 | 14.99259 | 88° | 7km/h | 23070m | 6m/s | -52.8°C | 3.9% | 36.3hPa | 2.5V | 08:30:00 | 01:46:28 | 00:00:00 | |
| DL1XH-west | 2026-09-04 00:06:00 | 53.58401 | 14.99259 | 88° | 7km/h | 23070m | 6m/s | -52.8°C | 0.6% | 36.3hPa | 2.5V | 18:12:15 | 01:46:28 | 00:00:00 | |
| AA1-15 | 2026-09-04 00:05:58 | 53.58399 | 14.99251 | 71° | 15km/h | 23060m | 5.1m/s | -52.7°C | 0.5% | 36.3hPa | 2.5V | 18:12:15 | 01:46:26 | 00:00:00 | |
| DF8AY | 2026-09-04 00:05:56 | 53.58397 | 14.99236 | 80° | 22km/h | 23047m | 5.1m/s | -52.7°C | 0.5% | 36.4hPa | 2.6V | 18:12:15 | 01:46:24 | 00:00:00 | |
| SP3WXH-11 | 2026-09-04 00:05:55 | 53.58396 | 14.99226 | 83° | 22km/h | 23043m | 4.2m/s | -52.7°C | 1.0% | 36.5hPa | 2.5V | 00:00:00 | 00:00:00 | 00:00:00 | |
| DL1XH1-15 | 2026-09-04 00:05:54 | 53.58403 | 14.99186 | 141° | 13km/h | 23006m | 4.9m/s | -52.6°C | 3.8% | 36.6hPa | 2.5V | 08:30:00 | 01:46:16 | 00:00:00 | |
| DL1XH-west | 2026-09-04 00:05:50 | 53.58401 | 14.99190 | 139° | 15km/h | 23011m | 5.3m/s | -52.6°C | 0.5% | 36.6hPa | 2.5V | 18:12:15 | 01:46:17 | 00:00:00 | |
| AA1-15 | 2026-09-04 00:05:47 | 53.58406 | 14.99182 | 144° | 13km/h | 23001m | 5.9m/s | -52.6°C | 0.5% | 36.7hPa | 2.6V | 18:12:15 | 01:46:15 | 00:00:00 | |
| DF8AY | 2026-09-04 00:05:46 | 53.58408 | 14.99179 | 135° | 9km/h | 22995m | 4.7m/s | -52.7°C | 0.5% | 36.7hPa | 2.6V | 18:12:15 | 01:46:14 | 00:00:00 | |
| DL2RXE-15 | 2026-09-04 00:05:44 | 53.58410 | 14.99176 | 112° | 11km/h | 22991m | 4.1m/s | -52.7°C | 0% | 36.7hPa | 2.6V | 00:00:00 | 00:00:00 | 00:00:00 | |
| KRY50SP | 2026-09-04 00:05:42 | 53.58411 | 14.99164 | 101° | 18km/h | 22980m | 5.7m/s | -52.7°C | 1.0% | 36.8hPa | 2.6V | 00:00:00 | 00:00:00 | 00:00:00 | |
| DB0DAN | 2026-09-04 00:05:40 | 53.58413 | 14.99137 | 101° | 20km/h | 22963m | 5.5m/s | -52.8°C | 1% | 36.86hPa | 2.6V | 00:00:00 | 00:00:00 | 00:00:00 | |
| DL1XH1-15 | 2026-09-04 00:05:40 | 53.58414 | 14.99128 | 107° | 22km/h | 22958m | 4.1m/s | -52.8°C | 3.9% | 36.9hPa | 2.5V | 08:30:00 | 01:46:07 | 00:00:00 | |
| DL1XH-west | 2026-09-04 00:05:39 | 53.58415 | 14.99128 | 107° | 22km/h | 22958m | 4.1m/s | -52.8°C | 0.6% | 36.9hPa | 2.5V | 18:12:15 | 01:46:07 | 00:00:00 | |
| AA1-15 | 2026-09-04 00:05:36 | 53.58421 | 14.99102 | 118° | 22km/h | 22943m | 4.9m/s | -52.7°C | 0.6% | 37hPa | 2.6V | 18:12:15 | 01:46:04 | 00:00:00 | |
| DF8AY | 2026-09-04 00:05:35 | 53.58423 | 14.99095 | 124° | 20km/h | 22938m | 5m/s | -52.7°C | 0.6% | 37hPa | 2.6V | 18:12:15 | 01:46:03 | 00:00:00 | |
| DL1XH1-15 | 2026-09-04 00:05:34 | 53.58441 | 14.99059 | 121° | 26km/h | 22906m | 5.2m/s | -52.9°C | 3.9% | 37.2hPa | 2.5V | 08:30:00 | 01:45:57 | 00:00:00 | |
| DL1XH-west | 2026-09-04 00:05:28 | 53.58444 | 14.99049 | 122° | 27km/h | 22901m | 5.7m/s | -52.9°C | 0.6% | 37.2hPa | 2.5V | 18:12:15 | 01:45:56 | 00:00:00 | |
| AA1-15 | 2026-09-04 00:05:26 | 53.58451 | 14.99028 | 121° | 31km/h | 22890m | 4.4m/s | -52.9°C | 0.6% | 37.3hPa | 2.6V | 18:12:15 | 01:45:54 | 00:00:00 | |
| DF8AY | 2026-09-04 00:05:25 | 53.58455 | 14.99017 | 116° | 33km/h | 22884m | 5.8m/s | -52.9°C | 0.6% | 37.3hPa | 2.6V | 18:12:15 | 01:45:53 | 00:00:00 | |
| DL2RXE-15 | 2026-09-04 00:05:24 | 53.58459 | 14.99003 | 117° | 37km/h | 22878m | 6.1m/s | 0°C | 0% | 0hPa | 2.6V | 00:00:00 | 00:00:00 | 00:00:00 | |
| DL1XH1-15 | 2026-09-04 00:05:20 | 53.58469 | 14.98944 | 97° | 22km/h | 22851m | 6.1m/s | -52.9°C | 4% | 37.5hPa | 2.6V | 08:30:00 | 01:45:47 | 00:00:00 | |
| DL1XH-west | 2026-09-04 00:05:18 | 53.58470 | 14.98936 | 96° | 22km/h | 22845m | 4.9m/s | -52.9°C | 0.6% | 37.5hPa | 2.5V | 18:12:15 | 01:45:46 | 00:00:00 | |
| DF8AY | 2026-09-04 00:05:15 | 53.58488 | 14.98797 | 76° | 7km/h | 22754m | 5m/s | -52.4°C | 0.6% | 38.1hPa | 2.5V | 18:12:15 | 01:45:28 | 00:00:00 | |
| AA1-15 | 2026-09-04 00:05:15 | 53.58474 | 14.98914 | 119° | 15km/h | 22830m | 5.2m/s | -52.9°C | 0.6% | 37.7hPa | 2.6V | 18:12:15 | 01:45:43 | 00:00:00 | |
| KRY50SP | 2026-09-04 00:05:15 | 53.58473 | 14.98914 | 120° | 15km/h | 22830m | 5.2m/s | -52.9°C | 1.0% | 37.7hPa | 2.6V | 00:00:00 | 00:00:00 | 00:00:00 | |
| DL1XH1-15 | 2026-09-04 00:05:14 | 53.58487 | 14.98864 | 105° | 26km/h | 22799m | 5.5m/s | -52.7°C | 3.9% | 37.8hPa | 2.6V | 08:30:00 | 01:45:37 | 00:00:00 | |
| DL1XH-15 | 2026-09-04 00:05:13 | 53.58488 | 14.98854 | 104° | 22km/h | 22794m | 4.4m/s | -52.7°C | 3.9% | 37.9hPa | 2.5V | 08:30:00 | 01:45:36 | 00:00:00 | |
| DL1XH-west | 2026-09-04 00:05:07 | 53.58490 | 14.98845 | 99° | 22km/h | 22790m | 4.4m/s | -52.7°C | 0.6% | 37.9hPa | 2.5V | 18:12:15 | 01:45:35 | 00:00:00 | |
| AA1-15 | 2026-09-04 00:05:05 | 53.58490 | 14.98827 | 87° | 22km/h | 22779m | 5.3m/s | -52.6°C | 0.6% | 37.9hPa | 2.6V | 18:12:15 | 01:45:33 | 00:00:00 | |
| KRY50SP | 2026-09-04 00:05:04 | 53.58490 | 14.98827 | 88° | 22km/h | 22779m | 5.3m/s | -52.6°C | 1.0% | 37.9hPa | 2.5V | 00:00:00 | 00:00:00 | 00:00:00 | |
| DL2RXE-15 | 2026-09-04 00:05:03 | 53.58490 | 14.98818 | 84° | 20km/h | 22775m | 4.1m/s | 0°C | 0% | 0hPa | 2.5V | 00:00:00 | 00:00:00 | 00:00:00 | |
| EDDB2-11 | 2026-09-04 00:04:57 | 53.58487 | 14.98781 | 85° | 16km/h | 22737m | 4.9m/s | -52.2°C | 1.0% | 38.2hPa | 2.5V | 00:00:00 | 00:00:00 | 00:00:00 | |
| DL1XH-west | 2026-09-04 00:04:56 | 53.58478 | 14.98684 | 92° | 11km/h | 22656m | 5.1m/s | -51.8°C | 0.5% | 38.7hPa | 2.5V | 18:12:15 | 01:45:10 | 00:00:00 | |
| AA1-15 | 2026-09-04 00:04:55 | 53.58478 | 14.98688 | 98° | 13km/h | 22662m | 5.8m/s | -51.9°C | 0.5% | 38.6hPa | 2.5V | 18:12:15 | 01:45:11 | 00:00:00 | |
| SP3WXH-11 | 2026-09-04 00:04:53 | 53.58483 | 14.98753 | 74° | 16km/h | 22716m | 4.7m/s | -52.2°C | 1.0% | 38.3hPa | 2.6V | 00:00:00 | 00:00:00 | 00:00:00 | |
| DL1XH-west | 2026-09-04 00:04:51 | 53.58477 | 14.98679 | 67° | 11km/h | 22652m | 4.6m/s | -51.8°C | 0.5% | 38.7hPa | 2.6V | 18:12:15 | 01:45:09 | 00:00:00 | |
| SONCRA | 2026-09-04 00:04:45 | 53.58477 | 14.98700 | 99° | 13km/h | 22672m | 5.3m/s | -52.0°C | 1.0% | 38.5hPa | 2.5V | 00:00:00 | 00:00:00 | 00:00:00 | |
| DL1XH1-15 | 2026-09-04 00:04:43 | 53.58463 | 14.98655 | 35° | 15km/h | 22624m | 4.9m/s | -51.8°C | 3.7% | 38.9hPa | 2.5V | 08:30:00 | 01:45:04 | 00:00:00 | |
| DF8AY | 2026-09-04 00:04:35 | 53.58458 | 14.98648 | 51° | 11km/h | 22614m | 5.2m/s | -51.8°C | 0.5% | 38.9hPa | 2.6V | 18:12:15 | 01:45:02 | 00:00:00 | |
| AA1-15 | 2026-09-04 00:04:33 | 53.58457 | 14.98644 | 64° | 11km/h | 22609m | 5.2m/s | -51.7°C | 0.5% | 38.9hPa | 2.6V | 18:12:15 | 01:45:01 | 00:00:00 | |
| DL1XH-west | 2026-09-04 00:04:32 | 53.58456 | 14.98640 | 77° | 11km/h | 22604m | 4.4m/s | -51.7°C | 0.5% | 39hPa | 2.5V | 18:12:15 | 01:45:00 | 00:00:00 | |
| AA1-15 | 2026-09-04 00:04:23 | 53.58461 | 14.98601 | 55° | 11km/h | 22558m | 5.4m/s | -51.5°C | 0.4% | 39.3hPa | 2.5V | 18:12:15 | 01:44:51 | 00:00:00 | |
| SP3WXH-11 | 2026-09-04 00:04:22 | 53.58459 | 14.98597 | 38° | 9km/h | 22553m | 3.9m/s | -51.5°C | 1.0% | 39.3hPa | 2.6V | 00:00:00 | 00:00:00 | 00:00:00 | |
| DL1XH-west | 2026-09-04 00:04:22 | 53.58459 | 14.98597 | 38° | 11km/h | 22553m | 3.9m/s | -51.5°C | 0.5% | 39.3hPa | 2.6V | 18:12:15 | 01:44:50 | 00:00:00 | |
| KRY50SP | 2026-09-04 00:04:21 | 53.58457 | 14.98595 | 32° | 11km/h | 22549m | 4.5m/s | -51.5°C | 1.0% | 39.3hPa | 2.6V | 00:00:00 | 00:00:00 | 00:00:00 | |
| DL1XH1-15 | 2026-09-04 00:04:15 | 53.58441 | 14.98573 | 49° | 9km/h | 22514m | 4.5m/s | -51.4°C | 3.5% | 39.5hPa | 2.6V | 08:30:00 | 01:44:42 | 00:00:00 | |
| AA1-15 | 2026-09-04 00:04:13 | 53.58440 | 14.98570 | 72° | 11km/h | 22509m | 5.7m/s | -51.4°C | 0.4% | 39.5hPa | 2.5V | 18:12:15 | 01:44:41 | 00:00:00 | |
| DF8AY | 2026-09-04 00:04:12 | 53.58440 | 14.98565 | 82° | 13km/h | 22504m | 5.1m/s | -51.4°C | 0.4% | 39.6hPa | 2.5V | 18:12:15 | 01:44:40 | 00:00:00 | |
| KRY50SP | 2026-09-04 00:04:11 | 53.58439 | 14.98553 | 86° | 13km/h | 22495m | 5.4m/s | -51.4°C | 0.9% | 39.7hPa | 2.5V | 00:00:00 | 00:00:00 | 00:00:00 | |
| DJ2DS-15 | 2026-09-04 00:04:09 | 53.58438 | 14.98545 | 76° | 13km/h | 22485m | 3.8m/s | -51.4°C | 3.6% | 39.7hPa | 2.5V | 00:00:00 | 01:44:36 | 08:30:00 | |
| DL1XH1-15 | 2026-09-04 00:04:08 | 53.58431 | 14.98526 | 57° | 13km/h | 22465m | 4.9m/s | -51.8°C | 3.6% | 39.8hPa | 2.6V | 08:30:00 | 01:44:32 | 00:00:00 | |
| AA1-15 | 2026-09-04 00:04:02 | 53.58428 | 14.98519 | 57° | 7km/h | 22454m | 4.4m/s | -51.7°C | 0.4% | 39.9hPa | 2.5V | 18:12:15 | 01:44:30 | 00:00:00 | |
| DL1XH-west | 2026-09-04 00:04:01 | 53.58427 | 14.98516 | 81° | 7km/h | 22450m | 3.2m/s | -51.7°C | 0.5% | 39.9hPa | 2.5V | 18:12:15 | 01:44:29 | 00:00:00 | |
| SONDE2-11 | 2026-09-04 00:03:57 | 53.58430 | 14.98489 | 117° | 15km/h | 22427m | 4.9m/s | -51.8°C | 1.0% | 40.1hPa | 2.6V | 00:00:00 | 00:00:00 | 00:00:00 | |
| EDDB2-11 | 2026-09-04 00:03:56 | 53.58432 | 14.98483 | 111° | 15km/h | 22424m | 4.1m/s | -51.9°C | 1.0% | 40.1hPa | 2.6V | 00:00:00 | 00:00:00 | 00:00:00 | |
| DL1XH1-15 | 2026-09-04 00:03:54 | 53.58433 | 14.98477 | 100° | 15km/h | 22419m | 5.3m/s | -51.9°C | 3.6% | 40.1hPa | 2.6V | 08:30:00 | 01:44:22 | 00:00:00 | |
| DL1XH-west | 2026-09-04 00:03:51 | 53.58430 | 14.98460 | 55° | 15km/h | 22404m | 4.8m/s | -52°C | 0.4% | 40.2hPa | 2.5V | 18:12:15 | 01:44:19 | 00:00:00 | |
| AA1-15 | 2026-09-04 00:03:40 | 53.58426 | 14.98414 | 79° | 9km/h | 22347m | 4.5m/s | -52.4°C | 0.5% | 40.6hPa | 2.5V | 18:12:15 | 01:44:08 | 00:00:00 | |
| DL1XH1-15 | 2026-09-04 00:03:35 | 53.58421 | 14.98383 | 92° | 15km/h | 22308m | 5.5m/s | -52.4°C | 3.7% | 40.8hPa | 2.5V | 08:30:00 | 01:44:00 | 00:00:00 | |
| KRY50SP | 2026-09-04 00:03:35 | 53.58422 | 14.98399 | 71° | 11km/h | 22323m | 5.8m/s | -52.4°C | 1.0% | 40.7hPa | 2.6V | 00:00:00 | 00:00:00 | 00:00:00 | |
| DL1XH-15 | 2026-09-04 00:03:34 | 53.58422 | 14.98370 | 107° | 15km/h | 22299m | 4.2m/s | -52.5°C | 3.8% | 40.9hPa | 2.6V | 08:30:00 | 01:43:58 | 00:00:00 | |
| AA1-15 | 2026-09-04 00:03:30 | 53.58422 | 14.98370 | 107° | 15km/h | 22299m | 4.3m/s | -52.6°C | 0.5% | 40.9hPa | 2.6V | 18:12:15 | 01:43:58 | 00:00:00 | |
| DL1XH-west | 2026-09-04 00:03:30 | 53.58423 | 14.98364 | 106° | 15km/h | 22294m | 4.8m/s | -52.7°C | 0.5% | 40.9hPa | 2.5V | 18:12:15 | 01:43:57 | 00:00:00 | |
| DJ2DS-15 | 2026-09-04 00:03:28 | 53.58424 | 14.98358 | 99° | 11km/h | 22289m | 5.8m/s | -52.7°C | 3.9% | 40.8hPa | 2.6V | 00:00:00 | 01:43:56 | 00:00:00 | |
| DB0DAN | 2026-09-04 00:03:25 | 53.58425 | 14.98334 | 95° | 16km/h | 22275m | 5.2m/s | -52.8°C | 1% | 41hPa | 2.6V | 00:00:00 | 00:00:00 | 00:00:00 | |
| DL1XH-15 | 2026-09-04 00:03:24 | 53.58427 | 14.98307 | 82° | 9km/h | 22250m | 4.5m/s | -52.7°C | 3.9% | 41.1hPa | 2.6V | 08:30:00 | 01:43:48 | 00:00:00 | |
| DF8AY | 2026-09-04 00:03:19 | 53.58427 | 14.98300 | 106° | 7km/h | 22239m | 5.5m/s | -52.7°C | 0.6% | 41.2hPa | 2.5V | 18:12:15 | 01:43:46 | 00:00:00 | |
| DL1XH-west | 2026-09-04 00:03:19 | 53.58427 | 14.98303 | 87° | 9km/h | 22245m | 5.8m/s | -52.7°C | 0.5% | 41.2hPa | 2.5V | 18:12:15 | 01:43:47 | 00:00:00 | |
| DF8AY | 2026-09-04 00:03:09 | 53.58432 | 14.98277 | 131° | 7km/h | 22194m | 5.5m/s | -52.7°C | 0.5% | 41.5hPa | 2.6V | 18:12:15 | 01:43:37 | 00:00:00 | |
| AA1-15 | 2026-09-04 00:03:08 | 53.58434 | 14.98274 | 127° | 7km/h | 22190m | 4m/s | -52.7°C | 0.6% | 41.5hPa | 2.5V | 18:12:15 | 01:43:36 | 00:00:00 | |
| DL1XH-west | 2026-09-04 00:02:59 | 53.58446 | 14.98260 | 13° | 2km/h | 22145m | 4.7m/s | -52.9°C | 0.6% | 41.8hPa | 2.5V | 18:12:15 | 01:43:27 | 00:00:00 | |
| DF8AY | 2026-09-04 00:02:58 | 53.58445 | 14.98260 | 353° | 5km/h | 22139m | 5.8m/s | -52.8°C | 0.6% | 41.9hPa | 2.5V | 18:12:15 | 01:43:26 | 00:00:00 | |
| AA1-15 | 2026-09-04 00:02:57 | 53.58443 | 14.98261 | 332° | 7km/h | 22134m | 4.6m/s | -52.8°C | 0.7% | 41.9hPa | 2.6V | 18:12:15 | 01:43:25 | 00:00:00 | |
| DL1XH-15 | 2026-09-04 00:02:55 | 53.58444 | 14.98282 | 202° | 7km/h | 22100m | 4.6m/s | -52.6°C | 3.9% | 42.1hPa | 2.5V | 08:30:00 | 01:43:18 | 00:00:00 | |
| DL1XH-west | 2026-09-04 00:02:48 | 53.58449 | 14.98284 | 192° | 13km/h | 22090m | 4m/s | -52.5°C | 0.6% | 42.2hPa | 2.5V | 18:12:15 | 01:43:16 | 00:00:00 | |
| DF8AY | 2026-09-04 00:02:47 | 53.58452 | 14.98286 | 200° | 11km/h | 22086m | 3.9m/s | -52.5°C | 0.6% | 42.2hPa | 2.5V | 18:12:15 | 01:43:15 | 00:00:00 | |
| AA1-15 | 2026-09-04 00:02:46 | 53.58454 | 14.98287 | 211° | 5km/h | 22081m | 5.5m/s | -52.4°C | 0.6% | 42.2hPa | 2.6V | 18:12:15 | 01:43:14 | 00:00:00 | |
| DL1XH1-15 | 2026-09-04 00:02:44 | 53.58454 | 14.98294 | 284° | 9km/h | 22068m | 4.1m/s | -52.3°C | 3.9% | 42.3hPa | 2.5V | 08:30:00 | 01:43:11 | 00:00:00 | |
| DL1XH-15 | 2026-09-04 00:02:43 | 53.58463 | 14.98307 | 171° | 15km/h | 22043m | 5.7m/s | -52.1°C | 3.8% | 42.5hPa | 2.6V | 08:30:00 | 01:43:06 | 00:00:00 | |
| DL1XH-west | 2026-09-04 00:02:38 | 53.58463 | 14.98307 | 172° | 15km/h | 22043m | 5.7m/s | -52.1°C | 0.5% | 42.5hPa | 2.6V | 18:12:15 | 01:43:06 | 00:00:00 | |
| DF8AY | 2026-09-04 00:02:37 | 53.58467 | 14.98305 | 167° | 16km/h | 22037m | 4.5m/s | -52.1°C | 0.5% | 42.5hPa | 2.5V | 18:12:15 | 01:43:05 | 00:00:00 | |
| AA1-15 | 2026-09-04 00:02:36 | 53.58471 | 14.98304 | 172° | 16km/h | 22032m | 4.9m/s | -52°C | 0.6% | 42.5hPa | 2.5V | 18:12:15 | 01:43:04 | 00:00:00 | |
| SONCRA | 2026-09-04 00:02:31 | 53.58563 | 14.98346 | 182° | 15km/h | 21904m | 4.2m/s | -51.1°C | 1.0% | 43.4hPa | 2.5V | 00:00:00 | 00:00:00 | 00:00:00 | |
| DL1XH-west | 2026-09-04 00:02:27 | 53.58493 | 14.98324 | 208° | 16km/h | 21988m | 5.2m/s | -51.7°C | 0.6% | 42.9hPa | 2.5V | 18:12:15 | 01:42:55 | 00:00:00 | |
| AA1-15 | 2026-09-04 00:02:26 | 53.58497 | 14.98327 | 206° | 18km/h | 21983m | 4.4m/s | -51.6°C | 0.5% | 42.9hPa | 2.6V | 18:12:15 | 01:42:54 | 00:00:00 | |
| KRY50SP | 2026-09-04 00:02:26 | 53.58582 | 14.98343 | 171° | 20km/h | 21884m | 4.3m/s | -51.1°C | 0.9% | 43.5hPa | 2.6V | 00:00:00 | 00:00:00 | 00:00:00 | |
| DL1XH1-15 | 2026-09-04 00:02:25 | 53.58515 | 14.98326 | 153° | 11km/h | 21961m | 3.4m/s | -51.5°C | 3.7% | 43hPa | 2.6V | 08:30:00 | 01:42:49 | 00:00:00 | |
| KRY50SP | 2026-09-04 00:02:18 | 53.58613 | 14.98340 | 184° | 26km/h | 21853m | 4.9m/s | -51.3°C | 0.9% | 43.8hPa | 2.5V | 00:00:00 | 00:00:00 | 00:00:00 | |
| DL1XH-west | 2026-09-04 00:02:16 | 53.58532 | 14.98339 | 208° | 24km/h | 21935m | 5.5m/s | -51.2°C | 0.5% | 43.2hPa | 2.5V | 18:12:15 | 01:42:44 | 00:00:00 | |
| AA1-15 | 2026-09-04 00:02:15 | 53.58538 | 14.98342 | 194° | 26km/h | 21930m | 5.1m/s | -51.2°C | 0.4% | 43.2hPa | 2.6V | 18:12:15 | 01:42:43 | 00:00:00 | |
| KRY50SP | 2026-09-04 00:02:11 | 53.58649 | 14.98338 | 164° | 26km/h | 21823m | 4.3m/s | -51.9°C | 1.0% | 44.0hPa | 2.5V | 00:00:00 | 00:00:00 | 00:00:00 | |
| SONDE2-11 | 2026-09-04 00:02:09 | 53.58660 | 14.98332 | 162° | 20km/h | 21812m | 5.4m/s | -52.0°C | 1.0% | 44.0hPa | 2.5V | 00:00:00 | 00:00:00 | 00:00:00 | |
| DF8AY | 2026-09-04 00:02:06 | 53.58596 | 14.98340 | 179° | 20km/h | 21868m | 4.5m/s | -51.1°C | 0.3% | 43.6hPa | 2.5V | 18:12:15 | 01:42:31 | 00:00:00 | |
| DL1XH-west | 2026-09-04 00:02:05 | 53.58591 | 14.98341 | 176° | 18km/h | 21873m | 4.8m/s | -51.1°C | 0.3% | 43.6hPa | 2.5V | 18:12:15 | 01:42:32 | 00:00:00 | |
| KRY50SP | 2026-09-04 00:02:04 | 53.58675 | 14.98327 | 174° | 24km/h | 21798m | 5.7m/s | -52.4°C | 1.0% | 44.1hPa | 2.6V | 00:00:00 | 00:00:00 | 00:00:00 | |
| DJ2DS-15 | 2026-09-04 00:02:03 | 53.58681 | 14.98326 | 172° | 29km/h | 21793m | 4.5m/s | -52.4°C | 3.8% | 44.1hPa | 2.6V | 00:00:00 | 01:42:16 | 00:00:00 | |
| SP3WXH-11 | 2026-09-04 00:02:01 | 53.58688 | 14.98324 | 170° | 27km/h | 21789m | 4.1m/s | -52.5°C | 1.0% | 44.2hPa | 2.6V | 00:00:00 | 00:00:00 | 00:00:00 | |
| MECKS9 | 2026-09-04 00:01:59 | 53.58688 | 14.98324 | 171° | 29km/h | 21789m | 4.1m/s | -52.5°C | 1.0% | 44.2hPa | 2.6V | 00:00:00 | 00:00:00 | 00:00:00 | |
| DL2RXE-15 | 2026-09-04 00:01:58 | 53.58695 | 14.98322 | 171° | 27km/h | 21783m | 5.9m/s | 0°C | 0% | 0hPa | 2.6V | 00:00:00 | 00:00:00 | 00:00:00 | |
| DL1XH-15 | 2026-09-04 00:01:56 | 53.58649 | 14.98338 | 163° | 26km/h | 21823m | 4.3m/s | -51.9°C | 3.7% | 44hPa | 2.6V | 08:30:00 | 01:42:22 | 00:00:00 | |
| KRY50SP | 2026-09-04 00:01:56 | 53.58714 | 14.98310 | 152° | 27km/h | 21768m | 5.1m/s | -52.6°C | 1.0% | 44.3hPa | 2.5V | 00:00:00 | 00:00:00 | 00:00:00 | |
| AA1-15 | 2026-09-04 00:01:53 | 53.58654 | 14.98335 | 162° | 22km/h | 21817m | 5.2m/s | -52°C | 0.4% | 44hPa | 2.5V | 18:12:15 | 01:42:21 | 00:00:00 | |
| SONCRA | 2026-09-04 00:01:51 | 53.58741 | 14.98279 | 142° | 33km/h | 21748m | 5.4m/s | -52.7°C | 1.0% | 44.5hPa | 2.6V | 00:00:00 | 00:00:00 | 00:00:00 | |
| DL1XH-west | 2026-09-04 00:01:50 | 53.58675 | 14.98327 | 173° | 24km/h | 21798m | 5.7m/s | -52.4°C | 0.6% | 44.1hPa | 2.6V | 18:12:15 | 01:42:17 | 00:00:00 | |
| DL1XH-15 | 2026-09-04 00:01:50 | 53.58707 | 14.98316 | 155° | 26km/h | 21772m | 4.5m/s | -52.5°C | 3.8% | 44.3hPa | 2.6V | 08:30:00 | 01:42:12 | 00:00:00 | |
| KRY50SP | 2026-09-04 00:01:48 | 53.58747 | 14.98271 | 145° | 31km/h | 21743m | 5.7m/s | -52.7°C | 1.0% | 44.5hPa | 2.6V | 00:00:00 | 00:00:00 | 00:00:00 | |
| MECKS9 | 2026-09-04 00:01:46 | 53.58753 | 14.98263 | 146° | 31km/h | 21737m | 4.9m/s | -52.7°C | 1.0% | 44.6hPa | 2.6V | 00:00:00 | 00:00:00 | 00:00:00 | |
| AA1-15 | 2026-09-04 00:01:43 | 53.58713 | 14.98311 | 151° | 27km/h | 21768m | 5.1m/s | -52.6°C | 0.5% | 44.3hPa | 2.6V | 18:12:15 | 01:42:11 | 00:00:00 | |
| DF8AY | 2026-09-04 00:01:43 | 53.58720 | 14.98304 | 147° | 31km/h | 21762m | 5.6m/s | -52.6°C | 0.6% | 44.4hPa | 2.6V | 18:12:15 | 01:42:10 | 00:00:00 | |
| DB0DAN | 2026-09-04 00:01:40 | 53.58734 | 14.98288 | 144° | 33km/h | 21752m | 4.3m/s | -52.7°C | 1% | 44.44hPa | 2.5V | 00:00:00 | 00:00:00 | 00:00:00 | |
| KRY50SP | 2026-09-04 00:01:39 | 53.58785 | 14.98224 | 133° | 29km/h | 21713m | 5.7m/s | -52.7°C | 1.1% | 44.7hPa | 2.6V | 00:00:00 | 00:00:00 | 00:00:00 | |
| DL1XH-west | 2026-09-04 00:01:38 | 53.58760 | 14.98256 | 147° | 31km/h | 21732m | 5m/s | -52.7°C | 0.6% | 44.6hPa | 2.6V | 18:12:15 | 01:42:04 | 00:00:00 | |
| DL1XH1-15 | 2026-09-04 00:01:38 | 53.58747 | 14.98271 | 143° | 31km/h | 21742m | 5.7m/s | -52.7°C | 3.8% | 44.5hPa | 2.5V | 08:30:00 | 01:42:06 | 00:00:00 | |
| DL1XH-15 | 2026-09-04 00:01:36 | 53.58773 | 14.98241 | 144° | 31km/h | 21722m | 4.2m/s | -52.7°C | 3.8% | 44.6hPa | 2.5V | 08:30:00 | 01:42:02 | 00:00:00 | |
| DJ2DS-15 | 2026-09-04 00:01:35 | 53.58800 | 14.98182 | 122° | 27km/h | 21692m | 5.0m/s | -52.8°C | 3.9% | 44.8hPa | 2.5V | 00:00:00 | 01:41:56 | 00:00:00 | |
| AA1-15 | 2026-09-04 00:01:33 | 53.58779 | 14.98233 | 140° | 31km/h | 21718m | 4.9m/s | -52.7°C | 0.5% | 44.7hPa | 2.5V | 18:12:15 | 01:42:01 | 00:00:00 | |
| DF8AY | 2026-09-04 00:01:32 | 53.58785 | 14.98224 | 132° | 29km/h | 21713m | 5.7m/s | -52.7°C | 0.6% | 44.7hPa | 2.6V | 18:12:15 | 01:42:00 | 00:00:00 | |
| MECKS9 | 2026-09-04 00:01:30 | 53.58808 | 14.98159 | 121° | 33km/h | 21682m | 6.0m/s | -52.9°C | 1.1% | 44.9hPa | 2.5V | 00:00:00 | 00:00:00 | 00:00:00 | |
| DL1XH-15 | 2026-09-04 00:01:30 | 53.58821 | 14.98125 | 131° | 31km/h | 21665m | 5.8m/s | -53°C | 4% | 45hPa | 2.5V | 08:30:00 | 01:41:51 | 00:00:00 | |
| DL1XH-west | 2026-09-04 00:01:28 | 53.58800 | 14.98182 | 121° | 31km/h | 21692m | 5m/s | -52.9°C | 0.6% | 44.9hPa | 2.5V | 18:12:15 | 01:41:56 | 00:00:00 | |
| SONDE2-11 | 2026-09-04 00:01:26 | 53.58833 | 14.98108 | 136° | 27km/h | 21656m | 4.0m/s | -53.0°C | 1.1% | 45.1hPa | 2.5V | 00:00:00 | 00:00:00 | 00:00:00 | |
| KRY50SP | 2026-09-04 00:01:24 | 53.58832 | 14.98108 | 138° | 29km/h | 21657m | 4.0m/s | -53.0°C | 1.1% | 45.1hPa | 2.5V | 00:00:00 | 00:00:00 | 00:00:00 | |
| AA1-15 | 2026-09-04 00:01:22 | 53.58827 | 14.98116 | 137° | 31km/h | 21661m | 4.5m/s | -53°C | 0.6% | 45.1hPa | 2.5V | 18:12:15 | 01:41:50 | 00:00:00 | |
| SP3WXH-11 | 2026-09-04 00:01:20 | 53.58851 | 14.98055 | 112° | 33km/h | 21633m | 4.6m/s | -52.8°C | 1.1% | 45.3hPa | 2.5V | 00:00:00 | 00:00:00 | 00:00:00 | |
| DL1XH-west | 2026-09-04 00:01:18 | 53.58848 | 14.98067 | 111° | 31km/h | 21637m | 4.9m/s | -52.9°C | 0.6% | 45.2hPa | 2.5V | 18:12:15 | 01:41:45 | 00:00:00 | |
| KRY50SP | 2026-09-04 00:01:18 | 53.58854 | 14.98042 | 113° | 31km/h | 21628m | 4.2m/s | -52.8°C | 1.0% | 45.3hPa | 2.5V | 00:00:00 | 00:00:00 | 00:00:00 | |
| DL1XH-15 | 2026-09-04 00:01:13 | 53.58861 | 14.98011 | 106° | 20km/h | 21613m | 4.9m/s | -52.7°C | 3.8% | 45.4hPa | 2.5V | 08:30:00 | 01:41:40 | 00:00:00 | |
| DF8AY | 2026-09-04 00:01:12 | 53.58861 | 14.98011 | 107° | 22km/h | 21613m | 4.9m/s | -52.7°C | 0.5% | 45.4hPa | 2.5V | 18:12:15 | 01:41:40 | 00:00:00 | |
| AA1-15 | 2026-09-04 00:01:11 | 53.58862 | 14.98003 | 108° | 20km/h | 21608m | 4.9m/s | -52.7°C | 0.5% | 45.4hPa | 2.5V | 18:12:15 | 01:41:39 | 00:00:00 | |
| SONCRA | 2026-09-04 00:01:11 | 53.58868 | 14.97978 | 117° | 22km/h | 21593m | 4.8m/s | -52.8°C | 1.0% | 45.5hPa | 2.6V | 00:00:00 | 00:00:00 | 00:00:00 | |
| DJ2DS-15 | 2026-09-04 00:01:10 | 53.58868 | 14.97978 | 118° | 22km/h | 21593m | 4.8m/s | -52.7°C | 3.8% | 45.5hPa | 2.6V | 00:00:00 | 01:41:36 | 08:30:00 | |
| DL1XH-west | 2026-09-04 00:01:06 | 53.58890 | 14.97932 | 143° | 27km/h | 21560m | 4.1m/s | -52.8°C | 0.6% | 45.8hPa | 2.5V | 18:12:15 | 01:41:30 | 00:00:00 | |
| DL1XH-15 | 2026-09-04 00:01:04 | 53.58895 | 14.97926 | 144° | 26km/h | 21555m | 4.8m/s | -52.8°C | 3.9% | 45.8hPa | 2.6V | 08:30:00 | 01:41:29 | 00:00:00 | |
| DF8AY | 2026-09-04 00:01:03 | 53.58896 | 14.97926 | 145° | 26km/h | 21555m | 4.8m/s | -52.8°C | 0.6% | 45.8hPa | 2.6V | 18:12:15 | 01:41:29 | 00:00:00 | |
| AA1-15 | 2026-09-04 00:01:00 | 53.58900 | 14.97920 | 146° | 20km/h | 21550m | 5.6m/s | -52.7°C | 0.6% | 45.8hPa | 2.6V | 18:12:15 | 01:41:28 | 00:00:00 | |
| KRY50SP | 2026-09-04 00:00:59 | 53.58908 | 14.97912 | 150° | 16km/h | 21541m | 4.0m/s | -52.7°C | 1.1% | 45.9hPa | 2.6V | 00:00:00 | 00:00:00 | 00:00:00 | |
| DL1XH-west | 2026-09-04 00:00:56 | 53.58916 | 14.97903 | 147° | 20km/h | 21530m | 4.9m/s | -52.7°C | 0.5% | 46hPa | 2.6V | 18:12:15 | 01:41:24 | 00:00:00 | |
| DL1XH-15 | 2026-09-04 00:00:53 | 53.58948 | 14.97871 | 151° | 26km/h | 21494m | 4.5m/s | -52.7°C | 3.8% | 46.2hPa | 2.6V | 08:30:00 | 01:41:17 | 00:00:00 | |
| KRY50SP | 2026-09-04 00:00:53 | 53.58929 | 14.97890 | 148° | 18km/h | 21515m | 5.4m/s | -52.7°C | 1.1% | 46.1hPa | 2.5V | 00:00:00 | 00:00:00 | 00:00:00 | |
| DF8AY | 2026-09-04 00:00:51 | 53.58937 | 14.97881 | 150° | 22km/h | 21505m | 5.5m/s | -52.7°C | 0.5% | 46.2hPa | 2.5V | 18:12:15 | 01:41:19 | 00:00:00 | |
| AA1-15 | 2026-09-04 00:00:50 | 53.58942 | 14.97876 | 151° | 24km/h | 21499m | 5.2m/s | -52.7°C | 0.5% | 46.2hPa | 2.6V | 18:12:15 | 01:41:18 | 00:00:00 | |
| EDDB2-11 | 2026-09-04 00:00:49 | 53.58954 | 14.97866 | 149° | 24km/h | 21490m | 5.3m/s | -52.7°C | 1.0% | 46.3hPa | 2.5V | 00:00:00 | 00:00:00 | 00:00:00 | |
| DJ2DS-15 | 2026-09-04 00:00:48 | 53.58953 | 14.97866 | 150° | 26km/h | 21490m | 5.3m/s | -52.6°C | 3.8% | 46.2hPa | 2.5V | 00:00:00 | 01:41:16 | 00:00:00 | |
| KRY50SP | 2026-09-04 00:00:47 | 53.58959 | 14.97860 | 147° | 26km/h | 21485m | 4.4m/s | -52.7°C | 1.1% | 46.3hPa | 2.5V | 00:00:00 | 00:00:00 | 00:00:00 | |
| SP3WXH-11 | 2026-09-04 00:00:46 | 53.58970 | 14.97847 | 143° | 27km/h | 21475m | 5.9m/s | -52.7°C | 1.1% | 46.4hPa | 2.5V | 00:00:00 | 00:00:00 | 00:00:00 | |
| DL1XH-15 | 2026-09-04 00:00:44 | 53.58999 | 14.97809 | 151° | 22km/h | 21445m | 5.6m/s | -53°C | 3.9% | 46.6hPa | 2.5V | 08:30:00 | 01:41:07 | 00:00:00 | |
| DL1XH-west | 2026-09-04 00:00:43 | 53.58981 | 14.97832 | 141° | 27km/h | 21465m | 4.7m/s | -52.7°C | 0.6% | 46.5hPa | 2.6V | 18:12:15 | 01:41:11 | 00:00:00 | |
| KRY50SP | 2026-09-04 00:00:42 | 53.58986 | 14.97825 | 140° | 24km/h | 21460m | 5.9m/s | -52.8°C | 1.1% | 46.5hPa | 2.5V | 00:00:00 | 00:00:00 | 00:00:00 | |
| AA1-15 | 2026-09-04 00:00:39 | 53.58999 | 14.97809 | 151° | 22km/h | 21445m | 5.6m/s | -53°C | 0.6% | 46.6hPa | 2.5V | 18:12:15 | 01:41:07 | 00:00:00 | |
| KRY50SP | 2026-09-04 00:00:38 | 53.59010 | 14.97799 | 150° | 27km/h | 21435m | 3.7m/s | -53.0°C | 1.1% | 46.7hPa | 2.5V | 00:00:00 | 00:00:00 | 00:00:00 | |
| KRY50SP | 2026-09-04 00:00:36 | 53.59035 | 14.97762 | 134° | 26km/h | 21410m | 4.6m/s | -53.1°C | 1.1% | 46.8hPa | 2.5V | 00:00:00 | 00:00:00 | 00:00:00 | |
| DL1XH-15 | 2026-09-04 00:00:34 | 53.59051 | 14.97737 | 140° | 33km/h | 21395m | 4.5m/s | -53.2°C | 3.9% | 46.9hPa | 2.5V | 08:30:00 | 01:40:57 | 00:00:00 | |
| AA1-15 | 2026-09-04 00:00:29 | 53.59051 | 14.97737 | 140° | 33km/h | 21395m | 4.5m/s | -53.2°C | 0.6% | 46.9hPa | 2.5V | 18:12:15 | 01:40:57 | 00:00:00 | |
| DF8AY | 2026-09-04 00:00:28 | 53.59074 | 14.97702 | 131° | 31km/h | 21376m | 4.7m/s | -53.4°C | 0.7% | 0hPa | 2.6V | 18:12:15 | 01:40:53 | 00:00:00 | |
| DB0DAN | 2026-09-04 00:00:25 | 53.59074 | 14.97702 | 131° | 29km/h | 21376m | 4.7m/s | -53.4°C | 1.1% | 47.09hPa | 2.6V | 00:00:00 | 00:00:00 | 00:00:00 | |
| EDDB2-11 | 2026-09-04 00:00:20 | 53.59107 | 14.97607 | 116° | 33km/h | 21336m | 4.6m/s | -53.5°C | 1.1% | 47.4hPa | 2.5V | 00:00:00 | 00:00:00 | 00:00:00 | |
| AA1-15 | 2026-09-04 00:00:19 | 53.59107 | 14.97607 | 117° | 33km/h | 21336m | 4.6m/s | -53.5°C | 0.7% | 47.4hPa | 2.5V | 18:12:15 | 01:40:45 | 00:00:00 | |
| DF8AY | 2026-09-04 00:00:18 | 53.59111 | 14.97595 | 119° | 31km/h | 21331m | 4.1m/s | -53.5°C | 0.7% | 0hPa | 2.5V | 18:12:15 | 01:40:44 | 00:00:00 | |
| KRY50SP | 2026-09-04 00:00:16 | 53.59114 | 14.97584 | 120° | 27km/h | 21327m | 5.7m/s | -53.5°C | 1.1% | 47.5hPa | 2.6V | 00:00:00 | 00:00:00 | 00:00:00 | |
| SP3WXH-11 | 2026-09-04 00:00:14 | 53.59121 | 14.97565 | 119° | 22km/h | 21316m | 4.6m/s | -53.5°C | 1.1% | 47.5hPa | 2.6V | 00:00:00 | 00:00:00 | 00:00:00 | |
| DL1XH-15 | 2026-09-04 00:00:13 | 53.59130 | 14.97530 | 108° | 20km/h | 21296m | 5.8m/s | -53.5°C | 4.1% | 47.7hPa | 2.6V | 08:30:00 | 01:40:37 | 00:00:00 | |
| KRY50SP | 2026-09-04 00:00:10 | 53.59129 | 14.97538 | 113° | 22km/h | 21302m | 4.2m/s | -53.5°C | 1.1% | 47.7hPa | 2.6V | 00:00:00 | 00:00:00 | 00:00:00 | |
| DJ2DS-15 | 2026-09-04 00:00:09 | 53.59132 | 14.97522 | 110° | 24km/h | 21291m | 4.8m/s | !°C | 4.0% | 47.7hPa | 2.6V | 00:00:00 | 01:40:36 | 00:00:00 | |
| AA1-15 | 2026-09-04 00:00:08 | 53.59134 | 14.97514 | 111° | 22km/h | 21286m | 5m/s | -53.4°C | 0.7% | 47.8hPa | 2.6V | 18:12:15 | 01:40:35 | 00:00:00 | |
| DF8AY | 2026-09-04 00:00:08 | 53.59141 | 14.97486 | 121° | 26km/h | 21270m | 5.5m/s | -53.3°C | 0.6% | 0hPa | 2.5V | 18:12:15 | 01:40:32 | 00:00:00 | |
| SONCRA | 2026-09-04 00:00:06 | 53.59138 | 14.97496 | 117° | 26km/h | 21276m | 5.4m/s | -53.4°C | 1.1% | 47.9hPa | 2.5V | 00:00:00 | 00:00:00 | 00:00:00 | |
| KRY50SP | 2026-09-04 00:00:03 | 53.59141 | 14.97486 | 122° | 26km/h | 21271m | 5.5m/s | -53.3°C | 1.1% | 47.9hPa | 2.5V | 00:00:00 | 00:00:00 | 00:00:00 | |
| DL1XH-15 | 2026-09-03 23:59:59 | 53.59158 | 14.97435 | 112° | 20km/h | 21240m | 6m/s | -53.2°C | 3.9% | 48.1hPa | 2.5V | 08:30:00 | 01:40:26 | 00:00:00 | |
| KRY50SP | 2026-09-03 23:59:59 | 53.59156 | 14.97443 | 116° | 24km/h | 21246m | 4.9m/s | -53.3°C | 1.1% | 48.1hPa | 2.6V | 00:00:00 | 00:00:00 | 00:00:00 | |
| AA1-15 | 2026-09-03 23:59:57 | 53.59160 | 14.97427 | 117° | 18km/h | 21235m | 4.7m/s | -53.2°C | 0.6% | 48.1hPa | 2.6V | 18:12:15 | 01:40:25 | 00:00:00 | |
| DF8AY | 2026-09-03 23:59:56 | 53.59165 | 14.97414 | 125° | 20km/h | 21227m | 5m/s | 0°C | 0% | 0hPa | 2.5V | 18:12:15 | 01:40:23 | 00:00:00 | |
| AM1SDL-15 | 2026-09-03 23:59:52 | 53.59177 | 14.97387 | 131° | 27km/h | 21211m | 4.8m/s | -53.1°C | 3.9% | 48.3hPa | 2.6V | 00:00:00 | 01:40:20 | 00:00:00 | |
| DL1XH-15 | 2026-09-03 23:59:48 | 53.59222 | 14.97314 | 146° | 26km/h | 21166m | 4.4m/s | -53.1°C | 3.9% | 48.6hPa | 2.6V | 08:30:00 | 01:40:11 | 00:00:00 | |
| DL1XH-west | 2026-09-03 23:59:48 | 53.59197 | 14.97353 | 136° | 26km/h | 21192m | 4.5m/s | -53.1°C | 0.6% | 48.5hPa | 2.5V | 18:12:15 | 01:40:16 | 00:00:00 | |
| DJ2DS-15 | 2026-09-03 23:59:48 | 53.59197 | 14.97353 | 137° | 33km/h | 21192m | 4.5m/s | -53.1°C | 3.9% | 48.4hPa | 2.5V | 00:00:00 | 01:40:16 | 00:00:00 | |
| AA1-15 | 2026-09-03 23:59:47 | 53.59202 | 14.97345 | 134° | 27km/h | 21186m | 5.8m/s | -53.1°C | 0.6% | 48.5hPa | 2.5V | 18:12:15 | 01:40:15 | 00:00:00 | |
| DF8AY | 2026-09-03 23:59:44 | 53.59217 | 14.97320 | 141° | 26km/h | 21171m | 5.7m/s | 0°C | 0% | 0hPa | 2.6V | 18:12:15 | 01:40:12 | 00:00:00 | |
| SP3WXH-11 | 2026-09-03 23:59:43 | 53.59222 | 14.97314 | 146° | 24km/h | 21166m | 4.4m/s | -53.1°C | 1.1% | 48.6hPa | 2.5V | 00:00:00 | 00:00:00 | 00:00:00 | |
| KRY50SP | 2026-09-03 23:59:41 | 53.59228 | 14.97308 | 147° | 26km/h | 21161m | 4.1m/s | -53.2°C | 1.1% | 48.7hPa | 2.5V | 00:00:00 | 00:00:00 | 00:00:00 | |
| DB0DAN | 2026-09-03 23:59:40 | 53.59239 | 14.97294 | 142° | 29km/h | 21151m | 4.6m/s | -53.3°C | 1.1% | 48.75hPa | 2.5V | 00:00:00 | 00:00:00 | 00:00:00 | |
| DL1XH-15 | 2026-09-03 23:59:38 | 53.59285 | 14.97226 | 133° | 40km/h | 21117m | 4.9m/s | -53.5°C | 4% | 49hPa | 2.6V | 08:30:00 | 01:40:01 | 00:00:00 | |
| AA1-15 | 2026-09-03 23:59:36 | 53.59264 | 14.97261 | 141° | 35km/h | 21132m | 4.3m/s | -53.5°C | 0.6% | 48.9hPa | 2.5V | 18:12:15 | 01:40:04 | 00:00:00 | |
| SONCRA | 2026-09-03 23:59:35 | 53.59278 | 14.97239 | 134° | 40km/h | 21122m | 5.1m/s | -53.5°C | 1.1% | 49.0hPa | 2.6V | 00:00:00 | 00:00:00 | 00:00:00 | |
| DF8AY | 2026-09-03 23:59:33 | 53.59286 | 14.97226 | 133° | 40km/h | 21117m | 4.9m/s | 0°C | 0% | 0hPa | 2.6V | 18:12:15 | 01:40:01 | 00:00:00 | |
| KRY50SP | 2026-09-03 23:59:31 | 53.59292 | 14.97214 | 134° | 38km/h | 21111m | 5.5m/s | -53.5°C | 1.1% | 49.1hPa | 2.6V | 00:00:00 | 00:00:00 | 00:00:00 | |
| DJ2DS-15 | 2026-09-03 23:59:28 | 53.59318 | 14.97167 | 131° | 42km/h | 21092m | 4.6m/s | -53.6°C | 4.0% | 49.2hPa | 2.6V | 00:00:00 | 01:39:56 | 00:00:00 | |
| AM1SDL-15 | 2026-09-03 23:59:27 | 53.59324 | 14.97154 | 131° | 42km/h | 21087m | 4.7m/s | -53.6°C | 4.0% | 49.2hPa | 2.6V | 00:00:00 | 01:39:55 | 08:30:00 | |
| AA1-15 | 2026-09-03 23:59:25 | 53.59336 | 14.97131 | 132° | 35km/h | 21076m | 4.1m/s | -53.6°C | 0.7% | 49.3hPa | 2.5V | 18:12:15 | 01:39:53 | 00:00:00 | |
| DL1XH-15 | 2026-09-03 23:59:23 | 53.59348 | 14.97108 | 129° | 38km/h | 21068m | 5.3m/s | -53.6°C | 4% | 49.4hPa | 2.5V | 08:30:00 | 01:39:51 | 00:00:00 | |
| DL1XH-west | 2026-09-03 23:59:23 | 53.59348 | 14.97108 | 129° | 38km/h | 21068m | 5.3m/s | -53.6°C | 0.7% | 49.4hPa | 2.5V | 18:12:15 | 01:39:51 | 00:00:00 | |
| SP3BTT-10 | 2026-09-03 23:59:21 | 53.59360 | 14.97079 | 126° | 35km/h | 21058m | 4.5m/s | -53.5°C | 4.0% | 49.4hPa | 2.6V | 00:00:00 | 00:00:00 | 00:00:00 | |
| KRY50SP | 2026-09-03 23:59:19 | 53.59367 | 14.97063 | 125° | 46km/h | 21053m | 5.3m/s | -53.5°C | 1.1% | 49.5hPa | 2.6V | 00:00:00 | 00:00:00 | 00:00:00 | |
| SONDE2-11 | 2026-09-03 23:59:17 | 53.59391 | 14.96996 | 117° | 47km/h | 21035m | 5.4m/s | -53.5°C | 1.1% | 49.6hPa | 2.6V | 00:00:00 | 00:00:00 | 00:00:00 | |
| EDDB2-11 | 2026-09-03 23:59:16 | 53.59396 | 14.96978 | 115° | 46km/h | 21030m | 4.6m/s | -53.5°C | 1.1% | 49.7hPa | 2.6V | 00:00:00 | 00:00:00 | 00:00:00 | |
| AA1-15 | 2026-09-03 23:59:15 | 53.59396 | 14.96978 | 116° | 47km/h | 21030m | 4.6m/s | -53.5°C | 0.6% | 49.7hPa | 2.6V | 18:12:15 | 01:39:43 | 00:00:00 | |
| KRY50SP | 2026-09-03 23:59:14 | 53.59396 | 14.96978 | 117° | 47km/h | 21030m | 4.6m/s | -53.5°C | 1.1% | 49.7hPa | 2.5V | 00:00:00 | 00:00:00 | 00:00:00 | |
| DL1XH-15 | 2026-09-03 23:59:13 | 53.59406 | 14.96943 | 116° | 42km/h | 21021m | 5.3m/s | -53.5°C | 4% | 49.8hPa | 2.5V | 08:30:00 | 01:39:41 | 00:00:00 | |
| SP3WXH-11 | 2026-09-03 23:59:12 | 53.59415 | 14.96913 | 115° | 38km/h | 21011m | 5.3m/s | -53.6°C | 1.1% | 49.8hPa | 2.6V | 00:00:00 | 00:00:00 | 00:00:00 | |
| DB0DAN | 2026-09-03 23:59:10 | 53.59420 | 14.96897 | 117° | 40km/h | 21006m | 5.2m/s | -53.6°C | 1.1% | 49.85hPa | 2.6V | 00:00:00 | 00:00:00 | 00:00:00 | |
| DL1XH-west | 2026-09-03 23:59:10 | 53.59420 | 14.96897 | 117° | 42km/h | 21006m | 5.2m/s | -53.6°C | 0.7% | 49.9hPa | 2.6V | 18:12:15 | 01:39:38 | 00:00:00 | |
| KRY50SP | 2026-09-03 23:59:09 | 53.59419 | 14.96897 | 118° | 42km/h | 21006m | 5.2m/s | -53.6°C | 1.1% | 49.9hPa | 2.6V | 00:00:00 | 00:00:00 | 00:00:00 | |
| DL1XH-15 | 2026-09-03 23:59:08 | 53.59453 | 14.96781 | 111° | 49km/h | 20973m | 3.7m/s | -53.6°C | 4% | 50.1hPa | 2.6V | 08:30:00 | 01:39:31 | 00:00:00 | |
| DJ2DS-15 | 2026-09-03 23:59:08 | 53.59429 | 14.96865 | 117° | 42km/h | 20996m | 5.2m/s | -53.5°C | 4.0% | 49.9hPa | 2.5V | 00:00:00 | 01:39:36 | 00:00:00 | |
| AA1-15 | 2026-09-03 23:59:04 | 53.59448 | 14.96800 | 114° | 47km/h | 20977m | 4.5m/s | -53.6°C | 0.7% | 50.1hPa | 2.6V | 18:12:15 | 01:39:32 | 00:00:00 | |
| AM1SDL-15 | 2026-09-03 23:59:03 | 53.59453 | 14.96780 | 112° | 44km/h | 20973m | 3.6m/s | -53.6°C | 4.0% | 50.1hPa | 2.5V | 00:00:00 | 01:39:31 | 00:00:00 | |
| DL1XH-west | 2026-09-03 23:58:54 | 53.59487 | 14.96632 | 112° | 38km/h | 20929m | 5.3m/s | -53.6°C | 0.6% | 50.5hPa | 2.5V | 18:12:15 | 01:39:22 | 00:00:00 | |
| DL1XH-15 | 2026-09-03 23:58:53 | 53.59491 | 14.96616 | 108° | 42km/h | 20924m | 4.7m/s | -53.5°C | 4% | 50.5hPa | 2.6V | 08:30:00 | 01:39:21 | 00:00:00 | |
| AA1-15 | 2026-09-03 23:58:53 | 53.59491 | 14.96616 | 109° | 42km/h | 20924m | 4.7m/s | -53.5°C | 0.7% | 50.5hPa | 2.6V | 18:12:15 | 01:39:21 | 00:00:00 | |
| SONDE2-11 | 2026-09-03 23:58:46 | 53.59513 | 14.96476 | 107° | 38km/h | 20887m | 5.7m/s | -53.6°C | 1.1% | 50.8hPa | 2.5V | 00:00:00 | 00:00:00 | 00:00:00 | |
| DL1XH-15 | 2026-09-03 23:58:43 | 53.59519 | 14.96448 | 111° | 33km/h | 20877m | 4.2m/s | -53.8°C | 4% | 50.9hPa | 2.5V | 08:30:00 | 01:39:11 | 00:00:00 | |
| AA1-15 | 2026-09-03 23:58:43 | 53.59519 | 14.96448 | 111° | 33km/h | 20877m | 4.2m/s | -53.8°C | 0.6% | 50.9hPa | 2.5V | 18:12:15 | 01:39:11 | 00:00:00 | |
| DL1XH-west | 2026-09-03 23:58:41 | 53.59525 | 14.96421 | 113° | 35km/h | 20867m | 5m/s | -54.1°C | 0.7% | 51hPa | 2.6V | 18:12:15 | 01:39:09 | 00:00:00 | |
| DB0DAN | 2026-09-03 23:58:40 | 53.59529 | 14.96407 | 114° | 35km/h | 20862m | 4.8m/s | -54.1°C | 1.2% | 51hPa | 2.6V | 00:00:00 | 00:00:00 | 00:00:00 | |
| DF8AY | 2026-09-03 23:58:34 | 53.59550 | 14.96321 | 106° | 40km/h | 20832m | 4.5m/s | 0°C | 0% | 0hPa | 2.6V | 18:12:15 | 01:39:02 | 00:00:00 | |
| DL1XH-15 | 2026-09-03 23:58:33 | 53.59553 | 14.96305 | 103° | 38km/h | 20827m | 4.8m/s | -54.2°C | 4.1% | 51.3hPa | 2.5V | 08:30:00 | 01:39:01 | 00:00:00 | |
| AA1-15 | 2026-09-03 23:58:32 | 53.59555 | 14.96290 | 102° | 35km/h | 20822m | 5.4m/s | -54.1°C | 0.8% | 51.3hPa | 2.5V | 18:12:15 | 01:39:00 | 00:00:00 | |
| DL1XH-west | 2026-09-03 23:58:31 | 53.59557 | 14.96276 | 104° | 33km/h | 20818m | 4m/s | -54.1°C | 0.7% | 51.4hPa | 2.5V | 18:12:15 | 01:38:59 | 00:00:00 | |
| KRY50SP | 2026-09-03 23:58:30 | 53.59557 | 14.96275 | 105° | 33km/h | 20818m | 4.0m/s | -54.1°C | 1.2% | 51.4hPa | 2.5V | 00:00:00 | 00:00:00 | 00:00:00 | |
| DJ2DS-15 | 2026-09-03 23:58:28 | 53.59564 | 14.96236 | 109° | 33km/h | 20803m | 4.0m/s | -54.0°C | 4.1% | 51.4hPa | 2.5V | 00:00:00 | 01:38:56 | 00:00:00 | |
| KRY50SP | 2026-09-03 23:58:25 | 53.59569 | 14.96211 | 110° | 29km/h | 20794m | 5.4m/s | -54.0°C | 1.2% | 51.5hPa | 2.5V | 00:00:00 | 00:00:00 | 00:00:00 | |
| DL1XH1-15 | 2026-09-03 23:58:24 | 53.59577 | 14.96162 | 103° | 35km/h | 20772m | 4.9m/s | -54.3°C | 4.2% | 51.7hPa | 2.5V | 08:30:00 | 01:38:50 | 00:00:00 | |
| DL1XH-15 | 2026-09-03 23:58:23 | 53.59575 | 14.96176 | 102° | 33km/h | 20777m | 5.8m/s | -54.2°C | 4.1% | 51.7hPa | 2.5V | 08:30:00 | 01:38:51 | 00:00:00 | |
| DF8AY | 2026-09-03 23:58:22 | 53.59577 | 14.96162 | 103° | 35km/h | 20772m | 4.9m/s | 0°C | 0% | 0hPa | 2.5V | 18:12:15 | 01:38:50 | 00:00:00 | |
| DL1XH-west | 2026-09-03 23:58:21 | 53.59579 | 14.96147 | 102° | 35km/h | 20767m | 4.8m/s | -54.4°C | 0.8% | 51.8hPa | 2.5V | 18:12:15 | 01:38:49 | 00:00:00 | |
| SP3BTT-10 | 2026-09-03 23:58:21 | 53.59579 | 14.96147 | 103° | 31km/h | 20767m | 4.7m/s | -54.3°C | 4.2% | 51.7hPa | 2.5V | 00:00:00 | 00:00:00 | 08:30:00 | |
| KRY50SP | 2026-09-03 23:58:19 | 53.59580 | 14.96132 | 104° | 35km/h | 20762m | 5.0m/s | -54.4°C | 1.2% | 51.8hPa | 2.6V | 00:00:00 | 00:00:00 | 00:00:00 | |
| DL1XH1-15 | 2026-09-03 23:58:14 | 53.59604 | 14.96017 | 104° | 29km/h | 20723m | 5.6m/s | -54.4°C | 4.2% | 52.1hPa | 2.6V | 08:30:00 | 01:38:40 | 00:00:00 | |
| DL1XH-15 | 2026-09-03 23:58:13 | 53.59602 | 14.96029 | 108° | 31km/h | 20728m | 3.9m/s | -54.4°C | 4.2% | 52.1hPa | 2.6V | 08:30:00 | 01:38:41 | 00:00:00 | |
| AA1-15 | 2026-09-03 23:58:11 | 53.59606 | 14.96004 | 100° | 31km/h | 20718m | 4.8m/s | -54.4°C | 0.8% | 52.1hPa | 2.5V | 18:12:15 | 01:38:39 | 00:00:00 | |
| DL1XH-west | 2026-09-03 23:58:10 | 53.59607 | 14.95991 | 96° | 31km/h | 20713m | 4.4m/s | -54.4°C | 0.9% | 52.2hPa | 2.5V | 18:12:15 | 01:38:38 | 00:00:00 | |
| SP3WXH-11 | 2026-09-03 23:58:10 | 53.59608 | 14.95979 | 91° | 27km/h | 20708m | 5.5m/s | -54.4°C | 1.2% | 52.2hPa | 2.5V | 00:00:00 | 00:00:00 | 00:00:00 | |
| DJ2DS-15 | 2026-09-03 23:58:08 | 53.59608 | 14.95966 | 86° | 29km/h | 20703m | 5.5m/s | -54.4°C | 4.2% | 52.2hPa | 2.5V | 00:00:00 | 01:38:36 | 08:30:00 | |
| DL1XH-15 | 2026-09-03 23:58:03 | 53.59608 | 14.95861 | 104° | 29km/h | 20665m | 5.3m/s | -54.3°C | 4.3% | 52.6hPa | 2.5V | 08:30:00 | 01:38:28 | 00:00:00 | |
| DL1XH1-15 | 2026-09-03 23:58:02 | 53.59605 | 14.95886 | 95° | 31km/h | 20675m | 5.8m/s | -54.3°C | 4.3% | 52.5hPa | 2.6V | 08:30:00 | 01:38:30 | 00:00:00 | |
| AA1-15 | 2026-09-03 23:58:01 | 53.59607 | 14.95873 | 100° | 29km/h | 20669m | 4.8m/s | -54.3°C | 0.9% | 52.5hPa | 2.6V | 18:12:15 | 01:38:29 | 00:00:00 | |
| DL1XH-west | 2026-09-03 23:58:00 | 53.59608 | 14.95861 | 104° | 29km/h | 20665m | 5.3m/s | -54.3°C | 0.9% | 52.6hPa | 2.5V | 18:12:15 | 01:38:28 | 00:00:00 | |
| DL1XH1-15 | 2026-09-03 23:57:57 | 53.59624 | 14.95765 | 101° | 33km/h | 20626m | 4.3m/s | -54.1°C | 4.2% | 52.9hPa | 2.6V | 08:30:00 | 01:38:20 | 00:00:00 | |
| KRY50SP | 2026-09-03 23:57:56 | 53.59614 | 14.95825 | 108° | 27km/h | 20651m | 5.2m/s | -54.2°C | 1.2% | 52.7hPa | 2.5V | 00:00:00 | 00:00:00 | 00:00:00 | |
| DL1XH-15 | 2026-09-03 23:57:53 | 53.59627 | 14.95738 | 100° | 31km/h | 20617m | 4.9m/s | -54.1°C | 4.1% | 53hPa | 2.5V | 08:30:00 | 01:38:18 | 00:00:00 | |
| DL1XH-west | 2026-09-03 23:57:50 | 53.59627 | 14.95738 | 101° | 31km/h | 20617m | 4.9m/s | -54.1°C | 0.8% | 53hPa | 2.5V | 18:12:15 | 01:38:18 | 00:00:00 | |
| DL2RXE-15 | 2026-09-03 23:57:49 | 53.59627 | 14.95738 | 102° | 31km/h | 20617m | 4.9m/s | 0°C | 0% | 0hPa | 2.5V | 00:00:00 | 00:00:00 | 00:00:00 | |
| DJ2DS-15 | 2026-09-03 23:57:48 | 53.59630 | 14.95713 | 104° | 29km/h | 20608m | 4.5m/s | -54.0°C | 4.2% | 53.0hPa | 2.5V | 00:00:00 | 01:38:16 | 00:00:00 | |
| KRY50SP | 2026-09-03 23:57:46 | 53.59632 | 14.95701 | 107° | 29km/h | 20603m | 5.1m/s | -54.0°C | 1.2% | 53.1hPa | 2.5V | 00:00:00 | 00:00:00 | 00:00:00 | |
| SONDE2-11 | 2026-09-03 23:57:44 | 53.59641 | 14.95649 | 98° | 29km/h | 20583m | 5.0m/s | -54.0°C | 1.2% | 53.3hPa | 2.5V | 00:00:00 | 00:00:00 | 00:00:00 | |
| DL1XH-15 | 2026-09-03 23:57:43 | 53.59647 | 14.95591 | 104° | 22km/h | 20558m | 5.7m/s | -54°C | 4.2% | 53.5hPa | 2.5V | 08:30:00 | 01:38:06 | 00:00:00 | |
| DL1XH1-15 | 2026-09-03 23:57:42 | 53.59642 | 14.95636 | 96° | 31km/h | 20578m | 4.9m/s | -54°C | 4.2% | 53.3hPa | 2.5V | 08:30:00 | 01:38:10 | 00:00:00 | |
| DL1XH-west | 2026-09-03 23:57:39 | 53.59646 | 14.95601 | 106° | 26km/h | 20563m | 5m/s | -54°C | 0.7% | 53.4hPa | 2.6V | 18:12:15 | 01:38:07 | 00:00:00 | |
| DL1XH-west | 2026-09-03 23:57:28 | 53.59674 | 14.95481 | 113° | 31km/h | 20504m | 5m/s | -53.8°C | 0.7% | 53.9hPa | 2.6V | 18:12:15 | 01:37:56 | 00:00:00 | |
| DJ2DS-15 | 2026-09-03 23:57:28 | 53.59674 | 14.95480 | 114° | 29km/h | 20504m | 5.0m/s | -53.7°C | 4.1% | 53.9hPa | 2.6V | 00:00:00 | 01:37:56 | 00:00:00 | |
| DO2SHX-10 | 2026-09-03 23:57:25 | 53.59682 | 14.95448 | 107° | 26km/h | 20489m | 5.2m/s | -53.6°C | 4.0% | 54.0hPa | 2.6V | 00:00:00 | 01:37:53 | 00:00:00 | |
| DL1XH-15 | 2026-09-03 23:57:23 | 53.59695 | 14.95367 | 103° | 31km/h | 20450m | 4m/s | -53.6°C | 4% | 54.4hPa | 2.6V | 08:30:00 | 01:37:46 | 00:00:00 | |
| AA1-15 | 2026-09-03 23:57:17 | 53.59697 | 14.95354 | 105° | 33km/h | 20445m | 5.6m/s | -53.6°C | 0.7% | 54.4hPa | 2.5V | 18:12:15 | 01:37:45 | 00:00:00 | |
| DL1XH-15 | 2026-09-03 23:57:13 | 53.59720 | 14.95250 | 118° | 24km/h | 20401m | 6.1m/s | -53.9°C | 4.1% | 54.8hPa | 2.6V | 08:30:00 | 01:37:36 | 00:00:00 | |
| DB0DAN | 2026-09-03 23:57:10 | 53.59714 | 14.95270 | 117° | 26km/h | 20411m | 4.5m/s | -53.8°C | 1.1% | 54.69hPa | 2.5V | 00:00:00 | 00:00:00 | 00:00:00 | |
| DL1XH-west | 2026-09-03 23:57:07 | 53.59723 | 14.95242 | 115° | 22km/h | 20396m | 5.2m/s | -54°C | 0.8% | 54.8hPa | 2.5V | 18:12:15 | 01:37:35 | 00:00:00 | |
| AA1-15 | 2026-09-03 23:57:06 | 53.59725 | 14.95233 | 112° | 22km/h | 20391m | 4.4m/s | -54°C | 0.8% | 54.9hPa | 2.5V | 18:12:15 | 01:37:34 | 00:00:00 | |
| KRY50SP | 2026-09-03 23:57:05 | 53.59725 | 14.95233 | 113° | 22km/h | 20391m | 4.4m/s | -54.0°C | 1.2% | 54.8hPa | 2.5V | 00:00:00 | 00:00:00 | 00:00:00 | |
| DL1XH-15 | 2026-09-03 23:57:03 | 53.59753 | 14.95146 | 121° | 31km/h | 20351m | 5.9m/s | -53.8°C | 4.2% | 55.2hPa | 2.5V | 08:30:00 | 01:37:26 | 00:00:00 | |
| DL1XH1-15 | 2026-09-03 23:57:02 | 53.59749 | 14.95158 | 121° | 31km/h | 20356m | 4.6m/s | -53.9°C | 4.2% | 55.2hPa | 2.5V | 08:30:00 | 01:37:27 | 00:00:00 | |
| DL1XH-west | 2026-09-03 23:56:56 | 53.59762 | 14.95124 | 120° | 31km/h | 20342m | 4.6m/s | -53.7°C | 0.8% | 55.3hPa | 2.6V | 18:12:15 | 01:37:24 | 00:00:00 | |
| DB0DAN | 2026-09-03 23:56:55 | 53.59765 | 14.95113 | 120° | 27km/h | 20336m | 6.1m/s | -53.7°C | 1.2% | 55.36hPa | 2.6V | 00:00:00 | 00:00:00 | 00:00:00 | |
| AA1-15 | 2026-09-03 23:56:55 | 53.59765 | 14.95113 | 120° | 27km/h | 20336m | 6.1m/s | -53.7°C | 0.8% | 55.4hPa | 2.6V | 18:12:15 | 01:37:23 | 00:00:00 | |
| AM1SDL-15 | 2026-09-03 23:56:54 | 53.59768 | 14.95103 | 119° | 26km/h | 20330m | 4.8m/s | -53.6°C | 4.2% | 55.3hPa | 2.5V | 00:00:00 | 01:37:22 | 00:00:00 | |
| DL1XH-15 | 2026-09-03 23:56:53 | 53.59787 | 14.95044 | 107° | 26km/h | 20299m | 5.5m/s | -53.4°C | 4.1% | 55.6hPa | 2.5V | 08:30:00 | 01:37:16 | 00:00:00 | |
| DL1XH-west | 2026-09-03 23:56:46 | 53.59790 | 14.95024 | 106° | 24km/h | 20289m | 6m/s | -53.4°C | 0.7% | 55.8hPa | 2.6V | 18:12:15 | 01:37:14 | 00:00:00 | |
| AA1-15 | 2026-09-03 23:56:45 | 53.59792 | 14.95014 | 112° | 24km/h | 20283m | 5m/s | -53.4°C | 0.8% | 55.8hPa | 2.6V | 18:12:15 | 01:37:13 | 00:00:00 | |
| KRY50SP | 2026-09-03 23:56:42 | 53.59796 | 14.94995 | 109° | 24km/h | 20273m | 6.2m/s | -53.3°C | 1.1% | 55.9hPa | 2.6V | 00:00:00 | 00:00:00 | 00:00:00 | |
| DB0DAN | 2026-09-03 23:56:40 | 53.59802 | 14.94967 | 114° | 24km/h | 20257m | 5.9m/s | -53.3°C | 1.2% | 56.02hPa | 2.6V | 00:00:00 | 00:00:00 | 00:00:00 | |
| DL1XH-west | 2026-09-03 23:56:36 | 53.59813 | 14.94924 | 102° | 27km/h | 20237m | 4.7m/s | -53.2°C | 0.7% | 56.2hPa | 2.6V | 18:12:15 | 01:37:04 | 00:00:00 | |
| DL1XH1-15 | 2026-09-03 23:56:34 | 53.59815 | 14.94902 | 100° | 26km/h | 20227m | 5.8m/s | -53.2°C | 4% | 56.3hPa | 2.5V | 08:30:00 | 01:37:02 | 00:00:00 | |
| AA1-15 | 2026-09-03 23:56:34 | 53.59815 | 14.94902 | 101° | 26km/h | 20227m | 5.8m/s | -53.2°C | 0.7% | 56.3hPa | 2.5V | 18:12:15 | 01:37:02 | 00:00:00 | |
| KRY50SP | 2026-09-03 23:56:31 | 53.59818 | 14.94882 | 104° | 22km/h | 20217m | 4.6m/s | -53.2°C | 1.2% | 56.4hPa | 2.6V | 00:00:00 | 00:00:00 | 00:00:00 | |
| AM1SDL-15 | 2026-09-03 23:56:30 | 53.59819 | 14.94863 | 93° | 26km/h | 20206m | 4.8m/s | -53.1°C | 4.0% | 56.4hPa | 2.6V | 00:00:00 | 01:36:58 | 08:30:00 | |
| DL1XH1-15 | 2026-09-03 23:56:29 | 53.59824 | 14.94804 | 98° | 26km/h | 20174m | 4.9m/s | -53.1°C | 4% | 56.8hPa | 2.5V | 08:30:00 | 01:36:52 | 00:00:00 | |
| DL1XH-west | 2026-09-03 23:56:25 | 53.59824 | 14.94815 | 99° | 26km/h | 20179m | 5.4m/s | -53.1°C | 0.7% | 56.7hPa | 2.6V | 18:12:15 | 01:36:53 | 00:00:00 | |
| AA1-15 | 2026-09-03 23:56:23 | 53.59826 | 14.94793 | 101° | 26km/h | 20169m | 5.5m/s | -53°C | 0.7% | 56.8hPa | 2.5V | 18:12:15 | 01:36:51 | 00:00:00 | |
| DL1XH-15 | 2026-09-03 23:56:21 | 53.59830 | 14.94739 | 80° | 24km/h | 20143m | 4.4m/s | -53°C | 4% | 57hPa | 2.6V | 08:30:00 | 01:36:46 | 00:00:00 | |
| SP3BTT-10 | 2026-09-03 23:56:20 | 53.59830 | 14.94760 | 96° | 22km/h | 20154m | 5.6m/s | -52.9°C | 4.0% | 56.9hPa | 2.5V | 00:00:00 | 00:00:00 | 00:00:00 | |
| AM1SDL-15 | 2026-09-03 23:56:18 | 53.59830 | 14.94739 | 81° | 24km/h | 20143m | 4.3m/s | -52.9°C | 4.0% | 57.0hPa | 2.5V | 00:00:00 | 01:36:46 | 00:00:00 | |
| DL1XH1-15 | 2026-09-03 23:56:17 | 53.59825 | 14.94703 | 81° | 24km/h | 20121m | 5.9m/s | -52.9°C | 3.9% | 57.2hPa | 2.5V | 08:30:00 | 01:36:42 | 00:00:00 | |
| DL1XH-west | 2026-09-03 23:56:15 | 53.59826 | 14.94712 | 78° | 22km/h | 20127m | 4.8m/s | -52.9°C | 0.7% | 57.2hPa | 2.5V | 18:12:15 | 01:36:43 | 00:00:00 | |
| AA1-15 | 2026-09-03 23:56:13 | 53.59824 | 14.94692 | 83° | 26km/h | 20116m | 4.2m/s | -52.8°C | 0.7% | 57.3hPa | 2.6V | 18:12:15 | 01:36:41 | 00:00:00 | |
| DB0DAN | 2026-09-03 23:56:10 | 53.59824 | 14.94660 | 96° | 24km/h | 20101m | 4.8m/s | -52.8°C | 1.1% | 57.36hPa | 2.5V | 00:00:00 | 00:00:00 | 00:00:00 | |
| EDDB2-11 | 2026-09-03 23:56:09 | 53.59825 | 14.94649 | 93° | 24km/h | 20096m | 4.5m/s | -52.7°C | 1.1% | 57.4hPa | 2.6V | 00:00:00 | 00:00:00 | 00:00:00 | |
| DJ2DS-15 | 2026-09-03 23:56:08 | 53.59825 | 14.94638 | 91° | 27km/h | 20091m | 6.0m/s | -52.7°C | 3.9% | 57.4hPa | 2.6V | 00:00:00 | 01:36:36 | 00:00:00 | |
| DL1XH1-15 | 2026-09-03 23:56:04 | 53.59821 | 14.94594 | 81° | 24km/h | 20070m | 4.7m/s | -52.7°C | 3.9% | 57.6hPa | 2.5V | 08:30:00 | 01:36:32 | 00:00:00 | |
| DL1XH-west | 2026-09-03 23:56:04 | 53.59821 | 14.94594 | 81° | 24km/h | 20070m | 4.7m/s | -52.7°C | 0.6% | 57.6hPa | 2.5V | 18:12:15 | 01:36:32 | 00:00:00 | |
| DL1XH-15 | 2026-09-03 23:56:04 | 53.59814 | 14.94524 | 83° | 26km/h | 20039m | 5.1m/s | -52.8°C | 3.9% | 58hPa | 2.6V | 08:30:00 | 01:36:26 | 00:00:00 | |
| AA1-15 | 2026-09-03 23:56:02 | 53.59819 | 14.94573 | 78° | 27km/h | 20060m | 6.1m/s | -52.8°C | 0.7% | 57.8hPa | 2.6V | 18:12:15 | 01:36:30 | 00:00:00 | |
| SONCRA | 2026-09-03 23:55:58 | 53.59809 | 14.94467 | 86° | 26km/h | 20013m | 5.8m/s | 0°C | -1.0% | -1.0hPa | 2.5V | 00:00:00 | 00:00:00 | 00:00:00 | |
| KRY50SP | 2026-09-03 23:55:57 | 53.59814 | 14.94524 | 84° | 26km/h | 20039m | 5.1m/s | -52.8°C | 1.1% | 58.0hPa | 2.5V | 00:00:00 | 00:00:00 | 00:00:00 | |
| AM1SDL-15 | 2026-09-03 23:55:54 | 53.59810 | 14.94478 | 81° | 31km/h | 20019m | 4.3m/s | -52.9°C | 3.9% | 58.1hPa | 2.5V | 00:00:00 | 01:36:22 | 00:00:00 | |
| DL1XH-15 | 2026-09-03 23:55:53 | 53.59806 | 14.94404 | 84° | 35km/h | 19988m | 4.7m/s | -52.9°C | 3.9% | 58.4hPa | 2.6V | 08:30:00 | 01:36:16 | 00:00:00 | |
| DL1XH-west | 2026-09-03 23:55:53 | 53.59809 | 14.94467 | 87° | 27km/h | 20013m | 5.8m/s | -53°C | 0.7% | 58.2hPa | 2.6V | 18:12:15 | 01:36:21 | 00:00:00 | |
| AA1-15 | 2026-09-03 23:55:52 | 53.59809 | 14.94455 | 89° | 27km/h | 20008m | 4.5m/s | -53°C | 0.7% | 58.2hPa | 2.6V | 18:12:15 | 01:36:20 | 00:00:00 | |
| DJ2DS-15 | 2026-09-03 23:55:48 | 53.59806 | 14.94403 | 85° | 29km/h | 19988m | 4.6m/s | -52.9°C | 3.9% | 58.3hPa | 2.6V | 00:00:00 | 01:36:16 | 00:00:00 | |
| KRY50SP | 2026-09-03 23:55:46 | 53.59806 | 14.94389 | 87° | 35km/h | 19983m | 5.7m/s | -52.9°C | 1.2% | 58.4hPa | 2.6V | 00:00:00 | 00:00:00 | 00:00:00 | |
| DL1XH-15 | 2026-09-03 23:55:43 | 53.59797 | 14.94273 | 87° | 29km/h | 19938m | 5.6m/s | -53.1°C | 4% | 58.9hPa | 2.6V | 08:30:00 | 01:36:06 | 00:00:00 | |
| DL1XH-west | 2026-09-03 23:55:42 | 53.59801 | 14.94321 | 79° | 31km/h | 19959m | 4.7m/s | -53.2°C | 0.7% | 58.7hPa | 2.6V | 18:12:15 | 01:36:10 | 00:00:00 | |
| AA1-15 | 2026-09-03 23:55:41 | 53.59799 | 14.94309 | 80° | 29km/h | 19953m | 6.2m/s | -53.2°C | 0.7% | 58.7hPa | 2.5V | 18:12:15 | 01:36:09 | 00:00:00 | |
| DJ2DS-15 | 2026-09-03 23:55:40 | 53.59798 | 14.94297 | 83° | 26km/h | 19948m | 4.7m/s | -53.2°C | 1.2% | 58.8hPa | 2.6V | 00:00:00 | 00:00:00 | 00:00:00 | |
| DL1XH1-15 | 2026-09-03 23:55:37 | 53.59797 | 14.94261 | 85° | 31km/h | 19933m | 5.1m/s | -53.1°C | 4% | 58.9hPa | 2.6V | 08:30:00 | 01:36:05 | 00:00:00 | |
| KRY50SP | 2026-09-03 23:55:35 | 53.59796 | 14.94247 | 86° | 31km/h | 19928m | 4.5m/s | -53.0°C | 1.2% | 58.9hPa | 2.6V | 00:00:00 | 00:00:00 | 00:00:00 | |
| SP3WXH-11 | 2026-09-03 23:55:34 | 53.59795 | 14.94223 | 89° | 26km/h | 19918m | 5.3m/s | -53.0°C | 1.1% | 59.0hPa | 2.6V | 00:00:00 | 00:00:00 | 00:00:00 | |
| DL1XH-15 | 2026-09-03 23:55:33 | 53.59783 | 14.94162 | 58° | 24km/h | 19887m | 5.6m/s | -52.8°C | 4% | 59.4hPa | 2.6V | 08:30:00 | 01:35:56 | 00:00:00 | |
| DL1XH-west | 2026-09-03 23:55:31 | 53.59792 | 14.94191 | 70° | 26km/h | 19903m | 5.2m/s | -52.9°C | 0.7% | 59.2hPa | 2.5V | 18:12:15 | 01:35:59 | 00:00:00 | |
| AA1-15 | 2026-09-03 23:55:30 | 53.59789 | 14.94181 | 63° | 27km/h | 19898m | 4.6m/s | -52.9°C | 0.6% | 59.2hPa | 2.5V | 18:12:15 | 01:35:58 | 00:00:00 | |
| DL1XH1-15 | 2026-09-03 23:55:27 | 53.59780 | 14.94154 | 56° | 22km/h | 19882m | 5.1m/s | -52.8°C | 4% | 59.4hPa | 2.6V | 08:30:00 | 01:35:55 | 00:00:00 | |
| KRY50SP | 2026-09-03 23:55:24 | 53.59774 | 14.94139 | 60° | 22km/h | 19872m | 5.1m/s | -52.7°C | 1.2% | 59.5hPa | 2.6V | 00:00:00 | 00:00:00 | 00:00:00 | |
| DL1XH-15 | 2026-09-03 23:55:23 | 53.59769 | 14.94078 | 75° | 24km/h | 19837m | 4.1m/s | -52.7°C | 3.9% | 59.8hPa | 2.6V | 08:30:00 | 01:35:46 | 00:00:00 | |
| DL1XH-west | 2026-09-03 23:55:20 | 53.59770 | 14.94097 | 91° | 22km/h | 19847m | 5.3m/s | -52.6°C | 0.6% | 59.7hPa | 2.5V | 18:12:15 | 01:35:48 | 00:00:00 | |
| KRY50SP | 2026-09-03 23:55:19 | 53.59770 | 14.94097 | 92° | 22km/h | 19847m | 5.3m/s | -52.6°C | 1.1% | 59.7hPa | 2.6V | 00:00:00 | 00:00:00 | 00:00:00 | |
| DL1XH1-15 | 2026-09-03 23:55:17 | 53.59767 | 14.94068 | 69° | 22km/h | 19832m | 5.4m/s | -52.7°C | 3.9% | 59.8hPa | 2.6V | 08:30:00 | 01:35:45 | 00:00:00 | |
| DL1XH-west | 2026-09-03 23:55:09 | 53.59747 | 14.94020 | 99° | 16km/h | 19792m | 4.7m/s | -52.6°C | 0.6% | 60.2hPa | 2.5V | 18:12:15 | 01:35:37 | 00:00:00 | |
| DJ2DS-15 | 2026-09-03 23:55:08 | 53.59748 | 14.94012 | 105° | 16km/h | 19788m | 5.3m/s | -52.6°C | 3.9% | 60.2hPa | 2.6V | 00:00:00 | 01:35:36 | 08:30:00 | |
| DL1XH1-15 | 2026-09-03 23:55:07 | 53.59750 | 14.94003 | 105° | 24km/h | 19782m | 4m/s | -52.6°C | 3.9% | 60.2hPa | 2.6V | 08:30:00 | 01:35:35 | 00:00:00 | |
| SP3BTT-10 | 2026-09-03 23:55:06 | 53.59751 | 14.93993 | 107° | 26km/h | 19779m | 4.3m/s | -52.6°C | 3.9% | 60.3hPa | 2.5V | 00:00:00 | 00:00:00 | 00:00:00 | |
| KRY50SP | 2026-09-03 23:55:02 | 53.59756 | 14.93966 | 98° | 20km/h | 19765m | 5.3m/s | -52.6°C | 1.2% | 60.4hPa | 2.5V | 00:00:00 | 00:00:00 | 00:00:00 | |
| DL1XH1-15 | 2026-09-03 23:55:01 | 53.59756 | 14.93926 | 115° | 7km/h | 19731m | 5.3m/s | -52.5°C | 3.9% | 60.8hPa | 2.5V | 08:30:00 | 01:35:24 | 00:00:00 | |
| DL1XH-west | 2026-09-03 23:54:59 | 53.59754 | 14.93936 | 82° | 13km/h | 19746m | 5.6m/s | -52.6°C | 0.6% | 60.6hPa | 2.5V | 18:12:15 | 01:35:27 | 00:00:00 | |
| AM1SDL-15 | 2026-09-03 23:54:58 | 53.59754 | 14.93932 | 103° | 15km/h | 19741m | 4.4m/s | -52.5°C | 3.9% | 60.6hPa | 2.5V | 00:00:00 | 01:35:26 | 00:00:00 | |
| KRY50SP | 2026-09-03 23:54:57 | 53.59755 | 14.93932 | 104° | 9km/h | 19741m | 4.5m/s | -52.5°C | 1.1% | 60.7hPa | 2.5V | 00:00:00 | 00:00:00 | 00:00:00 | |
| DL1XH-15 | 2026-09-03 23:54:53 | 53.59767 | 14.93903 | 135° | 18km/h | 19707m | 4.1m/s | -52.4°C | 3.8% | 61hPa | 2.5V | 08:30:00 | 01:35:19 | 00:00:00 | |
| DL1XH-west | 2026-09-03 23:54:49 | 53.59772 | 14.93890 | 119° | 18km/h | 19698m | 5m/s | -52.4°C | 0.6% | 61.1hPa | 2.5V | 18:12:15 | 01:35:17 | 00:00:00 | |
| DL1XH1-15 | 2026-09-03 23:54:47 | 53.59777 | 14.93870 | 121° | 16km/h | 19683m | 4.9m/s | -52.3°C | 3.8% | 61.2hPa | 2.5V | 08:30:00 | 01:35:14 | 00:00:00 | |
| KRY50SP | 2026-09-03 23:54:46 | 53.59776 | 14.93877 | 112° | 16km/h | 19689m | 5.1m/s | -52.3°C | 1.1% | 61.2hPa | 2.5V | 00:00:00 | 00:00:00 | 00:00:00 | |
| AM1SDL-15 | 2026-09-03 23:54:44 | 53.59782 | 14.93860 | 133° | 18km/h | 19675m | 4.6m/s | -52.3°C | 3.7% | 61.3hPa | 2.5V | 00:00:00 | 01:35:12 | 00:00:00 | |
| DL1XH-15 | 2026-09-03 23:54:43 | 53.59791 | 14.93845 | 141° | 18km/h | 19660m | 5.2m/s | -52.5°C | 3.8% | 61.4hPa | 2.5V | 08:30:00 | 01:35:09 | 00:00:00 | |
| DL1XH1-15 | 2026-09-03 23:54:41 | 53.59810 | 14.93822 | 127° | 18km/h | 19636m | 4.5m/s | -52.4°C | 3.8% | 61.6hPa | 2.5V | 08:30:00 | 01:35:04 | 00:00:00 | |
| DL1XH-west | 2026-09-03 23:54:38 | 53.59803 | 14.93833 | 149° | 18km/h | 19646m | 4.4m/s | -52.5°C | 0.6% | 61.6hPa | 2.6V | 18:12:15 | 01:35:06 | 00:00:00 | |
| DL2RXE-15 | 2026-09-03 23:54:35 | 53.59810 | 14.93822 | 129° | 18km/h | 19637m | 4.5m/s | 0°C | 0% | 0hPa | 2.6V | 00:00:00 | 00:00:00 | 00:00:00 | |
| AA1-15 | 2026-09-03 23:54:28 | 53.59834 | 14.93764 | 137° | 22km/h | 19599m | 4.4m/s | -52.6°C | 0.6% | 62hPa | 2.6V | 18:12:15 | 01:34:56 | 00:00:00 | |
| DL1XH-west | 2026-09-03 23:54:27 | 53.59839 | 14.93757 | 143° | 24km/h | 19595m | 3.6m/s | -52.7°C | 0.6% | 62hPa | 2.6V | 18:12:15 | 01:34:55 | 00:00:00 | |
| DB0DAN | 2026-09-03 23:54:25 | 53.59849 | 14.93744 | 141° | 27km/h | 19586m | 4.4m/s | -52.9°C | 1.1% | 62.11hPa | 2.5V | 00:00:00 | 00:00:00 | 00:00:00 | |
| KRY50SP | 2026-09-03 23:54:24 | 53.59849 | 14.93744 | 142° | 29km/h | 19587m | 4.4m/s | -52.9°C | 1.1% | 62.1hPa | 2.5V | 00:00:00 | 00:00:00 | 00:00:00 | |
| DL1XH1-15 | 2026-09-03 23:54:20 | 53.59896 | 14.93647 | 113° | 29km/h | 19540m | 4.2m/s | -52.7°C | 3.9% | 62.6hPa | 2.5V | 08:30:00 | 01:34:43 | 00:00:00 | |
| AA1-15 | 2026-09-03 23:54:18 | 53.59887 | 14.93684 | 118° | 33km/h | 19554m | 4.6m/s | -52.8°C | 0.7% | 62.4hPa | 2.6V | 18:12:15 | 01:34:46 | 00:00:00 | |
| DL1XH-west | 2026-09-03 23:54:16 | 53.59893 | 14.93659 | 113° | 31km/h | 19545m | 5m/s | -52.7°C | 0.7% | 62.5hPa | 2.5V | 18:12:15 | 01:34:44 | 00:00:00 | |
| AA1-15 | 2026-09-03 23:54:07 | 53.59928 | 14.93552 | 120° | 35km/h | 19503m | 4.6m/s | -52.6°C | 0.6% | 62.9hPa | 2.6V | 18:12:15 | 01:34:35 | 00:00:00 | |
| DL1XH1-15 | 2026-09-03 23:54:07 | 53.59937 | 14.93527 | 120° | 33km/h | 19494m | 5.3m/s | -52.6°C | 3.9% | 63hPa | 2.5V | 08:30:00 | 01:34:33 | 00:00:00 | |
| DL1XH-west | 2026-09-03 23:54:06 | 53.59932 | 14.93539 | 120° | 35km/h | 19499m | 4.3m/s | -52.6°C | 0.6% | 63hPa | 2.5V | 18:12:15 | 01:34:34 | 00:00:00 | |
| EDDB2-11 | 2026-09-03 23:54:05 | 53.59936 | 14.93527 | 120° | 31km/h | 19494m | 5.3m/s | -52.6°C | 1.1% | 63.0hPa | 2.5V | 00:00:00 | 00:00:00 | 00:00:00 | |
| DL1XH-15 | 2026-09-03 23:54:03 | 53.59954 | 14.93466 | 117° | 33km/h | 19472m | 4.7m/s | -52.7°C | 3.9% | 63.2hPa | 2.5V | 08:30:00 | 01:34:28 | 00:00:00 | |
| SP3WXH-11 | 2026-09-03 23:54:01 | 53.59951 | 14.93479 | 114° | 33km/h | 19476m | 4.3m/s | -52.7°C | 1.1% | 63.2hPa | 2.5V | 00:00:00 | 00:00:00 | 00:00:00 | |
| DL1XH1-15 | 2026-09-03 23:54:00 | 53.59977 | 14.93411 | 128° | 35km/h | 19448m | 3.9m/s | -52.7°C | 3.9% | 63.5hPa | 2.5V | 08:30:00 | 01:34:23 | 00:00:00 | |
| AA1-15 | 2026-09-03 23:53:56 | 53.59972 | 14.93422 | 127° | 35km/h | 19453m | 5.2m/s | -52.7°C | 0.6% | 63.4hPa | 2.5V | 18:12:15 | 01:34:24 | 00:00:00 | |
| DB0DAN | 2026-09-03 23:53:55 | 53.59977 | 14.93411 | 128° | 33km/h | 19448m | 3.9m/s | -52.7°C | 1.1% | 63.47hPa | 2.5V | 00:00:00 | 00:00:00 | 00:00:00 | |
| DL1XH-west | 2026-09-03 23:53:55 | 53.59977 | 14.93411 | 128° | 35km/h | 19448m | 3.9m/s | -52.7°C | 0.6% | 63.5hPa | 2.5V | 18:12:15 | 01:34:23 | 00:00:00 | |
| AM1SDL-15 | 2026-09-03 23:53:54 | 53.59983 | 14.93399 | 130° | 31km/h | 19443m | 5.0m/s | -52.6°C | 3.8% | 63.5hPa | 2.5V | 00:00:00 | 01:34:22 | 00:00:00 | |
| KRY50SP | 2026-09-03 23:53:50 | 53.59998 | 14.93365 | 124° | 33km/h | 19429m | 5.3m/s | -52.6°C | 1.1% | 63.7hPa | 2.5V | 00:00:00 | 00:00:00 | 00:00:00 | |
| DL1XH1-15 | 2026-09-03 23:53:47 | 53.60017 | 14.93298 | 108° | 29km/h | 19402m | 5.1m/s | -52.6°C | 3.9% | 63.9hPa | 2.5V | 08:30:00 | 01:34:13 | 00:00:00 | |
| AA1-15 | 2026-09-03 23:53:46 | 53.60015 | 14.93309 | 109° | 27km/h | 19407m | 4.1m/s | -52.7°C | 0.6% | 63.9hPa | 2.5V | 18:12:15 | 01:34:14 | 00:00:00 | |
| KRY50SP | 2026-09-03 23:53:46 | 53.60015 | 14.93309 | 110° | 27km/h | 19407m | 4.1m/s | -52.7°C | 1.1% | 63.9hPa | 2.6V | 00:00:00 | 00:00:00 | 00:00:00 | |
| DJ2DS-15 | 2026-09-03 23:53:44 | 53.60019 | 14.93286 | 110° | 31km/h | 19398m | 4.2m/s | -52.6°C | 3.9% | 63.9hPa | 2.6V | 00:00:00 | 01:34:12 | 00:00:00 | |
| DL1XH-west | 2026-09-03 23:53:44 | 53.60020 | 14.93286 | 109° | 29km/h | 19398m | 4.3m/s | -52.7°C | 0.6% | 64hPa | 2.5V | 18:12:15 | 01:34:12 | 00:00:00 | |
| AM1SDL-15 | 2026-09-03 23:53:42 | 53.60024 | 14.93263 | 110° | 29km/h | 19388m | 5.0m/s | -52.6°C | 3.9% | 64.0hPa | 2.6V | 00:00:00 | 01:34:10 | 00:00:00 | |
| DL1XH1-15 | 2026-09-03 23:53:40 | 53.60043 | 14.93178 | 108° | 29km/h | 19354m | 5.2m/s | -52.5°C | 3.9% | 64.4hPa | 2.5V | 08:30:00 | 01:34:03 | 00:00:00 | |
| DB0DAN | 2026-09-03 23:53:40 | 53.60029 | 14.93240 | 112° | 31km/h | 19379m | 5.9m/s | -52.6°C | 1.1% | 64.15hPa | 2.5V | 00:00:00 | 00:00:00 | 00:00:00 | |
| AA1-15 | 2026-09-03 23:53:35 | 53.60043 | 14.93178 | 109° | 29km/h | 19354m | 5.2m/s | -52.5°C | 0.6% | 64.4hPa | 2.5V | 18:12:15 | 01:34:03 | 00:00:00 | |
| DL1XH-west | 2026-09-03 23:53:34 | 53.60045 | 14.93166 | 112° | 33km/h | 19349m | 4.9m/s | -52.5°C | 0.6% | 64.4hPa | 2.5V | 18:12:15 | 01:34:02 | 00:00:00 | |
| DL1XH-15 | 2026-09-03 23:53:33 | 53.60056 | 14.93120 | 111° | 27km/h | 19330m | 3.8m/s | -52.5°C | 3.8% | 64.6hPa | 2.5V | 08:30:00 | 01:33:58 | 00:00:00 | |
| AM1SDL-15 | 2026-09-03 23:53:30 | 53.60056 | 14.93120 | 112° | 35km/h | 19331m | 3.8m/s | -52.5°C | 3.8% | 64.6hPa | 2.5V | 00:00:00 | 01:33:58 | 00:00:00 | |
| KRY50SP | 2026-09-03 23:53:28 | 53.60058 | 14.93108 | 112° | 29km/h | 19326m | 5.2m/s | -52.5°C | 1.1% | 64.7hPa | 2.5V | 00:00:00 | 00:00:00 | 00:00:00 | |
| DL1XH1-15 | 2026-09-03 23:53:27 | 53.60072 | 14.93058 | 115° | 33km/h | 19308m | 4.1m/s | -52.5°C | 3.8% | 64.8hPa | 2.5V | 08:30:00 | 01:33:53 | 00:00:00 | |
| AA1-15 | 2026-09-03 23:53:25 | 53.60072 | 14.93058 | 116° | 33km/h | 19308m | 4.1m/s | -52.5°C | 0.6% | 64.8hPa | 2.5V | 18:12:15 | 01:33:53 | 00:00:00 | |
| DJ2DS-15 | 2026-09-03 23:53:24 | 53.60076 | 14.93045 | 117° | 37km/h | 19305m | 3.5m/s | -52.5°C | 3.8% | 64.8hPa | 2.5V | 00:00:00 | 01:33:52 | 00:00:00 | |
| DL1XH-15 | 2026-09-03 23:53:23 | 53.60092 | 14.92988 | 114° | 38km/h | 19288m | 4.7m/s | -52.5°C | 3.8% | 65hPa | 2.5V | 08:30:00 | 01:33:48 | 00:00:00 | |
| DL1XH-west | 2026-09-03 23:53:23 | 53.60080 | 14.93032 | 115° | 35km/h | 19301m | 4.7m/s | -52.5°C | 0.5% | 64.9hPa | 2.6V | 18:12:15 | 01:33:51 | 00:00:00 | |
| KRY50SP | 2026-09-03 23:53:22 | 53.60080 | 14.93032 | 116° | 35km/h | 19301m | 4.7m/s | -52.5°C | 1.1% | 64.9hPa | 2.5V | 00:00:00 | 00:00:00 | 00:00:00 | |
| DL1XH1-15 | 2026-09-03 23:53:20 | 53.60104 | 14.92916 | 92° | 37km/h | 19266m | 3.8m/s | -52.3°C | 3.7% | 65.3hPa | 2.5V | 08:30:00 | 01:33:43 | 00:00:00 | |
| AA1-15 | 2026-09-03 23:53:14 | 53.60104 | 14.92901 | 95° | 35km/h | 19262m | 5.1m/s | -52.3°C | 0.5% | 65.3hPa | 2.5V | 18:12:15 | 01:33:42 | 00:00:00 | |
| DL1XH-15 | 2026-09-03 23:53:13 | 53.60110 | 14.92840 | 103° | 40km/h | 19244m | 4.2m/s | -52.3°C | 3.7% | 65.5hPa | 2.5V | 08:30:00 | 01:33:38 | 00:00:00 | |
| DL1XH-west | 2026-09-03 23:53:13 | 53.60105 | 14.92886 | 97° | 35km/h | 19258m | 4.2m/s | -52.3°C | 0.5% | 65.4hPa | 2.6V | 18:12:15 | 01:33:41 | 00:00:00 | |
| KRY50SP | 2026-09-03 23:53:11 | 53.60106 | 14.92872 | 101° | 35km/h | 19254m | 4.0m/s | -52.3°C | 1.1% | 65.4hPa | 2.5V | 00:00:00 | 00:00:00 | 00:00:00 | |
| KRY50SP | 2026-09-03 23:53:05 | 53.60123 | 14.92776 | 111° | 38km/h | 19227m | 3.8m/s | -52.3°C | 1.1% | 65.7hPa | 2.5V | 00:00:00 | 00:00:00 | 00:00:00 | |
| DJ2DS-15 | 2026-09-03 23:53:04 | 53.60128 | 14.92745 | 100° | 38km/h | 19218m | 4.2m/s | -52.2°C | 3.7% | 65.7hPa | 2.5V | 00:00:00 | 01:33:32 | 00:00:00 | |
| DL1XH-15 | 2026-09-03 23:53:03 | 53.60132 | 14.92683 | 94° | 37km/h | 19201m | 3.9m/s | -52.4°C | 3.6% | 65.9hPa | 2.5V | 08:30:00 | 01:33:28 | 00:00:00 | |
| AA1-15 | 2026-09-03 23:53:03 | 53.60130 | 14.92729 | 96° | 38km/h | 19214m | 4.3m/s | -52.3°C | 0.4% | 65.8hPa | 2.6V | 18:12:15 | 01:33:31 | 00:00:00 | |
| DL1XH-west | 2026-09-03 23:53:02 | 53.60131 | 14.92713 | 97° | 37km/h | 19209m | 5.2m/s | -52.3°C | 0.4% | 65.8hPa | 2.6V | 18:12:15 | 01:33:30 | 00:00:00 | |
| SP3WXH-11 | 2026-09-03 23:52:59 | 53.60133 | 14.92667 | 95° | 38km/h | 19197m | 5.6m/s | -52.5°C | 1.0% | 66.0hPa | 2.5V | 00:00:00 | 00:00:00 | 00:00:00 | |
| KRY50SP | 2026-09-03 23:52:54 | 53.60140 | 14.92602 | 106° | 37km/h | 19179m | 3.5m/s | -52.8°C | 1.1% | 66.2hPa | 2.5V | 00:00:00 | 00:00:00 | 00:00:00 | |
| DL1XH-15 | 2026-09-03 23:52:53 | 53.60146 | 14.92524 | 92° | 35km/h | 19157m | 4.3m/s | -53.3°C | 4% | 66.4hPa | 2.5V | 08:30:00 | 01:33:18 | 00:00:00 | |
| AA1-15 | 2026-09-03 23:52:53 | 53.60145 | 14.92571 | 98° | 38km/h | 19170m | 4.5m/s | -52.9°C | 0.6% | 66.3hPa | 2.6V | 18:12:15 | 01:33:21 | 00:00:00 | |
| DL1XH-west | 2026-09-03 23:52:52 | 53.60146 | 14.92555 | 93° | 38km/h | 19166m | 3.7m/s | -53°C | 0.6% | 66.3hPa | 2.6V | 18:12:15 | 01:33:20 | 00:00:00 | |
| DL1XH-west | 2026-09-03 23:52:42 | 53.60148 | 14.92395 | 89° | 38km/h | 19124m | 4m/s | -53.3°C | 0.6% | 66.8hPa | 2.6V | 18:12:15 | 01:33:10 | 00:00:00 | |
| DL1XH1-15 | 2026-09-03 23:52:42 | 53.60146 | 14.92362 | 83° | 40km/h | 19115m | 4m/s | -53.3°C | 4% | 66.9hPa | 2.5V | 08:30:00 | 01:33:08 | 00:00:00 | |
| AM1SDL-15 | 2026-09-03 23:52:39 | 53.60145 | 14.92345 | 83° | 33km/h | 19111m | 5.0m/s | -53.2°C | 4.0% | 66.8hPa | 2.5V | 00:00:00 | 01:33:07 | 00:00:00 | |
| KRY50SP | 2026-09-03 23:52:37 | 53.60143 | 14.92331 | 80° | 33km/h | 19105m | 5.2m/s | -53.2°C | 1.2% | 66.9hPa | 2.5V | 00:00:00 | 00:00:00 | 00:00:00 | |
| DL1XH-15 | 2026-09-03 23:52:33 | 53.60134 | 14.92227 | 91° | 35km/h | 19067m | 4.6m/s | -53.1°C | 4% | 67.3hPa | 2.5V | 08:30:00 | 01:32:58 | 00:00:00 | |
| AA1-15 | 2026-09-03 23:52:31 | 53.60134 | 14.92241 | 87° | 33km/h | 19073m | 5.4m/s | -53.1°C | 0.6% | 67.3hPa | 2.5V | 18:12:15 | 01:32:59 | 00:00:00 | |
| SP3WXH-11 | 2026-09-03 23:52:28 | 53.60135 | 14.92197 | 96° | 33km/h | 19058m | 5.0m/s | -53.0°C | 1.1% | 67.5hPa | 2.6V | 00:00:00 | 00:00:00 | 00:00:00 | |
| AM1SDL-15 | 2026-09-03 23:52:27 | 53.60137 | 14.92182 | 100° | 31km/h | 19052m | 4.5m/s | -52.9°C | 3.9% | 67.4hPa | 2.6V | 00:00:00 | 01:32:55 | 08:30:00 | |
| KRY50SP | 2026-09-03 23:52:26 | 53.60137 | 14.92182 | 100° | 33km/h | 19052m | 4.5m/s | -53.0°C | 1.1% | 67.5hPa | 2.5V | 00:00:00 | 00:00:00 | 00:00:00 | |
| DJ2DS-15 | 2026-09-03 23:52:24 | 53.60138 | 14.92141 | 89° | 29km/h | 19038m | 4.3m/s | -52.8°C | 3.9% | 67.6hPa | 2.5V | 00:00:00 | 01:32:52 | 00:00:00 | |
| DL1XH-15 | 2026-09-03 23:52:23 | 53.60137 | 14.92093 | 94° | 29km/h | 19019m | 4.1m/s | -52.8°C | 3.9% | 67.8hPa | 2.5V | 08:30:00 | 01:32:48 | 00:00:00 | |
| DL1XH-west | 2026-09-03 23:52:21 | 53.60137 | 14.92104 | 89° | 27km/h | 19023m | 4.3m/s | -52.8°C | 0.6% | 67.8hPa | 2.5V | 18:12:15 | 01:32:49 | 00:00:00 | |
| AA1-15 | 2026-09-03 23:52:20 | 53.60137 | 14.92093 | 95° | 29km/h | 19019m | 4.1m/s | -52.8°C | 0.6% | 67.8hPa | 2.5V | 18:12:15 | 01:32:48 | 00:00:00 | |
| AM1SDL-15 | 2026-09-03 23:52:15 | 53.60142 | 14.92029 | 106° | 29km/h | 18996m | 3.6m/s | -52.6°C | 3.8% | 68.0hPa | 2.5V | 00:00:00 | 01:32:43 | 00:00:00 | |
| DL1XH-15 | 2026-09-03 23:52:13 | 53.60149 | 14.91971 | 97° | 27km/h | 18975m | 4.5m/s | -52.6°C | 3.8% | 68.2hPa | 2.5V | 08:30:00 | 01:32:38 | 00:00:00 | |
| DL1XH-west | 2026-09-03 23:52:10 | 53.60149 | 14.91971 | 98° | 27km/h | 18976m | 4.5m/s | -52.6°C | 0.5% | 68.3hPa | 2.5V | 18:12:15 | 01:32:38 | 00:00:00 | |
| KRY50SP | 2026-09-03 23:52:09 | 53.60149 | 14.91971 | 99° | 27km/h | 18976m | 4.5m/s | -52.6°C | 1.1% | 68.3hPa | 2.5V | 00:00:00 | 00:00:00 | 00:00:00 | |
| DL1XH1-15 | 2026-09-03 23:52:04 | 53.60174 | 14.91846 | 108° | 24km/h | 18924m | 5.7m/s | -52.6°C | 3.8% | 68.8hPa | 2.5V | 08:30:00 | 01:32:27 | 00:00:00 | |
| DJ2DS-15 | 2026-09-03 23:52:04 | 53.60162 | 14.91900 | 113° | 27km/h | 18948m | 5.7m/s | -52.5°C | 3.8% | 68.5hPa | 2.5V | 00:00:00 | 01:32:32 | 08:30:00 | |
| DL1XH-15 | 2026-09-03 23:52:03 | 53.60172 | 14.91856 | 106° | 26km/h | 18929m | 4.5m/s | -52.6°C | 3.7% | 68.8hPa | 2.5V | 08:30:00 | 01:32:28 | 00:00:00 | |
| DL1XH-west | 2026-09-03 23:52:00 | 53.60172 | 14.91856 | 106° | 26km/h | 18929m | 4.5m/s | -52.6°C | 0.5% | 68.8hPa | 2.5V | 18:12:15 | 01:32:28 | 00:00:00 | |
| AA1-15 | 2026-09-03 23:51:59 | 53.60174 | 14.91846 | 109° | 24km/h | 18924m | 5.7m/s | -52.6°C | 0.5% | 68.8hPa | 2.5V | 18:12:15 | 01:32:27 | 00:00:00 | |
| SP3WXH-11 | 2026-09-03 23:51:57 | 53.60178 | 14.91828 | 108° | 22km/h | 18914m | 4.2m/s | -52.6°C | 1.1% | 68.9hPa | 2.5V | 00:00:00 | 00:00:00 | 00:00:00 | |
| DB0DAN | 2026-09-03 23:51:55 | 53.60182 | 14.91807 | 107° | 26km/h | 18905m | 3.6m/s | -52.6°C | 1.1% | 69.02hPa | 2.5V | 00:00:00 | 00:00:00 | 00:00:00 | |
| DL1XH-15 | 2026-09-03 23:51:53 | 53.60201 | 14.91754 | 128° | 31km/h | 18882m | 5.5m/s | -52.6°C | 3.8% | 69.3hPa | 2.5V | 08:30:00 | 01:32:18 | 00:00:00 | |
| AA1-15 | 2026-09-03 23:51:49 | 53.60206 | 14.91743 | 125° | 31km/h | 18877m | 4.3m/s | -52.7°C | 0.5% | 69.3hPa | 2.5V | 18:12:15 | 01:32:17 | 00:00:00 | |
| KRY50SP | 2026-09-03 23:51:46 | 53.60214 | 14.91722 | 125° | 27km/h | 18869m | 5.1m/s | -52.8°C | 1.1% | 69.4hPa | 2.5V | 00:00:00 | 00:00:00 | 00:00:00 | |
| DL1XH1-15 | 2026-09-03 23:51:44 | 53.60238 | 14.91641 | 119° | 27km/h | 18833m | 4.5m/s | -52.9°C | 3.8% | 69.8hPa | 2.5V | 08:30:00 | 01:32:07 | 00:00:00 | |
| DJ2DS-15 | 2026-09-03 23:51:44 | 53.60225 | 14.91695 | 117° | 27km/h | 18856m | 4.4m/s | -52.8°C | 3.8% | 69.5hPa | 2.5V | 00:00:00 | 01:32:12 | 00:00:00 | |
| DL1XH-15 | 2026-09-03 23:51:43 | 53.60235 | 14.91652 | 115° | 29km/h | 18837m | 5.1m/s | -52.9°C | 3.8% | 69.8hPa | 2.5V | 08:30:00 | 01:32:08 | 00:00:00 | |
| KRY50SP | 2026-09-03 23:51:40 | 53.60232 | 14.91663 | 111° | 29km/h | 18842m | 4.2m/s | -52.9°C | 1.1% | 69.7hPa | 2.5V | 00:00:00 | 00:00:00 | 00:00:00 | |
| AM1SDL-15 | 2026-09-03 23:51:38 | 53.60242 | 14.91631 | 120° | 26km/h | 18828m | 5.1m/s | -52.9°C | 3.8% | 69.8hPa | 2.5V | 00:00:00 | 01:32:06 | 00:00:00 | |
| AA1-15 | 2026-09-03 23:51:38 | 53.60242 | 14.91631 | 119° | 27km/h | 18828m | 5.1m/s | -52.9°C | 0.5% | 69.9hPa | 2.6V | 18:12:15 | 01:32:06 | 00:00:00 | |
| DL1XH1-15 | 2026-09-03 23:51:34 | 53.60271 | 14.91545 | 118° | 27km/h | 18787m | 4.4m/s | -53°C | 3.8% | 70.3hPa | 2.5V | 08:30:00 | 01:31:57 | 00:00:00 | |
| DL1XH-15 | 2026-09-03 23:51:33 | 53.60268 | 14.91556 | 114° | 27km/h | 18791m | 3.4m/s | -53°C | 3.9% | 70.3hPa | 2.5V | 08:30:00 | 01:31:58 | 00:00:00 | |
| DL1XH-west | 2026-09-03 23:51:27 | 53.60279 | 14.91526 | 130° | 27km/h | 18777m | 4.1m/s | -53°C | 0.6% | 70.4hPa | 2.6V | 18:12:15 | 01:31:55 | 00:00:00 | |
| DB0DAN | 2026-09-03 23:51:25 | 53.60288 | 14.91506 | 127° | 31km/h | 18768m | 4.7m/s | -53.1°C | 1.1% | 70.49hPa | 2.5V | 00:00:00 | 00:00:00 | 00:00:00 | |
| DL1XH1-15 | 2026-09-03 23:51:23 | 53.60319 | 14.91431 | 124° | 31km/h | 18735m | 4.7m/s | -53.4°C | 4% | 70.9hPa | 2.6V | 08:30:00 | 01:31:46 | 00:00:00 | |
| AA1-15 | 2026-09-03 23:51:17 | 53.60323 | 14.91420 | 127° | 31km/h | 18731m | 4.7m/s | -53.5°C | 0.6% | 70.9hPa | 2.6V | 18:12:15 | 01:31:45 | 00:00:00 | |
| DL1XH-west | 2026-09-03 23:51:16 | 53.60328 | 14.91410 | 132° | 31km/h | 18725m | 5.2m/s | -53.5°C | 0.6% | 71hPa | 2.5V | 18:12:15 | 01:31:44 | 00:00:00 | |
| AM1SDL-15 | 2026-09-03 23:51:14 | 53.60340 | 14.91392 | 139° | 35km/h | 18717m | 4.3m/s | -53.4°C | 4.0% | 71.0hPa | 2.5V | 00:00:00 | 01:31:42 | 00:00:00 | |
| DL1XH-15 | 2026-09-03 23:51:13 | 53.60364 | 14.91356 | 141° | 29km/h | 18697m | 4.2m/s | -53.5°C | 4% | 71.3hPa | 2.5V | 08:30:00 | 01:31:38 | 00:00:00 | |
| AA1-15 | 2026-09-03 23:51:08 | 53.60382 | 14.91328 | 134° | 35km/h | 18684m | 4.6m/s | -53.5°C | 0.7% | 71.4hPa | 2.6V | 18:12:15 | 01:31:35 | 00:00:00 | |
| DL1XH-west | 2026-09-03 23:51:05 | 53.60395 | 14.91306 | 137° | 38km/h | 18674m | 5.6m/s | -53.6°C | 0.6% | 71.5hPa | 2.5V | 18:12:15 | 01:31:33 | 00:00:00 | |
| DJ2DS-15 | 2026-09-03 23:51:04 | 53.60402 | 14.91295 | 140° | 40km/h | 18669m | 4.2m/s | -53.5°C | 4.0% | 71.5hPa | 2.5V | 00:00:00 | 01:31:32 | 00:00:00 | |
| DL1XH-15 | 2026-09-03 23:51:03 | 53.60429 | 14.91248 | 128° | 40km/h | 18651m | 4.5m/s | -53.5°C | 4% | 71.8hPa | 2.5V | 08:30:00 | 01:31:28 | 00:00:00 | |
| AA1-15 | 2026-09-03 23:50:57 | 53.60446 | 14.91211 | 126° | 37km/h | 18637m | 3.8m/s | -53.5°C | 0.7% | 72hPa | 2.6V | 18:12:15 | 01:31:25 | 00:00:00 | |
| DB0DAN | 2026-09-03 23:50:55 | 53.60457 | 14.91184 | 123° | 37km/h | 18628m | 4m/s | -53.5°C | 1.2% | 72.05hPa | 2.5V | 00:00:00 | 00:00:00 | 00:00:00 | |
| DL1XH-west | 2026-09-03 23:50:53 | 53.60468 | 14.91158 | 129° | 37km/h | 18618m | 4.9m/s | -53.4°C | 0.6% | 72.2hPa | 2.6V | 18:12:15 | 01:31:21 | 00:00:00 | |
| AA1-15 | 2026-09-03 23:50:46 | 53.60512 | 14.91065 | 128° | 44km/h | 18586m | 4.3m/s | -53.3°C | 0.6% | 72.5hPa | 2.5V | 18:12:15 | 01:31:14 | 00:00:00 | |
| DJ2DS-15 | 2026-09-03 23:50:44 | 53.60524 | 14.91034 | 121° | 37km/h | 18577m | 3.9m/s | -53.2°C | 4.0% | 72.6hPa | 2.5V | 00:00:00 | 01:31:12 | 00:00:00 | |
| DL1XH-15 | 2026-09-03 23:50:43 | 53.60544 | 14.90976 | 122° | 38km/h | 18558m | 5m/s | -53.1°C | 3.9% | 72.8hPa | 2.5V | 08:30:00 | 01:31:08 | 00:00:00 | |
| DL1XH-west | 2026-09-03 23:50:41 | 53.60539 | 14.90990 | 122° | 38km/h | 18563m | 4.2m/s | -53.1°C | 0.6% | 72.8hPa | 2.5V | 18:12:15 | 01:31:09 | 00:00:00 | |
| AA1-15 | 2026-09-03 23:50:35 | 53.60570 | 14.90912 | 126° | 35km/h | 18535m | 5m/s | -53.1°C | 0.6% | 73.1hPa | 2.5V | 18:12:15 | 01:31:03 | 00:00:00 | |
| DL1XH-15 | 2026-09-03 23:50:33 | 53.60593 | 14.90850 | 118° | 31km/h | 18511m | 3.7m/s | -53°C | 3.9% | 73.4hPa | 2.5V | 08:30:00 | 01:30:58 | 00:00:00 | |
| DL1XH-west | 2026-09-03 23:50:29 | 53.60597 | 14.90838 | 116° | 33km/h | 18507m | 5m/s | -53°C | 0.6% | 73.4hPa | 2.5V | 18:12:15 | 01:30:57 | 00:00:00 | |
| DB0DAN | 2026-09-03 23:50:25 | 53.60612 | 14.90784 | 117° | 31km/h | 18487m | 4.4m/s | -53°C | 1.2% | 73.66hPa | 2.5V | 00:00:00 | 00:00:00 | 00:00:00 | |
| AA1-15 | 2026-09-03 23:50:24 | 53.60616 | 14.90772 | 115° | 33km/h | 18483m | 4.2m/s | -53°C | 0.6% | 73.7hPa | 2.5V | 18:12:15 | 01:30:52 | 00:00:00 | |
| DJ2DS-15 | 2026-09-03 23:50:24 | 53.60616 | 14.90772 | 116° | 27km/h | 18483m | 4.2m/s | -52.9°C | 3.9% | 73.7hPa | 2.5V | 00:00:00 | 01:30:52 | 00:00:00 | |
| DL1XH-15 | 2026-09-03 23:50:23 | 53.60626 | 14.90721 | 107° | 27km/h | 18462m | 5.7m/s | -52.9°C | 3.9% | 73.9hPa | 2.5V | 08:30:00 | 01:30:48 | 00:00:00 | |
| KRY50SP | 2026-09-03 23:50:21 | 53.60621 | 14.90746 | 109° | 33km/h | 18473m | 4.4m/s | -52.9°C | 1.1% | 73.8hPa | 2.5V | 00:00:00 | 00:00:00 | 00:00:00 | |
| KRY50SP | 2026-09-03 23:50:15 | 53.60634 | 14.90680 | 108° | 26km/h | 18443m | 4.3m/s | -52.8°C | 1.2% | 74.2hPa | 2.5V | 00:00:00 | 00:00:00 | 00:00:00 | |
| AM1SDL-15 | 2026-09-03 23:50:14 | 53.60637 | 14.90661 | 106° | 26km/h | 18433m | 5.2m/s | -52.7°C | 3.9% | 74.2hPa | 2.5V | 00:00:00 | 01:30:42 | 00:00:00 | |
| DL1XH-15 | 2026-09-03 23:50:13 | 53.60645 | 14.90619 | 108° | 29km/h | 18414m | 4m/s | -52.6°C | 3.9% | 74.5hPa | 2.5V | 08:30:00 | 01:30:38 | 00:00:00 | |
| AA1-15 | 2026-09-03 23:50:13 | 53.60639 | 14.90651 | 106° | 22km/h | 18428m | 3.8m/s | -52.7°C | 0.6% | 74.3hPa | 2.7V | 18:12:15 | 01:30:41 | 00:00:00 | |
| KRY50SP | 2026-09-03 23:50:09 | 53.60645 | 14.90619 | 109° | 29km/h | 18414m | 4.0m/s | -52.6°C | 1.2% | 74.5hPa | 2.5V | 00:00:00 | 00:00:00 | 00:00:00 | |
| KRY50SP | 2026-09-03 23:50:05 | 53.60654 | 14.90568 | 104° | 26km/h | 18391m | 4.4m/s | -52.5°C | 1.1% | 74.7hPa | 2.5V | 00:00:00 | 00:00:00 | 00:00:00 | |
| DJ2DS-15 | 2026-09-03 23:50:04 | 53.60656 | 14.90558 | 103° | 26km/h | 18387m | 4.3m/s | -52.4°C | 3.9% | 74.8hPa | 2.5V | 00:00:00 | 01:30:32 | 00:00:00 | |
| DL1XH-15 | 2026-09-03 23:50:03 | 53.60664 | 14.90519 | 114° | 27km/h | 18368m | 5.4m/s | -52.4°C | 3.8% | 75hPa | 2.5V | 08:30:00 | 01:30:28 | 00:00:00 | |
| DL1XH1-15 | 2026-09-03 23:50:02 | 53.60673 | 14.90488 | 118° | 26km/h | 18353m | 5.3m/s | -52.3°C | 3.8% | 75.2hPa | 2.6V | 08:30:00 | 01:30:25 | 00:00:00 | |
| DL1XH-west | 2026-09-03 23:50:02 | 53.60659 | 14.90538 | 110° | 24km/h | 18377m | 4.4m/s | -52.4°C | 0.6% | 74.9hPa | 2.6V | 18:12:15 | 01:30:30 | 00:00:00 | |
| SONDE2-11 | 2026-09-03 23:49:58 | 53.60670 | 14.90498 | 114° | 26km/h | 18358m | 5.5m/s | -52.3°C | 1.1% | 75.1hPa | 2.5V | 00:00:00 | 00:00:00 | 00:00:00 | |
| EDDB2-11 | 2026-09-03 23:49:57 | 53.60677 | 14.90478 | 123° | 26km/h | 18349m | 3.6m/s | -52.3°C | 1.1% | 75.2hPa | 2.5V | 00:00:00 | 00:00:00 | 00:00:00 | |
| DB0DAN | 2026-09-03 23:49:55 | 53.60680 | 14.90469 | 122° | 26km/h | 18344m | 5.8m/s | -52.3°C | 1.1% | 75.27hPa | 2.5V | 00:00:00 | 00:00:00 | 00:00:00 | |
| DL1XH-15 | 2026-09-03 23:49:53 | 53.60699 | 14.90423 | 121° | 27km/h | 18318m | 5.7m/s | -52.4°C | 3.8% | 75.6hPa | 2.5V | 08:30:00 | 01:30:18 | 00:00:00 | |
| AA1-15 | 2026-09-03 23:49:52 | 53.60692 | 14.90441 | 127° | 26km/h | 18329m | 5m/s | -52.3°C | 0.6% | 75.5hPa | 2.6V | 18:12:15 | 01:30:20 | 00:00:00 | |
| DL1XH-west | 2026-09-03 23:49:50 | 53.60699 | 14.90423 | 121° | 27km/h | 18318m | 5.7m/s | -52.4°C | 0.6% | 75.6hPa | 2.5V | 18:12:15 | 01:30:18 | 00:00:00 | |
| SP3BTT-10 | 2026-09-03 23:49:48 | 53.60706 | 14.90402 | 121° | 35km/h | 18310m | 3.1m/s | -52.4°C | 3.8% | 75.6hPa | 2.7V | 00:00:00 | 00:00:00 | 00:00:00 | |
| KRY50SP | 2026-09-03 23:49:47 | 53.60707 | 14.90402 | 121° | 29km/h | 18310m | 3.1m/s | -52.4°C | 1.1% | 75.7hPa | 2.7V | 00:00:00 | 00:00:00 | 00:00:00 | |
| DJ2DS-15 | 2026-09-03 23:49:44 | 53.60720 | 14.90364 | 122° | 33km/h | 18293m | 5.1m/s | -52.3°C | 3.8% | 75.8hPa | 2.7V | 00:00:00 | 01:30:12 | 00:00:00 | |
| DL1XH1-15 | 2026-09-03 23:49:43 | 53.60749 | 14.90298 | 136° | 35km/h | 18264m | 4.9m/s | -52.4°C | 3.7% | 76.2hPa | 2.7V | 08:30:00 | 01:30:06 | 00:00:00 | |
| AA1-15 | 2026-09-03 23:49:41 | 53.60733 | 14.90330 | 125° | 33km/h | 18279m | 4.4m/s | -52.4°C | 0.5% | 76hPa | 2.5V | 18:12:15 | 01:30:09 | 00:00:00 | |
| DB0DAN | 2026-09-03 23:49:40 | 53.60738 | 14.90319 | 129° | 31km/h | 18274m | 5.4m/s | -52.4°C | 1.1% | 76.09hPa | 2.5V | 00:00:00 | 00:00:00 | 00:00:00 | |
| DL1XH-west | 2026-09-03 23:49:36 | 53.60762 | 14.90278 | 140° | 35km/h | 18255m | 3.8m/s | -52.4°C | 0.5% | 76.3hPa | 2.5V | 18:12:15 | 01:30:04 | 00:00:00 | |
| KRY50SP | 2026-09-03 23:49:35 | 53.60762 | 14.90278 | 141° | 35km/h | 18255m | 3.8m/s | -52.4°C | 1.1% | 76.3hPa | 2.5V | 00:00:00 | 00:00:00 | 00:00:00 | |
| DL1XH-15 | 2026-09-03 23:49:34 | 53.60806 | 14.90222 | 137° | 29km/h | 18223m | 3.9m/s | -52.4°C | 3.8% | 76.7hPa | 2.5V | 08:30:00 | 01:29:57 | 00:00:00 | |
| DL1XH1-15 | 2026-09-03 23:49:34 | 53.60812 | 14.90213 | 133° | 31km/h | 18219m | 4.8m/s | -52.4°C | 3.8% | 76.8hPa | 2.7V | 08:30:00 | 01:29:56 | 00:00:00 | |
| AA1-15 | 2026-09-03 23:49:31 | 53.60795 | 14.90238 | 141° | 31km/h | 18233m | 4.2m/s | -52.4°C | 0.5% | 76.6hPa | 2.5V | 18:12:15 | 01:29:59 | 00:00:00 | |
| KRY50SP | 2026-09-03 23:49:29 | 53.60801 | 14.90230 | 142° | 29km/h | 18228m | 5.2m/s | -52.4°C | 1.1% | 76.7hPa | 2.5V | 00:00:00 | 00:00:00 | 00:00:00 | |
| DB0DAN | 2026-09-03 23:49:25 | 53.60828 | 14.90180 | 129° | 31km/h | 18205m | 5.4m/s | -52.3°C | 1.1% | 76.92hPa | 2.5V | 00:00:00 | 00:00:00 | 00:00:00 | |
| DL1XH-west | 2026-09-03 23:49:25 | 53.60828 | 14.90180 | 129° | 33km/h | 18205m | 5.4m/s | -52.3°C | 0.6% | 76.9hPa | 2.5V | 18:12:15 | 01:29:53 | 00:00:00 | |
| AM1SDL-15 | 2026-09-03 23:49:24 | 53.60833 | 14.90169 | 129° | 33km/h | 18201m | 4.3m/s | -52.3°C | 3.8% | 76.9hPa | 2.5V | 00:00:00 | 01:29:52 | 00:00:00 | |
| DL1XH-15 | 2026-09-03 23:49:23 | 53.60862 | 14.90113 | 132° | 33km/h | 18178m | 5.3m/s | -52.5°C | 3.7% | 77.2hPa | 2.5V | 08:30:00 | 01:29:47 | 00:00:00 | |
| AA1-15 | 2026-09-03 23:49:20 | 53.60856 | 14.90124 | 132° | 35km/h | 18183m | 4.6m/s | -52.5°C | 0.6% | 77.2hPa | 2.5V | 18:12:15 | 01:29:48 | 00:00:00 | |
| DL1XH-west | 2026-09-03 23:49:12 | 53.60898 | 14.90040 | 123° | 35km/h | 18147m | 4.6m/s | -52.7°C | 0.6% | 77.6hPa | 2.6V | 18:12:15 | 01:29:40 | 00:00:00 | |
| AA1-15 | 2026-09-03 23:49:09 | 53.60914 | 14.89999 | 123° | 40km/h | 18132m | 4.4m/s | -52.6°C | 0.5% | 77.8hPa | 2.5V | 18:12:15 | 01:29:37 | 00:00:00 | |
| KRY50SP | 2026-09-03 23:49:07 | 53.60919 | 14.89985 | 123° | 40km/h | 18127m | 4.7m/s | -52.5°C | 1.1% | 77.8hPa | 2.7V | 00:00:00 | 00:00:00 | 00:00:00 | |
| DJ2DS-15 | 2026-09-03 23:49:03 | 53.60949 | 14.89915 | 133° | 37km/h | 18105m | 5.6m/s | -52.4°C | 3.9% | 78.0hPa | 2.7V | 00:00:00 | 01:29:31 | 08:30:00 | |
| KRY50SP | 2026-09-03 23:49:02 | 53.60955 | 14.89904 | 135° | 33km/h | 18100m | 4.7m/s | -52.5°C | 1.2% | 78.2hPa | 2.5V | 00:00:00 | 00:00:00 | 00:00:00 | |
| DL1XH1-15 | 2026-09-03 23:49:01 | 53.60991 | 14.89839 | 122° | 38km/h | 18071m | 4.3m/s | -52.5°C | 3.8% | 78.5hPa | 2.5V | 08:30:00 | 01:29:24 | 00:00:00 | |
| AA1-15 | 2026-09-03 23:48:59 | 53.60973 | 14.89875 | 137° | 35km/h | 18086m | 4.9m/s | -52.5°C | 0.6% | 78.3hPa | 2.5V | 18:12:15 | 01:29:27 | 00:00:00 | |
| DL1XH-west | 2026-09-03 23:48:56 | 53.60991 | 14.89839 | 123° | 38km/h | 18071m | 4.3m/s | -52.5°C | 0.6% | 78.5hPa | 2.5V | 18:12:15 | 01:29:24 | 00:00:00 | |
| SONDE2-11 | 2026-09-03 23:48:56 | 53.60997 | 14.89825 | 122° | 42km/h | 18066m | 4.6m/s | -52.4°C | 1.2% | 78.5hPa | 2.5V | 00:00:00 | 00:00:00 | 00:00:00 | |
| DB0DAN | 2026-09-03 23:48:55 | 53.60997 | 14.89825 | 122° | 40km/h | 18066m | 4.6m/s | -52.4°C | 1.2% | 78.54hPa | 2.5V | 00:00:00 | 00:00:00 | 00:00:00 | |
| AA1-15 | 2026-09-03 23:48:49 | 53.61030 | 14.89738 | 129° | 31km/h | 18040m | 5m/s | -52.6°C | 0.6% | 78.9hPa | 2.5V | 18:12:15 | 01:29:17 | 00:00:00 | |
| AM1SDL-15 | 2026-09-03 23:48:48 | 53.61035 | 14.89728 | 138° | 37km/h | 18035m | 5.2m/s | -52.5°C | 3.9% | 78.9hPa | 2.5V | 00:00:00 | 01:29:16 | 08:30:00 | |
| KRY50SP | 2026-09-03 23:48:45 | 53.61054 | 14.89705 | 145° | 29km/h | 18020m | 4.9m/s | -52.5°C | 1.2% | 79.1hPa | 2.7V | 00:00:00 | 00:00:00 | 00:00:00 | |
| DL1XH-15 | 2026-09-03 23:48:43 | 53.61090 | 14.89650 | 133° | 42km/h | 17996m | 5.1m/s | -52.4°C | 3.8% | 79.4hPa | 2.7V | 08:30:00 | 01:29:08 | 00:00:00 | |
| DL1XH-west | 2026-09-03 23:48:43 | 53.61067 | 14.89687 | 139° | 37km/h | 18010m | 6.1m/s | -52.5°C | 0.6% | 79.2hPa | 2.5V | 18:12:15 | 01:29:11 | 00:00:00 | |
| DB0DAN | 2026-09-03 23:48:40 | 53.61090 | 14.89650 | 134° | 40km/h | 17996m | 5.1m/s | -52.4°C | 1.2% | 79.42hPa | 2.7V | 00:00:00 | 00:00:00 | 00:00:00 | |
| AA1-15 | 2026-09-03 23:48:39 | 53.61097 | 14.89638 | 134° | 40km/h | 17991m | 5.1m/s | -52.4°C | 0.6% | 79.5hPa | 2.5V | 18:12:15 | 01:29:07 | 00:00:00 | |
| AM1SDL-15 | 2026-09-03 23:48:36 | 53.61118 | 14.89608 | 146° | 42km/h | 17977m | 5.7m/s | -52.2°C | 3.8% | 79.6hPa | 2.6V | 00:00:00 | 01:29:04 | 00:00:00 | |
| KRY50SP | 2026-09-03 23:48:34 | 53.61125 | 14.89599 | 151° | 38km/h | 17971m | 5.5m/s | -52.2°C | 1.2% | 79.7hPa | 2.6V | 00:00:00 | 00:00:00 | 00:00:00 | |
| DL1XH-15 | 2026-09-03 23:48:33 | 53.61167 | 14.89558 | 138° | 38km/h | 17947m | 5.1m/s | -52.2°C | 3.8% | 80hPa | 2.6V | 08:30:00 | 01:28:58 | 00:00:00 | |
| DL1XH1-15 | 2026-09-03 23:48:33 | 53.61182 | 14.89532 | 134° | 46km/h | 17936m | 4.5m/s | -52.1°C | 3.8% | 80.2hPa | 2.5V | 08:30:00 | 01:28:56 | 00:00:00 | |
| DL1XH-west | 2026-09-03 23:48:32 | 53.61151 | 14.89576 | 151° | 37km/h | 17956m | 4.9m/s | -52.1°C | 0.6% | 80hPa | 2.5V | 18:12:15 | 01:29:00 | 00:00:00 | |
| AA1-15 | 2026-09-03 23:48:28 | 53.61182 | 14.89533 | 135° | 46km/h | 17936m | 4.6m/s | -52.2°C | 0.6% | 80.2hPa | 2.5V | 18:12:15 | 01:28:56 | 00:00:00 | |
| DB0DAN | 2026-09-03 23:48:25 | 53.61212 | 14.89496 | 155° | 47km/h | 17920m | 4.5m/s | -52.1°C | 1.1% | 80.33hPa | 2.7V | 00:00:00 | 00:00:00 | 00:00:00 | |
| DL1XH-15 | 2026-09-03 23:48:23 | 53.61268 | 14.89459 | 152° | 46km/h | 17895m | 4.3m/s | -52.2°C | 3.8% | 80.7hPa | 2.7V | 08:30:00 | 01:28:48 | 00:00:00 | |
| DL1XH1-15 | 2026-09-03 23:48:23 | 53.61288 | 14.89440 | 147° | 44km/h | 17885m | 5.3m/s | -52.2°C | 3.8% | 80.8hPa | 2.5V | 08:30:00 | 01:28:46 | 00:00:00 | |
| DL1XH-west | 2026-09-03 23:48:21 | 53.61257 | 14.89467 | 157° | 46km/h | 17900m | 5.6m/s | -52.2°C | 0.6% | 80.6hPa | 2.7V | 18:12:15 | 01:28:49 | 00:00:00 | |
| AA1-15 | 2026-09-03 23:48:18 | 53.61288 | 14.89440 | 148° | 44km/h | 17885m | 5.3m/s | -52.2°C | 0.6% | 80.8hPa | 2.5V | 18:12:15 | 01:28:46 | 00:00:00 | |
| KRY50SP | 2026-09-03 23:48:17 | 53.61288 | 14.89440 | 149° | 44km/h | 17885m | 5.3m/s | -52.2°C | 1.2% | 80.8hPa | 2.7V | 00:00:00 | 00:00:00 | 00:00:00 | |
| DL1XH-15 | 2026-09-03 23:48:13 | 53.61361 | 14.89346 | 156° | 53km/h | 17850m | 4.2m/s | -52°C | 3.7% | 81.2hPa | 2.7V | 08:30:00 | 01:28:38 | 00:00:00 | |
| DL1XH-west | 2026-09-03 23:48:11 | 53.61350 | 14.89356 | 152° | 53km/h | 17854m | 3.8m/s | -52°C | 0.4% | 81.2hPa | 2.5V | 18:12:15 | 01:28:39 | 00:00:00 | |
| AA1-15 | 2026-09-03 23:48:07 | 53.61398 | 14.89319 | 151° | 53km/h | 17835m | 4.8m/s | -51.9°C | 0.5% | 81.4hPa | 2.5V | 18:12:15 | 01:28:35 | 00:00:00 | |
| DL1XH1-15 | 2026-09-03 23:48:06 | 53.61409 | 14.89307 | 146° | 53km/h | 17830m | 5.6m/s | -51.9°C | 3.7% | 81.5hPa | 2.5V | 08:30:00 | 01:28:34 | 00:00:00 | |
| DL1XH-15 | 2026-09-03 23:48:03 | 53.61485 | 14.89197 | 137° | 55km/h | 17795m | 5.9m/s | -51.9°C | 3.7% | 81.9hPa | 2.7V | 08:30:00 | 01:28:27 | 00:00:00 | |
| DJ2DS-15 | 2026-09-03 23:48:03 | 53.61443 | 14.89260 | 138° | 55km/h | 17815m | 4.1m/s | -51.7°C | 3.7% | 81.7hPa | 2.7V | 00:00:00 | 01:28:31 | 00:00:00 | |
| DL1XH1-15 | 2026-09-03 23:48:01 | 53.61516 | 14.89149 | 139° | 57km/h | 17780m | 5.9m/s | -52.2°C | 3.7% | 82.1hPa | 2.5V | 08:30:00 | 01:28:24 | 00:00:00 | |
| DL1XH-west | 2026-09-03 23:48:00 | 53.61474 | 14.89213 | 138° | 55km/h | 17800m | 4.4m/s | -51.8°C | 0.5% | 81.9hPa | 2.5V | 18:12:15 | 01:28:28 | 00:00:00 | |
| AA1-15 | 2026-09-03 23:47:56 | 53.61516 | 14.89149 | 140° | 57km/h | 17780m | 5.9m/s | -52.2°C | 0.5% | 82.1hPa | 2.5V | 18:12:15 | 01:28:24 | 00:00:00 | |
| SONDE2-11 | 2026-09-03 23:47:54 | 53.61548 | 14.89105 | 139° | 55km/h | 17765m | 6.2m/s | -52.2°C | 1.1% | 82.3hPa | 2.7V | 00:00:00 | 00:00:00 | 00:00:00 | |
| DL1XH-15 | 2026-09-03 23:47:53 | 53.61588 | 14.89038 | 132° | 55km/h | 17741m | 5.8m/s | -52.2°C | 3.8% | 82.6hPa | 2.7V | 08:30:00 | 01:28:17 | 00:00:00 | |
| DL1XH-west | 2026-09-03 23:47:49 | 53.61588 | 14.89038 | 132° | 55km/h | 17741m | 5.9m/s | -52.3°C | 0.5% | 82.6hPa | 2.7V | 18:12:15 | 01:28:17 | 00:00:00 | |
| DL1XH1-15 | 2026-09-03 23:47:46 | 53.61617 | 14.88986 | 133° | 58km/h | 17726m | 4.7m/s | -52.3°C | 3.8% | 82.8hPa | 2.5V | 08:30:00 | 01:28:14 | 00:00:00 | |
| AA1-15 | 2026-09-03 23:47:45 | 53.61627 | 14.88969 | 135° | 58km/h | 17721m | 4.1m/s | -52.3°C | 0.5% | 82.9hPa | 2.5V | 18:12:15 | 01:28:13 | 00:00:00 | |
| DO2SHX-10 | 2026-09-03 23:47:44 | 53.61638 | 14.88951 | 136° | 58km/h | 17717m | 5.3m/s | -52.3°C | 3.7% | 82.9hPa | 2.7V | 00:00:00 | 01:28:12 | 08:30:00 | |
| KRY50SP | 2026-09-03 23:47:43 | 53.61637 | 14.88951 | 136° | 58km/h | 17717m | 5.3m/s | -52.4°C | 1.1% | 82.9hPa | 2.5V | 00:00:00 | 00:00:00 | 00:00:00 | |
| DL1XH1-15 | 2026-09-03 23:47:41 | 53.61719 | 14.88810 | 126° | 53km/h | 17681m | 4.7m/s | -52.4°C | 3.8% | 83.4hPa | 2.5V | 08:30:00 | 01:28:04 | 00:00:00 | |
| DL1XH-west | 2026-09-03 23:47:38 | 53.61702 | 14.88846 | 131° | 57km/h | 17690m | 5.1m/s | -52.4°C | 0.6% | 83.3hPa | 2.7V | 18:12:15 | 01:28:06 | 00:00:00 | |
| AA1-15 | 2026-09-03 23:47:35 | 53.61727 | 14.88792 | 125° | 53km/h | 17676m | 4.9m/s | -52.5°C | 0.6% | 83.5hPa | 2.5V | 18:12:15 | 01:28:03 | 00:00:00 | |
| DL1XH-west | 2026-09-03 23:47:27 | 53.61791 | 14.88640 | 128° | 62km/h | 17639m | 5.1m/s | -52.4°C | 0.6% | 83.9hPa | 2.5V | 18:12:15 | 01:27:55 | 00:00:00 | |
| DL1XH1-15 | 2026-09-03 23:47:26 | 53.61800 | 14.88619 | 129° | 62km/h | 17634m | 3.9m/s | -52.4°C | 3.8% | 84hPa | 2.5V | 08:30:00 | 01:27:54 | 00:00:00 | |
| AA1-15 | 2026-09-03 23:47:24 | 53.61820 | 14.88578 | 128° | 64km/h | 17626m | 4.7m/s | -52.4°C | 0.6% | 84.1hPa | 2.5V | 18:12:15 | 01:27:52 | 00:00:00 | |
| KRY50SP | 2026-09-03 23:47:22 | 53.61830 | 14.88556 | 125° | 64km/h | 17622m | 5.1m/s | -52.3°C | 1.2% | 84.2hPa | 2.7V | 00:00:00 | 00:00:00 | 00:00:00 | |
| DO2SHX-10 | 2026-09-03 23:47:21 | 53.61846 | 14.88511 | 121° | 58km/h | 17612m | 5.7m/s | -52.2°C | 3.8% | 84.2hPa | 2.7V | 00:00:00 | 01:27:49 | 00:00:00 | |
| DL1XH-15 | 2026-09-03 23:47:16 | 53.61882 | 14.88403 | 120° | 58km/h | 17588m | 4.7m/s | -52.4°C | 3.8% | 84.6hPa | 2.7V | 08:30:00 | 01:27:44 | 00:00:00 | |
| DL1XH-west | 2026-09-03 23:47:16 | 53.61882 | 14.88403 | 121° | 58km/h | 17588m | 4.7m/s | -52.4°C | 0.6% | 84.6hPa | 2.7V | 18:12:15 | 01:27:44 | 00:00:00 | |
| AA1-15 | 2026-09-03 23:47:13 | 53.61906 | 14.88341 | 124° | 58km/h | 17575m | 4.6m/s | -52.5°C | 0.6% | 84.8hPa | 2.5V | 18:12:15 | 01:27:41 | 00:00:00 | |
| DO2SHX-10 | 2026-09-03 23:47:13 | 53.61906 | 14.88341 | 125° | 60km/h | 17575m | 4.5m/s | -52.4°C | 3.8% | 84.7hPa | 2.5V | 00:00:00 | 01:27:41 | 00:00:00 | |
| DL1XH1-15 | 2026-09-03 23:47:11 | 53.61958 | 14.88179 | 114° | 64km/h | 17542m | 4.6m/s | -52.4°C | 3.8% | 85.2hPa | 2.7V | 08:30:00 | 01:27:34 | 00:00:00 | |
| DB0DAN | 2026-09-03 23:47:10 | 53.61930 | 14.88274 | 118° | 58km/h | 17561m | 5m/s | -52.5°C | 1.2% | 84.96hPa | 2.5V | 00:00:00 | 00:00:00 | 00:00:00 | |
| DL1XH-west | 2026-09-03 23:47:05 | 53.61965 | 14.88155 | 115° | 64km/h | 17537m | 4.3m/s | -52.4°C | 0.5% | 85.3hPa | 2.5V | 18:12:15 | 01:27:33 | 00:00:00 | |
| AA1-15 | 2026-09-03 23:47:03 | 53.61980 | 14.88107 | 120° | 62km/h | 17528m | 4.9m/s | -52.3°C | 0.5% | 85.4hPa | 2.5V | 18:12:15 | 01:27:31 | 00:00:00 | |
| DL1XH-west | 2026-09-03 23:46:55 | 53.62036 | 14.87928 | 112° | 58km/h | 17490m | 4.3m/s | -52.5°C | 0.6% | 85.9hPa | 2.5V | 18:12:15 | 01:27:23 | 00:00:00 | |
| AA1-15 | 2026-09-03 23:46:53 | 53.62051 | 14.87860 | 112° | 57km/h | 17478m | 4.3m/s | -52.7°C | 0.6% | 86.1hPa | 2.7V | 18:12:15 | 01:27:20 | 00:00:00 | |
| EDDB2-11 | 2026-09-03 23:46:50 | 53.62062 | 14.87815 | 113° | 60km/h | 17469m | 5.3m/s | -52.9°C | 1.2% | 86.2hPa | 2.7V | 00:00:00 | 00:00:00 | 00:00:00 | |
| SP3WXH-11 | 2026-09-03 23:46:47 | 53.62081 | 14.87744 | 115° | 60km/h | 17455m | 5.0m/s | -53.2°C | 1.3% | 86.3hPa | 2.7V | 00:00:00 | 00:00:00 | 00:00:00 | |
| DL1XH-west | 2026-09-03 23:46:44 | 53.62101 | 14.87676 | 116° | 60km/h | 17443m | 4.6m/s | -53.3°C | 0.7% | 86.5hPa | 2.7V | 18:12:15 | 01:27:12 | 00:00:00 | |
| AA1-15 | 2026-09-03 23:46:41 | 53.62119 | 14.87608 | 110° | 53km/h | 17429m | 4.9m/s | -53.1°C | 0.7% | 86.7hPa | 2.5V | 18:12:15 | 01:27:09 | 00:00:00 | |
| DL1XH1-15 | 2026-09-03 23:46:41 | 53.62136 | 14.87501 | 104° | 51km/h | 17406m | 5.4m/s | -53.1°C | 3.8% | 87hPa | 2.5V | 08:30:00 | 01:27:04 | 00:00:00 | |
| DL1XH-west | 2026-09-03 23:46:34 | 53.62144 | 14.87460 | 109° | 51km/h | 17396m | 4.4m/s | -53.1°C | 0.7% | 87.2hPa | 2.7V | 18:12:15 | 01:27:02 | 00:00:00 | |
| AA1-15 | 2026-09-03 23:46:31 | 53.62158 | 14.87395 | 113° | 55km/h | 17382m | 5m/s | -53.2°C | 0.7% | 87.3hPa | 2.5V | 18:12:15 | 01:26:59 | 00:00:00 | |
| SP3BTT-10 | 2026-09-03 23:46:31 | 53.62158 | 14.87395 | 114° | 53km/h | 17382m | 5.0m/s | -53.2°C | 4.0% | 87.3hPa | 2.5V | 00:00:00 | 00:00:00 | 00:00:00 | |
| MECKS9 | 2026-09-03 23:46:29 | 53.62164 | 14.87374 | 116° | 53km/h | 17378m | 4.9m/s | -53.2°C | 1.3% | 87.4hPa | 2.5V | 00:00:00 | 00:00:00 | 00:00:00 | |
| DL1XH1-15 | 2026-09-03 23:46:26 | 53.62191 | 14.87270 | 111° | 53km/h | 17355m | 4.6m/s | -53.5°C | 4% | 87.7hPa | 2.5V | 08:30:00 | 01:26:53 | 00:00:00 | |
| DL1XH-15 | 2026-09-03 23:46:26 | 53.62186 | 14.87291 | 111° | 55km/h | 17360m | 4.2m/s | -53.4°C | 4% | 87.6hPa | 2.5V | 08:30:00 | 01:26:54 | 00:00:00 | |
| DB0DAN | 2026-09-03 23:46:25 | 53.62191 | 14.87270 | 111° | 51km/h | 17355m | 4.6m/s | -53.5°C | 1.3% | 87.7hPa | 2.5V | 00:00:00 | 00:00:00 | 00:00:00 | |
| DL1XH-west | 2026-09-03 23:46:23 | 53.62201 | 14.87229 | 112° | 51km/h | 17346m | 4m/s | -53.8°C | 0.7% | 87.8hPa | 2.7V | 18:12:15 | 01:26:51 | 00:00:00 | |
| AA1-15 | 2026-09-03 23:46:20 | 53.62217 | 14.87166 | 115° | 55km/h | 17332m | 4.7m/s | -54.3°C | 0.9% | 88hPa | 2.5V | 18:12:15 | 01:26:48 | 00:00:00 | |
| DL1XH1-15 | 2026-09-03 23:46:20 | 53.62246 | 14.87052 | 110° | 64km/h | 17311m | 4m/s | -54.2°C | 4.3% | 88.3hPa | 2.5V | 08:30:00 | 01:26:43 | 00:00:00 | |
| DL1XH-west | 2026-09-03 23:46:12 | 53.62264 | 14.86977 | 110° | 62km/h | 17297m | 4m/s | -54.1°C | 0.9% | 88.5hPa | 2.7V | 18:12:15 | 01:26:40 | 00:00:00 | |
| DB0DAN | 2026-09-03 23:46:10 | 53.62274 | 14.86927 | 107° | 62km/h | 17287m | 4.4m/s | -54.1°C | 1.3% | 88.62hPa | 2.5V | 00:00:00 | 00:00:00 | 00:00:00 | |
| AA1-15 | 2026-09-03 23:46:09 | 53.62278 | 14.86900 | 107° | 64km/h | 17283m | 4m/s | -54°C | 0.9% | 88.7hPa | 2.5V | 18:12:15 | 01:26:37 | 00:00:00 | |
| DL1XH1-15 | 2026-09-03 23:46:06 | 53.62296 | 14.86798 | 103° | 64km/h | 17265m | 5m/s | -53.9°C | 4.1% | 88.9hPa | 2.7V | 08:30:00 | 01:26:33 | 00:00:00 | |
| DL1XH-west | 2026-09-03 23:46:01 | 53.62310 | 14.86697 | 103° | 58km/h | 17246m | 4.4m/s | -53.8°C | 0.8% | 89.2hPa | 2.7V | 18:12:15 | 01:26:29 | 00:00:00 | |
| AA1-15 | 2026-09-03 23:45:58 | 53.62319 | 14.86622 | 103° | 62km/h | 17232m | 3.6m/s | -53.7°C | 0.8% | 89.4hPa | 2.5V | 18:12:15 | 01:26:26 | 00:00:00 | |
| DB0DAN | 2026-09-03 23:45:55 | 53.62331 | 14.86549 | 105° | 55km/h | 17219m | 4.5m/s | -53.6°C | 1.3% | 89.56hPa | 2.7V | 00:00:00 | 00:00:00 | 00:00:00 | |
| DL1XH-15 | 2026-09-03 23:45:53 | 53.62340 | 14.86478 | 101° | 57km/h | 17204m | 4.6m/s | -53.6°C | 4.1% | 89.7hPa | 2.5V | 08:30:00 | 01:26:20 | 00:00:00 | |
| DL1XH-west | 2026-09-03 23:45:51 | 53.62343 | 14.86455 | 100° | 55km/h | 17199m | 4.8m/s | -53.7°C | 0.7% | 89.8hPa | 2.5V | 18:12:15 | 01:26:19 | 00:00:00 | |
| AA1-15 | 2026-09-03 23:45:47 | 53.62349 | 14.86360 | 94° | 58km/h | 17182m | 3.1m/s | -54.1°C | 0.9% | 90.1hPa | 2.5V | 18:12:15 | 01:26:15 | 00:00:00 | |
| SP3WXH-11 | 2026-09-03 23:45:45 | 53.62352 | 14.86312 | 96° | 55km/h | 17173m | 4.6m/s | -54.1°C | 1.3% | 90.2hPa | 2.5V | 00:00:00 | 00:00:00 | 00:00:00 | |
| DL1XH-15 | 2026-09-03 23:45:43 | 53.62358 | 14.86244 | 98° | 53km/h | 17159m | 4.7m/s | -54.1°C | 4.2% | 90.4hPa | 2.5V | 08:30:00 | 01:26:10 | 00:00:00 | |
| KRY50SP | 2026-09-03 23:45:41 | 53.62358 | 14.86244 | 99° | 53km/h | 17160m | 4.7m/s | -54.1°C | 1.3% | 90.4hPa | 2.5V | 00:00:00 | 00:00:00 | 00:00:00 | |
| DL1XH1-15 | 2026-09-03 23:45:40 | 53.62376 | 14.86088 | 99° | 58km/h | 17130m | 2.8m/s | -54.2°C | 4.2% | 90.8hPa | 2.5V | 08:30:00 | 01:26:03 | 00:00:00 | |
| DB0DAN | 2026-09-03 23:45:40 | 53.62362 | 14.86200 | 102° | 49km/h | 17151m | 4m/s | -54.1°C | 1.3% | 90.51hPa | 2.5V | 00:00:00 | 00:00:00 | 00:00:00 | |
| DL1XH-west | 2026-09-03 23:45:40 | 53.62362 | 14.86200 | 102° | 53km/h | 17152m | 4m/s | -54.1°C | 0.8% | 90.5hPa | 2.5V | 18:12:15 | 01:26:08 | 00:00:00 | |
| AA1-15 | 2026-09-03 23:45:36 | 53.62373 | 14.86112 | 101° | 57km/h | 17134m | 4.7m/s | -54.2°C | 0.8% | 90.8hPa | 2.5V | 18:12:15 | 01:26:04 | 00:00:00 | |
| DF8AY | 2026-09-03 23:45:34 | 53.62379 | 14.86063 | 100° | 57km/h | 17127m | 3.6m/s | 0°C | 0% | 0hPa | 2.5V | 18:12:15 | 01:26:02 | 00:00:00 | |
| DL1XH-15 | 2026-09-03 23:45:33 | 53.62384 | 14.86018 | 104° | 51km/h | 17118m | 4.5m/s | -54.1°C | 4.3% | 91hPa | 2.7V | 08:30:00 | 01:26:00 | 00:00:00 | |
| DL1XH-west | 2026-09-03 23:45:30 | 53.62391 | 14.85980 | 106° | 46km/h | 17110m | 4.9m/s | -54.1°C | 0.9% | 91.1hPa | 2.5V | 18:12:15 | 01:25:58 | 00:00:00 | |
| DL1XH1-15 | 2026-09-03 23:45:26 | 53.62408 | 14.85892 | 111° | 44km/h | 17086m | 3.5m/s | -54.1°C | 4.3% | 91.4hPa | 2.5V | 08:30:00 | 01:25:53 | 00:00:00 | |
| AA1-15 | 2026-09-03 23:45:26 | 53.62404 | 14.85909 | 111° | 42km/h | 17091m | 4.6m/s | -54.1°C | 0.9% | 91.4hPa | 2.7V | 18:12:15 | 01:25:54 | 00:00:00 | |
| KRY50SP | 2026-09-03 23:45:26 | 53.62404 | 14.85909 | 112° | 42km/h | 17091m | 4.6m/s | -54.1°C | 1.4% | 91.4hPa | 2.7V | 00:00:00 | 00:00:00 | 00:00:00 | |
| AM1SDL-15 | 2026-09-03 23:45:25 | 53.62408 | 14.85892 | 112° | 49km/h | 17087m | 3.5m/s | -54.0°C | 4.3% | 91.4hPa | 2.7V | 00:00:00 | 01:25:53 | 00:00:00 | |
| DL1XH-15 | 2026-09-03 23:45:23 | 53.62418 | 14.85834 | 104° | 51km/h | 17073m | 4m/s | -54°C | 4.2% | 91.6hPa | 2.7V | 08:30:00 | 01:25:50 | 00:00:00 | |
| DF8AY | 2026-09-03 23:45:22 | 53.62418 | 14.85834 | 104° | 51km/h | 17073m | 4m/s | 0°C | 0% | 0hPa | 2.7V | 18:12:15 | 01:25:50 | 00:00:00 | |
| DL1XH1-15 | 2026-09-03 23:45:21 | 53.62440 | 14.85691 | 108° | 47km/h | 17041m | 4.6m/s | -53.9°C | 4.2% | 92.1hPa | 2.7V | 08:30:00 | 01:25:43 | 00:00:00 | |
| DL1XH-west | 2026-09-03 23:45:19 | 53.62428 | 14.85771 | 106° | 51km/h | 17060m | 3.7m/s | -54°C | 0.9% | 91.8hPa | 2.5V | 18:12:15 | 01:25:47 | 00:00:00 | |
| AA1-15 | 2026-09-03 23:45:16 | 53.62437 | 14.85710 | 105° | 47km/h | 17046m | 4.7m/s | -53.9°C | 0.8% | 92hPa | 2.7V | 18:12:15 | 01:25:44 | 00:00:00 | |
| DF8AY | 2026-09-03 23:45:15 | 53.62472 | 14.85551 | 112° | 51km/h | 17010m | 3.9m/s | 0°C | 0% | 0hPa | 2.5V | 18:12:15 | 01:25:36 | 00:00:00 | |
| SP3WXH-11 | 2026-09-03 23:45:14 | 53.62444 | 14.85672 | 109° | 47km/h | 17036m | 4.4m/s | -53.8°C | 1.4% | 92.1hPa | 2.5V | 00:00:00 | 00:00:00 | 00:00:00 | |
| AM1SDL-15 | 2026-09-03 23:45:13 | 53.62449 | 14.85652 | 109° | 51km/h | 17032m | 5.2m/s | -53.7°C | 4.3% | 92.2hPa | 2.5V | 00:00:00 | 01:25:41 | 00:00:00 | |
| DB0DAN | 2026-09-03 23:45:10 | 53.62462 | 14.85591 | 112° | 49km/h | 17018m | 5.1m/s | -53.7°C | 1.4% | 92.42hPa | 2.7V | 00:00:00 | 00:00:00 | 00:00:00 | |
| DL1XH-west | 2026-09-03 23:45:09 | 53.62467 | 14.85571 | 114° | 51km/h | 17014m | 3.6m/s | -53.7°C | 0.9% | 92.4hPa | 2.7V | 18:12:15 | 01:25:37 | 00:00:00 | |
| KRY50SP | 2026-09-03 23:45:08 | 53.62466 | 14.85571 | 115° | 51km/h | 17014m | 3.6m/s | -53.7°C | 1.4% | 92.4hPa | 2.5V | 00:00:00 | 00:00:00 | 00:00:00 | |
| DL1XH1-15 | 2026-09-03 23:45:05 | 53.62484 | 14.85489 | 105° | 53km/h | 16997m | 4.4m/s | -53.6°C | 4.2% | 92.7hPa | 2.5V | 08:30:00 | 01:25:33 | 00:00:00 | |
| AA1-15 | 2026-09-03 23:45:05 | 53.62484 | 14.85489 | 106° | 53km/h | 16997m | 4.4m/s | -53.6°C | 0.8% | 92.7hPa | 2.5V | 18:12:15 | 01:25:33 | 00:00:00 | |
| AM1SDL-15 | 2026-09-03 23:45:01 | 53.62498 | 14.85402 | 105° | 51km/h | 16978m | 4.0m/s | -53.4°C | 4.2% | 92.9hPa | 2.5V | 00:00:00 | 01:25:29 | 00:00:00 | |
| DL1XH1-15 | 2026-09-03 23:45:00 | 53.62524 | 14.85276 | 113° | 49km/h | 16952m | 4.1m/s | -53.4°C | 4% | 93.4hPa | 2.5V | 08:30:00 | 01:25:23 | 00:00:00 | |
| DL1XH-west | 2026-09-03 23:44:58 | 53.62510 | 14.85337 | 111° | 53km/h | 16965m | 3.9m/s | -53.4°C | 0.8% | 93.2hPa | 2.7V | 18:12:15 | 01:25:26 | 00:00:00 | |
| DF8AY | 2026-09-03 23:44:57 | 53.62515 | 14.85316 | 110° | 53km/h | 16961m | 4.4m/s | 0°C | 0% | 0hPa | 2.7V | 18:12:15 | 01:25:25 | 00:00:00 | |
| AA1-15 | 2026-09-03 23:44:55 | 53.62525 | 14.85276 | 113° | 49km/h | 16952m | 4.1m/s | -53.4°C | 0.7% | 93.4hPa | 2.5V | 18:12:15 | 01:25:23 | 00:00:00 | |
| DL1XH-15 | 2026-09-03 23:44:53 | 53.62557 | 14.85141 | 105° | 55km/h | 16921m | 5.2m/s | -53.2°C | 4% | 93.8hPa | 2.5V | 08:30:00 | 01:25:16 | 00:00:00 | |
| DL1XH-west | 2026-09-03 23:44:47 | 53.62561 | 14.85118 | 107° | 60km/h | 16916m | 4.5m/s | -53.2°C | 0.7% | 93.9hPa | 2.7V | 18:12:15 | 01:25:15 | 00:00:00 | |
| EDDB2-11 | 2026-09-03 23:44:46 | 53.62565 | 14.85093 | 106° | 60km/h | 16912m | 4.3m/s | -53.3°C | 1.3% | 93.9hPa | 2.7V | 00:00:00 | 00:00:00 | 00:00:00 | |
| DL1XH1-15 | 2026-09-03 23:44:45 | 53.62570 | 14.85068 | 105° | 62km/h | 16907m | 4.7m/s | -53.4°C | 4% | 94hPa | 2.7V | 08:30:00 | 01:25:13 | 00:00:00 | |
| AA1-15 | 2026-09-03 23:44:44 | 53.62574 | 14.85043 | 106° | 62km/h | 16903m | 4.1m/s | -53.5°C | 0.8% | 94hPa | 2.5V | 18:12:15 | 01:25:12 | 00:00:00 | |
| DL1XH-15 | 2026-09-03 23:44:43 | 53.62604 | 14.84906 | 113° | 53km/h | 16877m | 3.6m/s | -53.9°C | 4.2% | 94.5hPa | 2.5V | 08:30:00 | 01:25:06 | 00:00:00 | |
| SP3WXH-11 | 2026-09-03 23:44:43 | 53.62578 | 14.85018 | 106° | 60km/h | 16899m | 3.2m/s | -53.6°C | 1.3% | 94.2hPa | 2.7V | 00:00:00 | 00:00:00 | 00:00:00 | |
| MECKS9 | 2026-09-03 23:44:41 | 53.62583 | 14.84994 | 109° | 58km/h | 16895m | 5.1m/s | -53.6°C | 1.3% | 94.2hPa | 2.7V | 00:00:00 | 00:00:00 | 00:00:00 | |
| DL1XH1-15 | 2026-09-03 23:44:40 | 53.62621 | 14.84843 | 113° | 55km/h | 16864m | 3.8m/s | -53.9°C | 4.2% | 94.6hPa | 2.7V | 08:30:00 | 01:25:03 | 00:00:00 | |
| DL1XH-west | 2026-09-03 23:44:36 | 53.62615 | 14.84865 | 115° | 55km/h | 16869m | 5m/s | -53.9°C | 0.9% | 94.6hPa | 2.5V | 18:12:15 | 01:25:04 | 00:00:00 | |
| AA1-15 | 2026-09-03 23:44:34 | 53.62626 | 14.84821 | 112° | 57km/h | 16860m | 4.3m/s | -53.8°C | 0.8% | 94.7hPa | 2.7V | 18:12:15 | 01:25:02 | 00:00:00 | |
| SP3BTT-10 | 2026-09-03 23:44:31 | 53.62639 | 14.84754 | 108° | 55km/h | 16849m | 4.2m/s | -53.8°C | 4.1% | 94.9hPa | 2.5V | 00:00:00 | 00:00:00 | 00:00:00 | |
| MECKS9 | 2026-09-03 23:44:30 | 53.62640 | 14.84754 | 109° | 57km/h | 16849m | 4.2m/s | -53.8°C | 1.3% | 94.9hPa | 2.5V | 00:00:00 | 00:00:00 | 00:00:00 | |
| KRY50SP | 2026-09-03 23:44:29 | 53.62644 | 14.84732 | 110° | 57km/h | 16844m | 4.5m/s | -53.8°C | 1.4% | 95.0hPa | 2.5V | 00:00:00 | 00:00:00 | 00:00:00 | |
| DL1XH1-15 | 2026-09-03 23:44:25 | 53.62667 | 14.84623 | 114° | 53km/h | 16823m | 4.6m/s | -54°C | 4.3% | 95.3hPa | 2.5V | 08:30:00 | 01:24:53 | 00:00:00 | |
| DB0DAN | 2026-09-03 23:44:25 | 53.62667 | 14.84623 | 114° | 51km/h | 16823m | 4.6m/s | -54°C | 1.4% | 95.28hPa | 2.5V | 00:00:00 | 00:00:00 | 00:00:00 | |
| DL1XH-west | 2026-09-03 23:44:25 | 53.62667 | 14.84623 | 114° | 53km/h | 16823m | 4.6m/s | -54°C | 0.9% | 95.3hPa | 2.5V | 18:12:15 | 01:24:53 | 00:00:00 | |
| AA1-15 | 2026-09-03 23:44:24 | 53.62672 | 14.84602 | 116° | 53km/h | 16818m | 4.4m/s | -54°C | 0.9% | 95.3hPa | 2.5V | 18:12:15 | 01:24:52 | 00:00:00 | |
| KRY50SP | 2026-09-03 23:44:23 | 53.62672 | 14.84602 | 117° | 53km/h | 16819m | 4.4m/s | -54.0°C | 1.4% | 95.3hPa | 2.5V | 00:00:00 | 00:00:00 | 00:00:00 | |
| DL1XH1-15 | 2026-09-03 23:44:20 | 53.62729 | 14.84421 | 118° | 51km/h | 16777m | 4.1m/s | -53.8°C | 4.3% | 95.9hPa | 2.5V | 08:30:00 | 01:24:43 | 00:00:00 | |
| DL1XH-west | 2026-09-03 23:44:14 | 53.62735 | 14.84402 | 121° | 53km/h | 16773m | 3.8m/s | -53.8°C | 0.9% | 96hPa | 2.5V | 18:12:15 | 01:24:42 | 00:00:00 | |
| AA1-15 | 2026-09-03 23:44:13 | 53.62742 | 14.84383 | 123° | 53km/h | 16768m | 5m/s | -53.8°C | 0.9% | 96hPa | 2.5V | 18:12:15 | 01:24:41 | 00:00:00 | |
| DL1XH-west | 2026-09-03 23:44:04 | 53.62808 | 14.84218 | 122° | 51km/h | 16729m | 3.9m/s | -53.4°C | 0.8% | 96.6hPa | 2.7V | 18:12:15 | 01:24:32 | 00:00:00 | |
| DO2SHX-10 | 2026-09-03 23:44:03 | 53.62815 | 14.84199 | 124° | 51km/h | 16725m | 4.9m/s | -53.4°C | 4.2% | 96.7hPa | 2.5V | 00:00:00 | 01:24:31 | 08:30:00 | |
| DL1XH1-15 | 2026-09-03 23:44:02 | 53.62859 | 14.84086 | 122° | 53km/h | 16699m | 4.7m/s | -53.2°C | 4.1% | 97.1hPa | 2.7V | 08:30:00 | 01:24:25 | 00:00:00 | |
| AA1-15 | 2026-09-03 23:44:02 | 53.62822 | 14.84181 | 125° | 53km/h | 16720m | 4.3m/s | -53.4°C | 0.9% | 96.8hPa | 2.5V | 18:12:15 | 01:24:30 | 00:00:00 | |
| DL1XH-west | 2026-09-03 23:43:54 | 53.62879 | 14.84029 | 119° | 51km/h | 16685m | 3.9m/s | -53.1°C | 0.8% | 97.3hPa | 2.5V | 18:12:15 | 01:24:22 | 00:00:00 | |
| MECKS9 | 2026-09-03 23:43:53 | 53.62878 | 14.84029 | 120° | 51km/h | 16686m | 3.9m/s | -53.1°C | 1.3% | 97.3hPa | 2.7V | 00:00:00 | 00:00:00 | 00:00:00 | |
| DL1XH1-15 | 2026-09-03 23:43:52 | 53.62928 | 14.83896 | 119° | 55km/h | 16656m | 4.4m/s | -52.8°C | 4.1% | 97.8hPa | 2.7V | 08:30:00 | 01:24:15 | 00:00:00 | |
| AA1-15 | 2026-09-03 23:43:51 | 53.62899 | 14.83973 | 125° | 53km/h | 16672m | 3.6m/s | -52.9°C | 0.8% | 97.5hPa | 2.5V | 18:12:15 | 01:24:19 | 00:00:00 | |
| DL1XH-west | 2026-09-03 23:43:44 | 53.62951 | 14.83835 | 122° | 55km/h | 16643m | 3.7m/s | -52.7°C | 0.8% | 97.9hPa | 2.5V | 18:12:15 | 01:24:12 | 00:00:00 | |
| DL1XH1-15 | 2026-09-03 23:43:42 | 53.62998 | 14.83693 | 118° | 53km/h | 16614m | 5.2m/s | -52.6°C | 4% | 98.3hPa | 2.5V | 08:30:00 | 01:24:05 | 00:00:00 | |
| AA1-15 | 2026-09-03 23:43:41 | 53.62971 | 14.83775 | 118° | 55km/h | 16631m | 4m/s | -52.7°C | 0.7% | 98.1hPa | 2.7V | 18:12:15 | 01:24:09 | 00:00:00 | |
| DB0DAN | 2026-09-03 23:43:40 | 53.62977 | 14.83754 | 119° | 53km/h | 16627m | 4.7m/s | -52.6°C | 1.3% | 98.17hPa | 2.7V | 00:00:00 | 00:00:00 | 00:00:00 | |
| DL1XH-west | 2026-09-03 23:43:33 | 53.63024 | 14.83613 | 120° | 57km/h | 16596m | 4.1m/s | -52.5°C | 0.8% | 98.6hPa | 2.7V | 18:12:15 | 01:24:01 | 00:00:00 | |
| DL1XH1-15 | 2026-09-03 23:43:31 | 53.63071 | 14.83470 | 121° | 51km/h | 16563m | 4.9m/s | -52.3°C | 3.9% | 99.1hPa | 2.5V | 08:30:00 | 01:23:54 | 00:00:00 | |
| AA1-15 | 2026-09-03 23:43:31 | 53.63037 | 14.83571 | 117° | 57km/h | 16586m | 5m/s | -52.4°C | 0.7% | 98.8hPa | 2.5V | 18:12:15 | 01:23:59 | 00:00:00 | |
| DL1XH-west | 2026-09-03 23:43:23 | 53.63093 | 14.83413 | 126° | 57km/h | 16551m | 4.5m/s | -52.3°C | 0.8% | 99.3hPa | 2.7V | 18:12:15 | 01:23:51 | 00:00:00 | |
| AA1-15 | 2026-09-03 23:43:21 | 53.63111 | 14.83373 | 126° | 60km/h | 16543m | 4.2m/s | -52.3°C | 0.8% | 99.4hPa | 2.7V | 18:12:15 | 01:23:49 | 00:00:00 | |
| DL1XH1-15 | 2026-09-03 23:43:16 | 53.63153 | 14.83275 | 126° | 57km/h | 16522m | 3.5m/s | -52.5°C | 3.9% | 99.8hPa | 2.7V | 08:30:00 | 01:23:44 | 00:00:00 | |
| DL1XH-west | 2026-09-03 23:43:12 | 53.63184 | 14.83199 | 123° | 53km/h | 16507m | 3.6m/s | -52.6°C | 0.7% | 100hPa | 2.5V | 18:12:15 | 01:23:40 | 00:00:00 | |
| DB0DAN | 2026-09-03 23:43:10 | 53.63200 | 14.83160 | 126° | 57km/h | 16499m | 4.3m/s | -52.6°C | 1.3% | 100.1hPa | 2.7V | 00:00:00 | 00:00:00 | 00:00:00 | |
| AA1-15 | 2026-09-03 23:43:10 | 53.63200 | 14.83160 | 126° | 58km/h | 16499m | 4.3m/s | -52.6°C | 0.7% | 100.1hPa | 2.7V | 18:12:15 | 01:23:38 | 00:00:00 | |
| DL1XH-15 | 2026-09-03 23:43:06 | 53.63233 | 14.83070 | 118° | 64km/h | 16481m | 3.7m/s | -52.9°C | 4% | 100.4hPa | 2.5V | 08:30:00 | 01:23:34 | 00:00:00 | |
| DL1XH-west | 2026-09-03 23:43:02 | 53.63265 | 14.82973 | 118° | 68km/h | 16463m | 4.5m/s | -52.8°C | 0.8% | 100.7hPa | 2.5V | 18:12:15 | 01:23:30 | 00:00:00 | |
| AA1-15 | 2026-09-03 23:43:00 | 53.63281 | 14.82923 | 118° | 68km/h | 16454m | 5.2m/s | -52.8°C | 0.8% | 100.8hPa | 2.5V | 18:12:15 | 01:23:28 | 00:00:00 | |
| DB0DAN | 2026-09-03 23:42:55 | 53.63321 | 14.82795 | 117° | 64km/h | 16432m | 4.4m/s | -52.7°C | 1.4% | 101.15hPa | 2.5V | 00:00:00 | 00:00:00 | 00:00:00 | |
| DL1XH-west | 2026-09-03 23:42:52 | 53.63344 | 14.82722 | 119° | 62km/h | 16419m | 4.7m/s | -52.8°C | 0.8% | 101.3hPa | 2.7V | 18:12:15 | 01:23:20 | 00:00:00 | |
| AA1-15 | 2026-09-03 23:42:50 | 53.63359 | 14.82676 | 119° | 62km/h | 16410m | 3.6m/s | -52.8°C | 0.8% | 101.5hPa | 2.5V | 18:12:15 | 01:23:18 | 00:00:00 | |
| DO2SHX-10 | 2026-09-03 23:42:50 | 53.63359 | 14.82676 | 119° | 62km/h | 16410m | 3.6m/s | -52.7°C | 4.0% | 101.5hPa | 2.5V | 00:00:00 | 01:23:18 | 08:30:00 | |
| MECKS9 | 2026-09-03 23:42:49 | 53.63359 | 14.82676 | 119° | 62km/h | 16410m | 3.6m/s | -52.8°C | 1.3% | 101.5hPa | 2.5V | 00:00:00 | 00:00:00 | 00:00:00 | |
| AM1SDL-15 | 2026-09-03 23:42:48 | 53.63373 | 14.82630 | 120° | 60km/h | 16401m | 3.7m/s | -52.8°C | 4.0% | 101.6hPa | 2.5V | 00:00:00 | 01:23:16 | 00:00:00 | |
| DL1XH-15 | 2026-09-03 23:42:46 | 53.63395 | 14.82561 | 115° | 62km/h | 16388m | 4.2m/s | -53°C | 4.1% | 101.9hPa | 2.7V | 08:30:00 | 01:23:13 | 00:00:00 | |
| DL1XH1-15 | 2026-09-03 23:42:44 | 53.63416 | 14.82490 | 117° | 60km/h | 16376m | 3.7m/s | -53.1°C | 4.1% | 102hPa | 2.5V | 08:30:00 | 01:23:10 | 00:00:00 | |
| DL1XH-west | 2026-09-03 23:42:41 | 53.63423 | 14.82467 | 116° | 58km/h | 16371m | 4.9m/s | -53.1°C | 0.8% | 102.1hPa | 2.7V | 18:12:15 | 01:23:09 | 00:00:00 | |
| DB0DAN | 2026-09-03 23:42:40 | 53.63429 | 14.82445 | 114° | 55km/h | 16367m | 4.1m/s | -53.1°C | 1.4% | 102.21hPa | 2.7V | 00:00:00 | 00:00:00 | 00:00:00 | |
| DL1XH-15 | 2026-09-03 23:42:39 | 53.63465 | 14.82310 | 112° | 58km/h | 16338m | 5.5m/s | -53°C | 4.1% | 102.7hPa | 2.7V | 08:30:00 | 01:23:02 | 00:00:00 | |
| AA1-15 | 2026-09-03 23:42:39 | 53.63436 | 14.82423 | 115° | 58km/h | 16363m | 5.1m/s | -53.1°C | 0.9% | 102.3hPa | 2.5V | 18:12:15 | 01:23:07 | 00:00:00 | |
| KRY50SP | 2026-09-03 23:42:38 | 53.63435 | 14.82423 | 116° | 58km/h | 16363m | 5.1m/s | -53.1°C | 1.4% | 102.3hPa | 2.5V | 00:00:00 | 00:00:00 | 00:00:00 | |
| DL1XH1-15 | 2026-09-03 23:42:34 | 53.63476 | 14.82264 | 112° | 58km/h | 16329m | 4.1m/s | -53°C | 4% | 102.8hPa | 2.5V | 08:30:00 | 01:23:00 | 00:00:00 | |
| DL1XH-west | 2026-09-03 23:42:31 | 53.63482 | 14.82242 | 110° | 55km/h | 16324m | 5.6m/s | -52.9°C | 0.8% | 102.8hPa | 2.5V | 18:12:15 | 01:22:59 | 00:00:00 | |
| AA1-15 | 2026-09-03 23:42:29 | 53.63491 | 14.82198 | 109° | 53km/h | 16315m | 5.2m/s | -52.9°C | 0.8% | 103hPa | 2.5V | 18:12:15 | 01:22:57 | 00:00:00 | |
| DO2SHX-10 | 2026-09-03 23:42:28 | 53.63495 | 14.82177 | 112° | 53km/h | 16310m | 4.4m/s | 0°C | 0% | 0hPa | 2.7V | 00:00:00 | 01:22:56 | 00:00:00 | |
| KRY50SP | 2026-09-03 23:42:27 | 53.63495 | 14.82177 | 113° | 55km/h | 16310m | 4.4m/s | -52.8°C | 1.3% | 103.1hPa | 2.7V | 00:00:00 | 00:00:00 | 00:00:00 | |
| DL1XH1-15 | 2026-09-03 23:42:24 | 53.63519 | 14.82052 | 106° | 55km/h | 16284m | 4.2m/s | -52.7°C | 4% | 103.5hPa | 2.7V | 08:30:00 | 01:22:50 | 00:00:00 | |
| DL1XH-west | 2026-09-03 23:42:20 | 53.63527 | 14.82007 | 105° | 55km/h | 16275m | 3.9m/s | -52.7°C | 0.8% | 103.7hPa | 2.5V | 18:12:15 | 01:22:48 | 00:00:00 | |
| DL1XH-15 | 2026-09-03 23:42:19 | 53.63552 | 14.81883 | 106° | 47km/h | 16249m | 4.1m/s | -52.7°C | 4% | 104.1hPa | 2.7V | 08:30:00 | 01:22:42 | 00:00:00 | |
| AA1-15 | 2026-09-03 23:42:18 | 53.63535 | 14.81962 | 111° | 55km/h | 16267m | 5.1m/s | -52.7°C | 0.8% | 103.8hPa | 2.6V | 18:12:15 | 01:22:46 | 00:00:00 | |
| DB0DAN | 2026-09-03 23:42:10 | 53.63565 | 14.81802 | 103° | 51km/h | 16232m | 4.5m/s | -52.5°C | 1.4% | 104.35hPa | 2.7V | 00:00:00 | 00:00:00 | 00:00:00 | |
| DL1XH-west | 2026-09-03 23:42:09 | 53.63567 | 14.81779 | 101° | 55km/h | 16227m | 4.8m/s | -52.5°C | 0.8% | 104.4hPa | 2.7V | 18:12:15 | 01:22:37 | 00:00:00 | |
| AA1-15 | 2026-09-03 23:42:08 | 53.63570 | 14.81757 | 101° | 55km/h | 16223m | 3.9m/s | -52.5°C | 0.8% | 104.5hPa | 2.5V | 18:12:15 | 01:22:36 | 00:00:00 | |
| DL1XH-west | 2026-09-03 23:41:58 | 53.63610 | 14.81543 | 108° | 51km/h | 16177m | 4m/s | -52.2°C | 0.7% | 105.2hPa | 2.7V | 18:12:15 | 01:22:26 | 00:00:00 | |
| AA1-15 | 2026-09-03 23:41:57 | 53.63614 | 14.81522 | 108° | 51km/h | 16173m | 4.5m/s | -52.3°C | 0.8% | 105.3hPa | 2.7V | 18:12:15 | 01:22:25 | 00:00:00 | |
| DB0DAN | 2026-09-03 23:41:55 | 53.63622 | 14.81481 | 110° | 49km/h | 16164m | 3.9m/s | -52.3°C | 1.3% | 105.44hPa | 2.5V | 00:00:00 | 00:00:00 | 00:00:00 | |
| DL1XH-west | 2026-09-03 23:41:47 | 53.63661 | 14.81309 | 113° | 58km/h | 16126m | 4.4m/s | -52°C | 0.7% | 106.1hPa | 2.6V | 18:12:15 | 01:22:15 | 00:00:00 | |
| AA1-15 | 2026-09-03 23:41:46 | 53.63667 | 14.81286 | 113° | 58km/h | 16122m | 3.9m/s | -52°C | 0.7% | 106.1hPa | 2.7V | 18:12:15 | 01:22:14 | 00:00:00 | |
| DL1XH-west | 2026-09-03 23:41:37 | 53.63707 | 14.81088 | 106° | 55km/h | 16080m | 4.6m/s | -52.2°C | 0.7% | 106.8hPa | 2.5V | 18:12:15 | 01:22:05 | 00:00:00 | |
| AA1-15 | 2026-09-03 23:41:36 | 53.63711 | 14.81066 | 107° | 53km/h | 16075m | 4.6m/s | -52.2°C | 0.8% | 106.9hPa | 2.5V | 18:12:15 | 01:22:04 | 00:00:00 | |
| DL1XH-15 | 2026-09-03 23:41:33 | 53.63727 | 14.80983 | 108° | 55km/h | 16057m | 4.1m/s | -52.2°C | 3.9% | 107.2hPa | 2.7V | 08:30:00 | 01:22:00 | 00:00:00 | |
| DL1XH-west | 2026-09-03 23:41:27 | 53.63751 | 14.80873 | 107° | 58km/h | 16034m | 4.1m/s | -52.1°C | 0.7% | 107.6hPa | 2.7V | 18:12:15 | 01:21:55 | 00:00:00 | |
| DB0DAN | 2026-09-03 23:41:25 | 53.63758 | 14.80825 | 105° | 53km/h | 16026m | 5.3m/s | -52.1°C | 1.3% | 107.76hPa | 2.5V | 00:00:00 | 00:00:00 | 00:00:00 | |
| AA1-15 | 2026-09-03 23:41:25 | 53.63758 | 14.80825 | 105° | 57km/h | 16026m | 5.3m/s | -52.1°C | 0.7% | 107.8hPa | 2.5V | 18:12:15 | 01:21:53 | 00:00:00 | |
| DL1XH-15 | 2026-09-03 23:41:23 | 53.63769 | 14.80756 | 103° | 58km/h | 16012m | 4.8m/s | -52.1°C | 3.9% | 108hPa | 2.6V | 08:30:00 | 01:21:50 | 00:00:00 | |
| DO2SHX-10 | 2026-09-03 23:41:21 | 53.63772 | 14.80731 | 104° | 58km/h | 16008m | 3.4m/s | 0°C | 0% | 0hPa | 2.7V | 00:00:00 | 01:21:49 | 00:00:00 | |
| DL1XH-15 | 2026-09-03 23:41:16 | 53.63807 | 14.80515 | 109° | 64km/h | 15967m | 4.2m/s | -52.3°C | 3.8% | 108.7hPa | 2.7V | 08:30:00 | 01:21:40 | 00:00:00 | |
| DL1XH-west | 2026-09-03 23:41:16 | 53.63790 | 14.80614 | 103° | 58km/h | 15985m | 4.8m/s | -52.2°C | 0.7% | 108.4hPa | 2.6V | 18:12:15 | 01:21:44 | 00:00:00 | |
| AA1-15 | 2026-09-03 23:41:15 | 53.63794 | 14.80590 | 105° | 60km/h | 15981m | 3.4m/s | -52.2°C | 0.7% | 108.5hPa | 2.6V | 18:12:15 | 01:21:43 | 00:00:00 | |
| DJ2DS-15 | 2026-09-03 23:41:15 | 53.63798 | 14.80565 | 106° | 60km/h | 15977m | 4.9m/s | -52.2°C | 1.3% | 108.6hPa | 2.5V | 00:00:00 | 00:00:00 | 00:00:00 | |
| DJ2DS-15 | 2026-09-03 23:41:14 | 53.63797 | 14.80565 | 107° | 69km/h | 15977m | 4.8m/s | -52.2°C | 3.8% | 108.5hPa | 2.5V | 00:00:00 | 01:21:42 | 00:00:00 | |
| DO2SHX-10 | 2026-09-03 23:41:13 | 53.63802 | 14.80540 | 109° | 64km/h | 15972m | 5.1m/s | 0°C | 0% | 0hPa | 2.5V | 00:00:00 | 01:21:41 | 00:00:00 | |
| DB0DAN | 2026-09-03 23:41:10 | 53.63817 | 14.80462 | 105° | 64km/h | 15957m | 5.2m/s | -52.4°C | 1.3% | 108.86hPa | 2.5V | 00:00:00 | 00:00:00 | 00:00:00 | |
| DL1XH-west | 2026-09-03 23:41:06 | 53.63831 | 14.80351 | 101° | 66km/h | 15938m | 4.5m/s | -52.4°C | 0.8% | 109.2hPa | 2.7V | 18:12:15 | 01:21:34 | 00:00:00 | |
| AA1-15 | 2026-09-03 23:41:05 | 53.63834 | 14.80322 | 102° | 69km/h | 15933m | 5.5m/s | -52.4°C | 0.8% | 109.3hPa | 2.7V | 18:12:15 | 01:21:33 | 00:00:00 | |
| DL1XH-15 | 2026-09-03 23:41:03 | 53.63847 | 14.80234 | 105° | 71km/h | 15919m | 5.3m/s | -52.4°C | 3.9% | 109.5hPa | 2.6V | 08:30:00 | 01:21:30 | 00:00:00 | |
| DF8AY | 2026-09-03 23:41:00 | 53.63857 | 14.80176 | 106° | 71km/h | 15911m | 3.8m/s | -52.4°C | 0.7% | 109.6hPa | 2.7V | 18:12:15 | 01:21:28 | 00:00:00 | |
| AM1SDL-15 | 2026-09-03 23:41:00 | 53.63856 | 14.80176 | 107° | 75km/h | 15911m | 3.8m/s | -52.3°C | 3.9% | 109.6hPa | 2.7V | 00:00:00 | 01:21:28 | 00:00:00 | |
| DO2SHX-10 | 2026-09-03 23:40:58 | 53.63867 | 14.80116 | 106° | 78km/h | 15901m | 5.0m/s | 0°C | 0% | 0hPa | 2.6V | 00:00:00 | 01:21:26 | 00:00:00 | |
| DL1XH-15 | 2026-09-03 23:40:56 | 53.63899 | 14.79886 | 103° | 77km/h | 15868m | 5.2m/s | -52.2°C | 3.9% | 110.4hPa | 2.6V | 08:30:00 | 01:21:19 | 00:00:00 | |
| DL1XH-west | 2026-09-03 23:40:55 | 53.63881 | 14.80019 | 102° | 80km/h | 15886m | 4.7m/s | -52.3°C | 0.8% | 110.1hPa | 2.7V | 18:12:15 | 01:21:23 | 00:00:00 | |
| DB0DAN | 2026-09-03 23:40:55 | 53.63881 | 14.80019 | 102° | 77km/h | 15886m | 4.7m/s | -52.3°C | 1.4% | 110.06hPa | 2.7V | 00:00:00 | 00:00:00 | 00:00:00 | |
| AA1-15 | 2026-09-03 23:40:54 | 53.63886 | 14.79985 | 102° | 80km/h | 15882m | 4.4m/s | -52.3°C | 0.7% | 110.2hPa | 2.7V | 18:12:15 | 01:21:22 | 00:00:00 | |
| DL1XH-west | 2026-09-03 23:40:45 | 53.63924 | 14.79704 | 103° | 73km/h | 15840m | 4.9m/s | -52.5°C | 0.8% | 110.9hPa | 2.6V | 18:12:15 | 01:21:13 | 00:00:00 | |
| DL1XH1-15 | 2026-09-03 23:40:44 | 53.63945 | 14.79542 | 102° | 80km/h | 15816m | 5m/s | -52.5°C | 4% | 111.2hPa | 2.6V | 08:30:00 | 01:21:08 | 00:00:00 | |
| AA1-15 | 2026-09-03 23:40:43 | 53.63932 | 14.79642 | 102° | 77km/h | 15830m | 5.5m/s | -52.5°C | 0.8% | 111hPa | 2.7V | 18:12:15 | 01:21:11 | 00:00:00 | |
| DF8AY | 2026-09-03 23:40:42 | 53.63936 | 14.79610 | 102° | 80km/h | 15825m | 4.2m/s | -52.5°C | 0.7% | 111.1hPa | 2.7V | 18:12:15 | 01:21:10 | 00:00:00 | |
| DB0DAN | 2026-09-03 23:40:40 | 53.63945 | 14.79542 | 102° | 77km/h | 15816m | 5m/s | -52.5°C | 1.4% | 111.26hPa | 2.6V | 00:00:00 | 00:00:00 | 00:00:00 | |
| DL1XH-west | 2026-09-03 23:40:35 | 53.63965 | 14.79375 | 100° | 75km/h | 15791m | 4.6m/s | -52.6°C | 0.8% | 111.7hPa | 2.7V | 18:12:15 | 01:21:03 | 00:00:00 | |
| SP3WXH-11 | 2026-09-03 23:40:35 | 53.63968 | 14.79344 | 99° | 71km/h | 15787m | 3.8m/s | -52.6°C | 1.4% | 111.8hPa | 2.7V | 00:00:00 | 00:00:00 | 00:00:00 | |
| DL1XH1-15 | 2026-09-03 23:40:34 | 53.63979 | 14.79220 | 99° | 75km/h | 15769m | 5.3m/s | -52.6°C | 4% | 112.1hPa | 2.7V | 08:30:00 | 01:20:58 | 00:00:00 | |
| AA1-15 | 2026-09-03 23:40:33 | 53.63971 | 14.79314 | 99° | 73km/h | 15782m | 5.2m/s | -52.5°C | 0.8% | 111.8hPa | 2.5V | 18:12:15 | 01:21:01 | 00:00:00 | |
| DF8AY | 2026-09-03 23:40:32 | 53.63973 | 14.79282 | 98° | 75km/h | 15777m | 4.4m/s | -52.5°C | 0.8% | 111.9hPa | 2.6V | 18:12:15 | 01:21:00 | 00:00:00 | |
| DL1XH-15 | 2026-09-03 23:40:30 | 53.63999 | 14.79062 | 104° | 75km/h | 15747m | 5.4m/s | -52.6°C | 4% | 112.5hPa | 2.6V | 08:30:00 | 01:20:53 | 00:00:00 | |
| DO2SHX-10 | 2026-09-03 23:40:30 | 53.63979 | 14.79220 | 100° | 75km/h | 15769m | 5.3m/s | 0°C | 0% | 0hPa | 2.6V | 00:00:00 | 01:20:58 | 00:00:00 | |
| DB0DAN | 2026-09-03 23:40:25 | 53.63999 | 14.79062 | 104° | 71km/h | 15747m | 5.4m/s | -52.7°C | 1.4% | 112.46hPa | 2.6V | 00:00:00 | 00:00:00 | 00:00:00 | |
| DL1XH1-15 | 2026-09-03 23:40:24 | 53.64018 | 14.78894 | 98° | 62km/h | 15719m | 5.4m/s | -52.8°C | 4.1% | 112.9hPa | 2.6V | 08:30:00 | 01:20:47 | 00:00:00 | |
| DL1XH-west | 2026-09-03 23:40:24 | 53.64004 | 14.79032 | 104° | 71km/h | 15742m | 4.1m/s | -52.7°C | 0.8% | 112.5hPa | 2.7V | 18:12:15 | 01:20:52 | 00:00:00 | |
| AA1-15 | 2026-09-03 23:40:22 | 53.64011 | 14.78975 | 100° | 66km/h | 15732m | 5.2m/s | -52.8°C | 0.8% | 112.7hPa | 2.7V | 18:12:15 | 01:20:50 | 00:00:00 | |
| DF8AY | 2026-09-03 23:40:21 | 53.64016 | 14.78920 | 97° | 64km/h | 15724m | 3.8m/s | -52.8°C | 0.8% | 112.8hPa | 2.5V | 18:12:15 | 01:20:48 | 00:00:00 | |
| DO2SHX-10 | 2026-09-03 23:40:20 | 53.64016 | 14.78920 | 98° | 62km/h | 15724m | 3.8m/s | 0°C | 0% | 0hPa | 2.7V | 00:00:00 | 01:20:48 | 00:00:00 | |
| DL1XH-15 | 2026-09-03 23:40:16 | 53.64029 | 14.78787 | 101° | 68km/h | 15701m | 3.4m/s | -52.8°C | 4.1% | 113.2hPa | 2.7V | 08:30:00 | 01:20:43 | 00:00:00 | |
| DL1XH-west | 2026-09-03 23:40:13 | 53.64037 | 14.78732 | 104° | 66km/h | 15693m | 4.9m/s | -52.8°C | 0.8% | 113.4hPa | 2.6V | 18:12:15 | 01:20:41 | 00:00:00 | |
| DL1XH1-15 | 2026-09-03 23:40:12 | 53.64063 | 14.78569 | 108° | 66km/h | 15667m | 4.2m/s | -52.6°C | 4% | 113.8hPa | 2.6V | 08:30:00 | 01:20:35 | 00:00:00 | |
| AA1-15 | 2026-09-03 23:40:12 | 53.64041 | 14.78705 | 105° | 66km/h | 15688m | 3.9m/s | -52.7°C | 0.8% | 113.5hPa | 2.6V | 18:12:15 | 01:20:40 | 00:00:00 | |
| DB0DAN | 2026-09-03 23:40:10 | 53.64049 | 14.78651 | 105° | 64km/h | 15680m | 4.3m/s | -52.7°C | 1.4% | 113.62hPa | 2.7V | 00:00:00 | 00:00:00 | 00:00:00 | |
| DL1XH-15 | 2026-09-03 23:40:10 | 53.64073 | 14.78518 | 107° | 62km/h | 15658m | 5.2m/s | -52.6°C | 4% | 114hPa | 2.7V | 08:30:00 | 01:20:33 | 00:00:00 | |
| DF8AY | 2026-09-03 23:40:09 | 53.64082 | 14.78469 | 110° | 58km/h | 15649m | 4.3m/s | -52.5°C | 0.9% | 114.1hPa | 2.7V | 18:12:15 | 01:20:31 | 00:00:00 | |
| DL1XH-west | 2026-09-03 23:40:02 | 53.64087 | 14.78446 | 113° | 57km/h | 15644m | 5.4m/s | -52.5°C | 0.8% | 114.2hPa | 2.6V | 18:12:15 | 01:20:30 | 00:00:00 | |
| DL1XH1-15 | 2026-09-03 23:40:01 | 53.64115 | 14.78332 | 110° | 60km/h | 15621m | 5.6m/s | -52.4°C | 3.9% | 114.6hPa | 2.7V | 08:30:00 | 01:20:25 | 00:00:00 | |
| AA1-15 | 2026-09-03 23:40:01 | 53.64093 | 14.78424 | 114° | 57km/h | 15640m | 3.9m/s | -52.4°C | 0.8% | 114.3hPa | 2.6V | 18:12:15 | 01:20:29 | 00:00:00 | |
| DF8AY | 2026-09-03 23:39:57 | 53.64120 | 14.78308 | 111° | 60km/h | 15616m | 4.7m/s | -52.4°C | 0.8% | 114.7hPa | 2.7V | 18:12:15 | 01:20:24 | 00:00:00 | |
| DB0DAN | 2026-09-03 23:39:55 | 53.64125 | 14.78284 | 109° | 58km/h | 15611m | 4m/s | -52.3°C | 1.4% | 114.79hPa | 2.6V | 00:00:00 | 00:00:00 | 00:00:00 | |
| DJ2DS-15 | 2026-09-03 23:39:54 | 53.64130 | 14.78259 | 107° | 55km/h | 15606m | 5.5m/s | -52.3°C | 3.9% | 114.8hPa | 2.6V | 00:00:00 | 01:20:22 | 00:00:00 | |
| KRY50SP | 2026-09-03 23:39:53 | 53.64134 | 14.78235 | 108° | 58km/h | 15601m | 3.9m/s | -52.3°C | 1.4% | 115.0hPa | 2.6V | 00:00:00 | 00:00:00 | 00:00:00 | |
| DL1XH1-15 | 2026-09-03 23:39:52 | 53.64166 | 14.78111 | 117° | 51km/h | 15573m | 4.2m/s | -52.5°C | 3.9% | 115.5hPa | 2.6V | 08:30:00 | 01:20:15 | 00:00:00 | |
| AA1-15 | 2026-09-03 23:39:51 | 53.64143 | 14.78190 | 113° | 55km/h | 15592m | 4.8m/s | -52.4°C | 0.8% | 115.1hPa | 2.7V | 18:12:15 | 01:20:19 | 00:00:00 | |
| DF8AY | 2026-09-03 23:39:44 | 53.64185 | 14.78051 | 118° | 57km/h | 15560m | 4.4m/s | -52.6°C | 0.8% | 115.7hPa | 2.7V | 18:12:15 | 01:20:12 | 00:00:00 | |
| DL1XH-15 | 2026-09-03 23:39:43 | 53.64191 | 14.78030 | 115° | 57km/h | 15555m | 4.9m/s | -52.8°C | 4% | 115.8hPa | 2.6V | 08:30:00 | 01:20:11 | 00:00:00 | |
| DL1XH-west | 2026-09-03 23:39:41 | 53.64204 | 14.77984 | 114° | 60km/h | 15547m | 4.5m/s | -52.8°C | 0.9% | 116hPa | 2.6V | 18:12:15 | 01:20:09 | 00:00:00 | |
| DB0DAN | 2026-09-03 23:39:40 | 53.64210 | 14.77961 | 116° | 57km/h | 15542m | 4.3m/s | -52.8°C | 1.4% | 116.01hPa | 2.6V | 00:00:00 | 00:00:00 | 00:00:00 | |
| AA1-15 | 2026-09-03 23:39:40 | 53.64210 | 14.77961 | 117° | 60km/h | 15542m | 4.3m/s | -52.8°C | 0.9% | 116hPa | 2.6V | 18:12:15 | 01:20:08 | 00:00:00 | |
| DF8AY | 2026-09-03 23:39:34 | 53.64262 | 14.77819 | 126° | 60km/h | 15513m | 3.6m/s | -52.8°C | 0.8% | 116.6hPa | 2.6V | 18:12:15 | 01:20:01 | 00:00:00 | |
| DJ2DS-15 | 2026-09-03 23:39:34 | 53.64253 | 14.77840 | 126° | 62km/h | 15517m | 4.7m/s | -52.7°C | 4.0% | 116.4hPa | 2.6V | 00:00:00 | 01:20:02 | 00:00:00 | |
| AM1SDL-15 | 2026-09-03 23:39:33 | 53.64262 | 14.77819 | 126° | 60km/h | 15513m | 3.6m/s | -52.7°C | 4.0% | 116.5hPa | 2.7V | 00:00:00 | 01:20:01 | 00:00:00 | |
| DL1XH-15 | 2026-09-03 23:39:30 | 53.64287 | 14.77754 | 121° | 60km/h | 15501m | 3.7m/s | -52.9°C | 4.1% | 116.8hPa | 2.7V | 08:30:00 | 01:19:58 | 00:00:00 | |
| DL1XH-west | 2026-09-03 23:39:30 | 53.64287 | 14.77754 | 122° | 60km/h | 15501m | 3.7m/s | -52.9°C | 0.9% | 116.8hPa | 2.7V | 18:12:15 | 01:19:58 | 00:00:00 | |
| DL1XH1-15 | 2026-09-03 23:39:29 | 53.64312 | 14.77688 | 123° | 62km/h | 15489m | 3.9m/s | -52.9°C | 4% | 117hPa | 2.6V | 08:30:00 | 01:19:55 | 00:00:00 | |
| DO2SHX-10 | 2026-09-03 23:39:28 | 53.64303 | 14.77710 | 123° | 60km/h | 15493m | 3.6m/s | 0°C | 0% | 0hPa | 2.7V | 00:00:00 | 01:19:56 | 00:00:00 | |
| DB0DAN | 2026-09-03 23:39:25 | 53.64328 | 14.77644 | 121° | 57km/h | 15480m | 3.7m/s | -53°C | 1.5% | 117.18hPa | 2.7V | 00:00:00 | 00:00:00 | 00:00:00 | |
| DL1XH1-15 | 2026-09-03 23:39:22 | 53.64388 | 14.77459 | 118° | 64km/h | 15447m | 3.9m/s | -53.3°C | 4.2% | 117.8hPa | 2.7V | 08:30:00 | 01:19:45 | 00:00:00 | |
| DF8AY | 2026-09-03 23:39:22 | 53.64352 | 14.77578 | 121° | 62km/h | 15467m | 3.4m/s | -52.9°C | 0.9% | 117.4hPa | 2.6V | 18:12:15 | 01:19:50 | 00:00:00 | |
| DL1XH-west | 2026-09-03 23:39:19 | 53.64374 | 14.77507 | 116° | 64km/h | 15455m | 3.6m/s | -53°C | 0.9% | 117.6hPa | 2.6V | 18:12:15 | 01:19:47 | 00:00:00 | |
| DO2SHX-10 | 2026-09-03 23:39:15 | 53.64404 | 14.77409 | 119° | 69km/h | 15440m | 4.6m/s | 0°C | 0% | 0hPa | 2.6V | 00:00:00 | 01:19:43 | 00:00:00 | |
| DJ2DS-15 | 2026-09-03 23:39:14 | 53.64412 | 14.77384 | 120° | 69km/h | 15435m | 3.9m/s | 0°C | 0% | 0hPa | 2.6V | 00:00:00 | 01:19:42 | 00:00:00 | |
| DL1XH1-15 | 2026-09-03 23:39:12 | 53.64478 | 14.77197 | 120° | 71km/h | 15405m | 3.7m/s | -53.3°C | 4.2% | 118.6hPa | 2.6V | 08:30:00 | 01:19:35 | 00:00:00 | |
| DF8AY | 2026-09-03 23:39:11 | 53.64440 | 14.77305 | 122° | 75km/h | 15422m | 4.2m/s | -53.4°C | 1% | 118.2hPa | 2.7V | 18:12:15 | 01:19:39 | 00:00:00 | |
| AA1-15 | 2026-09-03 23:39:09 | 53.64459 | 14.77251 | 120° | 73km/h | 15413m | 3.7m/s | -53.3°C | 1% | 118.4hPa | 2.7V | 18:12:15 | 01:19:37 | 00:00:00 | |
| DL1XH-west | 2026-09-03 23:39:08 | 53.64469 | 14.77224 | 121° | 73km/h | 15409m | 4.9m/s | -53.3°C | 1% | 118.5hPa | 2.6V | 18:12:15 | 01:19:36 | 00:00:00 | |
| EDDB2-11 | 2026-09-03 23:39:05 | 53.64511 | 14.77098 | 118° | 62km/h | 15388m | 4.3m/s | -53.2°C | 1.5% | 118.8hPa | 2.7V | 00:00:00 | 00:00:00 | 00:00:00 | |
| DL1XH-15 | 2026-09-03 23:39:03 | 53.64544 | 14.77001 | 117° | 69km/h | 15372m | 4.2m/s | -53°C | 4.1% | 119.2hPa | 2.7V | 08:30:00 | 01:19:27 | 00:00:00 | |
| DO2SHX-10 | 2026-09-03 23:39:03 | 53.64510 | 14.77097 | 119° | 64km/h | 15388m | 4.2m/s | 0°C | 0% | 0hPa | 2.7V | 00:00:00 | 01:19:31 | 08:30:00 | |
| SP3WXH-11 | 2026-09-03 23:39:02 | 53.64527 | 14.77051 | 121° | 64km/h | 15380m | 3.2m/s | -53.1°C | 1.5% | 119.0hPa | 2.7V | 00:00:00 | 00:00:00 | 00:00:00 | |
| DL1XH1-15 | 2026-09-03 23:39:01 | 53.64560 | 14.76947 | 116° | 71km/h | 15365m | 4.6m/s | -53°C | 4.1% | 119.3hPa | 2.7V | 08:30:00 | 01:19:25 | 00:00:00 | |
| AA1-15 | 2026-09-03 23:38:58 | 53.64552 | 14.76974 | 116° | 71km/h | 15368m | 3.1m/s | -53.1°C | 1% | 119.2hPa | 2.7V | 18:12:15 | 01:19:26 | 00:00:00 | |
| DL1XH-west | 2026-09-03 23:38:57 | 53.64560 | 14.76947 | 116° | 71km/h | 15365m | 4.6m/s | -53.1°C | 0.9% | 119.3hPa | 2.7V | 18:12:15 | 01:19:25 | 00:00:00 | |
| AA1-15 | 2026-09-03 23:38:48 | 53.64634 | 14.76717 | 123° | 66km/h | 15327m | 4.3m/s | -53.2°C | 1% | 120hPa | 2.6V | 18:12:15 | 01:19:16 | 00:00:00 | |
| DL1XH-west | 2026-09-03 23:38:46 | 53.64653 | 14.76670 | 125° | 68km/h | 15318m | 4.5m/s | -53.2°C | 1% | 120.2hPa | 2.6V | 18:12:15 | 01:19:14 | 00:00:00 | |
| AA1-15 | 2026-09-03 23:38:37 | 53.64734 | 14.76443 | 119° | 69km/h | 15282m | 3.1m/s | -53.2°C | 1.1% | 120.8hPa | 2.7V | 18:12:15 | 01:19:05 | 00:00:00 | |
| DL1XH-15 | 2026-09-03 23:38:36 | 53.64743 | 14.76417 | 121° | 69km/h | 15278m | 4.6m/s | -53.2°C | 4.2% | 120.9hPa | 2.7V | 08:30:00 | 01:19:04 | 00:00:00 | |
| DL1XH-west | 2026-09-03 23:38:36 | 53.64743 | 14.76417 | 122° | 69km/h | 15278m | 4.6m/s | -53.2°C | 1% | 120.9hPa | 2.7V | 18:12:15 | 01:19:04 | 00:00:00 | |
| DF8AY | 2026-09-03 23:38:32 | 53.64781 | 14.76320 | 125° | 68km/h | 15262m | 4m/s | -53.2°C | 1% | 121.2hPa | 2.6V | 18:12:15 | 01:19:00 | 00:00:00 | |
| DL1XH1-15 | 2026-09-03 23:38:31 | 53.64827 | 14.76195 | 118° | 69km/h | 15240m | 4.4m/s | -53.3°C | 4.2% | 121.6hPa | 2.6V | 08:30:00 | 01:18:55 | 00:00:00 | |
| AA1-15 | 2026-09-03 23:38:27 | 53.64827 | 14.76195 | 118° | 69km/h | 15240m | 4.4m/s | -53.3°C | 1% | 121.6hPa | 2.6V | 18:12:15 | 01:18:55 | 00:00:00 | |
| DL1XH-west | 2026-09-03 23:38:25 | 53.64843 | 14.76143 | 119° | 69km/h | 15231m | 4.1m/s | -53.4°C | 1% | 121.8hPa | 2.6V | 18:12:15 | 01:18:53 | 00:00:00 | |
| DL1XH-15 | 2026-09-03 23:38:23 | 53.64860 | 14.76093 | 120° | 66km/h | 15223m | 3.6m/s | -53.3°C | 4.2% | 121.9hPa | 2.7V | 08:30:00 | 01:18:51 | 00:00:00 | |
| DF8AY | 2026-09-03 23:38:23 | 53.64869 | 14.76069 | 123° | 66km/h | 15219m | 4.8m/s | -53.3°C | 1% | 122hPa | 2.7V | 18:12:15 | 01:18:50 | 00:00:00 | |
| KRY50SP | 2026-09-03 23:38:22 | 53.64860 | 14.76093 | 121° | 66km/h | 15223m | 3.6m/s | -53.3°C | 1.5% | 121.9hPa | 2.7V | 00:00:00 | 00:00:00 | 00:00:00 | |
| DL1XH1-15 | 2026-09-03 23:38:19 | 53.64916 | 14.75949 | 118° | 71km/h | 15200m | 3.6m/s | -53.2°C | 4.3% | 122.4hPa | 2.7V | 08:30:00 | 01:18:45 | 00:00:00 | |
| AA1-15 | 2026-09-03 23:38:16 | 53.64925 | 14.75922 | 118° | 73km/h | 15197m | 3.6m/s | -53.2°C | 1% | 122.5hPa | 2.7V | 18:12:15 | 01:18:44 | 00:00:00 | |
| DL1XH-west | 2026-09-03 23:38:15 | 53.64933 | 14.75894 | 118° | 75km/h | 15192m | 4.5m/s | -53.2°C | 1.1% | 122.5hPa | 2.7V | 18:12:15 | 01:18:43 | 00:00:00 | |
| DF8AY | 2026-09-03 23:38:11 | 53.64966 | 14.75780 | 115° | 69km/h | 15177m | 3m/s | -53.2°C | 1.1% | 122.8hPa | 2.6V | 18:12:15 | 01:18:39 | 00:00:00 | |
| DL1XH1-15 | 2026-09-03 23:38:09 | 53.65001 | 14.75679 | 124° | 71km/h | 15162m | 4m/s | -53.2°C | 4.2% | 123.1hPa | 2.6V | 08:30:00 | 01:18:35 | 00:00:00 | |
| AA1-15 | 2026-09-03 23:38:05 | 53.65022 | 14.75628 | 123° | 73km/h | 15154m | 4.7m/s | -53.3°C | 1% | 123.3hPa | 2.6V | 18:12:15 | 01:18:33 | 00:00:00 | |
| DL1XH-west | 2026-09-03 23:38:04 | 53.65031 | 14.75602 | 122° | 73km/h | 15150m | 3.8m/s | -53.3°C | 1.1% | 123.3hPa | 2.6V | 18:12:15 | 01:18:32 | 00:00:00 | |
| EDDB2-11 | 2026-09-03 23:38:03 | 53.65052 | 14.75548 | 123° | 75km/h | 15142m | 4.2m/s | -53.3°C | 1.5% | 123.5hPa | 2.6V | 00:00:00 | 00:00:00 | 00:00:00 | |
| DL1XH1-15 | 2026-09-03 23:38:02 | 53.65103 | 14.75415 | 123° | 77km/h | 15120m | 3.5m/s | -53.3°C | 4.2% | 123.9hPa | 2.6V | 08:30:00 | 01:18:25 | 00:00:00 | |
| DF8AY | 2026-09-03 23:38:00 | 53.65113 | 14.75388 | 122° | 77km/h | 15117m | 3.5m/s | -53.3°C | 1.1% | 124hPa | 2.7V | 18:12:15 | 01:18:24 | 00:00:00 | |
| KRY50SP | 2026-09-03 23:38:00 | 53.65072 | 14.75495 | 124° | 75km/h | 15133m | 5.0m/s | -53.3°C | 1.6% | 123.7hPa | 2.6V | 00:00:00 | 00:00:00 | 00:00:00 | |
| DL1XH-15 | 2026-09-03 23:37:56 | 53.65143 | 14.75303 | 119° | 78km/h | 15104m | 5m/s | -53.4°C | 4.3% | 124.2hPa | 2.6V | 08:30:00 | 01:18:21 | 00:00:00 | |
| DB0DAN | 2026-09-03 23:37:55 | 53.65124 | 14.75361 | 121° | 73km/h | 15113m | 4.5m/s | -53.3°C | 1.6% | 124.08hPa | 2.7V | 00:00:00 | 00:00:00 | 00:00:00 | |
| AA1-15 | 2026-09-03 23:37:55 | 53.65124 | 14.75361 | 121° | 77km/h | 15113m | 4.5m/s | -53.3°C | 1.1% | 124.1hPa | 2.7V | 18:12:15 | 01:18:23 | 00:00:00 | |
| DL1XH-west | 2026-09-03 23:37:54 | 53.65133 | 14.75332 | 119° | 78km/h | 15109m | 3.4m/s | -53.4°C | 1.2% | 124.2hPa | 2.7V | 18:12:15 | 01:18:22 | 00:00:00 | |
| DF8AY | 2026-09-03 23:37:49 | 53.65181 | 14.75185 | 117° | 77km/h | 15087m | 3.8m/s | -53.5°C | 0% | 124.5hPa | 2.7V | 18:12:15 | 01:18:17 | 00:00:00 | |
| AA1-15 | 2026-09-03 23:37:44 | 53.65228 | 14.75040 | 118° | 77km/h | 15066m | 3.9m/s | -53.8°C | 1.2% | 124.9hPa | 2.6V | 18:12:15 | 01:18:12 | 00:00:00 | |
| DL1XH-15 | 2026-09-03 23:37:43 | 53.65237 | 14.75011 | 118° | 77km/h | 15062m | 3.9m/s | -53.9°C | 4.3% | 125hPa | 2.6V | 08:30:00 | 01:18:11 | 00:00:00 | |
| DL1XH-west | 2026-09-03 23:37:43 | 53.65237 | 14.75011 | 119° | 77km/h | 15062m | 3.9m/s | -53.9°C | 1.2% | 125hPa | 2.6V | 18:12:15 | 01:18:11 | 00:00:00 | |
| KRY50SP | 2026-09-03 23:37:43 | 53.65237 | 14.75011 | 120° | 77km/h | 15062m | 3.9m/s | -53.9°C | 1.6% | 125.0hPa | 2.7V | 00:00:00 | 00:00:00 | 00:00:00 | |
| DB0DAN | 2026-09-03 23:37:40 | 53.65267 | 14.74923 | 119° | 77km/h | 15050m | 3.5m/s | -54.1°C | 1.7% | 125.24hPa | 2.7V | 00:00:00 | 00:00:00 | 00:00:00 | |
| DF8AY | 2026-09-03 23:37:39 | 53.65276 | 14.74893 | 116° | 78km/h | 15047m | 4.5m/s | 0°C | 0% | 125.3hPa | 2.6V | 18:12:15 | 01:18:07 | 00:00:00 | |
| DJ2DS-15 | 2026-09-03 23:37:39 | 53.65276 | 14.74893 | 117° | 77km/h | 15047m | 4.5m/s | 0°C | 0% | 0hPa | 2.7V | 00:00:00 | 01:18:07 | 00:00:00 | |
| KRY50SP | 2026-09-03 23:37:38 | 53.65285 | 14.74863 | 115° | 78km/h | 15043m | 3.7m/s | -54.1°C | 1.8% | 125.4hPa | 2.7V | 00:00:00 | 00:00:00 | 00:00:00 | |
| DL1XH-15 | 2026-09-03 23:37:36 | 53.65321 | 14.74715 | 109° | 73km/h | 15023m | 4.2m/s | -54°C | 4.5% | 125.8hPa | 2.7V | 08:30:00 | 01:18:01 | 00:00:00 | |
| AA1-15 | 2026-09-03 23:37:34 | 53.65314 | 14.74744 | 112° | 73km/h | 15027m | 4.1m/s | -54°C | 1.3% | 125.7hPa | 2.7V | 18:12:15 | 01:18:02 | 00:00:00 | |
| DL1XH-west | 2026-09-03 23:37:32 | 53.65327 | 14.74685 | 109° | 75km/h | 15019m | 3.3m/s | -53.9°C | 1.3% | 125.9hPa | 2.6V | 18:12:15 | 01:18:00 | 00:00:00 | |
| KRY50SP | 2026-09-03 23:37:31 | 53.65327 | 14.74685 | 110° | 75km/h | 15019m | 3.3m/s | -53.9°C | 1.7% | 125.9hPa | 2.7V | 00:00:00 | 00:00:00 | 00:00:00 | |
| DL1XH1-15 | 2026-09-03 23:37:29 | 53.65363 | 14.74529 | 113° | 77km/h | 14999m | 4.3m/s | -53.8°C | 4.4% | 0hPa | 2.7V | 00:00:00 | 01:17:55 | 00:00:00 | |
| SP3WXH-11 | 2026-09-03 23:37:28 | 53.65355 | 14.74560 | 112° | 78km/h | 15004m | 4.8m/s | -53.8°C | 1.7% | 126.2hPa | 2.6V | 00:00:00 | 00:00:00 | 00:00:00 | |
| DB0DAN | 2026-09-03 23:37:25 | 53.65379 | 14.74471 | 117° | 71km/h | 14991m | 5.2m/s | -53.8°C | 1.7% | 126.42hPa | 2.6V | 00:00:00 | 00:00:00 | 00:00:00 | |
| AA1-15 | 2026-09-03 23:37:24 | 53.65387 | 14.74443 | 117° | 73km/h | 14986m | 3.9m/s | -53.7°C | 1.2% | 126.5hPa | 2.6V | 18:12:15 | 01:17:52 | 00:00:00 | |
| DL1XH-15 | 2026-09-03 23:37:23 | 53.65403 | 14.74388 | 113° | 71km/h | 14978m | 3.9m/s | -53.7°C | 4.3% | 126.7hPa | 2.6V | 08:30:00 | 01:17:50 | 00:00:00 | |
| DL1XH-west | 2026-09-03 23:37:22 | 53.65403 | 14.74388 | 114° | 71km/h | 14978m | 3.9m/s | -53.7°C | 1.2% | 126.7hPa | 2.6V | 18:12:15 | 01:17:50 | 00:00:00 | |
| DF8AY | 2026-09-03 23:37:17 | 53.65440 | 14.74240 | 112° | 77km/h | 14956m | 5.2m/s | 0°C | 0% | 0hPa | 2.6V | 18:12:15 | 01:17:45 | 00:00:00 | |
| DL1XH-15 | 2026-09-03 23:37:16 | 53.65482 | 14.74092 | 119° | 78km/h | 14933m | 5.2m/s | -54°C | 4.4% | 127.6hPa | 2.7V | 08:30:00 | 01:17:40 | 00:00:00 | |
| AA1-15 | 2026-09-03 23:37:13 | 53.65473 | 14.74121 | 119° | 80km/h | 14937m | 3.7m/s | -54°C | 1.3% | 127.5hPa | 2.7V | 18:12:15 | 01:17:41 | 00:00:00 | |
| DL1XH-west | 2026-09-03 23:37:11 | 53.65492 | 14.74064 | 120° | 77km/h | 14929m | 3.4m/s | -54.1°C | 1.3% | 127.7hPa | 2.6V | 18:12:15 | 01:17:39 | 00:00:00 | |
| DO2SHX-10 | 2026-09-03 23:37:10 | 53.65502 | 14.74035 | 122° | 80km/h | 14925m | 4.0m/s | 0°C | 0% | 0hPa | 2.6V | 00:00:00 | 01:17:38 | 00:00:00 | |
| KRY50SP | 2026-09-03 23:37:09 | 53.65502 | 14.74035 | 123° | 78km/h | 14925m | 4.1m/s | -54.0°C | 1.7% | 127.7hPa | 2.6V | 00:00:00 | 00:00:00 | 00:00:00 | |
| S3001 | 2026-09-03 23:37:07 | 53.65545 | 14.73919 | 120° | 78km/h | 14907m | 4.5m/s | -54.1°C | 1.7% | 128.1hPa | 2.6V | 00:00:00 | 00:00:00 | 00:00:00 | |
| DL1XH-15 | 2026-09-03 23:37:03 | 53.65585 | 14.73798 | 116° | 82km/h | 14889m | 5.2m/s | -54.1°C | 4.5% | 128.4hPa | 2.6V | 08:30:00 | 01:17:30 | 00:00:00 | |
| AA1-15 | 2026-09-03 23:37:03 | 53.65576 | 14.73829 | 118° | 82km/h | 14894m | 3.9m/s | -54.1°C | 1.3% | 128.3hPa | 2.6V | 18:12:15 | 01:17:31 | 00:00:00 | |
| DF8AY | 2026-09-03 23:37:02 | 53.65585 | 14.73798 | 117° | 82km/h | 14890m | 5.2m/s | 0°C | 0% | 0hPa | 2.6V | 18:12:15 | 01:17:30 | 00:00:00 | |
| DL1XH-west | 2026-09-03 23:37:01 | 53.65594 | 14.73767 | 116° | 82km/h | 14885m | 4.1m/s | -54.1°C | 1.3% | 128.5hPa | 2.6V | 18:12:15 | 01:17:29 | 00:00:00 | |
| EDDB2-11 | 2026-09-03 23:37:01 | 53.65604 | 14.73735 | 116° | 82km/h | 14881m | 4.6m/s | -54.2°C | 1.8% | 128.6hPa | 2.6V | 00:00:00 | 00:00:00 | 00:00:00 | |
| DL1XH1-15 | 2026-09-03 23:37:00 | 53.65648 | 14.73575 | 113° | 80km/h | 14859m | 4.4m/s | 0°C | 0% | 0hPa | 2.6V | 00:00:00 | 01:17:23 | 00:00:00 | |
| SP3WXH-11 | 2026-09-03 23:36:58 | 53.65631 | 14.73639 | 114° | 82km/h | 14868m | 5.2m/s | -54.3°C | 1.8% | 128.9hPa | 2.7V | 00:00:00 | 00:00:00 | 00:00:00 | |
| KRY50SP | 2026-09-03 23:36:57 | 53.65622 | 14.73671 | 116° | 84km/h | 14872m | 4.0m/s | -54.3°C | 1.8% | 128.8hPa | 2.7V | 00:00:00 | 00:00:00 | 00:00:00 | |
| DL1XH-15 | 2026-09-03 23:36:56 | 53.65672 | 14.73483 | 113° | 77km/h | 14846m | 5m/s | -54.5°C | 4.5% | 129.3hPa | 2.7V | 08:30:00 | 01:17:20 | 00:00:00 | |
| DB0DAN | 2026-09-03 23:36:55 | 53.65648 | 14.73575 | 114° | 77km/h | 14859m | 4.4m/s | -54.3°C | 1.7% | 129.08hPa | 2.6V | 00:00:00 | 00:00:00 | 00:00:00 | |
| AA1-15 | 2026-09-03 23:36:52 | 53.65672 | 14.73483 | 114° | 77km/h | 14846m | 5m/s | -54.5°C | 1.3% | 129.3hPa | 2.7V | 18:12:15 | 01:17:20 | 00:00:00 | |
| DL1XH-west | 2026-09-03 23:36:50 | 53.65687 | 14.73425 | 114° | 73km/h | 14836m | 4.1m/s | -54.6°C | 1.5% | 129.4hPa | 2.6V | 18:12:15 | 01:17:18 | 00:00:00 | |
| DO2SHX-10 | 2026-09-03 23:36:48 | 53.65702 | 14.73367 | 115° | 73km/h | 14828m | 3.3m/s | 0°C | 0% | 0hPa | 2.6V | 00:00:00 | 01:17:16 | 00:00:00 | |
| KRY50SP | 2026-09-03 23:36:47 | 53.65710 | 14.73339 | 115° | 73km/h | 14824m | 4.9m/s | -54.9°C | 1.9% | 129.7hPa | 2.6V | 00:00:00 | 00:00:00 | 00:00:00 | |
| DO2SHX-10 | 2026-09-03 23:36:45 | 53.65724 | 14.73282 | 113° | 89km/h | 14814m | 4.2m/s | 0°C | 0% | 0hPa | 2.6V | 00:00:00 | 01:17:13 | 00:00:00 | |
| DL1XH-15 | 2026-09-03 23:36:43 | 53.65746 | 14.73194 | 112° | 75km/h | 14801m | 5.2m/s | -54.8°C | 4.7% | 130.2hPa | 2.6V | 08:30:00 | 01:17:10 | 00:00:00 | |
| AA1-15 | 2026-09-03 23:36:41 | 53.65753 | 14.73165 | 112° | 73km/h | 14796m | 3.9m/s | -54.7°C | 1.5% | 130.3hPa | 2.6V | 18:12:15 | 01:17:09 | 00:00:00 | |
| DL1XH-west | 2026-09-03 23:36:39 | 53.65768 | 14.73106 | 113° | 77km/h | 14789m | 5m/s | -54.7°C | 1.5% | 130.4hPa | 2.7V | 18:12:15 | 01:17:07 | 00:00:00 | |
| DL1XH-15 | 2026-09-03 23:36:36 | 53.65821 | 14.72882 | 112° | 84km/h | 14759m | 3.7m/s | -54.8°C | 4.7% | 131.1hPa | 2.7V | 08:30:00 | 01:17:00 | 00:00:00 | |
| AA1-15 | 2026-09-03 23:36:30 | 53.65836 | 14.72817 | 113° | 80km/h | 14749m | 3.9m/s | -55°C | 1.6% | 131.2hPa | 2.7V | 18:12:15 | 01:16:58 | 00:00:00 | |
| DL1XH-west | 2026-09-03 23:36:29 | 53.65844 | 14.72786 | 114° | 78km/h | 14745m | 4m/s | -55°C | 1.6% | 131.4hPa | 2.6V | 18:12:15 | 01:16:57 | 00:00:00 | |
| SP3WXH-11 | 2026-09-03 23:36:26 | 53.65873 | 14.72694 | 119° | 82km/h | 14732m | 3.8m/s | -54.9°C | 1.9% | 131.6hPa | 2.6V | 00:00:00 | 00:00:00 | 00:00:00 | |
| KRY50SP | 2026-09-03 23:36:24 | 53.65883 | 14.72664 | 121° | 82km/h | 14728m | 5.0m/s | -54.9°C | 1.9% | 131.8hPa | 2.6V | 00:00:00 | 00:00:00 | 00:00:00 | |
| DL1XH-15 | 2026-09-03 23:36:23 | 53.65914 | 14.72573 | 118° | 84km/h | 14715m | 5m/s | -54.9°C | 4.7% | 132hPa | 2.6V | 08:30:00 | 01:16:50 | 00:00:00 | |
| DL1XH-west | 2026-09-03 23:36:19 | 53.65945 | 14.72474 | 116° | 88km/h | 14701m | 5.1m/s | -55°C | 1.7% | 132.3hPa | 2.6V | 18:12:15 | 01:16:47 | 00:00:00 | |
| KRY50SP | 2026-09-03 23:36:19 | 53.65945 | 14.72474 | 117° | 88km/h | 14702m | 5.1m/s | -55.0°C | 1.9% | 132.3hPa | 2.6V | 00:00:00 | 00:00:00 | 00:00:00 | |
| AM1SDL-15 | 2026-09-03 23:36:18 | 53.65955 | 14.72441 | 116° | 86km/h | 14697m | 4.1m/s | -55.0°C | 4.8% | 132.3hPa | 2.6V | 00:00:00 | 01:16:46 | 00:00:00 | |
| KRY50SP | 2026-09-03 23:36:13 | 53.66005 | 14.72272 | 116° | 86km/h | 14675m | 4.4m/s | -55.1°C | 2.0% | 132.8hPa | 2.6V | 00:00:00 | 00:00:00 | 00:00:00 | |
| DB0DAN | 2026-09-03 23:36:10 | 53.66032 | 14.72176 | 115° | 78km/h | 14661m | 3.8m/s | -55.1°C | 2% | 133.11hPa | 2.6V | 00:00:00 | 00:00:00 | 00:00:00 | |
| DL1XH-west | 2026-09-03 23:36:09 | 53.66041 | 14.72145 | 115° | 80km/h | 14657m | 3.9m/s | -55.1°C | 1.7% | 133.2hPa | 2.7V | 18:12:15 | 01:16:37 | 00:00:00 | |
| AA1-15 | 2026-09-03 23:36:08 | 53.66050 | 14.72113 | 114° | 80km/h | 14652m | 5.3m/s | -55.1°C | 1.7% | 133.3hPa | 2.7V | 18:12:15 | 01:16:36 | 00:00:00 | |
| DL1XH-west | 2026-09-03 23:35:59 | 53.66121 | 14.71828 | 112° | 78km/h | 14612m | 4.1m/s | 0°C | 0% | 134.2hPa | 2.6V | 18:12:15 | 01:16:27 | 00:00:00 | |
| AA1-15 | 2026-09-03 23:35:57 | 53.66134 | 14.71766 | 109° | 77km/h | 14603m | 3.6m/s | -55.2°C | 1.7% | 134.3hPa | 2.6V | 18:12:15 | 01:16:25 | 00:00:00 | |
| DL1XH-15 | 2026-09-03 23:35:56 | 53.66168 | 14.71616 | 110° | 73km/h | 14581m | 4.2m/s | -55.2°C | 4.9% | 134.8hPa | 2.6V | 08:30:00 | 01:16:20 | 00:00:00 | |
| DL1XH-west | 2026-09-03 23:35:48 | 53.66196 | 14.71500 | 114° | 73km/h | 14563m | 5.6m/s | 0°C | 0% | 135.2hPa | 2.7V | 18:12:15 | 01:16:16 | 00:00:00 | |
| AA1-15 | 2026-09-03 23:35:47 | 53.66204 | 14.71472 | 114° | 69km/h | 14558m | 4.6m/s | -55.1°C | 1.7% | 135.3hPa | 2.6V | 18:12:15 | 01:16:15 | 00:00:00 | |
| KRY50SP | 2026-09-03 23:35:45 | 53.66219 | 14.71419 | 118° | 71km/h | 14549m | 4.7m/s | -55.0°C | 2.0% | 135.5hPa | 2.6V | 00:00:00 | 00:00:00 | 00:00:00 | |
| DL1XH-15 | 2026-09-03 23:35:43 | 53.66243 | 14.71341 | 116° | 68km/h | 14535m | 4m/s | -55°C | 4.9% | 135.7hPa | 2.6V | 08:30:00 | 01:16:10 | 00:00:00 | |
| AA1-15 | 2026-09-03 23:35:36 | 53.66294 | 14.71184 | 120° | 69km/h | 14509m | 4m/s | -54.9°C | 1.7% | 136.3hPa | 2.6V | 18:12:15 | 01:16:04 | 00:00:00 | |
| DL1XH-west | 2026-09-03 23:35:31 | 53.66338 | 14.71057 | 120° | 69km/h | 14487m | 4.2m/s | 0°C | 0% | 136.8hPa | 2.7V | 18:12:15 | 01:15:59 | 00:00:00 | |
| AA1-15 | 2026-09-03 23:35:25 | 53.66389 | 14.70903 | 120° | 69km/h | 14461m | 4.8m/s | -54.9°C | 1.7% | 137.3hPa | 2.7V | 18:12:15 | 01:15:53 | 00:00:00 | |
| DL1XH-west | 2026-09-03 23:35:20 | 53.66436 | 14.70778 | 124° | 69km/h | 14439m | 5.2m/s | 0°C | 0% | 137.8hPa | 2.6V | 18:12:15 | 01:15:48 | 00:00:00 | |
| AM1SDL-15 | 2026-09-03 23:35:18 | 53.66456 | 14.70727 | 125° | 73km/h | 14430m | 4.0m/s | -54.8°C | 4.9% | 138.0hPa | 2.6V | 00:00:00 | 01:15:46 | 00:00:00 | |
| DL1XH-15 | 2026-09-03 23:35:16 | 53.66507 | 14.70602 | 123° | 75km/h | 14408m | 3.6m/s | -54.8°C | 4.9% | 138.5hPa | 2.6V | 08:30:00 | 01:15:41 | 00:00:00 | |
| AA1-15 | 2026-09-03 23:35:15 | 53.66487 | 14.70653 | 124° | 71km/h | 14416m | 4.1m/s | -54.8°C | 1.8% | 138.3hPa | 2.6V | 18:12:15 | 01:15:43 | 00:00:00 | |
| DL1XH-west | 2026-09-03 23:35:10 | 53.66538 | 14.70524 | 124° | 73km/h | 14395m | 4m/s | 0°C | 0% | 138.8hPa | 2.7V | 18:12:15 | 01:15:38 | 00:00:00 | |
| AA1-15 | 2026-09-03 23:35:05 | 53.66591 | 14.70391 | 124° | 75km/h | 14373m | 4.2m/s | -54.6°C | 1.7% | 139.3hPa | 2.7V | 18:12:15 | 01:15:33 | 00:00:00 | |
| DL1XH-15 | 2026-09-03 23:35:03 | 53.66612 | 14.70338 | 124° | 75km/h | 14363m | 3.6m/s | -54.5°C | 4.9% | 139.4hPa | 2.6V | 08:30:00 | 01:15:31 | 00:00:00 | |
| DL1XH-west | 2026-09-03 23:34:59 | 53.66675 | 14.70185 | 123° | 71km/h | 14335m | 4.6m/s | 0°C | 0% | 0hPa | 2.6V | 18:12:15 | 01:15:25 | 00:00:00 | |
| SONDE2-11 | 2026-09-03 23:34:57 | 53.66694 | 14.70134 | 124° | 71km/h | 14327m | 4.3m/s | -54.3°C | 2.1% | 140.2hPa | 2.7V | 00:00:00 | 00:00:00 | 00:00:00 | |
| DB0DAN | 2026-09-03 23:34:55 | 53.66694 | 14.70134 | 125° | 68km/h | 14327m | 4.3m/s | -54.3°C | 2.1% | 140.24hPa | 2.7V | 00:00:00 | 00:00:00 | 00:00:00 | |
| AA1-15 | 2026-09-03 23:34:55 | 53.66694 | 14.70134 | 125° | 71km/h | 14327m | 4.3m/s | -54.3°C | 1.8% | 140.2hPa | 2.7V | 18:12:15 | 01:15:23 | 00:00:00 | |
| DL1XH-west | 2026-09-03 23:34:47 | 53.66790 | 14.69922 | 129° | 82km/h | 14291m | 4.5m/s | 0°C | 0% | 0hPa | 2.6V | 18:12:15 | 01:15:15 | 00:00:00 | |
| AA1-15 | 2026-09-03 23:34:44 | 53.66825 | 14.69845 | 125° | 73km/h | 14277m | 4.2m/s | -54.2°C | 1.8% | 141.3hPa | 2.7V | 18:12:15 | 01:15:12 | 00:00:00 | |
| KRY50SP | 2026-09-03 23:34:42 | 53.66835 | 14.69819 | 124° | 75km/h | 14273m | 5.0m/s | -54.2°C | 2.0% | 141.5hPa | 2.6V | 00:00:00 | 00:00:00 | 00:00:00 | |
| DB0DAN | 2026-09-03 23:34:40 | 53.66866 | 14.69737 | 123° | 75km/h | 14259m | 5m/s | -54.1°C | 2% | 141.77hPa | 2.6V | 00:00:00 | 00:00:00 | 00:00:00 | |
| AA1-15 | 2026-09-03 23:34:33 | 53.66940 | 14.69528 | 120° | 84km/h | 14227m | 5.3m/s | -53.9°C | 1.8% | 142.5hPa | 2.7V | 18:12:15 | 01:15:01 | 00:00:00 | |
| DL1XH-15 | 2026-09-03 23:34:30 | 53.66972 | 14.69436 | 121° | 82km/h | 14214m | 5.1m/s | -54°C | 4.7% | 142.7hPa | 2.6V | 08:30:00 | 01:14:58 | 00:00:00 | |
| AM1SDL-15 | 2026-09-03 23:34:30 | 53.66972 | 14.69436 | 122° | 82km/h | 14214m | 5.0m/s | -54.0°C | 4.7% | 142.7hPa | 2.6V | 00:00:00 | 01:14:58 | 00:00:00 | |
| DB0DAN | 2026-09-03 23:34:25 | 53.67022 | 14.69290 | 118° | 78km/h | 14193m | 5.2m/s | -54°C | 2% | 143.2hPa | 2.6V | 00:00:00 | 00:00:00 | 00:00:00 | |
| AA1-15 | 2026-09-03 23:34:23 | 53.67042 | 14.69227 | 119° | 88km/h | 14184m | 3.9m/s | -54.1°C | 1.8% | 143.4hPa | 2.7V | 18:12:15 | 01:14:51 | 00:00:00 | |
| AA1-15 | 2026-09-03 23:34:12 | 53.67165 | 14.68898 | 122° | 82km/h | 14135m | 5.1m/s | -54.3°C | 1.9% | 144.5hPa | 2.7V | 18:12:15 | 01:14:40 | 00:00:00 | |
| AA1-15 | 2026-09-03 23:34:02 | 53.67283 | 14.68603 | 130° | 86km/h | 14091m | 3m/s | -54.3°C | 1.9% | 145.5hPa | 2.6V | 18:12:15 | 01:14:30 | 00:00:00 | |
| AA1-15 | 2026-09-03 23:33:51 | 53.67422 | 14.68277 | 125° | 88km/h | 14045m | 3.5m/s | -54.4°C | 1.8% | 146.6hPa | 2.7V | 18:12:15 | 01:14:19 | 00:00:00 | |
| AA1-15 | 2026-09-03 23:33:40 | 53.67556 | 14.67920 | 121° | 91km/h | 13997m | 4.9m/s | -54.8°C | 1.9% | 147.6hPa | 2.7V | 18:12:15 | 01:14:08 | 00:00:00 | |
| AA1-15 | 2026-09-03 23:33:29 | 53.67681 | 14.67554 | 119° | 89km/h | 13953m | 4.5m/s | -54.9°C | 2% | 148.7hPa | 2.7V | 18:12:15 | 01:13:57 | 00:00:00 | |
| AA1-15 | 2026-09-03 23:33:18 | 53.67808 | 14.67189 | 119° | 89km/h | 13909m | 4.6m/s | -55.2°C | 2.1% | 149.7hPa | 2.6V | 18:12:15 | 01:13:46 | 00:00:00 | |
| AA1-15 | 2026-09-03 23:33:08 | 53.67927 | 14.66866 | 122° | 86km/h | 13866m | 4.8m/s | -55°C | 2% | 150.7hPa | 2.6V | 18:12:15 | 01:13:36 | 00:00:00 | |
| AA1-15 | 2026-09-03 23:32:58 | 53.68043 | 14.66556 | 127° | 89km/h | 13826m | 4m/s | -55.2°C | 2.3% | 151.6hPa | 2.7V | 18:12:15 | 01:13:26 | 00:00:00 | |
| AA1-15 | 2026-09-03 23:32:47 | 53.68180 | 14.66216 | 126° | 88km/h | 13779m | 4.3m/s | -54.9°C | 2.4% | 152.7hPa | 2.7V | 18:12:15 | 01:13:15 | 00:00:00 | |
| KRY50SP | 2026-09-03 23:32:46 | 53.68194 | 14.66185 | 128° | 91km/h | 13774m | 5.5m/s | -54.9°C | 2.4% | 152.9hPa | 2.7V | 00:00:00 | 00:00:00 | 00:00:00 | |
| DB0DAN | 2026-09-03 23:32:40 | 53.68292 | 14.65999 | 134° | 93km/h | 13745m | 5.2m/s | -54.8°C | 2.4% | 153.57hPa | 2.7V | 00:00:00 | 00:00:00 | 00:00:00 | |
| AA1-15 | 2026-09-03 23:32:37 | 53.68339 | 14.65911 | 129° | 86km/h | 13729m | 5.7m/s | -54.7°C | 2.3% | 153.9hPa | 2.6V | 18:12:15 | 01:13:05 | 00:00:00 | |
| AA1-15 | 2026-09-03 23:32:27 | 53.68493 | 14.65590 | 128° | 102km/h | 13681m | 5.6m/s | -55°C | 2.4% | 155.1hPa | 2.6V | 18:12:15 | 01:12:55 | 00:00:00 | |
| AA1-15 | 2026-09-03 23:32:16 | 53.68656 | 14.65204 | 127° | 97km/h | 13632m | 4.2m/s | -55.2°C | 2.7% | 156.3hPa | 2.7V | 18:12:15 | 01:12:44 | 00:00:00 | |
| DB0DAN | 2026-09-03 23:32:10 | 53.68746 | 14.64998 | 126° | 97km/h | 13609m | 3.3m/s | -55.6°C | 2.7% | 156.89hPa | 2.7V | 00:00:00 | 00:00:00 | 00:00:00 | |
| AA1-15 | 2026-09-03 23:32:05 | 53.68826 | 14.64821 | 129° | 106km/h | 13587m | 3.7m/s | -56°C | 2.9% | 157.4hPa | 2.7V | 18:12:15 | 01:12:33 | 00:00:00 | |
| AA1-15 | 2026-09-03 23:31:55 | 53.68982 | 14.64428 | 122° | 113km/h | 13543m | 3.5m/s | -56.2°C | 3.2% | 158.5hPa | 2.6V | 18:12:15 | 01:12:23 | 00:00:00 | |
| AA1-15 | 2026-09-03 23:31:45 | 53.69140 | 14.64024 | 122° | 106km/h | 13504m | 3.9m/s | -55.9°C | 3.4% | 159.5hPa | 2.6V | 18:12:15 | 01:12:13 | 00:00:00 | |
| KRY50SP | 2026-09-03 23:31:44 | 53.69154 | 14.63985 | 123° | 106km/h | 13501m | 4.1m/s | -55.9°C | 3.1% | 159.6hPa | 2.6V | 00:00:00 | 00:00:00 | 00:00:00 | |
| DB0DAN | 2026-09-03 23:31:40 | 53.69212 | 14.63832 | 123° | 100km/h | 13484m | 4.7m/s | -55.8°C | 3.2% | 160hPa | 2.6V | 00:00:00 | 00:00:00 | 00:00:00 | |
| AA1-15 | 2026-09-03 23:31:34 | 53.69303 | 14.63604 | 124° | 104km/h | 13458m | 3.9m/s | -55.6°C | 3.8% | 160.6hPa | 2.6V | 18:12:15 | 01:12:02 | 00:00:00 | |
| AA1-15 | 2026-09-03 23:31:24 | 53.69440 | 14.63233 | 124° | 108km/h | 13419m | 3.8m/s | -56.2°C | 4.5% | 161.6hPa | 2.6V | 18:12:15 | 01:11:52 | 00:00:00 | |
| AA1-15 | 2026-09-03 23:31:13 | 53.69618 | 14.62821 | 125° | 111km/h | 13372m | 5.7m/s | -57.1°C | 5.2% | 162.8hPa | 2.6V | 18:12:15 | 01:11:41 | 00:00:00 | |
| AA1-15 | 2026-09-03 23:31:02 | 53.69790 | 14.62359 | 123° | 117km/h | 13322m | 4.8m/s | -57.5°C | 6.1% | 164.1hPa | 2.6V | 18:12:15 | 01:11:30 | 00:00:00 | |
| AA1-15 | 2026-09-03 23:30:52 | 53.69948 | 14.61936 | 125° | 119km/h | 13279m | 5m/s | -57.9°C | 7.2% | 165.2hPa | 2.7V | 18:12:15 | 01:11:20 | 00:00:00 | |
| SP3WXH-11 | 2026-09-03 23:30:45 | 53.70066 | 14.61645 | 122° | 119km/h | 13249m | 3.3m/s | -58.1°C | 6.2% | 166.0hPa | 2.7V | 00:00:00 | 00:00:00 | 00:00:00 | |
| AA1-15 | 2026-09-03 23:30:42 | 53.70115 | 14.61517 | 123° | 119km/h | 13236m | 4.6m/s | -58.3°C | 8.4% | 166.3hPa | 2.7V | 18:12:15 | 01:11:10 | 00:00:00 | |
| DB0DAN | 2026-09-03 23:30:40 | 53.70148 | 14.61431 | 123° | 115km/h | 13228m | 3.6m/s | -58.3°C | 6.6% | 166.52hPa | 2.6V | 00:00:00 | 00:00:00 | 00:00:00 | |
| DL1XH-west | 2026-09-03 23:30:39 | 53.70165 | 14.61388 | 123° | 120km/h | 13224m | 4.4m/s | 0°C | 0% | 0hPa | 2.6V | 18:12:15 | 01:11:07 | 00:00:00 | |
| AA1-15 | 2026-09-03 23:30:31 | 53.70291 | 14.61054 | 121° | 111km/h | 13190m | 4.9m/s | -58.2°C | 9.2% | 167.6hPa | 2.7V | 18:12:15 | 01:10:59 | 00:00:00 | |
| AA1-15 | 2026-09-03 23:30:20 | 53.70453 | 14.60596 | 121° | 115km/h | 13147m | 3.8m/s | -57.9°C | 9.7% | 168.7hPa | 2.7V | 18:12:15 | 01:10:48 | 00:00:00 | |
| KRY50SP | 2026-09-03 23:30:18 | 53.70468 | 14.60554 | 122° | 113km/h | 13143m | 4.2m/s | -57.9°C | 7.2% | 168.8hPa | 2.6V | 00:00:00 | 00:00:00 | 00:00:00 | |
| MECKS9 | 2026-09-03 23:30:16 | 53.70513 | 14.60432 | 125° | 111km/h | 13130m | 4.9m/s | -58.0°C | 7.6% | 169.2hPa | 2.6V | 00:00:00 | 00:00:00 | 00:00:00 | |
| SP3WXH-11 | 2026-09-03 23:30:14 | 53.70546 | 14.60355 | 125° | 111km/h | 13122m | 4.0m/s | -58.0°C | 7.8% | 169.4hPa | 2.6V | 00:00:00 | 00:00:00 | 00:00:00 | |
| DB0DAN | 2026-09-03 23:30:10 | 53.70609 | 14.60199 | 124° | 108km/h | 13104m | 3.8m/s | -58°C | 7.9% | 169.92hPa | 2.6V | 00:00:00 | 00:00:00 | 00:00:00 | |
| AA1-15 | 2026-09-03 23:30:10 | 53.70609 | 14.60199 | 124° | 113km/h | 13104m | 3.8m/s | -58°C | 10.4% | 169.9hPa | 2.6V | 18:12:15 | 01:10:38 | 00:00:00 | |
| AA1-15 | 2026-09-03 23:30:00 | 53.70757 | 14.59802 | 124° | 106km/h | 13061m | 3.7m/s | -57.9°C | 10.8% | 171hPa | 2.7V | 18:12:15 | 01:10:28 | 00:00:00 | |
| AA1-15 | 2026-09-03 23:29:49 | 53.70936 | 14.59403 | 128° | 110km/h | 13009m | 6.7m/s | -57.7°C | 11.9% | 172.3hPa | 2.7V | 18:12:15 | 01:10:17 | 00:00:00 | |
| EDDB2-11 | 2026-09-03 23:29:46 | 53.70986 | 14.59287 | 124° | 113km/h | 12994m | 6.0m/s | -57.6°C | 9.0% | 172.8hPa | 2.6V | 00:00:00 | 00:00:00 | 00:00:00 | |
| AA1-15 | 2026-09-03 23:29:38 | 53.71117 | 14.58980 | 127° | 119km/h | 12950m | 5.8m/s | -57.3°C | 13% | 174hPa | 2.6V | 18:12:15 | 01:10:06 | 00:00:00 | |
| AA1-15 | 2026-09-03 23:29:27 | 53.71328 | 14.58539 | 131° | 119km/h | 12897m | 5m/s | -57.1°C | 14.9% | 175.5hPa | 2.8V | 18:12:15 | 01:09:55 | 00:00:00 | |
| AA1-15 | 2026-09-03 23:29:17 | 53.71529 | 14.58133 | 130° | 126km/h | 12852m | 5.5m/s | -57°C | 17.6% | 176.7hPa | 2.6V | 18:12:15 | 01:09:45 | 00:00:00 | |
| AA1-15 | 2026-09-03 23:29:06 | 53.71755 | 14.57663 | 129° | 137km/h | 12799m | 4.8m/s | -57.7°C | 22.5% | 178.2hPa | 2.8V | 18:12:15 | 01:09:34 | 00:00:00 | |
| AA1-15 | 2026-09-03 23:28:56 | 53.71965 | 14.57212 | 128° | 131km/h | 12756m | 4.7m/s | -58.7°C | 28.6% | 179.4hPa | 2.6V | 18:12:15 | 01:09:24 | 00:00:00 | |
| AA1-15 | 2026-09-03 23:28:45 | 53.72197 | 14.56701 | 127° | 144km/h | 12712m | 3.3m/s | -59.4°C | 37.9% | 180.8hPa | 2.8V | 18:12:15 | 01:09:13 | 00:00:00 | |
| AA1-15 | 2026-09-03 23:28:34 | 53.72444 | 14.56184 | 129° | 142km/h | 12668m | 3.6m/s | -60.3°C | 48.1% | 182hPa | 2.8V | 18:12:15 | 01:09:02 | 00:00:00 | |
| AA1-15 | 2026-09-03 23:28:24 | 53.72674 | 14.55713 | 130° | 142km/h | 12626m | 5.3m/s | -61.2°C | 57% | 183.2hPa | 2.8V | 18:12:15 | 01:08:52 | 00:00:00 | |
| AA1-15 | 2026-09-03 23:28:13 | 53.72942 | 14.55213 | 134° | 148km/h | 12583m | 3.9m/s | -62°C | 65.4% | 184.5hPa | 2.6V | 18:12:15 | 01:08:41 | 00:00:00 | |
| AA1-15 | 2026-09-03 23:28:02 | 53.73244 | 14.54686 | 135° | 161km/h | 12537m | 5.4m/s | -62.4°C | 72.6% | 185.9hPa | 2.6V | 18:12:15 | 01:08:30 | 00:00:00 | |
| AA1-15 | 2026-09-03 23:27:52 | 53.73541 | 14.54216 | 138° | 164km/h | 12493m | 4.7m/s | -62.5°C | 73.8% | 187.2hPa | 2.8V | 18:12:15 | 01:08:20 | 00:00:00 | |
| AA1-15 | 2026-09-03 23:27:41 | 53.73884 | 14.53690 | 138° | 166km/h | 12448m | 3.5m/s | -62.5°C | 72.5% | 188.5hPa | 2.6V | 18:12:15 | 01:08:09 | 00:00:00 | |
| AA1-15 | 2026-09-03 23:27:30 | 53.74237 | 14.53145 | 136° | 172km/h | 12398m | 3.7m/s | -62.4°C | 68.9% | 190.1hPa | 2.6V | 18:12:15 | 01:07:58 | 00:00:00 | |
| AA1-15 | 2026-09-03 23:27:20 | 53.74564 | 14.52631 | 138° | 172km/h | 12348m | 7.4m/s | -62°C | 64.8% | 191.6hPa | 2.8V | 18:12:15 | 01:07:48 | 00:00:00 | |
| AA1-15 | 2026-09-03 23:27:09 | 53.74950 | 14.52066 | 138° | 199km/h | 12290m | 4.1m/s | -61.8°C | 63.1% | 193.4hPa | 2.6V | 18:12:15 | 01:07:37 | 00:00:00 | |
| AA1-15 | 2026-09-03 23:26:58 | 53.75338 | 14.51447 | 137° | 192km/h | 12223m | 4.6m/s | -61.8°C | 63.3% | 195.4hPa | 2.6V | 18:12:15 | 01:07:26 | 00:00:00 | |
| AA1-15 | 2026-09-03 23:26:47 | 53.75738 | 14.50808 | 136° | 203km/h | 12176m | 5.1m/s | -61.8°C | 64.6% | 197hPa | 2.6V | 18:12:15 | 01:07:15 | 00:00:00 | |
| AA1-15 | 2026-09-03 23:26:37 | 53.76099 | 14.50204 | 134° | 206km/h | 12132m | 3.6m/s | -61.4°C | 65.1% | 198.4hPa | 2.8V | 18:12:15 | 01:07:05 | 00:00:00 | |
| AA1-15 | 2026-09-03 23:26:26 | 53.76508 | 14.49532 | 136° | 206km/h | 12090m | 3.8m/s | -61.1°C | 65.5% | 199.7hPa | 2.7V | 18:12:15 | 01:06:54 | 00:00:00 | |
| DL1XH-west | 2026-09-03 23:26:18 | 53.76799 | 14.49042 | 135° | 201km/h | 12059m | 3.2m/s | 0°C | 0% | 0hPa | 2.6V | 18:12:15 | 01:06:46 | 00:00:00 | |
| AA1-15 | 2026-09-03 23:26:16 | 53.76873 | 14.48921 | 136° | 203km/h | 12051m | 4.4m/s | -60.9°C | 66% | 201hPa | 2.8V | 18:12:15 | 01:06:44 | 00:00:00 | |
| AA1-15 | 2026-09-03 23:26:05 | 53.77272 | 14.48252 | 135° | 203km/h | 12006m | 5m/s | -60.6°C | 66.5% | 202.4hPa | 2.8V | 18:12:15 | 01:06:33 | 00:00:00 | |
| AA1-15 | 2026-09-03 23:25:54 | 53.77661 | 14.47594 | 134° | 197km/h | 11959m | 3.8m/s | -60.3°C | 66.3% | 204hPa | 2.8V | 18:12:15 | 01:06:22 | 00:00:00 | |
| AA1-15 | 2026-09-03 23:25:44 | 53.78015 | 14.46989 | 135° | 199km/h | 11918m | 3.9m/s | -60.1°C | 65% | 205.3hPa | 2.8V | 18:12:15 | 01:06:12 | 00:00:00 | |
| DL1XH-west | 2026-09-03 23:25:40 | 53.78157 | 14.46746 | 134° | 199km/h | 11900m | 2.6m/s | 0°C | 0% | 0hPa | 2.8V | 18:12:15 | 01:06:08 | 00:00:00 | |
| AA1-15 | 2026-09-03 23:25:33 | 53.78402 | 14.46316 | 134° | 201km/h | 11872m | 4.3m/s | -59.9°C | 63.3% | 206.7hPa | 2.8V | 18:12:15 | 01:06:01 | 00:00:00 | |
| AA1-15 | 2026-09-03 23:25:22 | 53.78787 | 14.45649 | 134° | 201km/h | 11828m | 4m/s | -59.6°C | 63.6% | 208.3hPa | 2.8V | 18:12:15 | 01:05:50 | 00:00:00 | |
| DL1XH-west | 2026-09-03 23:25:19 | 53.78891 | 14.45468 | 134° | 192km/h | 11816m | 5.2m/s | 0°C | 0% | 0hPa | 2.7V | 18:12:15 | 01:05:47 | 00:00:00 | |
| AA1-15 | 2026-09-03 23:25:11 | 53.79159 | 14.45002 | 133° | 193km/h | 11781m | 4.6m/s | -59.2°C | 62.9% | 209.8hPa | 2.8V | 18:12:15 | 01:05:39 | 00:00:00 | |
| DL1XH-west | 2026-09-03 23:25:09 | 53.79227 | 14.44880 | 134° | 197km/h | 11773m | 3.7m/s | 0°C | 0% | 0hPa | 2.7V | 18:12:15 | 01:05:37 | 00:00:00 | |
| AA1-15 | 2026-09-03 23:25:01 | 53.79498 | 14.44400 | 133° | 193km/h | 11740m | 4m/s | -58.8°C | 62.9% | 211.2hPa | 2.8V | 18:12:15 | 01:05:29 | 00:00:00 | |
| AA1-15 | 2026-09-03 23:24:51 | 53.79829 | 14.43794 | 133° | 192km/h | 11695m | 5.5m/s | -58.4°C | 63.2% | 212.8hPa | 2.7V | 18:12:15 | 01:05:19 | 00:00:00 | |
| AA1-15 | 2026-09-03 23:24:40 | 53.80190 | 14.43130 | 133° | 195km/h | 11646m | 4.1m/s | -58°C | 63.3% | 214.4hPa | 2.7V | 18:12:15 | 01:05:08 | 00:00:00 | |
| AA1-15 | 2026-09-03 23:24:29 | 53.80547 | 14.42458 | 132° | 195km/h | 11599m | 5m/s | -57.6°C | 64.1% | 216hPa | 2.8V | 18:12:15 | 01:04:57 | 00:00:00 | |
| AA1-15 | 2026-09-03 23:24:19 | 53.80878 | 14.41832 | 130° | 197km/h | 11556m | 4.4m/s | -57.2°C | 64.9% | 217.4hPa | 2.8V | 18:12:15 | 01:04:47 | 00:00:00 | |
| AA1-15 | 2026-09-03 23:24:08 | 53.81234 | 14.41155 | 132° | 195km/h | 11505m | 5.9m/s | -56.8°C | 65.8% | 219.2hPa | 2.7V | 18:12:15 | 01:04:36 | 00:00:00 | |
| AA1-15 | 2026-09-03 23:23:58 | 53.81586 | 14.40461 | 131° | 195km/h | 11459m | 5m/s | -56.3°C | 65.9% | 220.8hPa | 2.8V | 18:12:15 | 01:04:25 | 00:00:00 | |
| AA1-15 | 2026-09-03 23:23:48 | 53.81870 | 14.39899 | 130° | 188km/h | 11419m | 5.2m/s | -56°C | 65.2% | 222.2hPa | 2.7V | 18:12:15 | 01:04:16 | 00:00:00 | |
| AA1-15 | 2026-09-03 23:23:37 | 53.82215 | 14.39210 | 129° | 186km/h | 11372m | 3.9m/s | -55.5°C | 65% | 223.9hPa | 2.8V | 18:12:15 | 01:04:05 | 00:00:00 | |
| AA1-15 | 2026-09-03 23:23:26 | 53.82582 | 14.38461 | 130° | 195km/h | 11321m | 4.8m/s | -55°C | 65.1% | 225.7hPa | 2.8V | 18:12:15 | 01:03:53 | 00:00:00 | |
| AA1-15 | 2026-09-03 23:23:15 | 53.82901 | 14.37840 | 130° | 190km/h | 11277m | 4.8m/s | -54.6°C | 64.2% | 227.2hPa | 2.7V | 18:12:15 | 01:03:43 | 00:00:00 | |
| AA1-15 | 2026-09-03 23:23:04 | 53.83236 | 14.37152 | 130° | 193km/h | 11228m | 5.3m/s | -54.1°C | 63.4% | 229hPa | 2.7V | 18:12:15 | 01:03:32 | 00:00:00 | |
| AA1-15 | 2026-09-03 23:22:54 | 53.83546 | 14.36526 | 130° | 192km/h | 11186m | 5m/s | -53.7°C | 62.4% | 230.5hPa | 2.7V | 18:12:15 | 01:03:22 | 00:00:00 | |
| AA1-15 | 2026-09-03 23:22:43 | 53.83882 | 14.35843 | 129° | 188km/h | 11139m | 4.9m/s | -53.3°C | 62.1% | 232.2hPa | 2.7V | 18:12:15 | 01:03:11 | 00:00:00 | |
| AA1-15 | 2026-09-03 23:22:33 | 53.84221 | 14.35154 | 129° | 192km/h | 11094m | 4.3m/s | -52.8°C | 62.4% | 233.7hPa | 2.8V | 18:12:15 | 01:03:00 | 00:00:00 | |
| AA1-15 | 2026-09-03 23:22:22 | 53.84525 | 14.34533 | 129° | 186km/h | 11052m | 4.8m/s | -52.4°C | 61% | 235.3hPa | 2.8V | 18:12:15 | 01:02:50 | 00:00:00 | |
| AA1-15 | 2026-09-03 23:22:11 | 53.84865 | 14.33860 | 130° | 188km/h | 11007m | 4.5m/s | -52°C | 60.1% | 236.9hPa | 2.8V | 18:12:15 | 01:02:39 | 00:00:00 | |
| AA1-15 | 2026-09-03 23:22:01 | 53.85168 | 14.33238 | 131° | 188km/h | 10966m | 3.8m/s | -51.6°C | 60.1% | 238.4hPa | 2.8V | 18:12:15 | 01:02:29 | 00:00:00 | |
| AA1-15 | 2026-09-03 23:21:50 | 53.85504 | 14.32548 | 131° | 186km/h | 10920m | 5.7m/s | -51.2°C | 61.8% | 240.1hPa | 2.8V | 18:12:15 | 01:02:18 | 00:00:00 | |
| AA1-15 | 2026-09-03 23:21:39 | 53.85832 | 14.31858 | 128° | 195km/h | 10870m | 2.8m/s | -50.7°C | 63% | 241.9hPa | 2.8V | 18:12:15 | 01:02:07 | 00:00:00 | |
| AA1-15 | 2026-09-03 23:21:29 | 53.86140 | 14.31248 | 132° | 184km/h | 10822m | 5.7m/s | -50.2°C | 63.6% | 243.7hPa | 2.8V | 18:12:15 | 01:01:57 | 00:00:00 | |
| AA1-15 | 2026-09-03 23:21:18 | 53.86464 | 14.30553 | 128° | 186km/h | 10766m | 5.1m/s | -49.7°C | 61.8% | 245.8hPa | 2.7V | 18:12:15 | 01:01:46 | 00:00:00 | |
| AA1-15 | 2026-09-03 23:21:08 | 53.86767 | 14.29927 | 130° | 190km/h | 10719m | 7.4m/s | -49.2°C | 60.4% | 247.7hPa | 2.8V | 18:12:15 | 01:01:36 | 00:00:00 | |
| S3001 | 2026-09-03 23:21:04 | 53.86885 | 14.29681 | 128° | 181km/h | 10696m | 4.2m/s | -49.1°C | 58.7% | 248.5hPa | 2.8V | 00:00:00 | 00:00:00 | 00:00:00 | |
| DL1XH-15 | 2026-09-03 23:21:03 | 53.87002 | 14.29428 | 127° | 193km/h | 10678m | 4.3m/s | -48.9°C | 65.4% | 249.2hPa | 2.8V | 08:30:00 | 01:01:28 | 00:00:00 | |
| AA1-15 | 2026-09-03 23:20:57 | 53.87089 | 14.29232 | 128° | 188km/h | 10664m | 3.9m/s | -48.7°C | 62.4% | 249.8hPa | 2.8V | 18:12:15 | 01:01:25 | 00:00:00 | |
| AA1-15 | 2026-09-03 23:20:46 | 53.87425 | 14.28558 | 130° | 188km/h | 10610m | 5.7m/s | -48.3°C | 62.8% | 251.7hPa | 2.8V | 18:12:15 | 01:01:14 | 00:00:00 | |
| AA1-15 | 2026-09-03 23:20:35 | 53.87762 | 14.27878 | 130° | 184km/h | 10563m | 4.7m/s | -47.8°C | 64.4% | 253.6hPa | 2.8V | 18:12:15 | 01:01:03 | 00:00:00 | |
| AA1-15 | 2026-09-03 23:20:24 | 53.88090 | 14.27199 | 130° | 190km/h | 10512m | 5.9m/s | -47.3°C | 65.5% | 255.5hPa | 2.8V | 18:12:15 | 01:00:52 | 00:00:00 | |
| AA1-15 | 2026-09-03 23:20:14 | 53.88390 | 14.26567 | 130° | 188km/h | 10466m | 4.5m/s | -47°C | 66% | 257.3hPa | 2.8V | 18:12:15 | 01:00:42 | 00:00:00 | |
| KRY50SP | 2026-09-03 23:20:10 | 53.88513 | 14.26323 | 131° | 184km/h | 10449m | 5.0m/s | -46.8°C | 0% | 0hPa | 2.7V | 00:00:00 | 00:00:00 | 00:00:00 | |
| SP3BTT-10 | 2026-09-03 23:20:09 | 53.88542 | 14.26263 | 130° | 177km/h | 10444m | 3.9m/s | -46.8°C | 72.1% | 258.1hPa | 2.7V | 00:00:00 | 00:00:00 | 00:00:00 | |
| DL1XH-15 | 2026-09-03 23:20:05 | 53.88785 | 14.25766 | 127° | 192km/h | 10410m | 2.9m/s | -46.5°C | 72.2% | 259.6hPa | 2.7V | 08:30:00 | 01:00:29 | 00:00:00 | |
| AA1-15 | 2026-09-03 23:20:03 | 53.88725 | 14.25894 | 130° | 192km/h | 10419m | 5.6m/s | -46.6°C | 66.2% | 259.2hPa | 2.8V | 18:12:15 | 01:00:31 | 00:00:00 | |
| S3001 | 2026-09-03 23:20:02 | 53.88755 | 14.25831 | 128° | 192km/h | 10413m | 5.3m/s | -46.6°C | 64.7% | 259.3hPa | 2.8V | 00:00:00 | 00:00:00 | 00:00:00 | |
| EDDB2-11 | 2026-09-03 23:19:56 | 53.88930 | 14.25454 | 128° | 175km/h | 10383m | 6.4m/s | -46.3°C | 65.2% | 260.5hPa | 2.8V | 00:00:00 | 00:00:00 | 00:00:00 | |
| DL1XH-15 | 2026-09-03 23:19:53 | 53.89072 | 14.25151 | 126° | 192km/h | 10356m | 4.8m/s | -46.1°C | 69.9% | 261.5hPa | 2.8V | 08:30:00 | 01:00:19 | 00:00:00 | |
| AA1-15 | 2026-09-03 23:19:52 | 53.89043 | 14.25216 | 127° | 186km/h | 10360m | 5.1m/s | -46.1°C | 67% | 261.4hPa | 2.8V | 18:12:15 | 01:00:20 | 00:00:00 | |
| AA1-15 | 2026-09-03 23:19:42 | 53.89325 | 14.24584 | 129° | 179km/h | 10309m | 5.4m/s | -45.7°C | 66.5% | 263.4hPa | 2.8V | 18:12:15 | 01:00:10 | 00:00:00 | |
| DL1XH-15 | 2026-09-03 23:19:39 | 53.89558 | 14.24092 | 127° | 184km/h | 10275m | 5.1m/s | -45.4°C | 71.4% | 264.7hPa | 2.8V | 08:30:00 | 01:00:02 | 00:00:00 | |
| AA1-15 | 2026-09-03 23:19:31 | 53.89641 | 14.23906 | 128° | 177km/h | 10264m | 4m/s | -45.3°C | 67.7% | 265.2hPa | 2.7V | 18:12:15 | 00:59:59 | 00:00:00 | |
| DL1XH-15 | 2026-09-03 23:19:29 | 53.89834 | 14.23493 | 128° | 175km/h | 10235m | 3.4m/s | -45°C | 72.4% | 266.3hPa | 2.8V | 08:30:00 | 00:59:52 | 00:00:00 | |
| AA1-15 | 2026-09-03 23:19:21 | 53.89916 | 14.23310 | 126° | 179km/h | 10222m | 4.4m/s | -44.9°C | 68.2% | 266.8hPa | 2.7V | 18:12:15 | 00:59:49 | 00:00:00 | |
| DL1XH-15 | 2026-09-03 23:19:19 | 53.90103 | 14.22884 | 127° | 173km/h | 10193m | 5.1m/s | -44.6°C | 73.4% | 267.9hPa | 2.7V | 08:30:00 | 00:59:42 | 00:00:00 | |
| AA1-15 | 2026-09-03 23:19:10 | 53.90209 | 14.22648 | 128° | 173km/h | 10178m | 2.6m/s | -44.5°C | 68.9% | 268.6hPa | 2.8V | 18:12:15 | 00:59:38 | 00:00:00 | |
| AA1-15 | 2026-09-03 23:19:00 | 53.90477 | 14.22040 | 126° | 172km/h | 10138m | 2.8m/s | -44.1°C | 68.6% | 270.1hPa | 2.8V | 18:12:15 | 00:59:28 | 00:00:00 | |
| AA1-15 | 2026-09-03 23:18:49 | 53.90764 | 14.21371 | 124° | 175km/h | 10097m | 4m/s | -43.7°C | 68.5% | 271.9hPa | 2.8V | 18:12:15 | 00:59:17 | 00:00:00 | |
| AA1-15 | 2026-09-03 23:18:39 | 53.91032 | 14.20763 | 126° | 179km/h | 10051m | 5.3m/s | -43.3°C | 69.2% | 273.7hPa | 2.7V | 18:12:15 | 00:59:07 | 00:00:00 | |
| SP3BTT-10 | 2026-09-03 23:18:39 | 53.91032 | 14.20763 | 126° | 177km/h | 10051m | 5.3m/s | -43.3°C | 75.0% | 273.6hPa | 2.7V | 00:00:00 | 00:00:00 | 08:30:00 | |
| DL1XH-15 | 2026-09-03 23:18:34 | 53.91160 | 14.20450 | 126° | 175km/h | 10029m | 4.1m/s | -43.1°C | 76.5% | 274.6hPa | 2.8V | 08:30:00 | 00:59:02 | 00:00:00 | |
| AM1SDL-15 | 2026-09-03 23:18:33 | 53.91186 | 14.20390 | 127° | 175km/h | 10025m | 4.0m/s | -43.0°C | 76.1% | 274.7hPa | 2.8V | 00:00:00 | 00:59:01 | 00:00:00 | |
| DL1XH-15 | 2026-09-03 23:18:29 | 53.91413 | 14.19831 | 123° | 177km/h | 9981m | 5.3m/s | -42.7°C | 76.6% | 276.6hPa | 2.8V | 08:30:00 | 00:58:52 | 00:00:00 | |
| AA1-15 | 2026-09-03 23:18:29 | 53.91290 | 14.20145 | 124° | 175km/h | 10004m | 3.7m/s | -42.9°C | 70.9% | 275.6hPa | 2.8V | 18:12:15 | 00:58:57 | 00:00:00 | |
| AA1-15 | 2026-09-03 23:18:18 | 53.91565 | 14.19462 | 126° | 175km/h | 9955m | 3.4m/s | -42.5°C | 71.9% | 277.6hPa | 2.8V | 18:12:15 | 00:58:46 | 00:00:00 | |
| DL1XH-15 | 2026-09-03 23:18:15 | 53.91671 | 14.19221 | 127° | 177km/h | 9939m | 3.3m/s | -42.3°C | 78.2% | 278.3hPa | 2.7V | 08:30:00 | 00:58:42 | 00:00:00 | |
| MECKS9 | 2026-09-03 23:18:12 | 53.91725 | 14.19099 | 127° | 177km/h | 9931m | 5.1m/s | -42.2°C | 72.3% | 278.6hPa | 2.8V | 00:00:00 | 00:00:00 | 00:00:00 | |
| DL1XH-15 | 2026-09-03 23:18:09 | 53.91937 | 14.18603 | 126° | 179km/h | 9900m | 3.8m/s | -42°C | 79.9% | 279.9hPa | 2.8V | 08:30:00 | 00:58:32 | 00:00:00 | |
| AA1-15 | 2026-09-03 23:18:07 | 53.91857 | 14.18789 | 126° | 181km/h | 9912m | 4.6m/s | -42.1°C | 73.2% | 279.4hPa | 2.8V | 18:12:15 | 00:58:35 | 00:00:00 | |
| AA1-15 | 2026-09-03 23:17:57 | 53.92117 | 14.18174 | 123° | 175km/h | 9872m | 4.3m/s | -41.7°C | 74.1% | 281.1hPa | 2.8V | 18:12:15 | 00:58:25 | 00:00:00 | |
| AA1-15 | 2026-09-03 23:17:46 | 53.92403 | 14.17466 | 126° | 173km/h | 9827m | 5.1m/s | -41.3°C | 74.3% | 283hPa | 2.8V | 18:12:15 | 00:58:14 | 00:00:00 | |
| DO2SHX-10 | 2026-09-03 23:17:44 | 53.92455 | 14.17345 | 126° | 177km/h | 9816m | 6.0m/s | 0°C | 0% | 0hPa | 2.8V | 00:00:00 | 00:58:12 | 00:00:00 | |
| DO2SHX-10 | 2026-09-03 23:17:41 | 53.92531 | 14.17156 | 124° | 177km/h | 9800m | 5.9m/s | 0°C | 0% | 0hPa | 2.8V | 00:00:00 | 00:58:09 | 00:00:00 | |
| DG6HD-11 | 2026-09-03 23:17:40 | 53.92555 | 14.17093 | 124° | 177km/h | 9795m | 4.6m/s | -41.0°C | 80.8% | 284.2hPa | 2.8V | 00:00:00 | 00:00:00 | 00:00:00 | |
| SP3BTT-10 | 2026-09-03 23:17:39 | 53.92580 | 14.17030 | 124° | 179km/h | 9789m | 6.8m/s | -40.9°C | 81.2% | 284.5hPa | 2.8V | 00:00:00 | 00:00:00 | 00:00:00 | |
| DL1XH-15 | 2026-09-03 23:17:36 | 53.92733 | 14.16648 | 123° | 177km/h | 9761m | 4.6m/s | -40.8°C | 81.6% | 285.6hPa | 2.8V | 08:30:00 | 00:58:01 | 00:00:00 | |
| AA1-15 | 2026-09-03 23:17:35 | 53.92683 | 14.16775 | 124° | 183km/h | 9771m | 5.5m/s | -40.8°C | 74.6% | 285.2hPa | 2.8V | 18:12:15 | 00:58:03 | 00:00:00 | |
| AA1-15 | 2026-09-03 23:17:24 | 53.92965 | 14.16082 | 124° | 179km/h | 9721m | 5.2m/s | -40.4°C | 74.2% | 287.4hPa | 2.7V | 18:12:15 | 00:57:52 | 00:00:00 | |
| DL1XH-15 | 2026-09-03 23:17:23 | 53.93015 | 14.15957 | 124° | 175km/h | 9712m | 2.3m/s | -40.3°C | 80.3% | 287.7hPa | 2.8V | 08:30:00 | 00:57:50 | 00:00:00 | |
| AA1-15 | 2026-09-03 23:17:14 | 53.93219 | 14.15445 | 124° | 181km/h | 9679m | 3.8m/s | -40.1°C | 73.5% | 289.1hPa | 2.8V | 18:12:15 | 00:57:42 | 00:00:00 | |
| DL1XH-west | 2026-09-03 23:17:10 | 53.93317 | 14.15190 | 123° | 177km/h | 9662m | 4.4m/s | -39.9°C | 73.3% | 289.9hPa | 2.8V | 18:12:15 | 00:57:38 | 00:00:00 | |
| SP3BTT-10 | 2026-09-03 23:17:09 | 53.93341 | 14.15126 | 124° | 173km/h | 9658m | 3.4m/s | -39.8°C | 79.6% | 289.9hPa | 2.7V | 00:00:00 | 00:00:00 | 00:00:00 | |
| DO2SHX-10 | 2026-09-03 23:17:08 | 53.93366 | 14.15063 | 123° | 175km/h | 9653m | 5.6m/s | 0°C | 0% | 0hPa | 2.8V | 00:00:00 | 00:57:36 | 00:00:00 | |
| MECKS9 | 2026-09-03 23:17:05 | 53.93414 | 14.14935 | 124° | 177km/h | 9644m | 5.5m/s | -39.8°C | 73.5% | 290.5hPa | 2.8V | 00:00:00 | 00:00:00 | 00:00:00 | |
| DO2SHX-10 | 2026-09-03 23:17:04 | 53.93463 | 14.14808 | 124° | 175km/h | 9636m | 4.3m/s | 0°C | 0% | 0hPa | 2.8V | 00:00:00 | 00:57:32 | 00:00:00 | |
| DL1XH1-15 | 2026-09-03 23:17:03 | 53.93561 | 14.14559 | 124° | 175km/h | 9619m | 3.6m/s | 0°C | 0% | 0hPa | 2.8V | 00:00:00 | 00:57:28 | 00:00:00 | |
| AA1-15 | 2026-09-03 23:17:03 | 53.93487 | 14.14745 | 123° | 175km/h | 9632m | 4.3m/s | -39.7°C | 72.9% | 291.1hPa | 2.8V | 18:12:15 | 00:57:31 | 00:00:00 | |
| DL1XH-west | 2026-09-03 23:17:00 | 53.93561 | 14.14559 | 125° | 175km/h | 9619m | 3.6m/s | -39.6°C | 72.6% | 291.6hPa | 2.8V | 18:12:15 | 00:57:28 | 00:00:00 | |
| S3001 | 2026-09-03 23:16:56 | 53.93685 | 14.14243 | 123° | 177km/h | 9599m | 3.8m/s | -39.5°C | 73.6% | 292.5hPa | 2.8V | 00:00:00 | 00:00:00 | 00:00:00 | |
| DL1XH1-15 | 2026-09-03 23:16:53 | 53.93806 | 14.13919 | 123° | 175km/h | 9578m | 3.8m/s | 0°C | 0% | 0hPa | 2.8V | 00:00:00 | 00:57:18 | 00:00:00 | |
| AA1-15 | 2026-09-03 23:16:52 | 53.93758 | 14.14048 | 122° | 179km/h | 9587m | 5m/s | -39.4°C | 72.6% | 293hPa | 2.7V | 18:12:15 | 00:57:20 | 00:00:00 | |
| DL1XH-15 | 2026-09-03 23:16:51 | 53.93903 | 14.13670 | 123° | 175km/h | 9559m | 4.8m/s | -39.1°C | 79.6% | 294.1hPa | 2.8V | 08:30:00 | 00:57:14 | 00:00:00 | |
| DL1XH-west | 2026-09-03 23:16:49 | 53.93831 | 14.13857 | 123° | 173km/h | 9574m | 3.7m/s | -39.2°C | 73% | 293.5hPa | 2.8V | 18:12:15 | 00:57:17 | 00:00:00 | |
| SP3WXH-11 | 2026-09-03 23:16:47 | 53.93878 | 14.13732 | 123° | 172km/h | 9564m | 5.2m/s | -39.2°C | 73.6% | 294.0hPa | 2.8V | 00:00:00 | 00:00:00 | 00:00:00 | |
| AA1-15 | 2026-09-03 23:16:42 | 53.94000 | 14.13422 | 124° | 168km/h | 9541m | 5.9m/s | -39°C | 73.4% | 294.9hPa | 2.8V | 18:12:15 | 00:57:10 | 00:00:00 | |
| SP3BTT-10 | 2026-09-03 23:16:39 | 53.94071 | 14.13244 | 124° | 168km/h | 9528m | 4.0m/s | -38.8°C | 80.2% | 295.5hPa | 2.8V | 00:00:00 | 00:00:00 | 00:00:00 | |
| DL1XH-15 | 2026-09-03 23:16:38 | 53.94207 | 14.12869 | 120° | 175km/h | 9499m | 5.3m/s | -38.6°C | 79.8% | 296.8hPa | 2.8V | 08:30:00 | 00:57:01 | 00:00:00 | |
| AA1-15 | 2026-09-03 23:16:32 | 53.94229 | 14.12805 | 121° | 177km/h | 9495m | 3.8m/s | -38.6°C | 73.3% | 297hPa | 2.7V | 18:12:15 | 00:57:00 | 00:00:00 | |
| S3001 | 2026-09-03 23:16:25 | 53.94426 | 14.12305 | 125° | 170km/h | 9460m | 4.0m/s | -38.3°C | 73.5% | 298.5hPa | 2.8V | 00:00:00 | 00:00:00 | 00:00:00 | |
| DL1XH-15 | 2026-09-03 23:16:22 | 53.94498 | 14.12122 | 121° | 170km/h | 9446m | 3.2m/s | -38.2°C | 80.4% | 299.1hPa | 2.8V | 08:30:00 | 00:56:49 | 00:00:00 | |
| AA1-15 | 2026-09-03 23:16:22 | 53.94475 | 14.12184 | 123° | 172km/h | 9450m | 5.4m/s | -38.3°C | 72.1% | 298.9hPa | 2.8V | 18:12:15 | 00:56:50 | 00:00:00 | |
| DL1XH-west | 2026-09-03 23:16:13 | 53.94673 | 14.11615 | 123° | 175km/h | 9407m | 8.1m/s | -37.9°C | 73.3% | 300.8hPa | 2.8V | 18:12:15 | 00:56:41 | 00:00:00 | |
| DL1XH-15 | 2026-09-03 23:16:12 | 53.94722 | 14.11495 | 125° | 168km/h | 9395m | 4.8m/s | -37.9°C | 78.1% | 301.2hPa | 2.7V | 08:30:00 | 00:56:39 | 00:00:00 | |
| AA1-15 | 2026-09-03 23:16:11 | 53.94722 | 14.11495 | 125° | 168km/h | 9395m | 4.8m/s | -37.9°C | 73.3% | 301.2hPa | 2.7V | 18:12:15 | 00:56:39 | 00:00:00 | |
| DL1XH-west | 2026-09-03 23:16:02 | 53.94925 | 14.10945 | 122° | 170km/h | 9351m | 2.9m/s | -37.5°C | 74% | 303.3hPa | 2.8V | 18:12:15 | 00:56:30 | 00:00:00 | |
| AA1-15 | 2026-09-03 23:16:00 | 53.94970 | 14.10822 | 121° | 168km/h | 9342m | 6.6m/s | -37.4°C | 74.2% | 303.6hPa | 2.8V | 18:12:15 | 00:56:28 | 00:00:00 | |
| S3001 | 2026-09-03 23:15:54 | 53.95127 | 14.10399 | 122° | 164km/h | 9310m | 3.4m/s | -37.2°C | 73.6% | 305.0hPa | 2.7V | 00:00:00 | 00:00:00 | 00:00:00 | |
| DL1XH-15 | 2026-09-03 23:15:52 | 53.95170 | 14.10276 | 119° | 168km/h | 9302m | 4m/s | -37.1°C | 79.1% | 305.3hPa | 2.7V | 08:30:00 | 00:56:19 | 00:00:00 | |
| AA1-15 | 2026-09-03 23:15:50 | 53.95190 | 14.10213 | 119° | 168km/h | 9297m | 4.8m/s | -37.1°C | 73.7% | 305.5hPa | 2.7V | 18:12:15 | 00:56:18 | 00:00:00 | |
| EDDB2-11 | 2026-09-03 23:15:48 | 53.95253 | 14.10024 | 119° | 168km/h | 9285m | 5.1m/s | -37.0°C | -1.0% | 306.1hPa | 2.8V | 00:00:00 | 00:00:00 | 00:00:00 | |
| SP3WXH-11 | 2026-09-03 23:15:45 | 53.95296 | 14.09898 | 120° | 168km/h | 9276m | 3.7m/s | -37.0°C | -1.0% | -1.0hPa | 2.8V | 00:00:00 | 00:00:00 | 00:00:00 | |
| KRY50SP | 2026-09-03 23:15:44 | 53.95296 | 14.09898 | 121° | 170km/h | 9276m | 3.7m/s | 0°C | 0% | 0hPa | 2.8V | 00:00:00 | 00:00:00 | 00:00:00 | |
| DO2SHX-10 | 2026-09-03 23:15:43 | 53.95339 | 14.09773 | 121° | 168km/h | 9268m | 3.5m/s | 0°C | 0% | 0hPa | 2.8V | 00:00:00 | 00:56:11 | 00:00:00 | |
| DL1XH-15 | 2026-09-03 23:15:42 | 53.95403 | 14.09588 | 119° | 164km/h | 9256m | 3.8m/s | -36.8°C | 78.9% | 307.4hPa | 2.8V | 08:30:00 | 00:56:08 | 00:00:00 | |
| AA1-15 | 2026-09-03 23:15:40 | 53.95403 | 14.09588 | 120° | 164km/h | 9256m | 3.8m/s | -36.8°C | 73.3% | 307.4hPa | 2.8V | 18:12:15 | 00:56:08 | 00:00:00 | |
| DB0DAN | 2026-09-03 23:15:40 | 53.95403 | 14.09588 | 120° | 157km/h | 9256m | 3.8m/s | -36.8°C | 73.4% | 307.38hPa | 2.8V | 00:00:00 | 00:00:00 | 00:00:00 | |
| DO2SHX-10 | 2026-09-03 23:15:40 | 53.95403 | 14.09588 | 120° | 164km/h | 9256m | 3.7m/s | 0°C | 0% | 0hPa | 2.7V | 00:00:00 | 00:56:08 | 00:00:00 | |
| DO2SHX-10 | 2026-09-03 23:15:37 | 53.95466 | 14.09404 | 121° | 166km/h | 9244m | 4.0m/s | 0°C | 0% | 0hPa | 2.7V | 00:00:00 | 00:56:05 | 00:00:00 | |
| KRY50SP | 2026-09-03 23:15:34 | 53.95510 | 14.09282 | 123° | 166km/h | 9235m | 3.5m/s | 0°C | 0% | 0hPa | 2.7V | 00:00:00 | 00:00:00 | 00:00:00 | |
| DL1XH-15 | 2026-09-03 23:15:32 | 53.95640 | 14.08922 | 120° | 161km/h | 9212m | 4.3m/s | -36.5°C | 78.6% | 309.3hPa | 2.7V | 08:30:00 | 00:55:57 | 00:00:00 | |
| DL1XH-west | 2026-09-03 23:15:31 | 53.95598 | 14.09040 | 121° | 162km/h | 9219m | 4.1m/s | -36.5°C | 73.4% | 309.1hPa | 2.8V | 18:12:15 | 00:55:59 | 00:00:00 | |
| DL1XH1-15 | 2026-09-03 23:15:31 | 53.95704 | 14.08739 | 119° | 168km/h | 9199m | 5m/s | 0°C | 0% | 0hPa | 2.8V | 00:00:00 | 00:55:54 | 00:00:00 | |
| AA1-15 | 2026-09-03 23:15:29 | 53.95640 | 14.08922 | 121° | 162km/h | 9212m | 4.3m/s | -36.5°C | 73.7% | 309.3hPa | 2.7V | 18:12:15 | 00:55:57 | 00:00:00 | |
| SP3BTT-10 | 2026-09-03 23:15:29 | 53.95640 | 14.08922 | 121° | 164km/h | 9212m | 4.3m/s | -36.4°C | 78.6% | 309.3hPa | 2.7V | 00:00:00 | 00:00:00 | 00:00:00 | |
| DB0DAN | 2026-09-03 23:15:25 | 53.95725 | 14.08677 | 120° | 161km/h | 9195m | 3.8m/s | -36.3°C | 73.8% | 310.1hPa | 2.8V | 00:00:00 | 00:00:00 | 00:00:00 | |
| DG6HD-11 | 2026-09-03 23:15:24 | 53.95746 | 14.08614 | 121° | 164km/h | 9190m | 5.2m/s | -36.2°C | 79.2% | 310.3hPa | 2.8V | 00:00:00 | 00:00:00 | 00:00:00 | |
| S3001 | 2026-09-03 23:15:23 | 53.95789 | 14.08492 | 121° | 162km/h | 9183m | 3.4m/s | -36.2°C | 73.9% | 310.6hPa | 2.8V | 00:00:00 | 00:00:00 | 00:00:00 | |
| DL1XH-15 | 2026-09-03 23:15:22 | 53.95872 | 14.08258 | 121° | 157km/h | 9167m | 3.6m/s | -36.1°C | 79.6% | 311.3hPa | 2.8V | 08:30:00 | 00:55:46 | 00:00:00 | |
| DL1XH-west | 2026-09-03 23:15:20 | 53.95830 | 14.08373 | 121° | 159km/h | 9175m | 3.8m/s | -36.2°C | 74.1% | 0hPa | 2.8V | 18:12:15 | 00:55:48 | 00:00:00 | |
| AA1-15 | 2026-09-03 23:15:19 | 53.95851 | 14.08315 | 121° | 157km/h | 9171m | 4.6m/s | -36.1°C | 74.1% | 311.2hPa | 2.8V | 18:12:15 | 00:55:47 | 00:00:00 | |
| KRY50SP | 2026-09-03 23:15:16 | 53.95893 | 14.08201 | 123° | 157km/h | 9163m | 4.1m/s | 0°C | 0% | 0hPa | 2.7V | 00:00:00 | 00:00:00 | 00:00:00 | |
| DL1XH-15 | 2026-09-03 23:15:12 | 53.96088 | 14.07663 | 122° | 168km/h | 9127m | 2.6m/s | -35.8°C | 79.8% | 313.1hPa | 2.7V | 08:30:00 | 00:55:36 | 00:00:00 | |
| DL1XH-west | 2026-09-03 23:15:09 | 53.96066 | 14.07724 | 122° | 168km/h | 9130m | 4.6m/s | -35.8°C | 74% | 0hPa | 2.7V | 18:12:15 | 00:55:37 | 00:00:00 | |
| AA1-15 | 2026-09-03 23:15:08 | 53.96088 | 14.07663 | 122° | 168km/h | 9127m | 2.6m/s | -35.8°C | 74.1% | 313.1hPa | 2.7V | 18:12:15 | 00:55:36 | 00:00:00 | |
| AM1SDL-15 | 2026-09-03 23:15:05 | 53.96153 | 14.07481 | 121° | 164km/h | 9116m | 2.9m/s | -35.6°C | 80.0% | 313.6hPa | 2.9V | 00:00:00 | 00:55:33 | 00:00:00 | |
| DL1XH-15 | 2026-09-03 23:15:02 | 53.96325 | 14.07002 | 121° | 164km/h | 9085m | 3.9m/s | -35.4°C | 79.8% | 315hPa | 2.9V | 08:30:00 | 00:55:25 | 00:00:00 | |
| AA1-15 | 2026-09-03 23:14:58 | 53.96303 | 14.07061 | 122° | 162km/h | 9089m | 3.8m/s | -35.5°C | 74.4% | 314.9hPa | 2.9V | 18:12:15 | 00:55:26 | 00:00:00 | |
| DG6HD-11 | 2026-09-03 23:14:54 | 53.96389 | 14.06822 | 122° | 159km/h | 9073m | 4.4m/s | -35.3°C | 79.6% | 315.6hPa | 2.7V | 00:00:00 | 00:00:00 | 00:00:00 | |
| AM1SDL-15 | 2026-09-03 23:14:53 | 53.96410 | 14.06763 | 122° | 161km/h | 9069m | 3.8m/s | -35.3°C | 79.6% | 315.8hPa | 2.7V | 00:00:00 | 00:55:21 | 00:00:00 | |
| DL1XH-15 | 2026-09-03 23:14:52 | 53.96537 | 14.06410 | 121° | 161km/h | 9044m | 3.5m/s | -35.1°C | 79.6% | 316.9hPa | 2.7V | 08:30:00 | 00:55:15 | 00:00:00 | |
| DL1XH-west | 2026-09-03 23:14:50 | 53.96474 | 14.06586 | 122° | 161km/h | 9057m | 4.7m/s | -35.2°C | 74% | 0hPa | 2.8V | 18:12:15 | 00:55:18 | 00:00:00 | |
| AA1-15 | 2026-09-03 23:14:47 | 53.96537 | 14.06410 | 121° | 161km/h | 9044m | 3.5m/s | -35.1°C | 73.7% | 316.9hPa | 2.7V | 18:12:15 | 00:55:15 | 00:00:00 | |
| EDDB2-11 | 2026-09-03 23:14:46 | 53.96559 | 14.06351 | 121° | 161km/h | 9039m | 5.1m/s | -35.1°C | -1.0% | 317.1hPa | 2.9V | 00:00:00 | 00:00:00 | 00:00:00 | |
| KRY50SP | 2026-09-03 23:14:43 | 53.96601 | 14.06232 | 122° | 162km/h | 9032m | 4.8m/s | 0°C | 0% | 0hPa | 2.9V | 00:00:00 | 00:00:00 | 00:00:00 | |
| DL1XH-15 | 2026-09-03 23:14:42 | 53.96745 | 14.05815 | 119° | 162km/h | 9003m | 5m/s | -34.8°C | 78.6% | 318.7hPa | 2.9V | 08:30:00 | 00:55:05 | 00:00:00 | |
| DL1XH-west | 2026-09-03 23:14:40 | 53.96684 | 14.05995 | 121° | 161km/h | 9015m | 3m/s | -34.9°C | 73.8% | 0hPa | 2.7V | 18:12:15 | 00:55:08 | 00:00:00 | |
| AA1-15 | 2026-09-03 23:14:36 | 53.96765 | 14.05755 | 120° | 162km/h | 8998m | 3.9m/s | -34.8°C | 73.7% | 318.9hPa | 2.9V | 18:12:15 | 00:55:04 | 00:00:00 | |
| KRY50SP | 2026-09-03 23:14:33 | 53.96827 | 14.05575 | 121° | 159km/h | 8986m | 3.6m/s | 0°C | 0% | 0hPa | 2.8V | 00:00:00 | 00:00:00 | 00:00:00 | |
| DL1XH-15 | 2026-09-03 23:14:31 | 53.96947 | 14.05227 | 120° | 153km/h | 8961m | 3.6m/s | -34.5°C | 79.7% | 320.7hPa | 2.8V | 08:30:00 | 00:54:55 | 00:00:00 | |
| AA1-15 | 2026-09-03 23:14:26 | 53.96967 | 14.05171 | 122° | 155km/h | 8957m | 5.4m/s | -34.4°C | 75% | 320.9hPa | 2.8V | 18:12:15 | 00:54:54 | 00:00:00 | |
| DG6HD-11 | 2026-09-03 23:14:24 | 53.97009 | 14.05057 | 123° | 153km/h | 8948m | 4.2m/s | -34.3°C | 79.4% | 321.3hPa | 2.7V | 00:00:00 | 00:00:00 | 00:00:00 | |
| DL1XH-15 | 2026-09-03 23:14:21 | 53.97150 | 14.04658 | 120° | 153km/h | 8917m | 4.2m/s | -34.1°C | 79.4% | 322.7hPa | 2.7V | 08:30:00 | 00:54:45 | 00:00:00 | |
| DL1XH-west | 2026-09-03 23:14:18 | 53.97131 | 14.04715 | 120° | 153km/h | 8921m | 4.8m/s | -34.2°C | 74.6% | 0hPa | 2.8V | 18:12:15 | 00:54:46 | 00:00:00 | |
| AA1-15 | 2026-09-03 23:14:16 | 53.97170 | 14.04602 | 121° | 153km/h | 8912m | 5.1m/s | -34.1°C | 74.4% | 322.9hPa | 2.7V | 18:12:15 | 00:54:44 | 00:00:00 | |
| DL1XH-west | 2026-09-03 23:14:07 | 53.97355 | 14.04093 | 121° | 157km/h | 8875m | 4.6m/s | -33.8°C | 74.3% | 0hPa | 2.9V | 18:12:15 | 00:54:35 | 00:00:00 | |
| DL1XH-15 | 2026-09-03 23:14:06 | 53.97395 | 14.03978 | 119° | 153km/h | 8868m | 3.6m/s | -33.7°C | 80.1% | 325hPa | 2.9V | 08:30:00 | 00:54:33 | 00:00:00 | |
| AA1-15 | 2026-09-03 23:14:05 | 53.97395 | 14.03978 | 120° | 153km/h | 8868m | 3.6m/s | -33.7°C | 74.8% | 325hPa | 2.9V | 18:12:15 | 00:54:33 | 00:00:00 | |
| DL1XH-15 | 2026-09-03 23:13:56 | 53.97630 | 14.03315 | 120° | 153km/h | 8819m | 4.1m/s | -33.4°C | 80.3% | 327.2hPa | 2.7V | 08:30:00 | 00:54:21 | 00:00:00 | |
| DB0DAN | 2026-09-03 23:13:55 | 53.97590 | 14.03428 | 121° | 144km/h | 8827m | 3.7m/s | -33.5°C | 75.6% | 326.87hPa | 2.8V | 00:00:00 | 00:00:00 | 00:00:00 | |
| AA1-15 | 2026-09-03 23:13:54 | 53.97610 | 14.03372 | 121° | 153km/h | 8823m | 3.9m/s | -33.4°C | 75.3% | 327hPa | 2.7V | 18:12:15 | 00:54:22 | 00:00:00 | |
| S3001 | 2026-09-03 23:13:49 | 53.97710 | 14.03084 | 120° | 159km/h | 8803m | 4.1m/s | -33.3°C | 75.1% | 328.0hPa | 2.9V | 00:00:00 | 00:00:00 | 00:00:00 | |
| DL1XH-15 | 2026-09-03 23:13:46 | 53.97830 | 14.02743 | 121° | 150km/h | 8777m | 5m/s | -33.1°C | 80.8% | 329.2hPa | 2.9V | 08:30:00 | 00:54:11 | 00:00:00 | |
| AA1-15 | 2026-09-03 23:13:43 | 53.97830 | 14.02743 | 121° | 150km/h | 8777m | 5m/s | -33.1°C | 75.2% | 329.2hPa | 2.9V | 18:12:15 | 00:54:11 | 00:00:00 | |
| DB0DAN | 2026-09-03 23:13:40 | 53.97887 | 14.02576 | 120° | 144km/h | 8765m | 3.1m/s | -33°C | 76.1% | 329.82hPa | 2.9V | 00:00:00 | 00:00:00 | 00:00:00 | |
| SP3BTT-10 | 2026-09-03 23:13:38 | 53.97927 | 14.02460 | 121° | 151km/h | 8757m | 3.9m/s | -32.9°C | 80.6% | 330.1hPa | 2.9V | 00:00:00 | 00:00:00 | 00:00:00 | |
| DL1XH-15 | 2026-09-03 23:13:36 | 53.98024 | 14.02169 | 118° | 151km/h | 8737m | 3.9m/s | -32.8°C | 81.5% | 331.2hPa | 2.9V | 08:30:00 | 00:54:01 | 00:00:00 | |
| AA1-15 | 2026-09-03 23:13:33 | 53.98024 | 14.02169 | 119° | 151km/h | 8737m | 3.9m/s | -32.8°C | 75.6% | 331.2hPa | 2.9V | 18:12:15 | 00:54:01 | 00:00:00 | |
| AM1SDL-15 | 2026-09-03 23:13:29 | 53.98103 | 14.01946 | 123° | 153km/h | 8718m | 5.6m/s | -32.6°C | 80.6% | 332.0hPa | 2.7V | 00:00:00 | 00:53:57 | 00:00:00 | |
| MECKS9 | 2026-09-03 23:13:27 | 53.98123 | 14.01892 | 123° | 150km/h | 8713m | 5.2m/s | -32.6°C | 75.9% | 332.3hPa | 2.9V | 00:00:00 | 00:00:00 | 00:00:00 | |
| DL1XH-15 | 2026-09-03 23:13:26 | 53.98219 | 14.01607 | 119° | 155km/h | 8687m | 6.2m/s | -32.4°C | 79.1% | 333.4hPa | 2.9V | 08:30:00 | 00:53:51 | 00:00:00 | |
| DB0DAN | 2026-09-03 23:13:25 | 53.98181 | 14.01723 | 119° | 146km/h | 8699m | 5.7m/s | -32.5°C | 74.8% | 332.82hPa | 2.9V | 00:00:00 | 00:00:00 | 00:00:00 | |
| AA1-15 | 2026-09-03 23:13:22 | 53.98238 | 14.01549 | 118° | 155km/h | 8682m | 4.6m/s | -32.3°C | 75.4% | 333.6hPa | 2.7V | 18:12:15 | 00:53:50 | 00:00:00 | |
| S3001 | 2026-09-03 23:13:18 | 53.98311 | 14.01319 | 118° | 150km/h | 8663m | 5.1m/s | -32.2°C | 74.2% | 334.5hPa | 2.9V | 00:00:00 | 00:00:00 | 00:00:00 | |
| AM1SDL-15 | 2026-09-03 23:13:17 | 53.98330 | 14.01263 | 119° | 148km/h | 8658m | 4.6m/s | 0°C | 0% | 0hPa | 2.9V | 00:00:00 | 00:53:45 | 00:00:00 | |
| MECKS9 | 2026-09-03 23:13:16 | 53.98330 | 14.01263 | 120° | 150km/h | 8658m | 4.7m/s | -32.2°C | 74.3% | 334.7hPa | 2.9V | 00:00:00 | 00:00:00 | 00:00:00 | |
| DG6HD-11 | 2026-09-03 23:13:14 | 53.98386 | 14.01097 | 121° | 148km/h | 8646m | 4.3m/s | -32.0°C | 79.9% | 335.3hPa | 2.9V | 00:00:00 | 00:00:00 | 00:00:00 | |
| DL1XH-15 | 2026-09-03 23:13:13 | 53.98472 | 14.00818 | 116° | 151km/h | 8624m | 4.5m/s | -32°C | 82.6% | 336.4hPa | 2.9V | 08:30:00 | 00:53:37 | 00:00:00 | |
| DL1XH-west | 2026-09-03 23:13:13 | 53.98404 | 14.01043 | 120° | 144km/h | 8642m | 4m/s | -32°C | 74.4% | 0hPa | 2.9V | 18:12:15 | 00:53:41 | 00:00:00 | |
| AA1-15 | 2026-09-03 23:13:11 | 53.98439 | 14.00933 | 117° | 148km/h | 8632m | 4.7m/s | -32°C | 75.4% | 336.1hPa | 2.9V | 18:12:15 | 00:53:39 | 00:00:00 | |
| DB0DAN | 2026-09-03 23:13:10 | 53.98455 | 14.00876 | 116° | 142km/h | 8628m | 3.1m/s | -32°C | 77.4% | 336.23hPa | 2.9V | 00:00:00 | 00:00:00 | 00:00:00 | |
| DL1XH-west | 2026-09-03 23:13:03 | 53.98577 | 14.00484 | 117° | 142km/h | 8593m | 4.7m/s | 0°C | 0% | 0hPa | 2.9V | 18:12:15 | 00:53:31 | 00:00:00 | |
| DL1XH-15 | 2026-09-03 23:13:01 | 53.98685 | 14.00147 | 117° | 153km/h | 8563m | 5.5m/s | -31.6°C | 83.6% | 339.4hPa | 2.7V | 08:30:00 | 00:53:25 | 00:00:00 | |
| AA1-15 | 2026-09-03 23:13:00 | 53.98628 | 14.00318 | 119° | 150km/h | 8579m | 5.7m/s | -31.7°C | 78.2% | 338.7hPa | 2.9V | 18:12:15 | 00:53:28 | 00:00:00 | |
| DL1XH-15 | 2026-09-03 23:12:52 | 53.98846 | 13.99568 | 117° | 144km/h | 8512m | 5.8m/s | -31.2°C | 82.7% | 341.8hPa | 2.9V | 08:30:00 | 00:53:15 | 00:00:00 | |
| DL1XH-west | 2026-09-03 23:12:51 | 53.98781 | 13.99792 | 115° | 150km/h | 8534m | 4.4m/s | 0°C | 0% | 0hPa | 2.9V | 18:12:15 | 00:53:19 | 00:00:00 | |
| AA1-15 | 2026-09-03 23:12:50 | 53.98797 | 13.99734 | 115° | 150km/h | 8528m | 7.8m/s | -31.3°C | 77.3% | 341.1hPa | 2.8V | 18:12:15 | 00:53:18 | 00:00:00 | |
| S3001 | 2026-09-03 23:12:47 | 53.98846 | 13.99568 | 117° | 142km/h | 8511m | 5.8m/s | -31.2°C | 78.0% | 341.9hPa | 2.9V | 00:00:00 | 00:00:00 | 00:00:00 | |
| EDDB2-11 | 2026-09-03 23:12:42 | 53.98951 | 13.99230 | 115° | 146km/h | 8481m | 4.0m/s | 0°C | -1.0% | -1.0hPa | 2.9V | 00:00:00 | 00:00:00 | 00:00:00 | |
| DL1XH-15 | 2026-09-03 23:12:41 | 53.99012 | 13.98999 | 115° | 148km/h | 8461m | 6.5m/s | -30.8°C | 83.2% | 344.2hPa | 2.9V | 08:30:00 | 00:53:05 | 00:00:00 | |
| AA1-15 | 2026-09-03 23:12:39 | 53.98981 | 13.99115 | 113° | 148km/h | 8471m | 4.4m/s | -30.9°C | 76.4% | 343.9hPa | 2.7V | 18:12:15 | 00:53:07 | 00:00:00 | |
| DL1XH-west | 2026-09-03 23:12:38 | 53.98996 | 13.99057 | 114° | 148km/h | 8466m | 5m/s | 0°C | 0% | 0hPa | 2.9V | 18:12:15 | 00:53:06 | 00:00:00 | |
| DL1XH-15 | 2026-09-03 23:12:32 | 53.99173 | 13.98416 | 114° | 146km/h | 8402m | 4.5m/s | -30.4°C | 84.5% | 347.1hPa | 2.9V | 08:30:00 | 00:52:55 | 00:00:00 | |
| AA1-15 | 2026-09-03 23:12:28 | 53.99158 | 13.98473 | 114° | 148km/h | 8407m | 6.6m/s | -30.5°C | 77.3% | 346.9hPa | 2.9V | 18:12:15 | 00:52:56 | 00:00:00 | |
| DG6HD-11 | 2026-09-03 23:12:28 | 53.99158 | 13.98473 | 115° | 148km/h | 8408m | 6.6m/s | -30.4°C | 84.9% | 346.8hPa | 2.9V | 00:00:00 | 00:00:00 | 08:30:00 | |
| SP3BTT-10 | 2026-09-03 23:12:23 | 53.99234 | 13.98189 | 116° | 151km/h | 8377m | 7.2m/s | -30.2°C | 82.9% | 348.3hPa | 2.9V | 00:00:00 | 00:00:00 | 00:00:00 | |
| DL1XH-15 | 2026-09-03 23:12:21 | 53.99335 | 13.97834 | 113° | 148km/h | 8339m | 5.7m/s | -29.9°C | 83% | 350.1hPa | 2.9V | 08:30:00 | 00:52:45 | 00:00:00 | |
| AA1-15 | 2026-09-03 23:12:18 | 53.99320 | 13.97892 | 115° | 151km/h | 8345m | 6.4m/s | -30°C | 77.8% | 349.9hPa | 2.9V | 18:12:15 | 00:52:46 | 00:00:00 | |
| AM1SDL-15 | 2026-09-03 23:12:16 | 53.99351 | 13.97776 | 114° | 148km/h | 8334m | 4.1m/s | -29.8°C | 82.9% | 350.4hPa | 2.9V | 00:00:00 | 00:52:44 | 08:30:00 | |
| DL1XH-15 | 2026-09-03 23:12:12 | 53.99494 | 13.97270 | 114° | 157km/h | 8288m | 8.1m/s | -29.5°C | 81.8% | 352.6hPa | 2.9V | 08:30:00 | 00:52:35 | 00:00:00 | |
| AA1-15 | 2026-09-03 23:12:08 | 53.99478 | 13.97331 | 114° | 155km/h | 8295m | 7.2m/s | -29.6°C | 77.2% | 352.3hPa | 2.9V | 18:12:15 | 00:52:36 | 00:00:00 | |
| AM1SDL-15 | 2026-09-03 23:12:04 | 53.99541 | 13.97090 | 115° | 151km/h | 8271m | 5.0m/s | -29.4°C | 82.7% | 353.4hPa | 2.7V | 00:00:00 | 00:52:32 | 00:00:00 | |
| DL1XH-15 | 2026-09-03 23:12:02 | 53.99649 | 13.96687 | 115° | 155km/h | 8237m | 4.6m/s | -29.2°C | 83% | 355.3hPa | 2.7V | 08:30:00 | 00:52:25 | 00:00:00 | |
| AA1-15 | 2026-09-03 23:11:57 | 53.99649 | 13.96687 | 116° | 155km/h | 8237m | 4.6m/s | -29.2°C | 77.8% | 355.3hPa | 2.7V | 18:12:15 | 00:52:25 | 00:00:00 | |
| DB0DAN | 2026-09-03 23:11:55 | 53.99684 | 13.96565 | 116° | 151km/h | 8224m | 6.9m/s | -29.2°C | 78.1% | 355.84hPa | 2.9V | 00:00:00 | 00:00:00 | 00:00:00 | |
| SP3BTT-10 | 2026-09-03 23:11:53 | 53.99719 | 13.96446 | 118° | 146km/h | 8213m | 4.4m/s | -29.0°C | 83.0% | 356.4hPa | 2.7V | 00:00:00 | 00:00:00 | 00:00:00 | |
| AM1SDL-15 | 2026-09-03 23:11:52 | 53.99736 | 13.96390 | 118° | 144km/h | 8208m | 4.5m/s | -29.0°C | 82.5% | 356.7hPa | 2.7V | 00:00:00 | 00:52:20 | 00:00:00 | |
| DL1XH-15 | 2026-09-03 23:11:49 | 53.99824 | 13.96116 | 118° | 148km/h | 8181m | 3.6m/s | -28.8°C | 82.1% | 358hPa | 2.7V | 08:30:00 | 00:52:15 | 00:00:00 | |
| AA1-15 | 2026-09-03 23:11:47 | 53.99824 | 13.96116 | 118° | 148km/h | 8181m | 3.6m/s | -28.8°C | 77.9% | 358hPa | 2.7V | 18:12:15 | 00:52:15 | 00:00:00 | |
| S3001 | 2026-09-03 23:11:45 | 53.99859 | 13.96005 | 117° | 146km/h | 8169m | 5.7m/s | -28.7°C | 78.4% | 358.6hPa | 2.9V | 00:00:00 | 00:00:00 | 00:00:00 | |
| DL1XH-15 | 2026-09-03 23:11:37 | 53.99977 | 13.95554 | 114° | 144km/h | 8131m | 3.2m/s | -28.4°C | 84.3% | 360.5hPa | 2.9V | 08:30:00 | 00:52:05 | 00:00:00 | |
| AA1-15 | 2026-09-03 23:11:36 | 53.99992 | 13.95497 | 115° | 146km/h | 8126m | 5.6m/s | -28.4°C | 78.6% | 360.7hPa | 2.9V | 18:12:15 | 00:52:04 | 00:00:00 | |
| DL1XH-15 | 2026-09-03 23:11:32 | 54.00132 | 13.94986 | 114° | 146km/h | 8087m | 5.6m/s | -28.1°C | 84% | 362.7hPa | 2.9V | 08:30:00 | 00:51:55 | 00:00:00 | |
| AA1-15 | 2026-09-03 23:11:25 | 54.00162 | 13.94872 | 114° | 146km/h | 8078m | 5m/s | -28°C | 79% | 363.2hPa | 2.7V | 18:12:15 | 00:51:53 | 00:00:00 | |
| SP3BTT-10 | 2026-09-03 23:11:23 | 54.00191 | 13.94758 | 113° | 146km/h | 8070m | 5.6m/s | -27.9°C | 83.5% | 363.6hPa | 2.9V | 00:00:00 | 00:00:00 | 00:00:00 | |
| DL1XH-15 | 2026-09-03 23:11:22 | 54.00273 | 13.94422 | 113° | 141km/h | 8044m | 5.3m/s | -27.8°C | 83.9% | 364.9hPa | 2.9V | 08:30:00 | 00:51:45 | 00:00:00 | |
| AA1-15 | 2026-09-03 23:11:14 | 54.00319 | 13.94253 | 116° | 150km/h | 8031m | 3.8m/s | -27.7°C | 78.3% | 365.6hPa | 2.7V | 18:12:15 | 00:51:42 | 00:00:00 | |
| DL1XH-15 | 2026-09-03 23:11:12 | 54.00433 | 13.93861 | 115° | 139km/h | 8002m | 4.5m/s | -27.5°C | 84.6% | 367hPa | 2.9V | 08:30:00 | 00:51:35 | 00:00:00 | |
| AA1-15 | 2026-09-03 23:11:05 | 54.00476 | 13.93696 | 114° | 142km/h | 7989m | 4.6m/s | -27.4°C | 79.1% | 367.8hPa | 2.7V | 18:12:15 | 00:51:32 | 00:00:00 | |
| DL1XH-15 | 2026-09-03 23:11:03 | 54.00583 | 13.93294 | 115° | 150km/h | 7955m | 4.6m/s | -27.1°C | 84.8% | 369.5hPa | 2.9V | 08:30:00 | 00:51:25 | 00:00:00 | |
| AA1-15 | 2026-09-03 23:10:54 | 54.00634 | 13.93125 | 118° | 148km/h | 7941m | 5.4m/s | -27°C | 78.4% | 370.3hPa | 2.7V | 18:12:15 | 00:51:22 | 00:00:00 | |
| AA1-15 | 2026-09-03 23:10:43 | 54.00805 | 13.92507 | 114° | 155km/h | 7887m | 4m/s | -26.7°C | 80% | 373hPa | 2.9V | 18:12:15 | 00:51:11 | 00:00:00 | |
| AA1-15 | 2026-09-03 23:10:32 | 54.00998 | 13.91912 | 114° | 128km/h | 7823m | 7.1m/s | -26.2°C | 78.6% | 376.2hPa | 2.9V | 18:12:15 | 00:51:00 | 00:00:00 | |
| AM1SDL-15 | 2026-09-03 23:10:29 | 54.01036 | 13.91759 | 114° | 141km/h | 7807m | 5.6m/s | -26.1°C | 87.7% | 377.2hPa | 2.9V | 00:00:00 | 00:50:57 | 00:00:00 | |
| DG6HD-11 | 2026-09-03 23:10:26 | 54.01082 | 13.91603 | 119° | 137km/h | 7791m | 5.4m/s | -25.9°C | 86.3% | 377.9hPa | 2.9V | 00:00:00 | 00:00:00 | 00:00:00 | |
| DL1XH-15 | 2026-09-03 23:10:22 | 54.01229 | 13.91113 | 117° | 135km/h | 7729m | 6.5m/s | -25.6°C | 85.3% | 381.1hPa | 2.9V | 08:30:00 | 00:50:45 | 00:00:00 | |
| AA1-15 | 2026-09-03 23:10:22 | 54.01147 | 13.91382 | 115° | 142km/h | 7768m | 6.4m/s | -25.8°C | 81.3% | 379.3hPa | 2.9V | 18:12:15 | 00:50:50 | 00:00:00 | |
| DL1XH-west | 2026-09-03 23:10:16 | 54.01245 | 13.91061 | 116° | 133km/h | 7724m | 4.3m/s | 0°C | 0% | 0hPa | 2.9V | 18:12:15 | 00:50:44 | 00:00:00 | |
| DL1XH-15 | 2026-09-03 23:10:12 | 54.01367 | 13.90587 | 113° | 142km/h | 7678m | 5.7m/s | -25.2°C | 84.4% | 383.9hPa | 2.9V | 08:30:00 | 00:50:35 | 00:00:00 | |
| AA1-15 | 2026-09-03 23:10:12 | 54.01299 | 13.90853 | 113° | 133km/h | 7704m | 4.2m/s | -25.3°C | 77.9% | 382.6hPa | 2.9V | 18:12:15 | 00:50:40 | 00:00:00 | |
| DB0DAN | 2026-09-03 23:10:10 | 54.01326 | 13.90748 | 114° | 126km/h | 7693m | 5m/s | -25.3°C | 81.9% | 383.17hPa | 2.8V | 00:00:00 | 00:00:00 | 00:00:00 | |
| SONDE2-11 | 2026-09-03 23:10:07 | 54.01383 | 13.90531 | 115° | 144km/h | 7673m | 4.4m/s | -25.1°C | 79.9% | 384.1hPa | 2.9V | 00:00:00 | 00:00:00 | 00:00:00 | |
| AM1SDL-15 | 2026-09-03 23:10:05 | 54.01399 | 13.90475 | 118° | 133km/h | 7668m | 5.3m/s | -25.0°C | 83.6% | 384.3hPa | 2.9V | 00:00:00 | 00:50:33 | 00:00:00 | |
| DL1XH-15 | 2026-09-03 23:10:02 | 54.01516 | 13.90069 | 111° | 128km/h | 7630m | 6.5m/s | -24.8°C | 82.4% | 386.3hPa | 2.9V | 08:30:00 | 00:50:25 | 00:00:00 | |
| AA1-15 | 2026-09-03 23:10:01 | 54.01465 | 13.90268 | 117° | 130km/h | 7650m | 4m/s | -25°C | 78.4% | 385.4hPa | 2.9V | 18:12:15 | 00:50:29 | 00:00:00 | |
| DB0DAN | 2026-09-03 23:09:55 | 54.01541 | 13.89964 | 113° | 130km/h | 7620m | 4.9m/s | -24.7°C | 79% | 386.93hPa | 2.9V | 00:00:00 | 00:00:00 | 00:00:00 | |
| AM1SDL-15 | 2026-09-03 23:09:53 | 54.01569 | 13.89857 | 116° | 128km/h | 7611m | 5.2m/s | -24.5°C | 82.8% | 387.3hPa | 2.9V | 00:00:00 | 00:50:21 | 08:30:00 | |
| DL1XH-15 | 2026-09-03 23:09:52 | 54.01664 | 13.89547 | 117° | 128km/h | 7581m | 7.5m/s | -24.5°C | 85.4% | 389hPa | 2.9V | 08:30:00 | 00:50:15 | 00:00:00 | |
| AA1-15 | 2026-09-03 23:09:50 | 54.01617 | 13.89701 | 118° | 139km/h | 7596m | 6.4m/s | -24.5°C | 77.2% | 388.2hPa | 2.7V | 18:12:15 | 00:50:18 | 00:00:00 | |
| DL1XH-15 | 2026-09-03 23:09:42 | 54.01793 | 13.89065 | 116° | 131km/h | 7532m | 3.8m/s | -24.2°C | 87% | 391.8hPa | 2.9V | 08:30:00 | 00:50:05 | 00:00:00 | |
| AA1-15 | 2026-09-03 23:09:40 | 54.01750 | 13.89216 | 114° | 130km/h | 7547m | 6.1m/s | -24.3°C | 79.6% | 390.9hPa | 2.9V | 18:12:15 | 00:50:08 | 00:00:00 | |
| SP3BTT-10 | 2026-09-03 23:09:37 | 54.01793 | 13.89065 | 117° | 126km/h | 7533m | 3.7m/s | -24.1°C | 87.0% | 391.7hPa | 2.9V | 00:00:00 | 00:00:00 | 00:00:00 | |
| SONDE2-11 | 2026-09-03 23:09:36 | 54.01822 | 13.88963 | 114° | 131km/h | 7519m | 7.7m/s | -24.1°C | 82.3% | 392.4hPa | 2.9V | 00:00:00 | 00:00:00 | 00:00:00 | |
| DL1XH-15 | 2026-09-03 23:09:31 | 54.01932 | 13.88554 | 113° | 126km/h | 7472m | 7.5m/s | -23.7°C | 84.7% | 394.8hPa | 2.9V | 08:30:00 | 00:49:55 | 00:00:00 | |
| AA1-15 | 2026-09-03 23:09:29 | 54.01905 | 13.88655 | 115° | 131km/h | 7486m | 4.3m/s | -23.8°C | 79.6% | 394.1hPa | 2.9V | 18:12:15 | 00:49:57 | 00:00:00 | |
| AA1-15 | 2026-09-03 23:09:19 | 54.02035 | 13.88172 | 115° | 124km/h | 7431m | 4.8m/s | -23.3°C | 78.5% | 397hPa | 2.9V | 18:12:15 | 00:49:47 | 00:00:00 | |
| AA1-15 | 2026-09-03 23:09:09 | 54.02174 | 13.87686 | 117° | 124km/h | 7381m | 5.2m/s | -22.9°C | 76.8% | 399.7hPa | 2.9V | 18:12:15 | 00:49:37 | 00:00:00 | |
| SONDE2-11 | 2026-09-03 23:09:05 | 54.02242 | 13.87450 | 116° | 120km/h | 7357m | 4.9m/s | -22.8°C | 80.3% | 401.0hPa | 2.9V | 00:00:00 | 00:00:00 | 00:00:00 | |
| DL1XH-15 | 2026-09-03 23:09:03 | 54.02301 | 13.87255 | 117° | 131km/h | 7339m | 2.8m/s | -22.7°C | 83.8% | 402hPa | 2.9V | 08:30:00 | 00:49:28 | 00:00:00 | |
| AA1-15 | 2026-09-03 23:08:58 | 54.02331 | 13.87156 | 116° | 126km/h | 7330m | 5m/s | -22.6°C | 76.2% | 402.5hPa | 2.8V | 18:12:15 | 00:49:26 | 00:00:00 | |
| DG6HD-11 | 2026-09-03 23:08:56 | 54.02356 | 13.87061 | 113° | 117km/h | 7320m | 6.0m/s | -22.4°C | 82.3% | 403.0hPa | 2.9V | 00:00:00 | 00:00:00 | 00:00:00 | |
| DL1XH-15 | 2026-09-03 23:08:53 | 54.02435 | 13.86781 | 121° | 130km/h | 7288m | 5.9m/s | -22.2°C | 81.7% | 404.8hPa | 2.9V | 08:30:00 | 00:49:18 | 00:00:00 | |
| AA1-15 | 2026-09-03 23:08:48 | 54.02470 | 13.86689 | 125° | 122km/h | 7274m | 7.3m/s | -22.2°C | 75.5% | 405.5hPa | 2.9V | 18:12:15 | 00:49:16 | 00:00:00 | |
| DL1XH-15 | 2026-09-03 23:08:43 | 54.02572 | 13.86316 | 113° | 126km/h | 7233m | 4.5m/s | -21.9°C | 82.3% | 407.9hPa | 2.8V | 08:30:00 | 00:49:08 | 00:00:00 | |
| AA1-15 | 2026-09-03 23:08:37 | 54.02613 | 13.86179 | 120° | 111km/h | 7215m | 5.9m/s | -21.8°C | 77.1% | 408.8hPa | 2.9V | 18:12:15 | 00:49:05 | 00:00:00 | |
| SONDE2-11 | 2026-09-03 23:08:34 | 54.02670 | 13.86015 | 118° | 111km/h | 7192m | 5.3m/s | -21.7°C | 77.7% | 410.2hPa | 2.9V | 00:00:00 | 00:00:00 | 00:00:00 | |
| DL1XH-15 | 2026-09-03 23:08:33 | 54.02710 | 13.85884 | 117° | 115km/h | 7175m | 6.2m/s | -21.5°C | 81.1% | 411.1hPa | 2.9V | 08:30:00 | 00:48:58 | 00:00:00 | |
| AA1-15 | 2026-09-03 23:08:26 | 54.02762 | 13.85713 | 116° | 111km/h | 7156m | 5.9m/s | -21.4°C | 75% | 412.2hPa | 2.9V | 18:12:15 | 00:48:54 | 00:00:00 | |
| DG6HD-11 | 2026-09-03 23:08:26 | 54.02762 | 13.85713 | 116° | 115km/h | 7156m | 5.9m/s | -21.4°C | 82.3% | 412.2hPa | 2.9V | 00:00:00 | 00:00:00 | 00:00:00 | |
| DL1XH-15 | 2026-09-03 23:08:23 | 54.02840 | 13.85443 | 119° | 115km/h | 7128m | 4.3m/s | -21.2°C | 82.6% | 413.7hPa | 2.9V | 08:30:00 | 00:48:48 | 00:00:00 | |
| AA1-15 | 2026-09-03 23:08:16 | 54.02895 | 13.85273 | 116° | 113km/h | 7107m | 5.5m/s | -21.1°C | 77.4% | 414.8hPa | 2.8V | 18:12:15 | 00:48:44 | 00:00:00 | |
| AA1-15 | 2026-09-03 23:08:06 | 54.03019 | 13.84827 | 114° | 117km/h | 7061m | 3.1m/s | -20.8°C | 77.9% | 417.5hPa | 2.9V | 18:12:15 | 00:48:34 | 00:00:00 | |
| AA1-15 | 2026-09-03 23:07:55 | 54.03156 | 13.84338 | 117° | 119km/h | 7016m | 3.9m/s | -20.5°C | 77.2% | 420.1hPa | 2.9V | 18:12:15 | 00:48:23 | 00:00:00 | |
| AA1-15 | 2026-09-03 23:07:45 | 54.03291 | 13.83872 | 116° | 115km/h | 6974m | 4.1m/s | -20.2°C | 79% | 422.5hPa | 2.8V | 18:12:15 | 00:48:13 | 00:00:00 | |
| DL1XH-15 | 2026-09-03 23:07:43 | 54.03352 | 13.83638 | 113° | 119km/h | 6949m | 5.2m/s | 0°C | 0% | 0hPa | 2.9V | 08:30:00 | 00:48:08 | 00:00:00 | |
| AA1-15 | 2026-09-03 23:07:35 | 54.03419 | 13.83399 | 117° | 126km/h | 6926m | 4.5m/s | -19.8°C | 79.3% | 425.2hPa | 2.9V | 18:12:15 | 00:48:03 | 00:00:00 | |
| DL1XH-15 | 2026-09-03 23:07:33 | 54.03488 | 13.83159 | 112° | 122km/h | 6905m | 4.3m/s | 0°C | 0% | 0hPa | 2.9V | 08:30:00 | 00:47:58 | 00:00:00 | |
| AA1-15 | 2026-09-03 23:07:24 | 54.03563 | 13.82872 | 114° | 120km/h | 6879m | 3.9m/s | -19.5°C | 80.5% | 428hPa | 2.8V | 18:12:15 | 00:47:52 | 00:00:00 | |
| DL1XH-15 | 2026-09-03 23:07:23 | 54.03616 | 13.82683 | 116° | 122km/h | 6861m | 5.5m/s | 0°C | 0% | 0hPa | 2.9V | 08:30:00 | 00:47:48 | 00:00:00 | |
| AA1-15 | 2026-09-03 23:07:13 | 54.03712 | 13.82340 | 115° | 126km/h | 6831m | 5.6m/s | -19.2°C | 80.6% | 430.7hPa | 2.9V | 18:12:15 | 00:47:41 | 00:00:00 | |
| DL1XH-15 | 2026-09-03 23:07:11 | 54.03804 | 13.81997 | 115° | 131km/h | 6799m | 3.4m/s | 0°C | 0% | 0hPa | 2.9V | 08:30:00 | 00:47:34 | 00:00:00 | |
| AA1-15 | 2026-09-03 23:07:03 | 54.03845 | 13.81846 | 113° | 124km/h | 6784m | 4.1m/s | -18.8°C | 81.4% | 433.5hPa | 2.8V | 18:12:15 | 00:47:31 | 00:00:00 | |
| DL1XH-15 | 2026-09-03 23:07:01 | 54.03932 | 13.81487 | 113° | 131km/h | 6745m | 4.7m/s | 0°C | 0% | 0hPa | 2.9V | 08:30:00 | 00:47:24 | 00:00:00 | |
| AA1-15 | 2026-09-03 23:06:52 | 54.03978 | 13.81283 | 109° | 122km/h | 6724m | 5.8m/s | -18.4°C | 81.1% | 436.9hPa | 2.9V | 18:12:15 | 00:47:20 | 00:00:00 | |
| DL1XH-15 | 2026-09-03 23:06:51 | 54.04049 | 13.80974 | 113° | 135km/h | 6688m | 6.2m/s | 0°C | 0% | 0hPa | 2.9V | 08:30:00 | 00:47:14 | 00:00:00 | |
| AA1-15 | 2026-09-03 23:06:42 | 54.04102 | 13.80762 | 111° | 135km/h | 6669m | 8.5m/s | -18°C | 82% | 440.2hPa | 2.9V | 18:12:15 | 00:47:10 | 00:00:00 | |
| DG6HD-11 | 2026-09-03 23:06:42 | 54.04102 | 13.80762 | 112° | 117km/h | 6669m | 8.4m/s | -18.0°C | 88.3% | 440.1hPa | 2.9V | 00:00:00 | 00:00:00 | 00:00:00 | |
| DL1XH-15 | 2026-09-03 23:06:41 | 54.04175 | 13.80464 | 117° | 120km/h | 6633m | 5m/s | 0°C | 0% | 0hPa | 2.9V | 08:30:00 | 00:47:04 | 00:00:00 | |
| AA1-15 | 2026-09-03 23:06:32 | 54.04228 | 13.80286 | 115° | 117km/h | 6608m | 5.2m/s | -17.7°C | 80.8% | 443.6hPa | 2.9V | 18:12:15 | 00:47:00 | 00:00:00 | |
| SONDE2-11 | 2026-09-03 23:06:29 | 54.04267 | 13.80143 | 115° | 128km/h | 6592m | 4.6m/s | -17.6°C | 86.0% | 444.7hPa | 2.9V | 00:00:00 | 00:00:00 | 00:00:00 | |
| DL1XH-15 | 2026-09-03 23:06:28 | 54.04336 | 13.79883 | 113° | 133km/h | 6560m | 6.7m/s | 0°C | 0% | 0hPa | 2.9V | 08:30:00 | 00:46:52 | 00:00:00 | |
| DL1XH-west | 2026-09-03 23:06:27 | 54.04295 | 13.80041 | 115° | 133km/h | 6581m | 7.1m/s | 0°C | 0% | 0hPa | 2.9V | 18:12:15 | 00:46:55 | 00:00:00 | |
| AA1-15 | 2026-09-03 23:06:22 | 54.04363 | 13.79779 | 113° | 131km/h | 6548m | 5.2m/s | -17.4°C | 81.8% | 447.1hPa | 2.9V | 18:12:15 | 00:46:50 | 00:00:00 | |
| AA1-15 | 2026-09-03 23:06:12 | 54.04498 | 13.79249 | 114° | 126km/h | 6483m | 5.2m/s | -16.9°C | 81.7% | 451hPa | 2.9V | 18:12:15 | 00:46:39 | 00:00:00 | |
| AA1-15 | 2026-09-03 23:06:00 | 54.04638 | 13.78727 | 116° | 124km/h | 6420m | 4.9m/s | -16.5°C | 82.8% | 454.8hPa | 2.9V | 18:12:15 | 00:46:28 | 00:00:00 | |
| SONDE2-11 | 2026-09-03 23:05:58 | 54.04663 | 13.78632 | 112° | 119km/h | 6411m | 2.6m/s | -16.4°C | 85.5% | 455.5hPa | 2.8V | 00:00:00 | 00:00:00 | 00:00:00 | |
| DL1XH-15 | 2026-09-03 23:05:51 | 54.04805 | 13.78067 | 112° | 117km/h | 6358m | 4.7m/s | 0°C | 0% | 0hPa | 2.8V | 08:30:00 | 00:46:14 | 00:00:00 | |
| AA1-15 | 2026-09-03 23:05:50 | 54.04756 | 13.78253 | 115° | 119km/h | 6377m | 5.2m/s | -16.3°C | 83.2% | 457.4hPa | 2.9V | 18:12:15 | 00:46:18 | 00:00:00 | |
| AM1SDL-15 | 2026-09-03 23:05:49 | 54.04769 | 13.78206 | 116° | 119km/h | 6372m | 4.7m/s | -16.2°C | 88.0% | 457.7hPa | 2.9V | 00:00:00 | 00:46:17 | 00:00:00 | |
| DL1XH-15 | 2026-09-03 23:05:40 | 54.04932 | 13.77555 | 114° | 111km/h | 6307m | 4.7m/s | 0°C | 0% | 0hPa | 2.9V | 08:30:00 | 00:46:03 | 00:00:00 | |
| AA1-15 | 2026-09-03 23:05:40 | 54.04874 | 13.77783 | 113° | 120km/h | 6331m | 4.9m/s | -16.1°C | 82.2% | 460.2hPa | 2.9V | 18:12:15 | 00:46:08 | 00:00:00 | |
| AA1-15 | 2026-09-03 23:05:29 | 54.05003 | 13.77311 | 115° | 108km/h | 6281m | 3m/s | -15.9°C | 81.6% | 463.2hPa | 2.8V | 18:12:15 | 00:45:57 | 00:00:00 | |
| SONDE2-11 | 2026-09-03 23:05:27 | 54.05026 | 13.77225 | 114° | 110km/h | 6271m | 8.8m/s | -15.8°C | 84.1% | 463.8hPa | 2.8V | 00:00:00 | 00:00:00 | 00:00:00 | |
| AM1SDL-15 | 2026-09-03 23:05:24 | 54.05062 | 13.77093 | 117° | 110km/h | 6250m | 5.2m/s | -15.6°C | 87.1% | 465.1hPa | 2.8V | 00:00:00 | 00:45:52 | 00:00:00 | |
| DL1XH-15 | 2026-09-03 23:05:23 | 54.05099 | 13.76961 | 113° | 108km/h | 6234m | 4.4m/s | 0°C | 0% | 0hPa | 2.8V | 00:00:00 | 00:45:49 | 00:00:00 | |
| AA1-15 | 2026-09-03 23:05:18 | 54.05129 | 13.76838 | 113° | 102km/h | 6219m | 5m/s | -15.4°C | 81% | 467.2hPa | 2.9V | 18:12:15 | 00:45:46 | 00:00:00 | |
| AA1-15 | 2026-09-03 23:05:07 | 54.05248 | 13.76337 | 116° | 111km/h | 6158m | 4.3m/s | -14.9°C | 79.5% | 471hPa | 2.9V | 18:12:15 | 00:45:35 | 00:00:00 | |
| DL1XH-15 | 2026-09-03 23:05:03 | 54.05355 | 13.75950 | 111° | 115km/h | 6111m | 6.8m/s | 0°C | 0% | 0hPa | 2.9V | 00:00:00 | 00:45:26 | 00:00:00 | |
| AA1-15 | 2026-09-03 23:04:56 | 54.05373 | 13.75860 | 108° | 108km/h | 6098m | 5.9m/s | -14.5°C | 82.5% | 474.8hPa | 2.9V | 18:12:15 | 00:45:24 | 00:00:00 | |
| DL1XH-15 | 2026-09-03 23:04:51 | 54.05477 | 13.75423 | 112° | 113km/h | 6037m | 3.9m/s | 0°C | 0% | 0hPa | 2.9V | 00:00:00 | 00:45:14 | 00:00:00 | |
| AA1-15 | 2026-09-03 23:04:46 | 54.05477 | 13.75423 | 112° | 113km/h | 6037m | 3.9m/s | -14.2°C | 82.7% | 478.6hPa | 2.9V | 18:12:15 | 00:45:14 | 00:00:00 | |
| AA1-15 | 2026-09-03 23:04:35 | 54.05593 | 13.74970 | 112° | 111km/h | 5980m | 6.8m/s | -13.9°C | 85.9% | 482.4hPa | 2.9V | 18:12:15 | 00:45:03 | 00:00:00 | |
| DL1XH-15 | 2026-09-03 23:04:30 | 54.05703 | 13.74541 | 111° | 108km/h | 5924m | 5.4m/s | 0°C | 0% | 0hPa | 2.9V | 00:00:00 | 00:44:53 | 00:00:00 | |
| AA1-15 | 2026-09-03 23:04:24 | 54.05713 | 13.74498 | 112° | 106km/h | 5920m | 4.4m/s | -13.6°C | 86.5% | 486.2hPa | 2.9V | 18:12:15 | 00:44:52 | 00:00:00 | |
| AA1-15 | 2026-09-03 23:04:13 | 54.05817 | 13.74050 | 111° | 102km/h | 5867m | 5m/s | -13.2°C | 87.8% | 489.5hPa | 2.9V | 18:12:15 | 00:44:41 | 00:00:00 | |
| AA1-15 | 2026-09-03 23:04:02 | 54.05929 | 13.73590 | 113° | 108km/h | 5816m | 4.6m/s | -12.9°C | 86.3% | 492.8hPa | 2.9V | 18:12:15 | 00:44:30 | 00:00:00 | |
| AA1-15 | 2026-09-03 23:03:52 | 54.06017 | 13.73185 | 113° | 110km/h | 5768m | 6.1m/s | -12.6°C | 88.1% | 495.9hPa | 2.9V | 18:12:15 | 00:44:20 | 00:00:00 | |
| AA1-15 | 2026-09-03 23:03:41 | 54.06127 | 13.72721 | 107° | 104km/h | 5706m | 4.6m/s | -12.3°C | 87.1% | 499.8hPa | 2.9V | 18:12:15 | 00:44:09 | 00:00:00 | |
| AA1-15 | 2026-09-03 23:03:31 | 54.06207 | 13.72311 | 109° | 102km/h | 5647m | 6.3m/s | -12°C | 88.7% | 503.7hPa | 2.9V | 18:12:15 | 00:43:59 | 00:00:00 | |
| DL1XH-15 | 2026-09-03 23:03:23 | 54.06292 | 13.71849 | 112° | 99km/h | 5593m | 4.5m/s | 0°C | 0% | 0hPa | 2.9V | 00:00:00 | 00:43:48 | 00:00:00 | |
| AA1-15 | 2026-09-03 23:03:21 | 54.06282 | 13.71888 | 113° | 99km/h | 5598m | 6.3m/s | -11.8°C | 88.5% | 506.8hPa | 2.9V | 18:12:15 | 00:43:49 | 00:00:00 | |
| AA1-15 | 2026-09-03 23:03:11 | 54.06376 | 13.71473 | 110° | 100km/h | 5545m | 6.3m/s | -11.6°C | 88% | 510.2hPa | 2.9V | 18:12:15 | 00:43:39 | 00:00:00 | |
| DL1XH-15 | 2026-09-03 23:03:03 | 54.06459 | 13.71124 | 109° | 97km/h | 5498m | 6.2m/s | 0°C | 0% | 0hPa | 2.9V | 00:00:00 | 00:43:30 | 00:00:00 | |
| AA1-15 | 2026-09-03 23:03:01 | 54.06467 | 13.71085 | 106° | 93km/h | 5492m | 5.7m/s | -11.2°C | 90.1% | 513.9hPa | 2.9V | 18:12:15 | 00:43:29 | 00:00:00 | |
| AA1-15 | 2026-09-03 23:02:50 | 54.06548 | 13.70652 | 110° | 104km/h | 5425m | 5.5m/s | -10.8°C | 88.4% | 518.4hPa | 2.9V | 18:12:15 | 00:43:18 | 00:00:00 | |
| AA1-15 | 2026-09-03 23:02:40 | 54.06639 | 13.70279 | 111° | 93km/h | 5373m | 5.1m/s | -10.6°C | 88.4% | 522.1hPa | 2.9V | 18:12:15 | 00:43:08 | 00:00:00 | |
| AA1-15 | 2026-09-03 23:02:30 | 54.06728 | 13.69885 | 116° | 97km/h | 5317m | 3.9m/s | -10.2°C | 88.1% | 525.9hPa | 2.9V | 18:12:15 | 00:42:58 | 00:00:00 | |
| AA1-15 | 2026-09-03 23:02:19 | 54.06821 | 13.69468 | 110° | 95km/h | 5261m | 5.1m/s | -9.9°C | 86.9% | 529.8hPa | 2.9V | 18:12:15 | 00:42:47 | 00:00:00 | |
| AA1-15 | 2026-09-03 23:02:08 | 54.06894 | 13.69082 | 114° | 89km/h | 5203m | 4.6m/s | -9.6°C | 87.9% | 533.8hPa | 2.9V | 18:12:15 | 00:42:36 | 00:00:00 | |
| AA1-15 | 2026-09-03 23:01:58 | 54.06978 | 13.68672 | 102° | 86km/h | 5130m | 6.6m/s | -9.3°C | 88.5% | 538.7hPa | 2.9V | 18:12:15 | 00:42:26 | 00:00:00 | |
| AA1-15 | 2026-09-03 23:01:47 | 54.07048 | 13.68277 | 112° | 77km/h | 5068m | 4.7m/s | -8.9°C | 87.6% | 543hPa | 2.8V | 18:12:15 | 00:42:15 | 00:00:00 | |
| AA1-15 | 2026-09-03 23:01:36 | 54.07100 | 13.67906 | 102° | 86km/h | 5005m | 5.6m/s | -8.5°C | 86% | 547.5hPa | 2.9V | 18:12:15 | 00:42:04 | 00:00:00 | |
| AA1-15 | 2026-09-03 23:01:26 | 54.07180 | 13.67555 | 105° | 89km/h | 4949m | 6m/s | -8.2°C | 86.4% | 551.4hPa | 2.9V | 18:12:15 | 00:41:54 | 00:00:00 | |
| AA1-15 | 2026-09-03 23:01:16 | 54.07250 | 13.67216 | 105° | 84km/h | 4896m | 5.2m/s | -7.9°C | 89.2% | 555.2hPa | 2.9V | 18:12:15 | 00:41:44 | 00:00:00 | |
| AA1-15 | 2026-09-03 23:01:06 | 54.07309 | 13.66899 | 113° | 91km/h | 4845m | 5.3m/s | -7.5°C | 91.4% | 558.7hPa | 2.9V | 18:12:15 | 00:41:34 | 00:00:00 | |
| AA1-15 | 2026-09-03 23:00:55 | 54.07395 | 13.66487 | 110° | 73km/h | 4786m | 6.1m/s | -7.7°C | 91.6% | 563.1hPa | 2.9V | 18:12:15 | 00:41:23 | 00:00:00 | |
| AA1-15 | 2026-09-03 23:00:45 | 54.07463 | 13.66133 | 101° | 93km/h | 4740m | 3.9m/s | -8.3°C | 90.7% | 566.5hPa | 2.9V | 18:12:15 | 00:41:13 | 00:00:00 | |
| AA1-15 | 2026-09-03 23:00:34 | 54.07522 | 13.65781 | 96° | 71km/h | 4673m | 5.1m/s | -9.7°C | 81% | 571.2hPa | 2.9V | 18:12:15 | 00:41:02 | 00:00:00 | |
| DB0DAN | 2026-09-03 23:00:25 | 54.07574 | 13.65520 | 103° | 60km/h | 4626m | 6m/s | -9.5°C | 69.4% | 574.68hPa | 2.9V | 00:00:00 | 00:00:00 | 00:00:00 | |
| AA1-15 | 2026-09-03 23:00:24 | 54.07577 | 13.65493 | 101° | 66km/h | 4621m | 5.3m/s | -9.5°C | 68.8% | 575.1hPa | 2.9V | 18:12:15 | 00:40:52 | 00:00:00 | |
| AA1-15 | 2026-09-03 23:00:13 | 54.07624 | 13.65192 | 114° | 77km/h | 4559m | 5.5m/s | -8.8°C | 65.1% | 579.6hPa | 2.9V | 18:12:15 | 00:40:41 | 00:00:00 | |
| AA1-15 | 2026-09-03 23:00:03 | 54.07666 | 13.64853 | 100° | 66km/h | 4509m | 4.2m/s | -8.4°C | 60.9% | 583.6hPa | 2.9V | 18:12:15 | 00:40:31 | 00:00:00 | |
| AA1-15 | 2026-09-03 22:59:52 | 54.07730 | 13.64506 | 99° | 84km/h | 4458m | 3.1m/s | -7.9°C | 58.7% | 587.4hPa | 2.9V | 18:12:15 | 00:40:20 | 00:00:00 | |
| AA1-15 | 2026-09-03 22:59:41 | 54.07784 | 13.64171 | 95° | 71km/h | 4405m | 4.5m/s | -7.3°C | 59.5% | 591.4hPa | 2.9V | 18:12:15 | 00:40:09 | 00:00:00 | |
| AA1-15 | 2026-09-03 22:59:30 | 54.07804 | 13.63808 | 101° | 68km/h | 4356m | 5.8m/s | -6.8°C | 59.2% | 595.2hPa | 2.9V | 18:12:15 | 00:39:58 | 00:00:00 | |
| AA1-15 | 2026-09-03 22:59:19 | 54.07860 | 13.63417 | 94° | 88km/h | 4304m | 3.8m/s | -6.4°C | 58.9% | 599hPa | 2.9V | 18:12:15 | 00:39:47 | 00:00:00 | |
| AA1-15 | 2026-09-03 22:59:08 | 54.07899 | 13.63051 | 95° | 71km/h | 4241m | 4.9m/s | -5.7°C | 45% | 603.8hPa | 2.9V | 18:12:15 | 00:39:36 | 00:00:00 | |
| AA1-15 | 2026-09-03 22:58:58 | 54.07945 | 13.62769 | 96° | 69km/h | 4184m | 5.4m/s | -5.3°C | 40% | 608.5hPa | 2.8V | 18:12:15 | 00:39:26 | 00:00:00 | |
| AA1-15 | 2026-09-03 22:58:47 | 54.07964 | 13.62429 | 107° | 73km/h | 4126m | 5.9m/s | -4.6°C | 21.8% | 612.9hPa | 2.9V | 18:12:15 | 00:39:15 | 00:00:00 | |
| AA1-15 | 2026-09-03 22:58:37 | 54.08007 | 13.62079 | 110° | 75km/h | 4071m | 4.5m/s | -4.1°C | 17.3% | 617.2hPa | 2.9V | 18:12:15 | 00:39:05 | 00:00:00 | |
| AA1-15 | 2026-09-03 22:58:26 | 54.08045 | 13.61695 | 99° | 91km/h | 4014m | 4.3m/s | -3.6°C | 14.3% | 621.6hPa | 2.9V | 18:12:15 | 00:38:54 | 00:00:00 | |
| AA1-15 | 2026-09-03 22:58:16 | 54.08085 | 13.61372 | 95° | 86km/h | 3964m | 6.2m/s | -3.4°C | 5.5% | 625.5hPa | 2.9V | 18:12:15 | 00:38:44 | 00:00:00 | |
| AA1-15 | 2026-09-03 22:58:05 | 54.08138 | 13.60959 | 97° | 77km/h | 3907m | 5.8m/s | -3.2°C | 9.5% | 630.2hPa | 2.9V | 18:12:15 | 00:38:33 | 00:00:00 | |
| AA1-15 | 2026-09-03 22:57:54 | 54.08188 | 13.60581 | 107° | 77km/h | 3833m | 7.1m/s | -2.7°C | 12.2% | 636.2hPa | 2.9V | 18:12:15 | 00:38:22 | 00:00:00 | |
| AA1-15 | 2026-09-03 22:57:43 | 54.08247 | 13.60195 | 102° | 82km/h | 3774m | 3.2m/s | -2.4°C | 12.3% | 640.8hPa | 2.9V | 18:12:15 | 00:38:11 | 00:00:00 | |
| AA1-15 | 2026-09-03 22:57:33 | 54.08297 | 13.59831 | 100° | 89km/h | 3732m | 4m/s | -2.2°C | 13.8% | 644.3hPa | 2.9V | 18:12:15 | 00:38:01 | 00:00:00 | |
| AA1-15 | 2026-09-03 22:57:23 | 54.08332 | 13.59472 | 112° | 91km/h | 3689m | 5.2m/s | -1.8°C | 14.2% | 647.7hPa | 2.9V | 18:12:15 | 00:37:51 | 00:00:00 | |
| AA1-15 | 2026-09-03 22:57:12 | 54.08393 | 13.59087 | 111° | 75km/h | 3630m | 5m/s | -1.3°C | 13.6% | 652.6hPa | 2.9V | 18:12:15 | 00:37:40 | 00:00:00 | |
| AA1-15 | 2026-09-03 22:57:01 | 54.08474 | 13.58753 | 111° | 80km/h | 3561m | 3.7m/s | -0.9°C | 14.1% | 658.1hPa | 2.9V | 18:12:15 | 00:37:29 | 00:00:00 | |
| AM1SDL-15 | 2026-09-03 22:56:58 | 54.08495 | 13.58649 | 107° | 78km/h | 3548m | 5.4m/s | 0°C | 0% | 0hPa | 2.9V | 00:00:00 | 00:37:26 | 00:00:00 | |
| DB0DAN | 2026-09-03 22:56:55 | 54.08510 | 13.58538 | 100° | 80km/h | 3534m | 4.8m/s | -0.6°C | 13.1% | 660.46hPa | 2.9V | 00:00:00 | 00:00:00 | 00:00:00 | |
| AA1-15 | 2026-09-03 22:56:51 | 54.08520 | 13.58397 | 94° | 75km/h | 3511m | 5.3m/s | -0.4°C | 13.7% | 662.3hPa | 2.9V | 18:12:15 | 00:37:19 | 00:00:00 | |
| AA1-15 | 2026-09-03 22:56:40 | 54.08569 | 13.58068 | 100° | 77km/h | 3454m | 4.9m/s | -0.1°C | 14.2% | 666.9hPa | 2.9V | 18:12:15 | 00:37:08 | 00:00:00 | |
| AA1-15 | 2026-09-03 22:56:29 | 54.08611 | 13.57789 | 94° | 60km/h | 3392m | 6.7m/s | 0.2°C | 16.9% | 672.1hPa | 2.9V | 18:12:15 | 00:36:57 | 00:00:00 | |
| AA1-15 | 2026-09-03 22:56:19 | 54.08628 | 13.57496 | 102° | 71km/h | 3345m | 4.7m/s | 0.5°C | 14.7% | 676.2hPa | 2.9V | 18:12:15 | 00:36:47 | 00:00:00 | |
| AA1-15 | 2026-09-03 22:56:09 | 54.08642 | 13.57211 | 92° | 53km/h | 3295m | 5.5m/s | 0.8°C | 7.7% | 680.2hPa | 2.9V | 18:12:15 | 00:36:37 | 00:00:00 | |
| AA1-15 | 2026-09-03 22:55:58 | 54.08642 | 13.56898 | 85° | 66km/h | 3231m | 4.2m/s | 1.2°C | 9.8% | 685.9hPa | 2.9V | 18:12:15 | 00:36:26 | 00:00:00 | |
| AA1-15 | 2026-09-03 22:55:48 | 54.08666 | 13.56619 | 94° | 75km/h | 3180m | 4.7m/s | 1.6°C | 11.1% | 690.1hPa | 2.9V | 18:12:15 | 00:36:16 | 00:00:00 | |
| AA1-15 | 2026-09-03 22:55:38 | 54.08702 | 13.56324 | 107° | 60km/h | 3132m | 4.7m/s | 1.7°C | 18% | 694.2hPa | 2.9V | 18:12:15 | 00:36:06 | 00:00:00 | |
| AA1-15 | 2026-09-03 22:55:27 | 54.08719 | 13.56053 | 94° | 71km/h | 3079m | 5.9m/s | 2.1°C | 19.2% | 698.7hPa | 2.9V | 18:12:15 | 00:35:55 | 00:00:00 | |
| AA1-15 | 2026-09-03 22:55:16 | 54.08744 | 13.55728 | 97° | 71km/h | 3014m | 4.9m/s | 2.6°C | 18.5% | 704.3hPa | 2.9V | 18:12:15 | 00:35:44 | 00:00:00 | |
| AA1-15 | 2026-09-03 22:55:07 | 54.08772 | 13.55454 | 98° | 68km/h | 2966m | 3m/s | 3°C | 16.7% | 708.8hPa | 2.9V | 18:12:15 | 00:35:34 | 00:00:00 | |
| AA1-15 | 2026-09-03 22:54:55 | 54.08779 | 13.55176 | 97° | 71km/h | 2923m | 5.5m/s | 3.4°C | 15.7% | 712.5hPa | 2.9V | 18:12:15 | 00:35:23 | 00:00:00 | |
| AA1-15 | 2026-09-03 22:54:44 | 54.08809 | 13.54859 | 86° | 64km/h | 2868m | 4.2m/s | 3.5°C | 18% | 717.3hPa | 2.9V | 18:12:15 | 00:35:12 | 00:00:00 | |
| AA1-15 | 2026-09-03 22:54:34 | 54.08830 | 13.54600 | 99° | 69km/h | 2819m | 6.7m/s | 3.8°C | 7.1% | 721.9hPa | 2.9V | 18:12:15 | 00:35:02 | 00:00:00 | |
| AM1SDL-15 | 2026-09-03 22:54:28 | 54.08858 | 13.54432 | 103° | 73km/h | 2790m | 4.9m/s | 0°C | 0% | 0hPa | 2.9V | 00:00:00 | 00:34:56 | 00:00:00 | |
| DB0DAN | 2026-09-03 22:54:25 | 54.08863 | 13.54342 | 90° | 68km/h | 2776m | 5.9m/s | 3.9°C | 14% | 725.62hPa | 2.9V | 00:00:00 | 00:00:00 | 00:00:00 | |
| AA1-15 | 2026-09-03 22:54:23 | 54.08861 | 13.54282 | 86° | 69km/h | 2767m | 3.9m/s | 3.8°C | 21.2% | 726.5hPa | 2.9V | 18:12:15 | 00:34:51 | 00:00:00 | |
| AA1-15 | 2026-09-03 22:54:13 | 54.08867 | 13.53956 | 94° | 75km/h | 2719m | 6m/s | 3.8°C | 31.5% | 730.8hPa | 2.9V | 18:12:15 | 00:34:41 | 00:00:00 | |
| MECKS9 | 2026-09-03 22:54:12 | 54.08867 | 13.53956 | 95° | 75km/h | 2719m | 6.0m/s | 3.8°C | 0% | 730.8hPa | 2.9V | 00:00:00 | 00:00:00 | 00:00:00 | |
| DB0DAN | 2026-09-03 22:54:10 | 54.08872 | 13.53859 | 93° | 73km/h | 2703m | 6.6m/s | 3.8°C | 27.9% | 732.25hPa | 2.9V | 00:00:00 | 00:00:00 | 00:00:00 | |
| AA1-15 | 2026-09-03 22:54:02 | 54.08889 | 13.53640 | 101° | 69km/h | 2658m | 5.7m/s | 2.8°C | 56.3% | 736.2hPa | 2.9V | 18:12:15 | 00:34:30 | 00:00:00 | |
| DB0DAN | 2026-09-03 22:53:55 | 54.08898 | 13.53467 | 103° | 40km/h | 2620m | 3.8m/s | 2.7°C | 70.1% | 739.58hPa | 2.9V | 00:00:00 | 00:00:00 | 00:00:00 | |
| AA1-15 | 2026-09-03 22:53:52 | 54.08904 | 13.53412 | 96° | 47km/h | 2600m | 8.1m/s | 3°C | 68.6% | 741.4hPa | 2.9V | 18:12:15 | 00:34:20 | 00:00:00 | |
| AA1-15 | 2026-09-03 22:53:41 | 54.08919 | 13.53122 | 94° | 46km/h | 2541m | 5.6m/s | 3.3°C | 84% | 746.8hPa | 2.9V | 18:12:15 | 00:34:09 | 00:00:00 | |
| DB0DAN | 2026-09-03 22:53:40 | 54.08921 | 13.53103 | 99° | 44km/h | 2536m | 5.3m/s | 3.2°C | 81.9% | 747.48hPa | 2.9V | 00:00:00 | 00:00:00 | 00:00:00 | |
| AA1-15 | 2026-09-03 22:53:33 | 54.08965 | 13.52868 | 100° | 73km/h | 2482m | 5.8m/s | 2.8°C | 95.6% | 752.3hPa | 2.9V | 18:12:15 | 00:33:58 | 00:00:00 | |
| DB0DAN | 2026-09-03 22:53:25 | 54.08989 | 13.52724 | 111° | 57km/h | 2457m | 5.1m/s | 2.3°C | 98.7% | 754.69hPa | 2.9V | 00:00:00 | 00:00:00 | 00:00:00 | |
| AA1-15 | 2026-09-03 22:53:19 | 54.09000 | 13.52595 | 87° | 57km/h | 2430m | 3.7m/s | 2.4°C | 97.8% | 757.2hPa | 2.9V | 18:12:15 | 00:33:47 | 00:00:00 | |
| DB0DAN | 2026-09-03 22:53:10 | 54.09026 | 13.52368 | 107° | 44km/h | 2389m | 5.7m/s | 2.6°C | 100% | 760.9hPa | 2.9V | 00:00:00 | 00:00:00 | 00:00:00 | |
| AA1-15 | 2026-09-03 22:53:08 | 54.09031 | 13.52330 | 96° | 46km/h | 2379m | 4.7m/s | 2.7°C | 98.1% | 762hPa | 2.9V | 18:12:15 | 00:33:36 | 00:00:00 | |
| AA1-15 | 2026-09-03 22:52:58 | 54.09047 | 13.52061 | 92° | 68km/h | 2336m | 4.3m/s | 3°C | 98% | 766hPa | 2.9V | 18:12:15 | 00:33:26 | 00:00:00 | |
| AA1-15 | 2026-09-03 22:52:48 | 54.09053 | 13.51834 | 108° | 57km/h | 2271m | 4.1m/s | 3.3°C | 99.8% | 772.3hPa | 2.9V | 18:12:15 | 00:33:16 | 00:00:00 | |
| DB0DAN | 2026-09-03 22:52:40 | 54.09067 | 13.51616 | 83° | 55km/h | 2235m | 4.2m/s | 3.5°C | 99.8% | 775.72hPa | 2.9V | 00:00:00 | 00:00:00 | 00:00:00 | |
| AA1-15 | 2026-09-03 22:52:37 | 54.09063 | 13.51555 | 88° | 42km/h | 2223m | 4.6m/s | 3.6°C | 99.8% | 776.9hPa | 2.9V | 18:12:15 | 00:33:05 | 00:00:00 | |
| AA1-15 | 2026-09-03 22:52:26 | 54.09089 | 13.51306 | 86° | 58km/h | 2174m | 4.1m/s | 3.8°C | 99% | 781.6hPa | 2.9V | 18:12:15 | 00:32:54 | 00:00:00 | |
| DB0DAN | 2026-09-03 22:52:25 | 54.09088 | 13.51281 | 86° | 53km/h | 2170m | 4.1m/s | 3.9°C | 100% | 781.96hPa | 2.9V | 00:00:00 | 00:00:00 | 00:00:00 | |
| AA1-15 | 2026-09-03 22:52:15 | 54.09108 | 13.51075 | 108° | 64km/h | 2130m | 4.2m/s | 4°C | 98.6% | 786.1hPa | 2.9V | 18:12:15 | 00:32:43 | 00:00:00 | |
| DB0DAN | 2026-09-03 22:52:10 | 54.09116 | 13.50934 | 85° | 60km/h | 2109m | 5.3m/s | 4.2°C | 98.5% | 787.87hPa | 2.9V | 00:00:00 | 00:00:00 | 00:00:00 | |
| AA1-15 | 2026-09-03 22:52:05 | 54.09115 | 13.50825 | 101° | 46km/h | 2088m | 4.5m/s | 4.2°C | 97.6% | 790hPa | 2.9V | 18:12:15 | 00:32:33 | 00:00:00 | |
| AA1-15 | 2026-09-03 22:51:56 | 54.09133 | 13.50543 | 90° | 62km/h | 2046m | 4.4m/s | 4.4°C | 92.5% | 794.1hPa | 2.9V | 18:12:15 | 00:32:23 | 00:00:00 | |
| AA1-15 | 2026-09-03 22:51:45 | 54.09158 | 13.50278 | 92° | 75km/h | 1999m | 4.7m/s | 4.7°C | 89.3% | 798.5hPa | 2.9V | 18:12:15 | 00:32:13 | 00:00:00 | |
| AA1-15 | 2026-09-03 22:51:43 | 54.09156 | 13.50216 | 85° | 69km/h | 1990m | 4.6m/s | 4.8°C | 89% | 799.5hPa | 2.9V | 18:12:15 | 00:32:11 | 00:00:00 | |
| AA1-15 | 2026-09-03 22:51:42 | 54.09154 | 13.50187 | 84° | 64km/h | 1985m | 4.5m/s | 4.8°C | 89.4% | 799.9hPa | 2.9V | 18:12:15 | 00:32:10 | 00:00:00 | |
| AA1-15 | 2026-09-03 22:51:40 | 54.09151 | 13.50135 | 86° | 57km/h | 1977m | 4.1m/s | 4.9°C | 90.2% | 800.8hPa | 2.9V | 18:12:15 | 00:32:08 | 00:00:00 | |
| DB0DAN | 2026-09-03 22:51:40 | 54.09151 | 13.50135 | 86° | 53km/h | 1977m | 4.1m/s | 4.9°C | 89.2% | 800.75hPa | 2.9V | 00:00:00 | 00:00:00 | 00:00:00 | |
| AA1-15 | 2026-09-03 22:51:39 | 54.09151 | 13.50112 | 91° | 55km/h | 1973m | 4.2m/s | 4.9°C | 89.8% | 801hPa | 2.9V | 18:12:15 | 00:32:07 | 00:00:00 | |
| AA1-15 | 2026-09-03 22:51:37 | 54.09153 | 13.50065 | 98° | 57km/h | 1963m | 5.1m/s | 5°C | 89.3% | 802hPa | 2.9V | 18:12:15 | 00:32:05 | 00:00:00 | |
| AA1-15 | 2026-09-03 22:51:36 | 54.09156 | 13.50040 | 102° | 60km/h | 1958m | 4.3m/s | 5°C | 87.5% | 802.5hPa | 2.9V | 18:12:15 | 00:32:04 | 00:00:00 | |
| AA1-15 | 2026-09-03 22:51:34 | 54.09163 | 13.49984 | 103° | 71km/h | 1949m | 4.6m/s | 5.1°C | 86.7% | 803.3hPa | 2.9V | 18:12:15 | 00:32:02 | 00:00:00 | |
| AA1-15 | 2026-09-03 22:51:33 | 54.09166 | 13.49953 | 100° | 75km/h | 1945m | 3.8m/s | 5.2°C | 86.6% | 803.8hPa | 2.9V | 18:12:15 | 00:32:01 | 00:00:00 | |
| AA1-15 | 2026-09-03 22:51:31 | 54.09174 | 13.49887 | 102° | 78km/h | 1935m | 4.9m/s | 5.2°C | 86.4% | 804.8hPa | 2.9V | 18:12:15 | 00:31:59 | 00:00:00 | |
| AA1-15 | 2026-09-03 22:51:30 | 54.09178 | 13.49855 | 101° | 77km/h | 1931m | 4.6m/s | 5.2°C | 85.7% | 805.2hPa | 2.9V | 18:12:15 | 00:31:58 | 00:00:00 | |
| AA1-15 | 2026-09-03 22:51:28 | 54.09185 | 13.49793 | 101° | 68km/h | 1921m | 4.2m/s | 5.3°C | 84.9% | 806hPa | 2.9V | 18:12:15 | 00:31:56 | 00:00:00 | |
| AA1-15 | 2026-09-03 22:51:27 | 54.09188 | 13.49765 | 96° | 64km/h | 1917m | 4m/s | 5.3°C | 85% | 806.7hPa | 2.9V | 18:12:15 | 00:31:55 | 00:00:00 | |
| AA1-15 | 2026-09-03 22:51:25 | 54.09189 | 13.49711 | 87° | 64km/h | 1909m | 3.9m/s | 5.4°C | 85.9% | 807.3hPa | 2.9V | 18:12:15 | 00:31:53 | 00:00:00 | |
| DB0DAN | 2026-09-03 22:51:25 | 54.09189 | 13.49711 | 87° | 60km/h | 1909m | 3.9m/s | 5.4°C | 85.5% | 807.34hPa | 2.9V | 00:00:00 | 00:00:00 | 00:00:00 | |
| AA1-15 | 2026-09-03 22:51:23 | 54.09186 | 13.49655 | 84° | 71km/h | 1901m | 4m/s | 5.4°C | 86.5% | 808.1hPa | 2.9V | 18:12:15 | 00:31:51 | 00:00:00 | |
| AA1-15 | 2026-09-03 22:51:23 | 54.09185 | 13.49624 | 87° | 75km/h | 1897m | 3.8m/s | 5.4°C | 85.9% | 808.5hPa | 2.9V | 18:12:15 | 00:31:50 | 00:00:00 | |
| AA1-15 | 2026-09-03 22:51:21 | 54.09184 | 13.49591 | 91° | 78km/h | 1893m | 4.6m/s | 5.4°C | 85.9% | 808.9hPa | 2.9V | 18:12:15 | 00:31:49 | 00:00:00 | |
| AA1-15 | 2026-09-03 22:51:19 | 54.09188 | 13.49524 | 99° | 78km/h | 1882m | 4.9m/s | 5.5°C | 85.9% | 809.9hPa | 2.9V | 18:12:15 | 00:31:47 | 00:00:00 | |
| AA1-15 | 2026-09-03 22:51:18 | 54.09195 | 13.49462 | 102° | 69km/h | 1872m | 6m/s | 5.6°C | 86.4% | 810.9hPa | 2.9V | 18:12:15 | 00:31:45 | 00:00:00 | |
| AA1-15 | 2026-09-03 22:51:17 | 54.09198 | 13.49434 | 95° | 62km/h | 1867m | 4.2m/s | 5.6°C | 86.6% | 811.4hPa | 2.9V | 18:12:15 | 00:31:44 | 00:00:00 | |
| AA1-15 | 2026-09-03 22:51:14 | 54.09199 | 13.49380 | 88° | 62km/h | 1858m | 5.2m/s | 5.7°C | 87.7% | 812.2hPa | 2.9V | 18:12:15 | 00:31:42 | 00:00:00 | |
| AA1-15 | 2026-09-03 22:51:13 | 54.09198 | 13.49353 | 86° | 62km/h | 1852m | 5.9m/s | 5.8°C | 87.5% | 812.9hPa | 2.9V | 18:12:15 | 00:31:41 | 00:00:00 | |
| AA1-15 | 2026-09-03 22:51:11 | 54.09197 | 13.49301 | 91° | 60km/h | 1839m | 5.9m/s | 5.9°C | 86.1% | 814hPa | 2.9V | 18:12:15 | 00:31:39 | 00:00:00 | |
| AA1-15 | 2026-09-03 22:51:10 | 54.09197 | 13.49275 | 95° | 60km/h | 1834m | 3.8m/s | 5.9°C | 85.1% | 814.7hPa | 2.9V | 18:12:15 | 00:31:38 | 00:00:00 | |
| DB0DAN | 2026-09-03 22:51:10 | 54.09197 | 13.49275 | 95° | 58km/h | 1834m | 3.8m/s | 5.9°C | 84.3% | 814.68hPa | 2.9V | 00:00:00 | 00:00:00 | 00:00:00 | |
| AA1-15 | 2026-09-03 22:51:08 | 54.09203 | 13.49222 | 104° | 64km/h | 1826m | 4.9m/s | 6°C | 85.5% | 815.5hPa | 2.9V | 18:12:15 | 00:31:36 | 00:00:00 | |
| AA1-15 | 2026-09-03 22:51:06 | 54.09212 | 13.49164 | 105° | 75km/h | 1816m | 4.1m/s | 6.1°C | 84.1% | 816.5hPa | 2.9V | 18:12:15 | 00:31:34 | 00:00:00 | |
| AA1-15 | 2026-09-03 22:51:05 | 54.09216 | 13.49131 | 101° | 78km/h | 1813m | 3m/s | 6.1°C | 84.6% | 816.9hPa | 2.9V | 18:12:15 | 00:31:33 | 00:00:00 | |
| AA1-15 | 2026-09-03 22:51:03 | 54.09224 | 13.49062 | 100° | 82km/h | 1805m | 4.2m/s | 6.2°C | 84.7% | 817.6hPa | 2.9V | 18:12:15 | 00:31:31 | 00:00:00 | |
| AA1-15 | 2026-09-03 22:51:01 | 54.09232 | 13.48991 | 100° | 84km/h | 1797m | 3.6m/s | 6.2°C | 84% | 818.5hPa | 2.9V | 18:12:15 | 00:31:29 | 00:00:00 | |
| AA1-15 | 2026-09-03 22:50:59 | 54.09240 | 13.48922 | 103° | 77km/h | 1789m | 3.6m/s | 6.3°C | 83.7% | 819.1hPa | 2.9V | 18:12:15 | 00:31:27 | 00:00:00 | |
| AA1-15 | 2026-09-03 22:50:57 | 54.09250 | 13.48859 | 105° | 71km/h | 1780m | 3.7m/s | 6.4°C | 83.4% | 820hPa | 2.9V | 18:12:15 | 00:31:25 | 00:00:00 | |
| AA1-15 | 2026-09-03 22:50:55 | 54.09260 | 13.48802 | 105° | 68km/h | 1774m | 3.4m/s | 6.5°C | 82.9% | 820.8hPa | 2.9V | 18:12:15 | 00:31:23 | 00:00:00 | |
| DB0DAN | 2026-09-03 22:50:55 | 54.09260 | 13.48802 | 105° | 64km/h | 1774m | 3.4m/s | 0°C | 0% | 820.75hPa | 2.9V | 00:00:00 | 00:00:00 | 00:00:00 | |
| AA1-15 | 2026-09-03 22:50:54 | 54.09264 | 13.48773 | 101° | 71km/h | 1770m | 3.9m/s | 6.5°C | 83.3% | 821hPa | 2.9V | 18:12:15 | 00:31:22 | 00:00:00 | |
| AA1-15 | 2026-09-03 22:50:53 | 54.09267 | 13.48742 | 99° | 75km/h | 1765m | 5m/s | 6.5°C | 83.8% | 821.6hPa | 2.9V | 18:12:15 | 00:31:21 | 00:00:00 | |
| AA1-15 | 2026-09-03 22:50:51 | 54.09272 | 13.48674 | 92° | 84km/h | 1756m | 4m/s | 6.6°C | 84.7% | 822.4hPa | 2.9V | 18:12:15 | 00:31:19 | 00:00:00 | |
| AA1-15 | 2026-09-03 22:50:51 | 54.09272 | 13.48638 | 90° | 86km/h | 1752m | 5.5m/s | 6.6°C | 84.9% | 822.8hPa | 2.9V | 18:12:15 | 00:31:18 | 00:00:00 | |
| AA1-15 | 2026-09-03 22:50:48 | 54.09271 | 13.48567 | 88° | 78km/h | 1742m | 3.7m/s | 6.7°C | 83.6% | 824hPa | 2.9V | 18:12:15 | 00:31:16 | 00:00:00 | |
| AA1-15 | 2026-09-03 22:50:46 | 54.09268 | 13.48503 | 86° | 71km/h | 1735m | 4.5m/s | 6.8°C | 82.8% | 824.5hPa | 2.9V | 18:12:15 | 00:31:14 | 00:00:00 | |
| AA1-15 | 2026-09-03 22:50:44 | 54.09268 | 13.48446 | 93° | 62km/h | 1726m | 4.5m/s | 6.9°C | 82% | 825.5hPa | 2.9V | 18:12:15 | 00:31:12 | 00:00:00 | |
| AA1-15 | 2026-09-03 22:50:44 | 54.09269 | 13.48419 | 98° | 62km/h | 1721m | 5.2m/s | 6.9°C | 81.5% | 826hPa | 2.9V | 18:12:15 | 00:31:11 | 00:00:00 | |
| AA1-15 | 2026-09-03 22:50:42 | 54.09272 | 13.48392 | 103° | 64km/h | 1716m | 4.7m/s | 7°C | 81% | 826.5hPa | 2.9V | 18:12:15 | 00:31:10 | 00:00:00 | |
| AA1-15 | 2026-09-03 22:50:40 | 54.09282 | 13.48332 | 106° | 75km/h | 1707m | 3.5m/s | 6.8°C | 81.7% | 827.4hPa | 2.9V | 18:12:15 | 00:31:08 | 00:00:00 | |
| DB0DAN | 2026-09-03 22:50:40 | 54.09282 | 13.48332 | 106° | 71km/h | 1707m | 3.5m/s | 0°C | 0% | 0hPa | 2.9V | 00:00:00 | 00:00:00 | 00:00:00 | |
| AA1-15 | 2026-09-03 22:50:39 | 54.09287 | 13.48300 | 105° | 80km/h | 1703m | 2.9m/s | 6.8°C | 82.9% | 827.7hPa | 2.9V | 18:12:15 | 00:31:07 | 00:00:00 | |
| AA1-15 | 2026-09-03 22:50:37 | 54.09295 | 13.48230 | 98° | 84km/h | 1697m | 3m/s | 6.8°C | 84.5% | 828.5hPa | 2.9V | 18:12:15 | 00:31:05 | 00:00:00 | |
| AA1-15 | 2026-09-03 22:50:35 | 54.09300 | 13.48158 | 96° | 86km/h | 1691m | 3.8m/s | 6.8°C | 85.2% | 829.1hPa | 2.9V | 18:12:15 | 00:31:03 | 00:00:00 | |
| AA1-15 | 2026-09-03 22:50:34 | 54.09301 | 13.48122 | 93° | 82km/h | 1687m | 3.3m/s | 6.7°C | 86.5% | 829.5hPa | 2.9V | 18:12:15 | 00:31:02 | 00:00:00 | |
| AA1-15 | 2026-09-03 22:50:32 | 54.09302 | 13.48053 | 87° | 77km/h | 1679m | 4.9m/s | 6.7°C | 86.9% | 830.3hPa | 2.9V | 18:12:15 | 00:31:00 | 00:00:00 | |
| AA1-15 | 2026-09-03 22:50:30 | 54.09300 | 13.47991 | 86° | 68km/h | 1671m | 3.7m/s | 6.7°C | 87.4% | 831.4hPa | 2.9V | 18:12:15 | 00:30:58 | 00:00:00 | |
| AA1-15 | 2026-09-03 22:50:29 | 54.09299 | 13.47963 | 89° | 64km/h | 1667m | 4.4m/s | 6.7°C | 86.7% | 831.7hPa | 2.9V | 18:12:15 | 00:30:57 | 00:00:00 | |
| AA1-15 | 2026-09-03 22:50:28 | 54.09299 | 13.47936 | 93° | 60km/h | 1662m | 4.4m/s | 6.7°C | 86.6% | 832.2hPa | 2.9V | 18:12:15 | 00:30:56 | 00:00:00 | |
| AA1-15 | 2026-09-03 22:50:26 | 54.09304 | 13.47887 | 103° | 58km/h | 1653m | 4.6m/s | 6.8°C | 86.2% | 832.9hPa | 2.9V | 18:12:15 | 00:30:54 | 00:00:00 | |
| AA1-15 | 2026-09-03 22:50:25 | 54.09308 | 13.47862 | 107° | 60km/h | 1648m | 5.6m/s | 6.8°C | 86.1% | 833.5hPa | 2.9V | 18:12:15 | 00:30:53 | 00:00:00 | |
| DB0DAN | 2026-09-03 22:50:25 | 54.09308 | 13.47862 | 107° | 58km/h | 1648m | 5.6m/s | 0°C | 0% | 0hPa | 2.9V | 00:00:00 | 00:00:00 | 00:00:00 | |
| AA1-15 | 2026-09-03 22:50:23 | 54.09318 | 13.47807 | 108° | 73km/h | 1638m | 4.3m/s | 6.9°C | 86.9% | 834.4hPa | 2.9V | 18:12:15 | 00:30:51 | 00:00:00 | |
| AA1-15 | 2026-09-03 22:50:21 | 54.09329 | 13.47745 | 103° | 77km/h | 1629m | 4m/s | 7°C | 87.4% | 835.3hPa | 2.9V | 18:12:15 | 00:30:49 | 00:00:00 | |
| AA1-15 | 2026-09-03 22:50:20 | 54.09333 | 13.47711 | 102° | 82km/h | 1625m | 5.5m/s | 7°C | 87.5% | 835.8hPa | 2.9V | 18:12:15 | 00:30:48 | 00:00:00 | |
| AA1-15 | 2026-09-03 22:50:18 | 54.09342 | 13.47576 | 95° | 80km/h | 1609m | 5.1m/s | 7.1°C | 87.7% | 837.3hPa | 2.9V | 18:12:15 | 00:30:44 | 00:00:00 | |
| AA1-15 | 2026-09-03 22:50:18 | 54.09344 | 13.47541 | 98° | 80km/h | 1603m | 5.9m/s | 7.2°C | 87.8% | 837.9hPa | 2.9V | 18:12:15 | 00:30:43 | 00:00:00 | |
| AA1-15 | 2026-09-03 22:50:13 | 54.09352 | 13.47474 | 106° | 77km/h | 1593m | 4.8m/s | 7.3°C | 86.8% | 838.9hPa | 2.9V | 18:12:15 | 00:30:41 | 00:00:00 | |
| AA1-15 | 2026-09-03 22:50:12 | 54.09358 | 13.47444 | 107° | 73km/h | 1587m | 6m/s | 7.3°C | 86.5% | 839.5hPa | 2.9V | 18:12:15 | 00:30:40 | 00:00:00 | |
| AA1-15 | 2026-09-03 22:50:10 | 54.09367 | 13.47389 | 104° | 60km/h | 1576m | 4.6m/s | 7.4°C | 86.8% | 840.6hPa | 2.9V | 18:12:15 | 00:30:38 | 00:00:00 | |
| DB0DAN | 2026-09-03 22:50:10 | 54.09367 | 13.47389 | 104° | 58km/h | 1576m | 4.6m/s | 0°C | 0% | 0hPa | 2.9V | 00:00:00 | 00:00:00 | 00:00:00 | |
| AA1-15 | 2026-09-03 22:50:09 | 54.09370 | 13.47364 | 98° | 58km/h | 1571m | 5.8m/s | 7.5°C | 87.4% | 841.1hPa | 2.9V | 18:12:15 | 00:30:37 | 00:00:00 | |
| AA1-15 | 2026-09-03 22:50:07 | 54.09372 | 13.47311 | 90° | 64km/h | 1561m | 4.1m/s | 7.5°C | 87% | 842.3hPa | 2.9V | 18:12:15 | 00:30:35 | 00:00:00 | |
| AA1-15 | 2026-09-03 22:50:06 | 54.09372 | 13.47282 | 91° | 68km/h | 1557m | 4.5m/s | 7.6°C | 86.4% | 842.9hPa | 2.9V | 18:12:15 | 00:30:34 | 00:00:00 | |
| AA1-15 | 2026-09-03 22:50:04 | 54.09373 | 13.47221 | 92° | 73km/h | 1549m | 3.8m/s | 7.7°C | 85.1% | 843.6hPa | 2.9V | 18:12:15 | 00:30:32 | 00:00:00 | |
| AA1-15 | 2026-09-03 22:50:03 | 54.09374 | 13.47189 | 94° | 75km/h | 1545m | 3.9m/s | 7.7°C | 84.4% | 844hPa | 2.9V | 18:12:15 | 00:30:31 | 00:00:00 | |
| AA1-15 | 2026-09-03 22:50:01 | 54.09379 | 13.47127 | 102° | 71km/h | 1537m | 4.3m/s | 7.8°C | 84.4% | 845hPa | 2.9V | 18:12:15 | 00:30:29 | 00:00:00 | |
| AA1-15 | 2026-09-03 22:50:00 | 54.09383 | 13.47098 | 104° | 68km/h | 1533m | 5.1m/s | 7.8°C | 84.5% | 845.4hPa | 2.9V | 18:12:15 | 00:30:28 | 00:00:00 | |
| AA1-15 | 2026-09-03 22:49:58 | 54.09392 | 13.47045 | 109° | 60km/h | 1522m | 5.2m/s | 7.9°C | 84.8% | 0hPa | 2.9V | 18:12:15 | 00:30:26 | 00:00:00 | |
| AA1-15 | 2026-09-03 22:49:56 | 54.09401 | 13.46998 | 106° | 57km/h | 1512m | 4.3m/s | 8°C | 85% | 0hPa | 2.9V | 18:12:15 | 00:30:24 | 00:00:00 | |
| AA1-15 | 2026-09-03 22:49:54 | 54.09409 | 13.46949 | 107° | 66km/h | 1501m | 5.5m/s | 8°C | 85.2% | 0hPa | 2.9V | 18:12:15 | 00:30:22 | 00:00:00 | |
| AA1-15 | 2026-09-03 22:49:51 | 54.09426 | 13.46858 | 105° | 78km/h | 1488m | 4.5m/s | 8.1°C | 85.2% | 0hPa | 2.9V | 18:12:15 | 00:30:19 | 00:00:00 | |
| AA1-15 | 2026-09-03 22:49:49 | 54.09433 | 13.46792 | 97° | 77km/h | 1479m | 4.1m/s | 8.2°C | 84.2% | 0hPa | 2.9V | 18:12:15 | 00:30:17 | 00:00:00 | |
| AA1-15 | 2026-09-03 22:49:47 | 54.09436 | 13.46731 | 92° | 64km/h | 1470m | 4.5m/s | 8.3°C | 84.7% | 0hPa | 2.9V | 18:12:15 | 00:30:15 | 00:00:00 | |
| AA1-15 | 2026-09-03 22:49:46 | 54.09437 | 13.46705 | 94° | 60km/h | 1466m | 5m/s | 8.3°C | 84.8% | 0hPa | 2.9V | 18:12:15 | 00:30:14 | 00:00:00 | |
| AA1-15 | 2026-09-03 22:49:44 | 54.09442 | 13.46635 | 104° | 55km/h | 1449m | 4.7m/s | 8.4°C | 85.2% | 0hPa | 2.9V | 18:12:15 | 00:30:11 | 00:00:00 | |
| AA1-15 | 2026-09-03 22:49:44 | 54.09446 | 13.46612 | 108° | 60km/h | 1444m | 4.5m/s | 8.4°C | 85.7% | 0hPa | 2.9V | 18:12:15 | 00:30:10 | 00:00:00 | |
| AA1-15 | 2026-09-03 22:49:40 | 54.09457 | 13.46560 | 113° | 69km/h | 1433m | 6.4m/s | 8.5°C | 86.6% | 0hPa | 2.9V | 18:12:15 | 00:30:08 | 00:00:00 | |
| AA1-15 | 2026-09-03 22:49:39 | 54.09464 | 13.46532 | 111° | 71km/h | 1427m | 6.1m/s | 8.5°C | 86% | 0hPa | 2.9V | 18:12:15 | 00:30:07 | 00:00:00 | |
| AA1-15 | 2026-09-03 22:49:37 | 54.09475 | 13.46470 | 105° | 77km/h | 1417m | 4.5m/s | 8.6°C | 86.3% | 0hPa | 2.9V | 18:12:15 | 00:30:05 | 00:00:00 | |
| AA1-15 | 2026-09-03 22:49:36 | 54.09479 | 13.46437 | 101° | 78km/h | 1412m | 4.9m/s | 8.7°C | 85.8% | 0hPa | 2.9V | 18:12:15 | 00:30:04 | 00:00:00 | |
| AA1-15 | 2026-09-03 22:49:34 | 54.09486 | 13.46372 | 99° | 78km/h | 1405m | 4.4m/s | 8.7°C | 85.9% | 0hPa | 2.9V | 18:12:15 | 00:30:02 | 00:00:00 | |
| AA1-15 | 2026-09-03 22:49:33 | 54.09489 | 13.46339 | 98° | 77km/h | 1400m | 4.4m/s | 8.8°C | 85.5% | 0hPa | 2.9V | 18:12:15 | 00:30:01 | 00:00:00 | |
| AA1-15 | 2026-09-03 22:49:31 | 54.09495 | 13.46273 | 100° | 77km/h | 1390m | 4.5m/s | 8.9°C | 84% | 0hPa | 2.9V | 18:12:15 | 00:29:59 | 00:00:00 | |
| AA1-15 | 2026-09-03 22:49:30 | 54.09499 | 13.46241 | 102° | 77km/h | 1386m | 4.3m/s | 8.9°C | 82.9% | 0hPa | 2.9V | 18:12:15 | 00:29:58 | 00:00:00 | |
| AA1-15 | 2026-09-03 22:49:29 | 54.09503 | 13.46210 | 104° | 73km/h | 1382m | 4.3m/s | 8.9°C | 82.2% | 0hPa | 2.9V | 18:12:15 | 00:29:57 | 00:00:00 | |
| AA1-15 | 2026-09-03 22:49:27 | 54.09513 | 13.46153 | 106° | 62km/h | 1373m | 4.5m/s | 9°C | 82.9% | 0hPa | 2.9V | 18:12:15 | 00:29:55 | 00:00:00 | |
| AA1-15 | 2026-09-03 22:49:26 | 54.09516 | 13.46129 | 101° | 57km/h | 1369m | 4.4m/s | 9°C | 83.1% | 0hPa | 2.9V | 18:12:15 | 00:29:54 | 00:00:00 | |
| AA1-15 | 2026-09-03 22:49:24 | 54.09520 | 13.46081 | 92° | 55km/h | 1361m | 4.7m/s | 9.1°C | 0% | 0hPa | 2.9V | 18:12:15 | 00:29:52 | 00:00:00 | |
| AA1-15 | 2026-09-03 22:49:22 | 54.09520 | 13.46033 | 94° | 57km/h | 1351m | 5.5m/s | 0°C | 0% | 0hPa | 2.9V | 18:12:15 | 00:29:50 | 00:00:00 | |
| AA1-15 | 2026-09-03 22:49:20 | 54.09525 | 13.45985 | 104° | 57km/h | 1339m | 6.6m/s | 0°C | 0% | 0hPa | 2.9V | 18:12:15 | 00:29:48 | 00:00:00 | |
| AA1-15 | 2026-09-03 22:49:16 | 54.09545 | 13.45890 | 112° | 60km/h | 1312m | 5.8m/s | 0°C | 0% | 0hPa | 2.9V | 18:12:15 | 00:29:44 | 00:00:00 | |
| AA1-15 | 2026-09-03 22:49:16 | 54.09550 | 13.45866 | 109° | 60km/h | 1307m | 5m/s | 0°C | 0% | 0hPa | 2.9V | 18:12:15 | 00:29:43 | 00:00:00 | |
| AA1-15 | 2026-09-03 22:49:10 | 54.09570 | 13.45744 | 105° | 64km/h | 1281m | 3.8m/s | 0°C | 0% | 0hPa | 2.9V | 18:12:15 | 00:29:38 | 00:00:00 | |
| AA1-15 | 2026-09-03 22:49:08 | 54.09576 | 13.45688 | 96° | 68km/h | 1271m | 5.2m/s | 0°C | 0% | 0hPa | 2.9V | 18:12:15 | 00:29:36 | 00:00:00 | |
| AA1-15 | 2026-09-03 22:49:07 | 54.09577 | 13.45660 | 94° | 66km/h | 1266m | 5.5m/s | 0°C | 0% | 0hPa | 2.9V | 18:12:15 | 00:29:35 | 00:00:00 | |
| AA1-15 | 2026-09-03 22:49:06 | 54.09578 | 13.45633 | 93° | 60km/h | 1260m | 6.1m/s | 0°C | 0% | 0hPa | 2.9V | 18:12:15 | 00:29:34 | 00:00:00 | |
| AA1-15 | 2026-09-03 22:49:03 | 54.09584 | 13.45563 | 105° | 51km/h | 1245m | 5.4m/s | 0°C | 0% | 0hPa | 2.9V | 18:12:15 | 00:29:31 | 00:00:00 | |
| AA1-15 | 2026-09-03 22:49:02 | 54.09588 | 13.45541 | 110° | 55km/h | 1241m | 3.4m/s | 0°C | 0% | 0hPa | 2.9V | 18:12:15 | 00:29:30 | 00:00:00 | |
| AA1-15 | 2026-09-03 22:49:01 | 54.09593 | 13.45520 | 115° | 55km/h | 1237m | 4.4m/s | 0°C | 0% | 0hPa | 2.9V | 18:12:15 | 00:29:29 | 00:00:00 | |
| AA1-15 | 2026-09-03 22:48:59 | 54.09606 | 13.45474 | 118° | 60km/h | 1228m | 4.2m/s | 0°C | 0% | 0hPa | 2.9V | 18:12:15 | 00:29:27 | 00:00:00 | |
| AA1-15 | 2026-09-03 22:48:58 | 54.09613 | 13.45450 | 116° | 66km/h | 1224m | 4.4m/s | 0°C | 0% | 0hPa | 2.9V | 18:12:15 | 00:29:26 | 00:00:00 | |
| AA1-15 | 2026-09-03 22:48:53 | 54.09638 | 13.45309 | 95° | 68km/h | 1202m | 4.4m/s | 0°C | 0% | 0hPa | 2.9V | 18:12:15 | 00:29:21 | 00:00:00 | |
| AA1-15 | 2026-09-03 22:48:50 | 54.09641 | 13.45229 | 96° | 55km/h | 1188m | 4m/s | 0°C | 0% | 0hPa | 2.9V | 18:12:15 | 00:29:18 | 00:00:00 | |
| AA1-15 | 2026-09-03 22:48:48 | 54.09645 | 13.45184 | 104° | 53km/h | 1179m | 4.7m/s | 0°C | 0% | 0hPa | 2.9V | 18:12:15 | 00:29:16 | 00:00:00 | |
| AA1-15 | 2026-09-03 22:48:47 | 54.09649 | 13.45162 | 107° | 49km/h | 1175m | 3.9m/s | 0°C | 0% | 0hPa | 2.9V | 18:12:15 | 00:29:15 | 00:00:00 | |
| AA1-15 | 2026-09-03 22:48:45 | 54.09657 | 13.45122 | 106° | 49km/h | 1167m | 3.8m/s | 0°C | 0% | 0hPa | 2.9V | 18:12:15 | 00:29:13 | 00:00:00 | |
| AA1-15 | 2026-09-03 22:48:38 | 54.09678 | 13.44951 | 109° | 69km/h | 1137m | 4.2m/s | 0°C | 0% | 0hPa | 2.9V | 18:12:15 | 00:29:06 | 00:00:00 | |
| AA1-15 | 2026-09-03 22:48:12 | 54.09781 | 13.44242 | 103° | 71km/h | 1007m | 4.9m/s | 0°C | 0% | 0hPa | 2.9V | 18:12:15 | 00:28:39 | 00:00:00 | |
| AA1-15 | 2026-09-03 22:48:07 | 54.09790 | 13.44137 | 94° | 53km/h | 988m | 5.3m/s | 0°C | 0% | 0hPa | 2.9V | 18:12:15 | 00:28:35 | 00:00:00 | |
| AA1-15 | 2026-09-03 22:48:06 | 54.09791 | 13.44115 | 94° | 47km/h | 983m | 6.7m/s | 0°C | 0% | 0hPa | 2.9V | 18:12:15 | 00:28:34 | 00:00:00 | |
| AA1-15 | 2026-09-03 22:48:04 | 54.09794 | 13.44077 | 105° | 46km/h | 971m | 4.2m/s | 0°C | 0% | 0hPa | 2.9V | 18:12:15 | 00:28:32 | 00:00:00 | |
| AA1-15 | 2026-09-03 22:48:04 | 54.09798 | 13.44059 | 111° | 44km/h | 967m | 3.7m/s | 0°C | 0% | 0hPa | 2.9V | 18:12:15 | 00:28:31 | 00:00:00 | |
| AA1-15 | 2026-09-03 22:48:00 | 54.09813 | 13.43999 | 116° | 55km/h | 953m | 4.7m/s | 0°C | 0% | 0hPa | 2.9V | 18:12:15 | 00:28:28 | 00:00:00 | |
| AA1-15 | 2026-09-03 22:47:58 | 54.09826 | 13.43952 | 112° | 62km/h | 943m | 4.1m/s | 0°C | 0% | 0hPa | 2.9V | 18:12:15 | 00:28:26 | 00:00:00 | |
| AA1-15 | 2026-09-03 22:47:56 | 54.09837 | 13.43899 | 106° | 68km/h | 934m | 4.7m/s | 0°C | 0% | 0hPa | 2.9V | 18:12:15 | 00:28:24 | 00:00:00 | |
| AA1-15 | 2026-09-03 22:47:52 | 54.09852 | 13.43781 | 96° | 69km/h | 916m | 5.2m/s | 0°C | 0% | 0hPa | 2.9V | 18:12:15 | 00:28:20 | 00:00:00 | |
| AA1-15 | 2026-09-03 22:47:51 | 54.09853 | 13.43752 | 94° | 66km/h | 911m | 4.4m/s | 0°C | 0% | 0hPa | 2.9V | 18:12:15 | 00:28:19 | 00:00:00 | |
| AA1-15 | 2026-09-03 22:47:49 | 54.09855 | 13.43701 | 94° | 55km/h | 902m | 5.8m/s | 0°C | 0% | 0hPa | 2.9V | 18:12:15 | 00:28:17 | 00:00:00 | |
| AA1-15 | 2026-09-03 22:47:48 | 54.09856 | 13.43678 | 96° | 49km/h | 896m | 5.9m/s | 0°C | 0% | 0hPa | 2.9V | 18:12:15 | 00:28:16 | 00:00:00 |